<?xml version="1.0" encoding="UTF-8" standalone="no" ?>
<gpx xmlns="http://www.topografix.com/GPX/1/1" xmlns:xsi="http://www.w3.org/2001/XMLSchema-instance" xsi:schemaLocation="http://www.topografix.com/GPX/1/1 http://www.topografix.com/GPX/1/1/gpx.xsd" version="1.1" creator="VisuGPX - https://www.visugpx.com">
  <metadata>
    <name>Pont de Cros - Ferion - Plan du Var</name>
    <desc><![CDATA[avec une courte navette entre plan du var et pont de cros (ou pas), superbe rando panoramique avec un final extra en epingles dans la descente sur plan-du-var. A l\'arrivée le sentier est bloqué par des filets de protection, il faut filer vers la maison à droite du vallon via les restanques .]]></desc>
  </metadata>
  <trk>
    <name><![CDATA[Pont de Cros - Ferion - Plan du Var_1]]></name>
    <trkseg>
      <trkpt lat="43.87972" lon="7.2335">
        <ele>198.772614</ele>
        <time>2015-05-02T06:54:54Z</time>
      </trkpt>
      <trkpt lat="43.87972" lon="7.2335">
        <ele>198</ele>
        <time>2015-05-02T06:54:53Z</time>
      </trkpt>
      <trkpt lat="43.87965" lon="7.2334">
        <ele>199</ele>
        <time>2015-05-02T06:55:13Z</time>
      </trkpt>
      <trkpt lat="43.87954" lon="7.2332">
        <ele>199</ele>
        <time>2015-05-02T06:55:21Z</time>
      </trkpt>
      <trkpt lat="43.87948" lon="7.23304">
        <ele>200</ele>
        <time>2015-05-02T06:55:25Z</time>
      </trkpt>
      <trkpt lat="43.87941" lon="7.23285">
        <ele>199</ele>
        <time>2015-05-02T06:55:29Z</time>
      </trkpt>
      <trkpt lat="43.87936" lon="7.23269">
        <ele>199</ele>
        <time>2015-05-02T06:55:33Z</time>
      </trkpt>
      <trkpt lat="43.87931" lon="7.23242">
        <ele>198</ele>
        <time>2015-05-02T06:55:41Z</time>
      </trkpt>
      <trkpt lat="43.87929" lon="7.23217">
        <ele>196</ele>
        <time>2015-05-02T06:55:45Z</time>
      </trkpt>
      <trkpt lat="43.87923" lon="7.23193">
        <ele>195</ele>
        <time>2015-05-02T06:55:49Z</time>
      </trkpt>
      <trkpt lat="43.87919" lon="7.23171">
        <ele>192</ele>
        <time>2015-05-02T06:55:53Z</time>
      </trkpt>
      <trkpt lat="43.87917" lon="7.23158">
        <ele>191</ele>
        <time>2015-05-02T06:55:57Z</time>
      </trkpt>
      <trkpt lat="43.87913" lon="7.23143">
        <ele>188</ele>
        <time>2015-05-02T06:56:09Z</time>
      </trkpt>
      <trkpt lat="43.87901" lon="7.23135">
        <ele>187</ele>
        <time>2015-05-02T06:56:21Z</time>
      </trkpt>
      <trkpt lat="43.87892" lon="7.23131">
        <ele>186</ele>
        <time>2015-05-02T06:56:29Z</time>
      </trkpt>
      <trkpt lat="43.87879" lon="7.23135">
        <ele>187</ele>
        <time>2015-05-02T06:56:41Z</time>
      </trkpt>
      <trkpt lat="43.8787" lon="7.23134">
        <ele>188.3</ele>
        <time>2015-05-02T06:57:23Z</time>
      </trkpt>
      <trkpt lat="43.87863" lon="7.23142">
        <ele>189.4</ele>
        <time>2015-05-02T06:58:35Z</time>
      </trkpt>
      <trkpt lat="43.87853" lon="7.23142">
        <ele>190</ele>
        <time>2015-05-02T06:59:34Z</time>
      </trkpt>
      <trkpt lat="43.87844" lon="7.23142">
        <ele>189</ele>
        <time>2015-05-02T06:59:42Z</time>
      </trkpt>
      <trkpt lat="43.87844" lon="7.23155">
        <ele>189.7</ele>
        <time>2015-05-02T06:59:53Z</time>
      </trkpt>
      <trkpt lat="43.87845" lon="7.23168">
        <ele>191</ele>
        <time>2015-05-02T07:00:04Z</time>
      </trkpt>
      <trkpt lat="43.87845" lon="7.23181">
        <ele>194.3</ele>
        <time>2015-05-02T07:00:28Z</time>
      </trkpt>
      <trkpt lat="43.87847" lon="7.23193">
        <ele>196.7</ele>
        <time>2015-05-02T07:00:47Z</time>
      </trkpt>
      <trkpt lat="43.8784" lon="7.23183">
        <ele>202.3</ele>
        <time>2015-05-02T07:01:13Z</time>
      </trkpt>
      <trkpt lat="43.87833" lon="7.23176">
        <ele>202.7</ele>
        <time>2015-05-02T07:01:21Z</time>
      </trkpt>
      <trkpt lat="43.87826" lon="7.23166">
        <ele>205.5</ele>
        <time>2015-05-02T07:01:31Z</time>
      </trkpt>
      <trkpt lat="43.8782" lon="7.23155">
        <ele>206.4</ele>
        <time>2015-05-02T07:01:42Z</time>
      </trkpt>
      <trkpt lat="43.87815" lon="7.23144">
        <ele>207.8</ele>
        <time>2015-05-02T07:01:52Z</time>
      </trkpt>
      <trkpt lat="43.8781" lon="7.23134">
        <ele>209.8</ele>
        <time>2015-05-02T07:02:03Z</time>
      </trkpt>
      <trkpt lat="43.87807" lon="7.23122">
        <ele>211.4</ele>
        <time>2015-05-02T07:02:17Z</time>
      </trkpt>
      <trkpt lat="43.87811" lon="7.23111">
        <ele>213.9</ele>
        <time>2015-05-02T07:02:28Z</time>
      </trkpt>
      <trkpt lat="43.87807" lon="7.23099">
        <ele>215.6</ele>
        <time>2015-05-02T07:02:43Z</time>
      </trkpt>
      <trkpt lat="43.87801" lon="7.2309">
        <ele>217.6</ele>
        <time>2015-05-02T07:02:55Z</time>
      </trkpt>
      <trkpt lat="43.87792" lon="7.23086">
        <ele>221.4</ele>
        <time>2015-05-02T07:03:11Z</time>
      </trkpt>
      <trkpt lat="43.87783" lon="7.23082">
        <ele>226.3</ele>
        <time>2015-05-02T07:03:46Z</time>
      </trkpt>
      <trkpt lat="43.87775" lon="7.23075">
        <ele>228.9</ele>
        <time>2015-05-02T07:03:59Z</time>
      </trkpt>
      <trkpt lat="43.87767" lon="7.23067">
        <ele>230.7</ele>
        <time>2015-05-02T07:04:13Z</time>
      </trkpt>
      <trkpt lat="43.87759" lon="7.2306">
        <ele>232.4</ele>
        <time>2015-05-02T07:04:24Z</time>
      </trkpt>
      <trkpt lat="43.87751" lon="7.23054">
        <ele>233.7</ele>
        <time>2015-05-02T07:04:36Z</time>
      </trkpt>
      <trkpt lat="43.87743" lon="7.23049">
        <ele>236.2</ele>
        <time>2015-05-02T07:04:51Z</time>
      </trkpt>
      <trkpt lat="43.87736" lon="7.23041">
        <ele>240.3</ele>
        <time>2015-05-02T07:05:07Z</time>
      </trkpt>
      <trkpt lat="43.87731" lon="7.2303">
        <ele>241.5</ele>
        <time>2015-05-02T07:05:17Z</time>
      </trkpt>
      <trkpt lat="43.87722" lon="7.23025">
        <ele>240.5</ele>
        <time>2015-05-02T07:05:25Z</time>
      </trkpt>
      <trkpt lat="43.87713" lon="7.23023">
        <ele>240.9</ele>
        <time>2015-05-02T07:05:36Z</time>
      </trkpt>
      <trkpt lat="43.87704" lon="7.23021">
        <ele>244.2</ele>
        <time>2015-05-02T07:05:47Z</time>
      </trkpt>
      <trkpt lat="43.87695" lon="7.23018">
        <ele>245.1</ele>
        <time>2015-05-02T07:05:58Z</time>
      </trkpt>
      <trkpt lat="43.87686" lon="7.23012">
        <ele>247.7</ele>
        <time>2015-05-02T07:06:11Z</time>
      </trkpt>
      <trkpt lat="43.87681" lon="7.23002">
        <ele>250.4</ele>
        <time>2015-05-02T07:06:26Z</time>
      </trkpt>
      <trkpt lat="43.87681" lon="7.22989">
        <ele>250.3</ele>
        <time>2015-05-02T07:07:04Z</time>
      </trkpt>
      <trkpt lat="43.87675" lon="7.2298">
        <ele>251.7</ele>
        <time>2015-05-02T07:07:29Z</time>
      </trkpt>
      <trkpt lat="43.87665" lon="7.2298">
        <ele>253</ele>
        <time>2015-05-02T07:07:38Z</time>
      </trkpt>
      <trkpt lat="43.87655" lon="7.22979">
        <ele>253.7</ele>
        <time>2015-05-02T07:07:47Z</time>
      </trkpt>
      <trkpt lat="43.87646" lon="7.22975">
        <ele>255.1</ele>
        <time>2015-05-02T07:07:59Z</time>
      </trkpt>
      <trkpt lat="43.87638" lon="7.22967">
        <ele>257.4</ele>
        <time>2015-05-02T07:08:09Z</time>
      </trkpt>
      <trkpt lat="43.87632" lon="7.22955">
        <ele>257.8</ele>
        <time>2015-05-02T07:08:17Z</time>
      </trkpt>
      <trkpt lat="43.87627" lon="7.22944">
        <ele>259.2</ele>
        <time>2015-05-02T07:08:25Z</time>
      </trkpt>
      <trkpt lat="43.87623" lon="7.22933">
        <ele>259.6</ele>
        <time>2015-05-02T07:08:32Z</time>
      </trkpt>
      <trkpt lat="43.8762" lon="7.2292">
        <ele>260.3</ele>
        <time>2015-05-02T07:08:49Z</time>
      </trkpt>
      <trkpt lat="43.87618" lon="7.22907">
        <ele>260.8</ele>
        <time>2015-05-02T07:09:04Z</time>
      </trkpt>
      <trkpt lat="43.87611" lon="7.22896">
        <ele>262.4</ele>
        <time>2015-05-02T07:09:10Z</time>
      </trkpt>
      <trkpt lat="43.87606" lon="7.22882">
        <ele>263.4</ele>
        <time>2015-05-02T07:09:16Z</time>
      </trkpt>
      <trkpt lat="43.87599" lon="7.22871">
        <ele>263.5</ele>
        <time>2015-05-02T07:09:22Z</time>
      </trkpt>
      <trkpt lat="43.87591" lon="7.22864">
        <ele>264.5</ele>
        <time>2015-05-02T07:09:27Z</time>
      </trkpt>
      <trkpt lat="43.87582" lon="7.22863">
        <ele>265.6</ele>
        <time>2015-05-02T07:09:32Z</time>
      </trkpt>
      <trkpt lat="43.87572" lon="7.22862">
        <ele>266.1</ele>
        <time>2015-05-02T07:09:38Z</time>
      </trkpt>
      <trkpt lat="43.87563" lon="7.2286">
        <ele>267.5</ele>
        <time>2015-05-02T07:09:45Z</time>
      </trkpt>
      <trkpt lat="43.87554" lon="7.22855">
        <ele>266.8</ele>
        <time>2015-05-02T07:09:49Z</time>
      </trkpt>
      <trkpt lat="43.87548" lon="7.22844">
        <ele>266.3</ele>
        <time>2015-05-02T07:09:53Z</time>
      </trkpt>
      <trkpt lat="43.87549" lon="7.22832">
        <ele>266</ele>
        <time>2015-05-02T07:10:00Z</time>
      </trkpt>
      <trkpt lat="43.87552" lon="7.22819">
        <ele>267.8</ele>
        <time>2015-05-02T07:10:25Z</time>
      </trkpt>
      <trkpt lat="43.87559" lon="7.22811">
        <ele>270</ele>
        <time>2015-05-02T07:10:35Z</time>
      </trkpt>
      <trkpt lat="43.87565" lon="7.22802">
        <ele>272.3</ele>
        <time>2015-05-02T07:10:44Z</time>
      </trkpt>
      <trkpt lat="43.87569" lon="7.2279">
        <ele>272.6</ele>
        <time>2015-05-02T07:10:55Z</time>
      </trkpt>
      <trkpt lat="43.87571" lon="7.22777">
        <ele>275</ele>
        <time>2015-05-02T07:11:07Z</time>
      </trkpt>
      <trkpt lat="43.87567" lon="7.22765">
        <ele>278</ele>
        <time>2015-05-02T07:11:18Z</time>
      </trkpt>
      <trkpt lat="43.8756" lon="7.22759">
        <ele>279</ele>
        <time>2015-05-02T07:11:26Z</time>
      </trkpt>
      <trkpt lat="43.87551" lon="7.22753">
        <ele>280.5</ele>
        <time>2015-05-02T07:11:34Z</time>
      </trkpt>
      <trkpt lat="43.87542" lon="7.22746">
        <ele>282.4</ele>
        <time>2015-05-02T07:11:43Z</time>
      </trkpt>
      <trkpt lat="43.87533" lon="7.22741">
        <ele>283.1</ele>
        <time>2015-05-02T07:11:52Z</time>
      </trkpt>
      <trkpt lat="43.87526" lon="7.22734">
        <ele>285.3</ele>
        <time>2015-05-02T07:12:01Z</time>
      </trkpt>
      <trkpt lat="43.87521" lon="7.22723">
        <ele>287.1</ele>
        <time>2015-05-02T07:12:12Z</time>
      </trkpt>
      <trkpt lat="43.87529" lon="7.2273">
        <ele>291.8</ele>
        <time>2015-05-02T07:12:40Z</time>
      </trkpt>
      <trkpt lat="43.87533" lon="7.22742">
        <ele>293.3</ele>
        <time>2015-05-02T07:12:51Z</time>
      </trkpt>
      <trkpt lat="43.87534" lon="7.22756">
        <ele>294.9</ele>
        <time>2015-05-02T07:13:04Z</time>
      </trkpt>
      <trkpt lat="43.87533" lon="7.22769">
        <ele>296.8</ele>
        <time>2015-05-02T07:13:16Z</time>
      </trkpt>
      <trkpt lat="43.87527" lon="7.22759">
        <ele>300</ele>
        <time>2015-05-02T07:13:33Z</time>
      </trkpt>
      <trkpt lat="43.87519" lon="7.22751">
        <ele>301</ele>
        <time>2015-05-02T07:13:43Z</time>
      </trkpt>
      <trkpt lat="43.87512" lon="7.22741">
        <ele>302.7</ele>
        <time>2015-05-02T07:13:52Z</time>
      </trkpt>
      <trkpt lat="43.87516" lon="7.22753">
        <ele>308.5</ele>
        <time>2015-05-02T07:14:28Z</time>
      </trkpt>
      <trkpt lat="43.87509" lon="7.22745">
        <ele>309.8</ele>
        <time>2015-05-02T07:14:40Z</time>
      </trkpt>
      <trkpt lat="43.87502" lon="7.22737">
        <ele>312.6</ele>
        <time>2015-05-02T07:14:49Z</time>
      </trkpt>
      <trkpt lat="43.87494" lon="7.22728">
        <ele>313.9</ele>
        <time>2015-05-02T07:15:00Z</time>
      </trkpt>
      <trkpt lat="43.87486" lon="7.22721">
        <ele>315.8</ele>
        <time>2015-05-02T07:15:10Z</time>
      </trkpt>
      <trkpt lat="43.87489" lon="7.22733">
        <ele>319.8</ele>
        <time>2015-05-02T07:15:31Z</time>
      </trkpt>
      <trkpt lat="43.87489" lon="7.22746">
        <ele>321.5</ele>
        <time>2015-05-02T07:15:46Z</time>
      </trkpt>
      <trkpt lat="43.87484" lon="7.22735">
        <ele>324.7</ele>
        <time>2015-05-02T07:16:06Z</time>
      </trkpt>
      <trkpt lat="43.87479" lon="7.22724">
        <ele>328</ele>
        <time>2015-05-02T07:16:18Z</time>
      </trkpt>
      <trkpt lat="43.87472" lon="7.22714">
        <ele>329.1</ele>
        <time>2015-05-02T07:16:27Z</time>
      </trkpt>
      <trkpt lat="43.8747" lon="7.22701">
        <ele>330.6</ele>
        <time>2015-05-02T07:16:39Z</time>
      </trkpt>
      <trkpt lat="43.87472" lon="7.22714">
        <ele>335.4</ele>
        <time>2015-05-02T07:17:05Z</time>
      </trkpt>
      <trkpt lat="43.87469" lon="7.22726">
        <ele>336.9</ele>
        <time>2015-05-02T07:17:18Z</time>
      </trkpt>
      <trkpt lat="43.87462" lon="7.22719">
        <ele>338.5</ele>
        <time>2015-05-02T07:17:32Z</time>
      </trkpt>
      <trkpt lat="43.87453" lon="7.22725">
        <ele>343.4</ele>
        <time>2015-05-02T07:17:57Z</time>
      </trkpt>
      <trkpt lat="43.87448" lon="7.22715">
        <ele>348.3</ele>
        <time>2015-05-02T07:18:17Z</time>
      </trkpt>
      <trkpt lat="43.87446" lon="7.22702">
        <ele>349.6</ele>
        <time>2015-05-02T07:18:28Z</time>
      </trkpt>
      <trkpt lat="43.8745" lon="7.2269">
        <ele>350.7</ele>
        <time>2015-05-02T07:18:38Z</time>
      </trkpt>
      <trkpt lat="43.87455" lon="7.22679">
        <ele>351.6</ele>
        <time>2015-05-02T07:18:47Z</time>
      </trkpt>
      <trkpt lat="43.87455" lon="7.22666">
        <ele>354.1</ele>
        <time>2015-05-02T07:19:00Z</time>
      </trkpt>
      <trkpt lat="43.87451" lon="7.22654">
        <ele>355.9</ele>
        <time>2015-05-02T07:19:12Z</time>
      </trkpt>
      <trkpt lat="43.87445" lon="7.22645">
        <ele>357</ele>
        <time>2015-05-02T07:19:22Z</time>
      </trkpt>
      <trkpt lat="43.87443" lon="7.22658">
        <ele>361.7</ele>
        <time>2015-05-02T07:19:46Z</time>
      </trkpt>
      <trkpt lat="43.87436" lon="7.22649">
        <ele>363.9</ele>
        <time>2015-05-02T07:19:56Z</time>
      </trkpt>
      <trkpt lat="43.87428" lon="7.22644">
        <ele>365.2</ele>
        <time>2015-05-02T07:20:08Z</time>
      </trkpt>
      <trkpt lat="43.87419" lon="7.22638">
        <ele>367.7</ele>
        <time>2015-05-02T07:20:23Z</time>
      </trkpt>
      <trkpt lat="43.8741" lon="7.22639">
        <ele>370.6</ele>
        <time>2015-05-02T07:20:39Z</time>
      </trkpt>
      <trkpt lat="43.87401" lon="7.22645">
        <ele>372.1</ele>
        <time>2015-05-02T07:20:51Z</time>
      </trkpt>
      <trkpt lat="43.87393" lon="7.2265">
        <ele>373</ele>
        <time>2015-05-02T07:20:59Z</time>
      </trkpt>
      <trkpt lat="43.87385" lon="7.22657">
        <ele>374.2</ele>
        <time>2015-05-02T07:21:08Z</time>
      </trkpt>
      <trkpt lat="43.87377" lon="7.22665">
        <ele>376</ele>
        <time>2015-05-02T07:21:18Z</time>
      </trkpt>
      <trkpt lat="43.87368" lon="7.22669">
        <ele>377.2</ele>
        <time>2015-05-02T07:21:29Z</time>
      </trkpt>
      <trkpt lat="43.8736" lon="7.22673">
        <ele>378.8</ele>
        <time>2015-05-02T07:21:41Z</time>
      </trkpt>
      <trkpt lat="43.8735" lon="7.22674">
        <ele>382.7</ele>
        <time>2015-05-02T07:21:59Z</time>
      </trkpt>
      <trkpt lat="43.87341" lon="7.22677">
        <ele>384.5</ele>
        <time>2015-05-02T07:22:12Z</time>
      </trkpt>
      <trkpt lat="43.87332" lon="7.22676">
        <ele>386.3</ele>
        <time>2015-05-02T07:22:24Z</time>
      </trkpt>
      <trkpt lat="43.87323" lon="7.22675">
        <ele>389.3</ele>
        <time>2015-05-02T07:22:40Z</time>
      </trkpt>
      <trkpt lat="43.87316" lon="7.22666">
        <ele>390.5</ele>
        <time>2015-05-02T07:22:49Z</time>
      </trkpt>
      <trkpt lat="43.87307" lon="7.22659">
        <ele>391.5</ele>
        <time>2015-05-02T07:22:57Z</time>
      </trkpt>
      <trkpt lat="43.87299" lon="7.22654">
        <ele>392.2</ele>
        <time>2015-05-02T07:23:05Z</time>
      </trkpt>
      <trkpt lat="43.8729" lon="7.22648">
        <ele>392</ele>
        <time>2015-05-02T07:23:13Z</time>
      </trkpt>
      <trkpt lat="43.87282" lon="7.22641">
        <ele>393.9</ele>
        <time>2015-05-02T07:23:22Z</time>
      </trkpt>
      <trkpt lat="43.87275" lon="7.22633">
        <ele>394.9</ele>
        <time>2015-05-02T07:23:31Z</time>
      </trkpt>
      <trkpt lat="43.87268" lon="7.22625">
        <ele>395.5</ele>
        <time>2015-05-02T07:23:41Z</time>
      </trkpt>
      <trkpt lat="43.87262" lon="7.22614">
        <ele>397.4</ele>
        <time>2015-05-02T07:23:52Z</time>
      </trkpt>
      <trkpt lat="43.87256" lon="7.22603">
        <ele>398.8</ele>
        <time>2015-05-02T07:24:01Z</time>
      </trkpt>
      <trkpt lat="43.8725" lon="7.22593">
        <ele>400.4</ele>
        <time>2015-05-02T07:24:11Z</time>
      </trkpt>
      <trkpt lat="43.87244" lon="7.22582">
        <ele>402.2</ele>
        <time>2015-05-02T07:24:23Z</time>
      </trkpt>
      <trkpt lat="43.87238" lon="7.22573">
        <ele>403.1</ele>
        <time>2015-05-02T07:24:35Z</time>
      </trkpt>
      <trkpt lat="43.87231" lon="7.22563">
        <ele>405.4</ele>
        <time>2015-05-02T07:24:46Z</time>
      </trkpt>
      <trkpt lat="43.87224" lon="7.22555">
        <ele>405.8</ele>
        <time>2015-05-02T07:24:55Z</time>
      </trkpt>
      <trkpt lat="43.87216" lon="7.22548">
        <ele>407.2</ele>
        <time>2015-05-02T07:25:07Z</time>
      </trkpt>
      <trkpt lat="43.8721" lon="7.22537">
        <ele>408</ele>
        <time>2015-05-02T07:25:15Z</time>
      </trkpt>
      <trkpt lat="43.87206" lon="7.22525">
        <ele>410.2</ele>
        <time>2015-05-02T07:25:28Z</time>
      </trkpt>
      <trkpt lat="43.87198" lon="7.22518">
        <ele>412.9</ele>
        <time>2015-05-02T07:25:40Z</time>
      </trkpt>
      <trkpt lat="43.8719" lon="7.22511">
        <ele>413.9</ele>
        <time>2015-05-02T07:25:52Z</time>
      </trkpt>
      <trkpt lat="43.87184" lon="7.22521">
        <ele>415.6</ele>
        <time>2015-05-02T07:26:10Z</time>
      </trkpt>
      <trkpt lat="43.87178" lon="7.22531">
        <ele>417.6</ele>
        <time>2015-05-02T07:26:22Z</time>
      </trkpt>
      <trkpt lat="43.87169" lon="7.22537">
        <ele>418.3</ele>
        <time>2015-05-02T07:26:32Z</time>
      </trkpt>
      <trkpt lat="43.87161" lon="7.22545">
        <ele>419.6</ele>
        <time>2015-05-02T07:26:42Z</time>
      </trkpt>
      <trkpt lat="43.87153" lon="7.22552">
        <ele>420.1</ele>
        <time>2015-05-02T07:26:51Z</time>
      </trkpt>
      <trkpt lat="43.87145" lon="7.22558">
        <ele>421.5</ele>
        <time>2015-05-02T07:27:00Z</time>
      </trkpt>
      <trkpt lat="43.87138" lon="7.22566">
        <ele>422.2</ele>
        <time>2015-05-02T07:27:09Z</time>
      </trkpt>
      <trkpt lat="43.87133" lon="7.22577">
        <ele>422.1</ele>
        <time>2015-05-02T07:28:17Z</time>
      </trkpt>
      <trkpt lat="43.87126" lon="7.22586">
        <ele>422.3</ele>
        <time>2015-05-02T07:28:22Z</time>
      </trkpt>
      <trkpt lat="43.87119" lon="7.22595">
        <ele>423</ele>
        <time>2015-05-02T07:28:26Z</time>
      </trkpt>
      <trkpt lat="43.87111" lon="7.22604">
        <ele>423.1</ele>
        <time>2015-05-02T07:28:30Z</time>
      </trkpt>
      <trkpt lat="43.87105" lon="7.22614">
        <ele>424.5</ele>
        <time>2015-05-02T07:28:34Z</time>
      </trkpt>
      <trkpt lat="43.87099" lon="7.22625">
        <ele>424.5</ele>
        <time>2015-05-02T07:28:37Z</time>
      </trkpt>
      <trkpt lat="43.87094" lon="7.22639">
        <ele>424</ele>
        <time>2015-05-02T07:28:41Z</time>
      </trkpt>
      <trkpt lat="43.8709" lon="7.22653">
        <ele>424.3</ele>
        <time>2015-05-02T07:28:45Z</time>
      </trkpt>
      <trkpt lat="43.87081" lon="7.22653">
        <ele>424.7</ele>
        <time>2015-05-02T07:28:51Z</time>
      </trkpt>
      <trkpt lat="43.87075" lon="7.22642">
        <ele>424.7</ele>
        <time>2015-05-02T07:28:57Z</time>
      </trkpt>
      <trkpt lat="43.8707" lon="7.22631">
        <ele>424.6</ele>
        <time>2015-05-02T07:29:02Z</time>
      </trkpt>
      <trkpt lat="43.87064" lon="7.22621">
        <ele>426</ele>
        <time>2015-05-02T07:29:08Z</time>
      </trkpt>
      <trkpt lat="43.87059" lon="7.22608">
        <ele>428</ele>
        <time>2015-05-02T07:29:15Z</time>
      </trkpt>
      <trkpt lat="43.87052" lon="7.22599">
        <ele>429</ele>
        <time>2015-05-02T07:29:28Z</time>
      </trkpt>
      <trkpt lat="43.87044" lon="7.22593">
        <ele>431.7</ele>
        <time>2015-05-02T07:29:38Z</time>
      </trkpt>
      <trkpt lat="43.87037" lon="7.22584">
        <ele>432.3</ele>
        <time>2015-05-02T07:29:48Z</time>
      </trkpt>
      <trkpt lat="43.87026" lon="7.2258">
        <ele>433.5</ele>
        <time>2015-05-02T07:29:59Z</time>
      </trkpt>
      <trkpt lat="43.87016" lon="7.2258">
        <ele>434.5</ele>
        <time>2015-05-02T07:30:05Z</time>
      </trkpt>
      <trkpt lat="43.87007" lon="7.2258">
        <ele>436.2</ele>
        <time>2015-05-02T07:30:12Z</time>
      </trkpt>
      <trkpt lat="43.86997" lon="7.22581">
        <ele>438</ele>
        <time>2015-05-02T07:30:19Z</time>
      </trkpt>
      <trkpt lat="43.87003" lon="7.22592">
        <ele>441.4</ele>
        <time>2015-05-02T07:30:43Z</time>
      </trkpt>
      <trkpt lat="43.87007" lon="7.22604">
        <ele>442.4</ele>
        <time>2015-05-02T07:30:51Z</time>
      </trkpt>
      <trkpt lat="43.87014" lon="7.22612">
        <ele>444.1</ele>
        <time>2015-05-02T07:30:58Z</time>
      </trkpt>
      <trkpt lat="43.87005" lon="7.22616">
        <ele>446.3</ele>
        <time>2015-05-02T07:31:24Z</time>
      </trkpt>
      <trkpt lat="43.86996" lon="7.22612">
        <ele>448.3</ele>
        <time>2015-05-02T07:31:35Z</time>
      </trkpt>
      <trkpt lat="43.86987" lon="7.22611">
        <ele>451.9</ele>
        <time>2015-05-02T07:32:02Z</time>
      </trkpt>
      <trkpt lat="43.86978" lon="7.22612">
        <ele>453.9</ele>
        <time>2015-05-02T07:32:16Z</time>
      </trkpt>
      <trkpt lat="43.86969" lon="7.22615">
        <ele>456.7</ele>
        <time>2015-05-02T07:32:33Z</time>
      </trkpt>
      <trkpt lat="43.86959" lon="7.22617">
        <ele>458.7</ele>
        <time>2015-05-02T07:32:46Z</time>
      </trkpt>
      <trkpt lat="43.8695" lon="7.22616">
        <ele>460.8</ele>
        <time>2015-05-02T07:32:57Z</time>
      </trkpt>
      <trkpt lat="43.86941" lon="7.22616">
        <ele>462</ele>
        <time>2015-05-02T07:33:07Z</time>
      </trkpt>
      <trkpt lat="43.86932" lon="7.22617">
        <ele>462.1</ele>
        <time>2015-05-02T07:33:16Z</time>
      </trkpt>
      <trkpt lat="43.86923" lon="7.22622">
        <ele>463.7</ele>
        <time>2015-05-02T07:33:25Z</time>
      </trkpt>
      <trkpt lat="43.86915" lon="7.22628">
        <ele>464.8</ele>
        <time>2015-05-02T07:33:34Z</time>
      </trkpt>
      <trkpt lat="43.86908" lon="7.22636">
        <ele>464.8</ele>
        <time>2015-05-02T07:33:45Z</time>
      </trkpt>
      <trkpt lat="43.86904" lon="7.22649">
        <ele>466.2</ele>
        <time>2015-05-02T07:33:54Z</time>
      </trkpt>
      <trkpt lat="43.86898" lon="7.22659">
        <ele>468.5</ele>
        <time>2015-05-02T07:34:04Z</time>
      </trkpt>
      <trkpt lat="43.86891" lon="7.22668">
        <ele>470.2</ele>
        <time>2015-05-02T07:34:15Z</time>
      </trkpt>
      <trkpt lat="43.86883" lon="7.22676">
        <ele>470.9</ele>
        <time>2015-05-02T07:34:25Z</time>
      </trkpt>
      <trkpt lat="43.86874" lon="7.22683">
        <ele>472.5</ele>
        <time>2015-05-02T07:34:34Z</time>
      </trkpt>
      <trkpt lat="43.86867" lon="7.22692">
        <ele>472.4</ele>
        <time>2015-05-02T07:34:43Z</time>
      </trkpt>
      <trkpt lat="43.86862" lon="7.22702">
        <ele>473.5</ele>
        <time>2015-05-02T07:34:52Z</time>
      </trkpt>
      <trkpt lat="43.86861" lon="7.22716">
        <ele>474.9</ele>
        <time>2015-05-02T07:35:00Z</time>
      </trkpt>
      <trkpt lat="43.86861" lon="7.22728">
        <ele>476.4</ele>
        <time>2015-05-02T07:35:08Z</time>
      </trkpt>
      <trkpt lat="43.86858" lon="7.22741">
        <ele>477.4</ele>
        <time>2015-05-02T07:35:16Z</time>
      </trkpt>
      <trkpt lat="43.86851" lon="7.2275">
        <ele>477.4</ele>
        <time>2015-05-02T07:35:25Z</time>
      </trkpt>
      <trkpt lat="43.86842" lon="7.22749">
        <ele>478.7</ele>
        <time>2015-05-02T07:35:36Z</time>
      </trkpt>
      <trkpt lat="43.86833" lon="7.2275">
        <ele>481.9</ele>
        <time>2015-05-02T07:35:49Z</time>
      </trkpt>
      <trkpt lat="43.86826" lon="7.22759">
        <ele>483.7</ele>
        <time>2015-05-02T07:36:02Z</time>
      </trkpt>
      <trkpt lat="43.86824" lon="7.22771">
        <ele>483.7</ele>
        <time>2015-05-02T07:36:10Z</time>
      </trkpt>
      <trkpt lat="43.86817" lon="7.2278">
        <ele>485.6</ele>
        <time>2015-05-02T07:36:21Z</time>
      </trkpt>
      <trkpt lat="43.8681" lon="7.22788">
        <ele>487.2</ele>
        <time>2015-05-02T07:36:31Z</time>
      </trkpt>
      <trkpt lat="43.86801" lon="7.22793">
        <ele>488.3</ele>
        <time>2015-05-02T07:36:41Z</time>
      </trkpt>
      <trkpt lat="43.86792" lon="7.22793">
        <ele>490.2</ele>
        <time>2015-05-02T07:36:52Z</time>
      </trkpt>
      <trkpt lat="43.86783" lon="7.22795">
        <ele>493</ele>
        <time>2015-05-02T07:37:03Z</time>
      </trkpt>
      <trkpt lat="43.86775" lon="7.22803">
        <ele>493.6</ele>
        <time>2015-05-02T07:37:16Z</time>
      </trkpt>
      <trkpt lat="43.86768" lon="7.22812">
        <ele>494.5</ele>
        <time>2015-05-02T07:37:28Z</time>
      </trkpt>
      <trkpt lat="43.86759" lon="7.22817">
        <ele>495.8</ele>
        <time>2015-05-02T07:37:39Z</time>
      </trkpt>
      <trkpt lat="43.86751" lon="7.2282">
        <ele>497.1</ele>
        <time>2015-05-02T07:37:49Z</time>
      </trkpt>
      <trkpt lat="43.86741" lon="7.22824">
        <ele>497.7</ele>
        <time>2015-05-02T07:37:58Z</time>
      </trkpt>
      <trkpt lat="43.86732" lon="7.22828">
        <ele>498.8</ele>
        <time>2015-05-02T07:38:07Z</time>
      </trkpt>
      <trkpt lat="43.86724" lon="7.22834">
        <ele>500.1</ele>
        <time>2015-05-02T07:38:18Z</time>
      </trkpt>
      <trkpt lat="43.86715" lon="7.22833">
        <ele>502.7</ele>
        <time>2015-05-02T07:38:31Z</time>
      </trkpt>
      <trkpt lat="43.86706" lon="7.22826">
        <ele>502.2</ele>
        <time>2015-05-02T07:38:44Z</time>
      </trkpt>
      <trkpt lat="43.86697" lon="7.22823">
        <ele>502.2</ele>
        <time>2015-05-02T07:39:22Z</time>
      </trkpt>
      <trkpt lat="43.86689" lon="7.22818">
        <ele>502.3</ele>
        <time>2015-05-02T07:39:28Z</time>
      </trkpt>
      <trkpt lat="43.8668" lon="7.22826">
        <ele>502.6</ele>
        <time>2015-05-02T07:39:37Z</time>
      </trkpt>
      <trkpt lat="43.86671" lon="7.22831">
        <ele>503</ele>
        <time>2015-05-02T07:39:43Z</time>
      </trkpt>
      <trkpt lat="43.86662" lon="7.22832">
        <ele>503.2</ele>
        <time>2015-05-02T07:39:49Z</time>
      </trkpt>
      <trkpt lat="43.86652" lon="7.22833">
        <ele>503.1</ele>
        <time>2015-05-02T07:39:56Z</time>
      </trkpt>
      <trkpt lat="43.86643" lon="7.22836">
        <ele>504</ele>
        <time>2015-05-02T07:40:05Z</time>
      </trkpt>
      <trkpt lat="43.86635" lon="7.22839">
        <ele>505.5</ele>
        <time>2015-05-02T07:40:12Z</time>
      </trkpt>
      <trkpt lat="43.86625" lon="7.22844">
        <ele>507.2</ele>
        <time>2015-05-02T07:40:20Z</time>
      </trkpt>
      <trkpt lat="43.86618" lon="7.22851">
        <ele>508.3</ele>
        <time>2015-05-02T07:40:27Z</time>
      </trkpt>
      <trkpt lat="43.86614" lon="7.22863">
        <ele>509.8</ele>
        <time>2015-05-02T07:40:42Z</time>
      </trkpt>
      <trkpt lat="43.86611" lon="7.22876">
        <ele>511.1</ele>
        <time>2015-05-02T07:40:51Z</time>
      </trkpt>
      <trkpt lat="43.86612" lon="7.22889">
        <ele>512.2</ele>
        <time>2015-05-02T07:41:11Z</time>
      </trkpt>
      <trkpt lat="43.86621" lon="7.22885">
        <ele>516</ele>
        <time>2015-05-02T07:43:57Z</time>
      </trkpt>
      <trkpt lat="43.8663" lon="7.22881">
        <ele>517.8</ele>
        <time>2015-05-02T07:44:08Z</time>
      </trkpt>
      <trkpt lat="43.86639" lon="7.22878">
        <ele>519</ele>
        <time>2015-05-02T07:44:17Z</time>
      </trkpt>
      <trkpt lat="43.86649" lon="7.22877">
        <ele>520.4</ele>
        <time>2015-05-02T07:44:26Z</time>
      </trkpt>
      <trkpt lat="43.86658" lon="7.22882">
        <ele>521.6</ele>
        <time>2015-05-02T07:44:35Z</time>
      </trkpt>
      <trkpt lat="43.86667" lon="7.22888">
        <ele>523</ele>
        <time>2015-05-02T07:44:44Z</time>
      </trkpt>
      <trkpt lat="43.86675" lon="7.22895">
        <ele>524.8</ele>
        <time>2015-05-02T07:44:53Z</time>
      </trkpt>
      <trkpt lat="43.8668" lon="7.22906">
        <ele>526.1</ele>
        <time>2015-05-02T07:45:03Z</time>
      </trkpt>
      <trkpt lat="43.86685" lon="7.22917">
        <ele>526.2</ele>
        <time>2015-05-02T07:45:24Z</time>
      </trkpt>
      <trkpt lat="43.86691" lon="7.22927">
        <ele>527.1</ele>
        <time>2015-05-02T07:45:58Z</time>
      </trkpt>
      <trkpt lat="43.86698" lon="7.22938">
        <ele>527.3</ele>
        <time>2015-05-02T07:46:07Z</time>
      </trkpt>
      <trkpt lat="43.86707" lon="7.22937">
        <ele>525.8</ele>
        <time>2015-05-02T07:46:16Z</time>
      </trkpt>
      <trkpt lat="43.86713" lon="7.22927">
        <ele>526.8</ele>
        <time>2015-05-02T07:46:25Z</time>
      </trkpt>
      <trkpt lat="43.8672" lon="7.22917">
        <ele>528.6</ele>
        <time>2015-05-02T07:46:35Z</time>
      </trkpt>
      <trkpt lat="43.86728" lon="7.2291">
        <ele>529.3</ele>
        <time>2015-05-02T07:46:45Z</time>
      </trkpt>
      <trkpt lat="43.86737" lon="7.22907">
        <ele>531.8</ele>
        <time>2015-05-02T07:46:56Z</time>
      </trkpt>
      <trkpt lat="43.86746" lon="7.22914">
        <ele>533.2</ele>
        <time>2015-05-02T07:47:09Z</time>
      </trkpt>
      <trkpt lat="43.86756" lon="7.22914">
        <ele>534.9</ele>
        <time>2015-05-02T07:47:20Z</time>
      </trkpt>
      <trkpt lat="43.86765" lon="7.22917">
        <ele>536</ele>
        <time>2015-05-02T07:47:29Z</time>
      </trkpt>
      <trkpt lat="43.86774" lon="7.22915">
        <ele>537.2</ele>
        <time>2015-05-02T07:47:38Z</time>
      </trkpt>
      <trkpt lat="43.86783" lon="7.22916">
        <ele>536.5</ele>
        <time>2015-05-02T07:47:47Z</time>
      </trkpt>
      <trkpt lat="43.86792" lon="7.22921">
        <ele>539.1</ele>
        <time>2015-05-02T07:47:59Z</time>
      </trkpt>
      <trkpt lat="43.86801" lon="7.22926">
        <ele>540.9</ele>
        <time>2015-05-02T07:48:09Z</time>
      </trkpt>
      <trkpt lat="43.86811" lon="7.22928">
        <ele>542.7</ele>
        <time>2015-05-02T07:48:20Z</time>
      </trkpt>
      <trkpt lat="43.86821" lon="7.2293">
        <ele>544</ele>
        <time>2015-05-02T07:48:30Z</time>
      </trkpt>
      <trkpt lat="43.8683" lon="7.22928">
        <ele>545.8</ele>
        <time>2015-05-02T07:48:41Z</time>
      </trkpt>
      <trkpt lat="43.86839" lon="7.22925">
        <ele>547</ele>
        <time>2015-05-02T07:48:51Z</time>
      </trkpt>
      <trkpt lat="43.86848" lon="7.22918">
        <ele>546.9</ele>
        <time>2015-05-02T07:48:59Z</time>
      </trkpt>
      <trkpt lat="43.86857" lon="7.22917">
        <ele>547.1</ele>
        <time>2015-05-02T07:49:08Z</time>
      </trkpt>
      <trkpt lat="43.86867" lon="7.22917">
        <ele>549.2</ele>
        <time>2015-05-02T07:49:17Z</time>
      </trkpt>
      <trkpt lat="43.86876" lon="7.2292">
        <ele>549.8</ele>
        <time>2015-05-02T07:49:27Z</time>
      </trkpt>
      <trkpt lat="43.86885" lon="7.22923">
        <ele>551.4</ele>
        <time>2015-05-02T07:49:37Z</time>
      </trkpt>
      <trkpt lat="43.86894" lon="7.22928">
        <ele>553</ele>
        <time>2015-05-02T07:49:48Z</time>
      </trkpt>
      <trkpt lat="43.86903" lon="7.22928">
        <ele>553</ele>
        <time>2015-05-02T07:49:58Z</time>
      </trkpt>
      <trkpt lat="43.86912" lon="7.22926">
        <ele>553.7</ele>
        <time>2015-05-02T07:50:07Z</time>
      </trkpt>
      <trkpt lat="43.86921" lon="7.22925">
        <ele>554.4</ele>
        <time>2015-05-02T07:50:18Z</time>
      </trkpt>
      <trkpt lat="43.8693" lon="7.22926">
        <ele>556.5</ele>
        <time>2015-05-02T07:50:28Z</time>
      </trkpt>
      <trkpt lat="43.86937" lon="7.22919">
        <ele>556.8</ele>
        <time>2015-05-02T07:50:37Z</time>
      </trkpt>
      <trkpt lat="43.86944" lon="7.22909">
        <ele>560.5</ele>
        <time>2015-05-02T07:50:48Z</time>
      </trkpt>
      <trkpt lat="43.86951" lon="7.22901">
        <ele>562.5</ele>
        <time>2015-05-02T07:50:59Z</time>
      </trkpt>
      <trkpt lat="43.86959" lon="7.22908">
        <ele>562.4</ele>
        <time>2015-05-02T07:51:10Z</time>
      </trkpt>
      <trkpt lat="43.86956" lon="7.22921">
        <ele>562.3</ele>
        <time>2015-05-02T07:51:17Z</time>
      </trkpt>
      <trkpt lat="43.86954" lon="7.22935">
        <ele>565.1</ele>
        <time>2015-05-02T07:51:25Z</time>
      </trkpt>
      <trkpt lat="43.8695" lon="7.22947">
        <ele>567.4</ele>
        <time>2015-05-02T07:51:37Z</time>
      </trkpt>
      <trkpt lat="43.86945" lon="7.22958">
        <ele>567.9</ele>
        <time>2015-05-02T07:51:43Z</time>
      </trkpt>
      <trkpt lat="43.86936" lon="7.22961">
        <ele>569.1</ele>
        <time>2015-05-02T07:51:48Z</time>
      </trkpt>
      <trkpt lat="43.86926" lon="7.2296">
        <ele>569.1</ele>
        <time>2015-05-02T07:51:51Z</time>
      </trkpt>
      <trkpt lat="43.86916" lon="7.22962">
        <ele>568.6</ele>
        <time>2015-05-02T07:51:55Z</time>
      </trkpt>
      <trkpt lat="43.86904" lon="7.22964">
        <ele>568.3</ele>
        <time>2015-05-02T07:51:59Z</time>
      </trkpt>
      <trkpt lat="43.86892" lon="7.22963">
        <ele>567.9</ele>
        <time>2015-05-02T07:52:03Z</time>
      </trkpt>
      <trkpt lat="43.86882" lon="7.22964">
        <ele>568.4</ele>
        <time>2015-05-02T07:52:07Z</time>
      </trkpt>
      <trkpt lat="43.86872" lon="7.22966">
        <ele>568.8</ele>
        <time>2015-05-02T07:52:11Z</time>
      </trkpt>
      <trkpt lat="43.86863" lon="7.2297">
        <ele>569.9</ele>
        <time>2015-05-02T07:52:15Z</time>
      </trkpt>
      <trkpt lat="43.86854" lon="7.22976">
        <ele>571.5</ele>
        <time>2015-05-02T07:52:20Z</time>
      </trkpt>
      <trkpt lat="43.86843" lon="7.22981">
        <ele>571.5</ele>
        <time>2015-05-02T07:52:25Z</time>
      </trkpt>
      <trkpt lat="43.86835" lon="7.22986">
        <ele>571.6</ele>
        <time>2015-05-02T07:52:29Z</time>
      </trkpt>
      <trkpt lat="43.86825" lon="7.22991">
        <ele>572.5</ele>
        <time>2015-05-02T07:52:34Z</time>
      </trkpt>
      <trkpt lat="43.86816" lon="7.22994">
        <ele>573.2</ele>
        <time>2015-05-02T07:52:38Z</time>
      </trkpt>
      <trkpt lat="43.86807" lon="7.22994">
        <ele>574.8</ele>
        <time>2015-05-02T07:52:42Z</time>
      </trkpt>
      <trkpt lat="43.86798" lon="7.22998">
        <ele>576.3</ele>
        <time>2015-05-02T07:52:46Z</time>
      </trkpt>
      <trkpt lat="43.86788" lon="7.23004">
        <ele>577</ele>
        <time>2015-05-02T07:52:51Z</time>
      </trkpt>
      <trkpt lat="43.8678" lon="7.23011">
        <ele>578.3</ele>
        <time>2015-05-02T07:52:56Z</time>
      </trkpt>
      <trkpt lat="43.86775" lon="7.23022">
        <ele>581.5</ele>
        <time>2015-05-02T07:53:07Z</time>
      </trkpt>
      <trkpt lat="43.86766" lon="7.23031">
        <ele>581.6</ele>
        <time>2015-05-02T07:53:17Z</time>
      </trkpt>
      <trkpt lat="43.86759" lon="7.23039">
        <ele>582.5</ele>
        <time>2015-05-02T07:53:22Z</time>
      </trkpt>
      <trkpt lat="43.86752" lon="7.23048">
        <ele>585.3</ele>
        <time>2015-05-02T07:53:32Z</time>
      </trkpt>
      <trkpt lat="43.86746" lon="7.23058">
        <ele>585.4</ele>
        <time>2015-05-02T07:53:41Z</time>
      </trkpt>
      <trkpt lat="43.86739" lon="7.23065">
        <ele>587.5</ele>
        <time>2015-05-02T07:53:52Z</time>
      </trkpt>
      <trkpt lat="43.86732" lon="7.23075">
        <ele>589</ele>
        <time>2015-05-02T07:53:58Z</time>
      </trkpt>
      <trkpt lat="43.86721" lon="7.23081">
        <ele>589.9</ele>
        <time>2015-05-02T07:54:02Z</time>
      </trkpt>
      <trkpt lat="43.8671" lon="7.23085">
        <ele>589.3</ele>
        <time>2015-05-02T07:54:06Z</time>
      </trkpt>
      <trkpt lat="43.867" lon="7.2309">
        <ele>588.5</ele>
        <time>2015-05-02T07:54:10Z</time>
      </trkpt>
      <trkpt lat="43.8669" lon="7.23097">
        <ele>589.1</ele>
        <time>2015-05-02T07:54:15Z</time>
      </trkpt>
      <trkpt lat="43.86683" lon="7.23107">
        <ele>590.1</ele>
        <time>2015-05-02T07:54:20Z</time>
      </trkpt>
      <trkpt lat="43.86677" lon="7.23118">
        <ele>589.6</ele>
        <time>2015-05-02T07:54:23Z</time>
      </trkpt>
      <trkpt lat="43.86671" lon="7.23134">
        <ele>589</ele>
        <time>2015-05-02T07:54:26Z</time>
      </trkpt>
      <trkpt lat="43.86665" lon="7.23148">
        <ele>589.8</ele>
        <time>2015-05-02T07:54:30Z</time>
      </trkpt>
      <trkpt lat="43.86658" lon="7.23158">
        <ele>590.2</ele>
        <time>2015-05-02T07:54:34Z</time>
      </trkpt>
      <trkpt lat="43.86651" lon="7.23171">
        <ele>590.4</ele>
        <time>2015-05-02T07:54:38Z</time>
      </trkpt>
      <trkpt lat="43.86645" lon="7.23182">
        <ele>589.8</ele>
        <time>2015-05-02T07:54:42Z</time>
      </trkpt>
      <trkpt lat="43.86635" lon="7.23193">
        <ele>589.2</ele>
        <time>2015-05-02T07:54:46Z</time>
      </trkpt>
      <trkpt lat="43.86629" lon="7.23205">
        <ele>589.7</ele>
        <time>2015-05-02T07:54:50Z</time>
      </trkpt>
      <trkpt lat="43.86623" lon="7.23214">
        <ele>589.6</ele>
        <time>2015-05-02T07:55:13Z</time>
      </trkpt>
      <trkpt lat="43.86614" lon="7.23214">
        <ele>590.2</ele>
        <time>2015-05-02T07:55:25Z</time>
      </trkpt>
      <trkpt lat="43.86605" lon="7.23209">
        <ele>589.9</ele>
        <time>2015-05-02T07:55:37Z</time>
      </trkpt>
      <trkpt lat="43.86595" lon="7.23208">
        <ele>591.3</ele>
        <time>2015-05-02T07:55:48Z</time>
      </trkpt>
      <trkpt lat="43.86585" lon="7.23209">
        <ele>591.4</ele>
        <time>2015-05-02T07:55:58Z</time>
      </trkpt>
      <trkpt lat="43.86576" lon="7.23212">
        <ele>594.1</ele>
        <time>2015-05-02T07:56:03Z</time>
      </trkpt>
      <trkpt lat="43.86567" lon="7.23213">
        <ele>595.9</ele>
        <time>2015-05-02T07:56:14Z</time>
      </trkpt>
      <trkpt lat="43.86557" lon="7.23214">
        <ele>598.2</ele>
        <time>2015-05-02T07:56:24Z</time>
      </trkpt>
      <trkpt lat="43.86549" lon="7.23218">
        <ele>601.4</ele>
        <time>2015-05-02T07:56:36Z</time>
      </trkpt>
      <trkpt lat="43.8654" lon="7.2322">
        <ele>603.1</ele>
        <time>2015-05-02T07:56:59Z</time>
      </trkpt>
      <trkpt lat="43.86542" lon="7.23232">
        <ele>602.5</ele>
        <time>2015-05-02T08:00:48Z</time>
      </trkpt>
      <trkpt lat="43.86551" lon="7.23236">
        <ele>603</ele>
        <time>2015-05-02T08:01:03Z</time>
      </trkpt>
      <trkpt lat="43.8656" lon="7.23239">
        <ele>606.8</ele>
        <time>2015-05-02T08:01:25Z</time>
      </trkpt>
      <trkpt lat="43.86565" lon="7.23249">
        <ele>610.7</ele>
        <time>2015-05-02T08:02:02Z</time>
      </trkpt>
      <trkpt lat="43.86572" lon="7.23258">
        <ele>614.1</ele>
        <time>2015-05-02T08:02:16Z</time>
      </trkpt>
      <trkpt lat="43.8658" lon="7.23266">
        <ele>615.2</ele>
        <time>2015-05-02T08:02:25Z</time>
      </trkpt>
      <trkpt lat="43.86588" lon="7.23274">
        <ele>618</ele>
        <time>2015-05-02T08:02:37Z</time>
      </trkpt>
      <trkpt lat="43.86596" lon="7.23282">
        <ele>620.8</ele>
        <time>2015-05-02T08:02:48Z</time>
      </trkpt>
      <trkpt lat="43.86604" lon="7.23289">
        <ele>622.7</ele>
        <time>2015-05-02T08:02:58Z</time>
      </trkpt>
      <trkpt lat="43.86611" lon="7.23297">
        <ele>625.9</ele>
        <time>2015-05-02T08:03:14Z</time>
      </trkpt>
      <trkpt lat="43.86617" lon="7.23307">
        <ele>631.2</ele>
        <time>2015-05-02T08:03:42Z</time>
      </trkpt>
      <trkpt lat="43.86626" lon="7.23308">
        <ele>633</ele>
        <time>2015-05-02T08:03:58Z</time>
      </trkpt>
      <trkpt lat="43.86635" lon="7.23307">
        <ele>635.5</ele>
        <time>2015-05-02T08:04:09Z</time>
      </trkpt>
      <trkpt lat="43.86644" lon="7.23301">
        <ele>636.4</ele>
        <time>2015-05-02T08:04:19Z</time>
      </trkpt>
      <trkpt lat="43.86653" lon="7.23299">
        <ele>637.1</ele>
        <time>2015-05-02T08:04:30Z</time>
      </trkpt>
      <trkpt lat="43.86662" lon="7.23294">
        <ele>639.2</ele>
        <time>2015-05-02T08:04:42Z</time>
      </trkpt>
      <trkpt lat="43.8667" lon="7.23287">
        <ele>641.4</ele>
        <time>2015-05-02T08:04:56Z</time>
      </trkpt>
      <trkpt lat="43.86679" lon="7.23283">
        <ele>645.3</ele>
        <time>2015-05-02T08:05:12Z</time>
      </trkpt>
      <trkpt lat="43.86688" lon="7.23278">
        <ele>648.5</ele>
        <time>2015-05-02T08:05:28Z</time>
      </trkpt>
      <trkpt lat="43.86696" lon="7.23274">
        <ele>648.9</ele>
        <time>2015-05-02T08:05:38Z</time>
      </trkpt>
      <trkpt lat="43.86706" lon="7.23273">
        <ele>651.1</ele>
        <time>2015-05-02T08:05:51Z</time>
      </trkpt>
      <trkpt lat="43.86714" lon="7.23268">
        <ele>653.9</ele>
        <time>2015-05-02T08:06:05Z</time>
      </trkpt>
      <trkpt lat="43.86724" lon="7.23266">
        <ele>656.3</ele>
        <time>2015-05-02T08:06:20Z</time>
      </trkpt>
      <trkpt lat="43.86733" lon="7.23262">
        <ele>659.1</ele>
        <time>2015-05-02T08:06:31Z</time>
      </trkpt>
      <trkpt lat="43.86742" lon="7.23262">
        <ele>660.9</ele>
        <time>2015-05-02T08:06:44Z</time>
      </trkpt>
      <trkpt lat="43.86742" lon="7.23274">
        <ele>662.6</ele>
        <time>2015-05-02T08:07:24Z</time>
      </trkpt>
      <trkpt lat="43.86739" lon="7.23286">
        <ele>661.8</ele>
        <time>2015-05-02T08:09:10Z</time>
      </trkpt>
      <trkpt lat="43.86731" lon="7.23293">
        <ele>662.9</ele>
        <time>2015-05-02T08:09:16Z</time>
      </trkpt>
      <trkpt lat="43.86723" lon="7.233">
        <ele>662.7</ele>
        <time>2015-05-02T08:09:21Z</time>
      </trkpt>
      <trkpt lat="43.86715" lon="7.23309">
        <ele>661.7</ele>
        <time>2015-05-02T08:09:25Z</time>
      </trkpt>
      <trkpt lat="43.86708" lon="7.23317">
        <ele>661.1</ele>
        <time>2015-05-02T08:09:29Z</time>
      </trkpt>
      <trkpt lat="43.86701" lon="7.23325">
        <ele>660.6</ele>
        <time>2015-05-02T08:09:33Z</time>
      </trkpt>
      <trkpt lat="43.86694" lon="7.23336">
        <ele>661.3</ele>
        <time>2015-05-02T08:09:37Z</time>
      </trkpt>
      <trkpt lat="43.86686" lon="7.23345">
        <ele>661</ele>
        <time>2015-05-02T08:09:41Z</time>
      </trkpt>
      <trkpt lat="43.86679" lon="7.23352">
        <ele>660.4</ele>
        <time>2015-05-02T08:09:45Z</time>
      </trkpt>
      <trkpt lat="43.86671" lon="7.2336">
        <ele>660.4</ele>
        <time>2015-05-02T08:09:49Z</time>
      </trkpt>
      <trkpt lat="43.86661" lon="7.23368">
        <ele>661.3</ele>
        <time>2015-05-02T08:09:54Z</time>
      </trkpt>
      <trkpt lat="43.8665" lon="7.23373">
        <ele>661.4</ele>
        <time>2015-05-02T08:09:58Z</time>
      </trkpt>
      <trkpt lat="43.86639" lon="7.23375">
        <ele>661.5</ele>
        <time>2015-05-02T08:10:02Z</time>
      </trkpt>
      <trkpt lat="43.86628" lon="7.23377">
        <ele>662</ele>
        <time>2015-05-02T08:10:06Z</time>
      </trkpt>
      <trkpt lat="43.86617" lon="7.23378">
        <ele>661.5</ele>
        <time>2015-05-02T08:10:10Z</time>
      </trkpt>
      <trkpt lat="43.86608" lon="7.23379">
        <ele>660.9</ele>
        <time>2015-05-02T08:10:14Z</time>
      </trkpt>
      <trkpt lat="43.86597" lon="7.23378">
        <ele>661.1</ele>
        <time>2015-05-02T08:10:18Z</time>
      </trkpt>
      <trkpt lat="43.86588" lon="7.23378">
        <ele>661.4</ele>
        <time>2015-05-02T08:10:22Z</time>
      </trkpt>
      <trkpt lat="43.86578" lon="7.23379">
        <ele>660.7</ele>
        <time>2015-05-02T08:10:26Z</time>
      </trkpt>
      <trkpt lat="43.86568" lon="7.23384">
        <ele>660</ele>
        <time>2015-05-02T08:10:30Z</time>
      </trkpt>
      <trkpt lat="43.86559" lon="7.2339">
        <ele>660.1</ele>
        <time>2015-05-02T08:10:34Z</time>
      </trkpt>
      <trkpt lat="43.8655" lon="7.23398">
        <ele>659.5</ele>
        <time>2015-05-02T08:10:39Z</time>
      </trkpt>
      <trkpt lat="43.86542" lon="7.23406">
        <ele>660.5</ele>
        <time>2015-05-02T08:10:44Z</time>
      </trkpt>
      <trkpt lat="43.86534" lon="7.23415">
        <ele>660.4</ele>
        <time>2015-05-02T08:10:49Z</time>
      </trkpt>
      <trkpt lat="43.86527" lon="7.23423">
        <ele>660.2</ele>
        <time>2015-05-02T08:10:54Z</time>
      </trkpt>
      <trkpt lat="43.8652" lon="7.23434">
        <ele>660.3</ele>
        <time>2015-05-02T08:10:59Z</time>
      </trkpt>
      <trkpt lat="43.86514" lon="7.23443">
        <ele>659.1</ele>
        <time>2015-05-02T08:11:03Z</time>
      </trkpt>
      <trkpt lat="43.86507" lon="7.23454">
        <ele>659.5</ele>
        <time>2015-05-02T08:11:07Z</time>
      </trkpt>
      <trkpt lat="43.865" lon="7.23465">
        <ele>660.1</ele>
        <time>2015-05-02T08:11:12Z</time>
      </trkpt>
      <trkpt lat="43.86495" lon="7.23475">
        <ele>659.8</ele>
        <time>2015-05-02T08:11:16Z</time>
      </trkpt>
      <trkpt lat="43.8649" lon="7.23487">
        <ele>659.8</ele>
        <time>2015-05-02T08:11:20Z</time>
      </trkpt>
      <trkpt lat="43.86485" lon="7.235">
        <ele>659.8</ele>
        <time>2015-05-02T08:11:24Z</time>
      </trkpt>
      <trkpt lat="43.86482" lon="7.23511">
        <ele>659.1</ele>
        <time>2015-05-02T08:11:27Z</time>
      </trkpt>
      <trkpt lat="43.86479" lon="7.23528">
        <ele>659.9</ele>
        <time>2015-05-02T08:11:31Z</time>
      </trkpt>
      <trkpt lat="43.8648" lon="7.23541">
        <ele>660.5</ele>
        <time>2015-05-02T08:11:34Z</time>
      </trkpt>
      <trkpt lat="43.8648" lon="7.23556">
        <ele>659.6</ele>
        <time>2015-05-02T08:11:37Z</time>
      </trkpt>
      <trkpt lat="43.86478" lon="7.23572">
        <ele>659.2</ele>
        <time>2015-05-02T08:11:40Z</time>
      </trkpt>
      <trkpt lat="43.86475" lon="7.23586">
        <ele>659.3</ele>
        <time>2015-05-02T08:11:43Z</time>
      </trkpt>
      <trkpt lat="43.8647" lon="7.23597">
        <ele>659.3</ele>
        <time>2015-05-02T08:11:46Z</time>
      </trkpt>
      <trkpt lat="43.86464" lon="7.23608">
        <ele>659.6</ele>
        <time>2015-05-02T08:11:49Z</time>
      </trkpt>
      <trkpt lat="43.86458" lon="7.2362">
        <ele>659.4</ele>
        <time>2015-05-02T08:11:52Z</time>
      </trkpt>
      <trkpt lat="43.86452" lon="7.23632">
        <ele>658.6</ele>
        <time>2015-05-02T08:11:55Z</time>
      </trkpt>
      <trkpt lat="43.86446" lon="7.23646">
        <ele>658.5</ele>
        <time>2015-05-02T08:11:58Z</time>
      </trkpt>
      <trkpt lat="43.8644" lon="7.23658">
        <ele>658.1</ele>
        <time>2015-05-02T08:12:01Z</time>
      </trkpt>
      <trkpt lat="43.86434" lon="7.23668">
        <ele>658</ele>
        <time>2015-05-02T08:12:04Z</time>
      </trkpt>
      <trkpt lat="43.86427" lon="7.23682">
        <ele>658.2</ele>
        <time>2015-05-02T08:12:08Z</time>
      </trkpt>
      <trkpt lat="43.86421" lon="7.23693">
        <ele>658.2</ele>
        <time>2015-05-02T08:12:11Z</time>
      </trkpt>
      <trkpt lat="43.86415" lon="7.23703">
        <ele>659.3</ele>
        <time>2015-05-02T08:12:14Z</time>
      </trkpt>
      <trkpt lat="43.86409" lon="7.23715">
        <ele>658.7</ele>
        <time>2015-05-02T08:12:17Z</time>
      </trkpt>
      <trkpt lat="43.86406" lon="7.23728">
        <ele>658</ele>
        <time>2015-05-02T08:12:20Z</time>
      </trkpt>
      <trkpt lat="43.86402" lon="7.23741">
        <ele>658.1</ele>
        <time>2015-05-02T08:12:23Z</time>
      </trkpt>
      <trkpt lat="43.86397" lon="7.23754">
        <ele>657.6</ele>
        <time>2015-05-02T08:12:26Z</time>
      </trkpt>
      <trkpt lat="43.8639" lon="7.23762">
        <ele>658.4</ele>
        <time>2015-05-02T08:12:29Z</time>
      </trkpt>
      <trkpt lat="43.8638" lon="7.23761">
        <ele>658.5</ele>
        <time>2015-05-02T08:12:32Z</time>
      </trkpt>
      <trkpt lat="43.8637" lon="7.23756">
        <ele>658.4</ele>
        <time>2015-05-02T08:12:36Z</time>
      </trkpt>
      <trkpt lat="43.86361" lon="7.23748">
        <ele>658.2</ele>
        <time>2015-05-02T08:12:40Z</time>
      </trkpt>
      <trkpt lat="43.86354" lon="7.23735">
        <ele>658.8</ele>
        <time>2015-05-02T08:12:45Z</time>
      </trkpt>
      <trkpt lat="43.86347" lon="7.23724">
        <ele>659.2</ele>
        <time>2015-05-02T08:12:49Z</time>
      </trkpt>
      <trkpt lat="43.86338" lon="7.23721">
        <ele>658.2</ele>
        <time>2015-05-02T08:12:52Z</time>
      </trkpt>
      <trkpt lat="43.86327" lon="7.23724">
        <ele>657.2</ele>
        <time>2015-05-02T08:12:55Z</time>
      </trkpt>
      <trkpt lat="43.86317" lon="7.23728">
        <ele>657.9</ele>
        <time>2015-05-02T08:12:58Z</time>
      </trkpt>
      <trkpt lat="43.86307" lon="7.23734">
        <ele>657.5</ele>
        <time>2015-05-02T08:13:01Z</time>
      </trkpt>
      <trkpt lat="43.86298" lon="7.2374">
        <ele>658</ele>
        <time>2015-05-02T08:13:04Z</time>
      </trkpt>
      <trkpt lat="43.86288" lon="7.23746">
        <ele>658.1</ele>
        <time>2015-05-02T08:13:07Z</time>
      </trkpt>
      <trkpt lat="43.86278" lon="7.23753">
        <ele>658.1</ele>
        <time>2015-05-02T08:13:10Z</time>
      </trkpt>
      <trkpt lat="43.86269" lon="7.23759">
        <ele>657.8</ele>
        <time>2015-05-02T08:13:13Z</time>
      </trkpt>
      <trkpt lat="43.86259" lon="7.23764">
        <ele>657.4</ele>
        <time>2015-05-02T08:13:16Z</time>
      </trkpt>
      <trkpt lat="43.86249" lon="7.23769">
        <ele>657.3</ele>
        <time>2015-05-02T08:13:19Z</time>
      </trkpt>
      <trkpt lat="43.86239" lon="7.23774">
        <ele>657.7</ele>
        <time>2015-05-02T08:13:22Z</time>
      </trkpt>
      <trkpt lat="43.8623" lon="7.23777">
        <ele>657.7</ele>
        <time>2015-05-02T08:13:25Z</time>
      </trkpt>
      <trkpt lat="43.8622" lon="7.23782">
        <ele>657.3</ele>
        <time>2015-05-02T08:13:28Z</time>
      </trkpt>
      <trkpt lat="43.86208" lon="7.23786">
        <ele>657.1</ele>
        <time>2015-05-02T08:13:32Z</time>
      </trkpt>
      <trkpt lat="43.86199" lon="7.23789">
        <ele>657</ele>
        <time>2015-05-02T08:13:35Z</time>
      </trkpt>
      <trkpt lat="43.86189" lon="7.23792">
        <ele>656.8</ele>
        <time>2015-05-02T08:13:38Z</time>
      </trkpt>
      <trkpt lat="43.86179" lon="7.23792">
        <ele>657.2</ele>
        <time>2015-05-02T08:13:41Z</time>
      </trkpt>
      <trkpt lat="43.8617" lon="7.23786">
        <ele>656.8</ele>
        <time>2015-05-02T08:13:45Z</time>
      </trkpt>
      <trkpt lat="43.86165" lon="7.23796">
        <ele>659.6</ele>
        <time>2015-05-02T08:14:17Z</time>
      </trkpt>
      <trkpt lat="43.86158" lon="7.23806">
        <ele>661.9</ele>
        <time>2015-05-02T08:14:29Z</time>
      </trkpt>
      <trkpt lat="43.86151" lon="7.23814">
        <ele>663.5</ele>
        <time>2015-05-02T08:14:39Z</time>
      </trkpt>
      <trkpt lat="43.86143" lon="7.23823">
        <ele>665.3</ele>
        <time>2015-05-02T08:14:50Z</time>
      </trkpt>
      <trkpt lat="43.86136" lon="7.23832">
        <ele>666.3</ele>
        <time>2015-05-02T08:15:01Z</time>
      </trkpt>
      <trkpt lat="43.86133" lon="7.23844">
        <ele>668.3</ele>
        <time>2015-05-02T08:15:15Z</time>
      </trkpt>
      <trkpt lat="43.86138" lon="7.23855">
        <ele>670.5</ele>
        <time>2015-05-02T08:15:25Z</time>
      </trkpt>
      <trkpt lat="43.86141" lon="7.23867">
        <ele>671.9</ele>
        <time>2015-05-02T08:15:35Z</time>
      </trkpt>
      <trkpt lat="43.86141" lon="7.2388">
        <ele>674</ele>
        <time>2015-05-02T08:15:46Z</time>
      </trkpt>
      <trkpt lat="43.86135" lon="7.2389">
        <ele>675</ele>
        <time>2015-05-02T08:18:29Z</time>
      </trkpt>
      <trkpt lat="43.86137" lon="7.23902">
        <ele>676.4</ele>
        <time>2015-05-02T08:37:01Z</time>
      </trkpt>
      <trkpt lat="43.86135" lon="7.23915">
        <ele>677.3</ele>
        <time>2015-05-02T08:37:12Z</time>
      </trkpt>
      <trkpt lat="43.86132" lon="7.23928">
        <ele>680.2</ele>
        <time>2015-05-02T08:37:22Z</time>
      </trkpt>
      <trkpt lat="43.86135" lon="7.2394">
        <ele>681</ele>
        <time>2015-05-02T08:37:32Z</time>
      </trkpt>
      <trkpt lat="43.86138" lon="7.23952">
        <ele>681.7</ele>
        <time>2015-05-02T08:37:44Z</time>
      </trkpt>
      <trkpt lat="43.86141" lon="7.23965">
        <ele>682.2</ele>
        <time>2015-05-02T08:37:49Z</time>
      </trkpt>
      <trkpt lat="43.86144" lon="7.23979">
        <ele>683.1</ele>
        <time>2015-05-02T08:37:55Z</time>
      </trkpt>
      <trkpt lat="43.86142" lon="7.23994">
        <ele>684.3</ele>
        <time>2015-05-02T08:38:01Z</time>
      </trkpt>
      <trkpt lat="43.86139" lon="7.24007">
        <ele>685.2</ele>
        <time>2015-05-02T08:38:07Z</time>
      </trkpt>
      <trkpt lat="43.86137" lon="7.24021">
        <ele>685.8</ele>
        <time>2015-05-02T08:38:11Z</time>
      </trkpt>
      <trkpt lat="43.8614" lon="7.24035">
        <ele>685.6</ele>
        <time>2015-05-02T08:38:15Z</time>
      </trkpt>
      <trkpt lat="43.86146" lon="7.24047">
        <ele>685.1</ele>
        <time>2015-05-02T08:38:19Z</time>
      </trkpt>
      <trkpt lat="43.86152" lon="7.24062">
        <ele>684.4</ele>
        <time>2015-05-02T08:38:23Z</time>
      </trkpt>
      <trkpt lat="43.86156" lon="7.24073">
        <ele>682.6</ele>
        <time>2015-05-02T08:38:32Z</time>
      </trkpt>
      <trkpt lat="43.86161" lon="7.24062">
        <ele>682.6</ele>
        <time>2015-05-02T08:38:55Z</time>
      </trkpt>
      <trkpt lat="43.86167" lon="7.24052">
        <ele>682.3</ele>
        <time>2015-05-02T08:38:59Z</time>
      </trkpt>
      <trkpt lat="43.86174" lon="7.24042">
        <ele>682.9</ele>
        <time>2015-05-02T08:39:03Z</time>
      </trkpt>
      <trkpt lat="43.8618" lon="7.2403">
        <ele>682.8</ele>
        <time>2015-05-02T08:39:08Z</time>
      </trkpt>
      <trkpt lat="43.86187" lon="7.24018">
        <ele>682.8</ele>
        <time>2015-05-02T08:39:13Z</time>
      </trkpt>
      <trkpt lat="43.86192" lon="7.24005">
        <ele>682.5</ele>
        <time>2015-05-02T08:39:18Z</time>
      </trkpt>
      <trkpt lat="43.86193" lon="7.23991">
        <ele>682.9</ele>
        <time>2015-05-02T08:39:22Z</time>
      </trkpt>
      <trkpt lat="43.86191" lon="7.23976">
        <ele>683.2</ele>
        <time>2015-05-02T08:39:26Z</time>
      </trkpt>
      <trkpt lat="43.86194" lon="7.2396">
        <ele>683.5</ele>
        <time>2015-05-02T08:39:30Z</time>
      </trkpt>
      <trkpt lat="43.86203" lon="7.2395">
        <ele>684.5</ele>
        <time>2015-05-02T08:39:34Z</time>
      </trkpt>
      <trkpt lat="43.86212" lon="7.2394">
        <ele>684.3</ele>
        <time>2015-05-02T08:39:38Z</time>
      </trkpt>
      <trkpt lat="43.86214" lon="7.23925">
        <ele>684.6</ele>
        <time>2015-05-02T08:39:42Z</time>
      </trkpt>
      <trkpt lat="43.86218" lon="7.23911">
        <ele>685.4</ele>
        <time>2015-05-02T08:39:46Z</time>
      </trkpt>
      <trkpt lat="43.86224" lon="7.23901">
        <ele>685.6</ele>
        <time>2015-05-02T08:39:49Z</time>
      </trkpt>
      <trkpt lat="43.86231" lon="7.23892">
        <ele>685.6</ele>
        <time>2015-05-02T08:39:52Z</time>
      </trkpt>
      <trkpt lat="43.8624" lon="7.23883">
        <ele>685.6</ele>
        <time>2015-05-02T08:39:56Z</time>
      </trkpt>
      <trkpt lat="43.86248" lon="7.23874">
        <ele>686.3</ele>
        <time>2015-05-02T08:40:00Z</time>
      </trkpt>
      <trkpt lat="43.86257" lon="7.23865">
        <ele>686.8</ele>
        <time>2015-05-02T08:40:04Z</time>
      </trkpt>
      <trkpt lat="43.86267" lon="7.23859">
        <ele>688.1</ele>
        <time>2015-05-02T08:40:08Z</time>
      </trkpt>
      <trkpt lat="43.86277" lon="7.23852">
        <ele>688.4</ele>
        <time>2015-05-02T08:40:12Z</time>
      </trkpt>
      <trkpt lat="43.86286" lon="7.23845">
        <ele>688.7</ele>
        <time>2015-05-02T08:40:15Z</time>
      </trkpt>
      <trkpt lat="43.86295" lon="7.23838">
        <ele>688.6</ele>
        <time>2015-05-02T08:40:18Z</time>
      </trkpt>
      <trkpt lat="43.86306" lon="7.23835">
        <ele>689</ele>
        <time>2015-05-02T08:40:21Z</time>
      </trkpt>
      <trkpt lat="43.86318" lon="7.23839">
        <ele>689</ele>
        <time>2015-05-02T08:40:24Z</time>
      </trkpt>
      <trkpt lat="43.86324" lon="7.23849">
        <ele>689.5</ele>
        <time>2015-05-02T08:40:27Z</time>
      </trkpt>
      <trkpt lat="43.86328" lon="7.23862">
        <ele>689.4</ele>
        <time>2015-05-02T08:40:31Z</time>
      </trkpt>
      <trkpt lat="43.86333" lon="7.23877">
        <ele>689.4</ele>
        <time>2015-05-02T08:40:35Z</time>
      </trkpt>
      <trkpt lat="43.86338" lon="7.23889">
        <ele>690</ele>
        <time>2015-05-02T08:40:39Z</time>
      </trkpt>
      <trkpt lat="43.86346" lon="7.23899">
        <ele>691.8</ele>
        <time>2015-05-02T08:40:44Z</time>
      </trkpt>
      <trkpt lat="43.86355" lon="7.23904">
        <ele>691.1</ele>
        <time>2015-05-02T08:40:48Z</time>
      </trkpt>
      <trkpt lat="43.86364" lon="7.23906">
        <ele>692.6</ele>
        <time>2015-05-02T08:40:52Z</time>
      </trkpt>
      <trkpt lat="43.86375" lon="7.23907">
        <ele>692.9</ele>
        <time>2015-05-02T08:40:56Z</time>
      </trkpt>
      <trkpt lat="43.86384" lon="7.23908">
        <ele>692.5</ele>
        <time>2015-05-02T08:40:59Z</time>
      </trkpt>
      <trkpt lat="43.86395" lon="7.23911">
        <ele>694.3</ele>
        <time>2015-05-02T08:41:03Z</time>
      </trkpt>
      <trkpt lat="43.86404" lon="7.23918">
        <ele>695.1</ele>
        <time>2015-05-02T08:41:07Z</time>
      </trkpt>
      <trkpt lat="43.86413" lon="7.23923">
        <ele>695.8</ele>
        <time>2015-05-02T08:41:11Z</time>
      </trkpt>
      <trkpt lat="43.86423" lon="7.23924">
        <ele>696.4</ele>
        <time>2015-05-02T08:41:15Z</time>
      </trkpt>
      <trkpt lat="43.86433" lon="7.23923">
        <ele>696.6</ele>
        <time>2015-05-02T08:41:19Z</time>
      </trkpt>
      <trkpt lat="43.86443" lon="7.23922">
        <ele>698.4</ele>
        <time>2015-05-02T08:41:23Z</time>
      </trkpt>
      <trkpt lat="43.86453" lon="7.2392">
        <ele>699.2</ele>
        <time>2015-05-02T08:41:28Z</time>
      </trkpt>
      <trkpt lat="43.86464" lon="7.23918">
        <ele>700.6</ele>
        <time>2015-05-02T08:41:33Z</time>
      </trkpt>
      <trkpt lat="43.86473" lon="7.23917">
        <ele>702</ele>
        <time>2015-05-02T08:41:38Z</time>
      </trkpt>
      <trkpt lat="43.86483" lon="7.23917">
        <ele>702.4</ele>
        <time>2015-05-02T08:41:43Z</time>
      </trkpt>
      <trkpt lat="43.86494" lon="7.23916">
        <ele>702.9</ele>
        <time>2015-05-02T08:41:48Z</time>
      </trkpt>
      <trkpt lat="43.86502" lon="7.2391">
        <ele>703.6</ele>
        <time>2015-05-02T08:41:52Z</time>
      </trkpt>
      <trkpt lat="43.86508" lon="7.23898">
        <ele>704.7</ele>
        <time>2015-05-02T08:41:57Z</time>
      </trkpt>
      <trkpt lat="43.86514" lon="7.23885">
        <ele>705.2</ele>
        <time>2015-05-02T08:42:02Z</time>
      </trkpt>
      <trkpt lat="43.8652" lon="7.23875">
        <ele>706</ele>
        <time>2015-05-02T08:42:06Z</time>
      </trkpt>
      <trkpt lat="43.86527" lon="7.23863">
        <ele>707.3</ele>
        <time>2015-05-02T08:42:11Z</time>
      </trkpt>
      <trkpt lat="43.86534" lon="7.23854">
        <ele>708.1</ele>
        <time>2015-05-02T08:42:16Z</time>
      </trkpt>
      <trkpt lat="43.86543" lon="7.23848">
        <ele>708.7</ele>
        <time>2015-05-02T08:42:21Z</time>
      </trkpt>
      <trkpt lat="43.86553" lon="7.23851">
        <ele>710.1</ele>
        <time>2015-05-02T08:42:26Z</time>
      </trkpt>
      <trkpt lat="43.86563" lon="7.23856">
        <ele>710.5</ele>
        <time>2015-05-02T08:42:31Z</time>
      </trkpt>
      <trkpt lat="43.86572" lon="7.2386">
        <ele>711.2</ele>
        <time>2015-05-02T08:42:35Z</time>
      </trkpt>
      <trkpt lat="43.86582" lon="7.23864">
        <ele>712.3</ele>
        <time>2015-05-02T08:42:40Z</time>
      </trkpt>
      <trkpt lat="43.86592" lon="7.23869">
        <ele>712.3</ele>
        <time>2015-05-02T08:42:45Z</time>
      </trkpt>
      <trkpt lat="43.86601" lon="7.23875">
        <ele>713.5</ele>
        <time>2015-05-02T08:42:50Z</time>
      </trkpt>
      <trkpt lat="43.8661" lon="7.23883">
        <ele>715.2</ele>
        <time>2015-05-02T08:42:56Z</time>
      </trkpt>
      <trkpt lat="43.86617" lon="7.23894">
        <ele>716.8</ele>
        <time>2015-05-02T08:43:02Z</time>
      </trkpt>
      <trkpt lat="43.86623" lon="7.23905">
        <ele>717.3</ele>
        <time>2015-05-02T08:43:08Z</time>
      </trkpt>
      <trkpt lat="43.86627" lon="7.23917">
        <ele>718.1</ele>
        <time>2015-05-02T08:43:14Z</time>
      </trkpt>
      <trkpt lat="43.86631" lon="7.2393">
        <ele>718.3</ele>
        <time>2015-05-02T08:43:20Z</time>
      </trkpt>
      <trkpt lat="43.86635" lon="7.23943">
        <ele>719.7</ele>
        <time>2015-05-02T08:43:26Z</time>
      </trkpt>
      <trkpt lat="43.86639" lon="7.23956">
        <ele>721.1</ele>
        <time>2015-05-02T08:43:32Z</time>
      </trkpt>
      <trkpt lat="43.86644" lon="7.23968">
        <ele>720.9</ele>
        <time>2015-05-02T08:43:37Z</time>
      </trkpt>
      <trkpt lat="43.86649" lon="7.23979">
        <ele>722.4</ele>
        <time>2015-05-02T08:43:42Z</time>
      </trkpt>
      <trkpt lat="43.86655" lon="7.23988">
        <ele>724</ele>
        <time>2015-05-02T08:43:47Z</time>
      </trkpt>
      <trkpt lat="43.86663" lon="7.23995">
        <ele>725.3</ele>
        <time>2015-05-02T08:43:52Z</time>
      </trkpt>
      <trkpt lat="43.86671" lon="7.24002">
        <ele>725.6</ele>
        <time>2015-05-02T08:43:57Z</time>
      </trkpt>
      <trkpt lat="43.86679" lon="7.24008">
        <ele>726.8</ele>
        <time>2015-05-02T08:44:02Z</time>
      </trkpt>
      <trkpt lat="43.86685" lon="7.24018">
        <ele>727.7</ele>
        <time>2015-05-02T08:44:07Z</time>
      </trkpt>
      <trkpt lat="43.86689" lon="7.24031">
        <ele>728.3</ele>
        <time>2015-05-02T08:44:12Z</time>
      </trkpt>
      <trkpt lat="43.86691" lon="7.24044">
        <ele>729</ele>
        <time>2015-05-02T08:44:17Z</time>
      </trkpt>
      <trkpt lat="43.86689" lon="7.24058">
        <ele>729.7</ele>
        <time>2015-05-02T08:44:22Z</time>
      </trkpt>
      <trkpt lat="43.86684" lon="7.2407">
        <ele>729.8</ele>
        <time>2015-05-02T08:44:27Z</time>
      </trkpt>
      <trkpt lat="43.86677" lon="7.24082">
        <ele>730.8</ele>
        <time>2015-05-02T08:44:32Z</time>
      </trkpt>
      <trkpt lat="43.86671" lon="7.24095">
        <ele>732</ele>
        <time>2015-05-02T08:44:37Z</time>
      </trkpt>
      <trkpt lat="43.86666" lon="7.24107">
        <ele>732.8</ele>
        <time>2015-05-02T08:44:42Z</time>
      </trkpt>
      <trkpt lat="43.86658" lon="7.24116">
        <ele>733.5</ele>
        <time>2015-05-02T08:44:47Z</time>
      </trkpt>
      <trkpt lat="43.8665" lon="7.24122">
        <ele>734.4</ele>
        <time>2015-05-02T08:44:52Z</time>
      </trkpt>
      <trkpt lat="43.86642" lon="7.24129">
        <ele>733.7</ele>
        <time>2015-05-02T08:44:58Z</time>
      </trkpt>
      <trkpt lat="43.86635" lon="7.24138">
        <ele>733.6</ele>
        <time>2015-05-02T08:45:03Z</time>
      </trkpt>
      <trkpt lat="43.86626" lon="7.24146">
        <ele>733.2</ele>
        <time>2015-05-02T08:45:07Z</time>
      </trkpt>
      <trkpt lat="43.86617" lon="7.24152">
        <ele>733.7</ele>
        <time>2015-05-02T08:45:11Z</time>
      </trkpt>
      <trkpt lat="43.86607" lon="7.24157">
        <ele>734.7</ele>
        <time>2015-05-02T08:45:16Z</time>
      </trkpt>
      <trkpt lat="43.86599" lon="7.24162">
        <ele>735.6</ele>
        <time>2015-05-02T08:45:20Z</time>
      </trkpt>
      <trkpt lat="43.8659" lon="7.2417">
        <ele>735.8</ele>
        <time>2015-05-02T08:45:25Z</time>
      </trkpt>
      <trkpt lat="43.86581" lon="7.24176">
        <ele>737.2</ele>
        <time>2015-05-02T08:45:30Z</time>
      </trkpt>
      <trkpt lat="43.8657" lon="7.24179">
        <ele>738.4</ele>
        <time>2015-05-02T08:45:35Z</time>
      </trkpt>
      <trkpt lat="43.86561" lon="7.24182">
        <ele>739.1</ele>
        <time>2015-05-02T08:45:39Z</time>
      </trkpt>
      <trkpt lat="43.86552" lon="7.24187">
        <ele>739.5</ele>
        <time>2015-05-02T08:45:43Z</time>
      </trkpt>
      <trkpt lat="43.86543" lon="7.24192">
        <ele>740</ele>
        <time>2015-05-02T08:45:48Z</time>
      </trkpt>
      <trkpt lat="43.86533" lon="7.24196">
        <ele>742.2</ele>
        <time>2015-05-02T08:45:53Z</time>
      </trkpt>
      <trkpt lat="43.86523" lon="7.24198">
        <ele>742.9</ele>
        <time>2015-05-02T08:45:58Z</time>
      </trkpt>
      <trkpt lat="43.86512" lon="7.242">
        <ele>743.8</ele>
        <time>2015-05-02T08:46:03Z</time>
      </trkpt>
      <trkpt lat="43.86503" lon="7.24202">
        <ele>745.2</ele>
        <time>2015-05-02T08:46:08Z</time>
      </trkpt>
      <trkpt lat="43.86493" lon="7.24205">
        <ele>745.7</ele>
        <time>2015-05-02T08:46:13Z</time>
      </trkpt>
      <trkpt lat="43.86483" lon="7.2421">
        <ele>745.7</ele>
        <time>2015-05-02T08:46:18Z</time>
      </trkpt>
      <trkpt lat="43.86473" lon="7.24225">
        <ele>747</ele>
        <time>2015-05-02T08:46:25Z</time>
      </trkpt>
      <trkpt lat="43.86468" lon="7.24235">
        <ele>748.4</ele>
        <time>2015-05-02T08:46:30Z</time>
      </trkpt>
      <trkpt lat="43.86461" lon="7.24246">
        <ele>749</ele>
        <time>2015-05-02T08:46:35Z</time>
      </trkpt>
      <trkpt lat="43.86453" lon="7.24257">
        <ele>750.3</ele>
        <time>2015-05-02T08:46:40Z</time>
      </trkpt>
      <trkpt lat="43.86447" lon="7.24269">
        <ele>750.9</ele>
        <time>2015-05-02T08:46:45Z</time>
      </trkpt>
      <trkpt lat="43.86442" lon="7.24282">
        <ele>751.5</ele>
        <time>2015-05-02T08:46:50Z</time>
      </trkpt>
      <trkpt lat="43.86439" lon="7.24296">
        <ele>752.3</ele>
        <time>2015-05-02T08:46:55Z</time>
      </trkpt>
      <trkpt lat="43.86437" lon="7.24309">
        <ele>753.7</ele>
        <time>2015-05-02T08:47:00Z</time>
      </trkpt>
      <trkpt lat="43.86434" lon="7.24322">
        <ele>755.3</ele>
        <time>2015-05-02T08:47:07Z</time>
      </trkpt>
      <trkpt lat="43.86429" lon="7.24335">
        <ele>756.9</ele>
        <time>2015-05-02T08:47:13Z</time>
      </trkpt>
      <trkpt lat="43.86423" lon="7.24345">
        <ele>757.9</ele>
        <time>2015-05-02T08:47:19Z</time>
      </trkpt>
      <trkpt lat="43.86415" lon="7.24355">
        <ele>758.4</ele>
        <time>2015-05-02T08:47:25Z</time>
      </trkpt>
      <trkpt lat="43.86409" lon="7.24365">
        <ele>758.7</ele>
        <time>2015-05-02T08:47:30Z</time>
      </trkpt>
      <trkpt lat="43.86402" lon="7.24376">
        <ele>759.9</ele>
        <time>2015-05-02T08:47:35Z</time>
      </trkpt>
      <trkpt lat="43.86397" lon="7.24387">
        <ele>761.3</ele>
        <time>2015-05-02T08:47:40Z</time>
      </trkpt>
      <trkpt lat="43.86393" lon="7.24399">
        <ele>761.5</ele>
        <time>2015-05-02T08:47:45Z</time>
      </trkpt>
      <trkpt lat="43.86389" lon="7.2441">
        <ele>762.2</ele>
        <time>2015-05-02T08:47:50Z</time>
      </trkpt>
      <trkpt lat="43.86387" lon="7.24423">
        <ele>762.7</ele>
        <time>2015-05-02T08:47:55Z</time>
      </trkpt>
      <trkpt lat="43.86388" lon="7.24438">
        <ele>764</ele>
        <time>2015-05-02T08:48:01Z</time>
      </trkpt>
      <trkpt lat="43.86392" lon="7.24451">
        <ele>765.2</ele>
        <time>2015-05-02T08:48:07Z</time>
      </trkpt>
      <trkpt lat="43.86396" lon="7.24464">
        <ele>767</ele>
        <time>2015-05-02T08:48:13Z</time>
      </trkpt>
      <trkpt lat="43.86399" lon="7.24476">
        <ele>768.1</ele>
        <time>2015-05-02T08:48:18Z</time>
      </trkpt>
      <trkpt lat="43.86403" lon="7.24489">
        <ele>768.6</ele>
        <time>2015-05-02T08:48:23Z</time>
      </trkpt>
      <trkpt lat="43.86407" lon="7.24501">
        <ele>769.3</ele>
        <time>2015-05-02T08:48:28Z</time>
      </trkpt>
      <trkpt lat="43.86412" lon="7.24514">
        <ele>770</ele>
        <time>2015-05-02T08:48:33Z</time>
      </trkpt>
      <trkpt lat="43.86417" lon="7.24526">
        <ele>770.8</ele>
        <time>2015-05-02T08:48:38Z</time>
      </trkpt>
      <trkpt lat="43.86423" lon="7.24537">
        <ele>772.1</ele>
        <time>2015-05-02T08:48:43Z</time>
      </trkpt>
      <trkpt lat="43.8643" lon="7.24547">
        <ele>773.5</ele>
        <time>2015-05-02T08:48:48Z</time>
      </trkpt>
      <trkpt lat="43.86436" lon="7.24558">
        <ele>773.4</ele>
        <time>2015-05-02T08:48:53Z</time>
      </trkpt>
      <trkpt lat="43.8644" lon="7.24572">
        <ele>775.3</ele>
        <time>2015-05-02T08:48:58Z</time>
      </trkpt>
      <trkpt lat="43.86443" lon="7.24585">
        <ele>777.3</ele>
        <time>2015-05-02T08:49:03Z</time>
      </trkpt>
      <trkpt lat="43.86443" lon="7.24599">
        <ele>778.3</ele>
        <time>2015-05-02T08:49:08Z</time>
      </trkpt>
      <trkpt lat="43.86442" lon="7.24613">
        <ele>779.1</ele>
        <time>2015-05-02T08:49:13Z</time>
      </trkpt>
      <trkpt lat="43.86441" lon="7.24626">
        <ele>779.6</ele>
        <time>2015-05-02T08:49:18Z</time>
      </trkpt>
      <trkpt lat="43.86439" lon="7.24639">
        <ele>780</ele>
        <time>2015-05-02T08:49:23Z</time>
      </trkpt>
      <trkpt lat="43.86436" lon="7.24653">
        <ele>780.8</ele>
        <time>2015-05-02T08:49:28Z</time>
      </trkpt>
      <trkpt lat="43.86433" lon="7.24665">
        <ele>781.7</ele>
        <time>2015-05-02T08:49:33Z</time>
      </trkpt>
      <trkpt lat="43.86429" lon="7.24677">
        <ele>782.6</ele>
        <time>2015-05-02T08:49:38Z</time>
      </trkpt>
      <trkpt lat="43.86424" lon="7.24689">
        <ele>783.1</ele>
        <time>2015-05-02T08:49:43Z</time>
      </trkpt>
      <trkpt lat="43.8642" lon="7.24701">
        <ele>784.6</ele>
        <time>2015-05-02T08:49:48Z</time>
      </trkpt>
      <trkpt lat="43.86416" lon="7.24713">
        <ele>786.3</ele>
        <time>2015-05-02T08:49:53Z</time>
      </trkpt>
      <trkpt lat="43.86411" lon="7.24724">
        <ele>786.7</ele>
        <time>2015-05-02T08:49:58Z</time>
      </trkpt>
      <trkpt lat="43.86407" lon="7.24737">
        <ele>787.5</ele>
        <time>2015-05-02T08:50:03Z</time>
      </trkpt>
      <trkpt lat="43.86402" lon="7.24749">
        <ele>789.5</ele>
        <time>2015-05-02T08:50:08Z</time>
      </trkpt>
      <trkpt lat="43.86398" lon="7.24762">
        <ele>790.5</ele>
        <time>2015-05-02T08:50:13Z</time>
      </trkpt>
      <trkpt lat="43.86395" lon="7.24775">
        <ele>791</ele>
        <time>2015-05-02T08:50:18Z</time>
      </trkpt>
      <trkpt lat="43.86391" lon="7.24788">
        <ele>791.8</ele>
        <time>2015-05-02T08:50:23Z</time>
      </trkpt>
      <trkpt lat="43.86388" lon="7.24801">
        <ele>792.8</ele>
        <time>2015-05-02T08:50:28Z</time>
      </trkpt>
      <trkpt lat="43.86384" lon="7.24815">
        <ele>793.8</ele>
        <time>2015-05-02T08:50:33Z</time>
      </trkpt>
      <trkpt lat="43.86381" lon="7.24829">
        <ele>794.5</ele>
        <time>2015-05-02T08:50:38Z</time>
      </trkpt>
      <trkpt lat="43.86378" lon="7.24842">
        <ele>795</ele>
        <time>2015-05-02T08:50:43Z</time>
      </trkpt>
      <trkpt lat="43.86374" lon="7.24855">
        <ele>796.1</ele>
        <time>2015-05-02T08:50:48Z</time>
      </trkpt>
      <trkpt lat="43.86371" lon="7.24868">
        <ele>797.5</ele>
        <time>2015-05-02T08:50:53Z</time>
      </trkpt>
      <trkpt lat="43.86369" lon="7.24881">
        <ele>798.3</ele>
        <time>2015-05-02T08:50:58Z</time>
      </trkpt>
      <trkpt lat="43.86367" lon="7.24895">
        <ele>799.2</ele>
        <time>2015-05-02T08:51:03Z</time>
      </trkpt>
      <trkpt lat="43.86366" lon="7.24909">
        <ele>800.3</ele>
        <time>2015-05-02T08:51:08Z</time>
      </trkpt>
      <trkpt lat="43.86364" lon="7.24923">
        <ele>801.2</ele>
        <time>2015-05-02T08:51:13Z</time>
      </trkpt>
      <trkpt lat="43.86363" lon="7.24936">
        <ele>801</ele>
        <time>2015-05-02T08:51:18Z</time>
      </trkpt>
      <trkpt lat="43.86363" lon="7.24949">
        <ele>802.5</ele>
        <time>2015-05-02T08:51:23Z</time>
      </trkpt>
      <trkpt lat="43.86363" lon="7.24963">
        <ele>804</ele>
        <time>2015-05-02T08:51:28Z</time>
      </trkpt>
      <trkpt lat="43.86363" lon="7.24977">
        <ele>804.7</ele>
        <time>2015-05-02T08:51:33Z</time>
      </trkpt>
      <trkpt lat="43.86364" lon="7.2499">
        <ele>806.5</ele>
        <time>2015-05-02T08:51:38Z</time>
      </trkpt>
      <trkpt lat="43.86365" lon="7.25004">
        <ele>807.8</ele>
        <time>2015-05-02T08:51:43Z</time>
      </trkpt>
      <trkpt lat="43.86366" lon="7.25017">
        <ele>808.4</ele>
        <time>2015-05-02T08:51:48Z</time>
      </trkpt>
      <trkpt lat="43.86369" lon="7.25029">
        <ele>808.7</ele>
        <time>2015-05-02T08:51:53Z</time>
      </trkpt>
      <trkpt lat="43.86371" lon="7.25042">
        <ele>810.4</ele>
        <time>2015-05-02T08:51:58Z</time>
      </trkpt>
      <trkpt lat="43.86373" lon="7.25055">
        <ele>810.2</ele>
        <time>2015-05-02T08:52:03Z</time>
      </trkpt>
      <trkpt lat="43.86376" lon="7.25067">
        <ele>811.1</ele>
        <time>2015-05-02T08:52:08Z</time>
      </trkpt>
      <trkpt lat="43.8638" lon="7.25081">
        <ele>811.8</ele>
        <time>2015-05-02T08:52:14Z</time>
      </trkpt>
      <trkpt lat="43.86384" lon="7.25094">
        <ele>813</ele>
        <time>2015-05-02T08:52:19Z</time>
      </trkpt>
      <trkpt lat="43.86388" lon="7.25107">
        <ele>814.1</ele>
        <time>2015-05-02T08:52:24Z</time>
      </trkpt>
      <trkpt lat="43.86392" lon="7.2512">
        <ele>815.3</ele>
        <time>2015-05-02T08:52:29Z</time>
      </trkpt>
      <trkpt lat="43.86396" lon="7.25134">
        <ele>816.3</ele>
        <time>2015-05-02T08:52:34Z</time>
      </trkpt>
      <trkpt lat="43.864" lon="7.25147">
        <ele>818.1</ele>
        <time>2015-05-02T08:52:41Z</time>
      </trkpt>
      <trkpt lat="43.86402" lon="7.25159">
        <ele>818.3</ele>
        <time>2015-05-02T08:52:46Z</time>
      </trkpt>
      <trkpt lat="43.86405" lon="7.25172">
        <ele>819.7</ele>
        <time>2015-05-02T08:52:51Z</time>
      </trkpt>
      <trkpt lat="43.86409" lon="7.25185">
        <ele>820.6</ele>
        <time>2015-05-02T08:52:56Z</time>
      </trkpt>
      <trkpt lat="43.86413" lon="7.25198">
        <ele>820.9</ele>
        <time>2015-05-02T08:53:01Z</time>
      </trkpt>
      <trkpt lat="43.86416" lon="7.25211">
        <ele>822.2</ele>
        <time>2015-05-02T08:53:06Z</time>
      </trkpt>
      <trkpt lat="43.8642" lon="7.25225">
        <ele>823.3</ele>
        <time>2015-05-02T08:53:11Z</time>
      </trkpt>
      <trkpt lat="43.86423" lon="7.25238">
        <ele>823.8</ele>
        <time>2015-05-02T08:53:16Z</time>
      </trkpt>
      <trkpt lat="43.86426" lon="7.25252">
        <ele>825</ele>
        <time>2015-05-02T08:53:21Z</time>
      </trkpt>
      <trkpt lat="43.86429" lon="7.25266">
        <ele>826.3</ele>
        <time>2015-05-02T08:53:26Z</time>
      </trkpt>
      <trkpt lat="43.86432" lon="7.2528">
        <ele>827.1</ele>
        <time>2015-05-02T08:53:31Z</time>
      </trkpt>
      <trkpt lat="43.86434" lon="7.25294">
        <ele>827.9</ele>
        <time>2015-05-02T08:53:36Z</time>
      </trkpt>
      <trkpt lat="43.86437" lon="7.25308">
        <ele>828.6</ele>
        <time>2015-05-02T08:53:41Z</time>
      </trkpt>
      <trkpt lat="43.8644" lon="7.25322">
        <ele>829.9</ele>
        <time>2015-05-02T08:53:46Z</time>
      </trkpt>
      <trkpt lat="43.86442" lon="7.25335">
        <ele>831.4</ele>
        <time>2015-05-02T08:53:51Z</time>
      </trkpt>
      <trkpt lat="43.86445" lon="7.25349">
        <ele>831.9</ele>
        <time>2015-05-02T08:53:56Z</time>
      </trkpt>
      <trkpt lat="43.86447" lon="7.25362">
        <ele>833.8</ele>
        <time>2015-05-02T08:54:01Z</time>
      </trkpt>
      <trkpt lat="43.86451" lon="7.25375">
        <ele>834.2</ele>
        <time>2015-05-02T08:54:07Z</time>
      </trkpt>
      <trkpt lat="43.86453" lon="7.25388">
        <ele>833.5</ele>
        <time>2015-05-02T08:54:12Z</time>
      </trkpt>
      <trkpt lat="43.86454" lon="7.25401">
        <ele>835.5</ele>
        <time>2015-05-02T08:54:17Z</time>
      </trkpt>
      <trkpt lat="43.86454" lon="7.25414">
        <ele>836.2</ele>
        <time>2015-05-02T08:54:22Z</time>
      </trkpt>
      <trkpt lat="43.86455" lon="7.25429">
        <ele>837.9</ele>
        <time>2015-05-02T08:54:28Z</time>
      </trkpt>
      <trkpt lat="43.86459" lon="7.25442">
        <ele>839.3</ele>
        <time>2015-05-02T08:54:33Z</time>
      </trkpt>
      <trkpt lat="43.86463" lon="7.25453">
        <ele>839.7</ele>
        <time>2015-05-02T08:54:38Z</time>
      </trkpt>
      <trkpt lat="43.86466" lon="7.25466">
        <ele>840.9</ele>
        <time>2015-05-02T08:54:43Z</time>
      </trkpt>
      <trkpt lat="43.86468" lon="7.25478">
        <ele>841.6</ele>
        <time>2015-05-02T08:54:48Z</time>
      </trkpt>
      <trkpt lat="43.86471" lon="7.25491">
        <ele>843</ele>
        <time>2015-05-02T08:54:53Z</time>
      </trkpt>
      <trkpt lat="43.86473" lon="7.25504">
        <ele>843.7</ele>
        <time>2015-05-02T08:54:58Z</time>
      </trkpt>
      <trkpt lat="43.86475" lon="7.25517">
        <ele>843.9</ele>
        <time>2015-05-02T08:55:03Z</time>
      </trkpt>
      <trkpt lat="43.86477" lon="7.2553">
        <ele>845.1</ele>
        <time>2015-05-02T08:55:08Z</time>
      </trkpt>
      <trkpt lat="43.86479" lon="7.25544">
        <ele>846.3</ele>
        <time>2015-05-02T08:55:14Z</time>
      </trkpt>
      <trkpt lat="43.86482" lon="7.25559">
        <ele>847.5</ele>
        <time>2015-05-02T08:55:20Z</time>
      </trkpt>
      <trkpt lat="43.86486" lon="7.25571">
        <ele>848.3</ele>
        <time>2015-05-02T08:55:25Z</time>
      </trkpt>
      <trkpt lat="43.86489" lon="7.25583">
        <ele>849.3</ele>
        <time>2015-05-02T08:55:30Z</time>
      </trkpt>
      <trkpt lat="43.86495" lon="7.25595">
        <ele>850.3</ele>
        <time>2015-05-02T08:55:35Z</time>
      </trkpt>
      <trkpt lat="43.86501" lon="7.25605">
        <ele>851.6</ele>
        <time>2015-05-02T08:55:40Z</time>
      </trkpt>
      <trkpt lat="43.86507" lon="7.25615">
        <ele>852.2</ele>
        <time>2015-05-02T08:55:45Z</time>
      </trkpt>
      <trkpt lat="43.86514" lon="7.25625">
        <ele>853.7</ele>
        <time>2015-05-02T08:55:50Z</time>
      </trkpt>
      <trkpt lat="43.86522" lon="7.25634">
        <ele>854.3</ele>
        <time>2015-05-02T08:55:55Z</time>
      </trkpt>
      <trkpt lat="43.86531" lon="7.25642">
        <ele>855</ele>
        <time>2015-05-02T08:56:00Z</time>
      </trkpt>
      <trkpt lat="43.86539" lon="7.25651">
        <ele>856</ele>
        <time>2015-05-02T08:56:05Z</time>
      </trkpt>
      <trkpt lat="43.86546" lon="7.25661">
        <ele>856.8</ele>
        <time>2015-05-02T08:56:10Z</time>
      </trkpt>
      <trkpt lat="43.86551" lon="7.25673">
        <ele>857.7</ele>
        <time>2015-05-02T08:56:15Z</time>
      </trkpt>
      <trkpt lat="43.86555" lon="7.25685">
        <ele>858.4</ele>
        <time>2015-05-02T08:56:20Z</time>
      </trkpt>
      <trkpt lat="43.86557" lon="7.25698">
        <ele>858.9</ele>
        <time>2015-05-02T08:56:25Z</time>
      </trkpt>
      <trkpt lat="43.8656" lon="7.25711">
        <ele>859.9</ele>
        <time>2015-05-02T08:56:30Z</time>
      </trkpt>
      <trkpt lat="43.86568" lon="7.25719">
        <ele>861.4</ele>
        <time>2015-05-02T08:56:35Z</time>
      </trkpt>
      <trkpt lat="43.86573" lon="7.25705">
        <ele>862.4</ele>
        <time>2015-05-02T08:56:41Z</time>
      </trkpt>
      <trkpt lat="43.8657" lon="7.25692">
        <ele>863.4</ele>
        <time>2015-05-02T08:56:46Z</time>
      </trkpt>
      <trkpt lat="43.86568" lon="7.25677">
        <ele>864.2</ele>
        <time>2015-05-02T08:56:51Z</time>
      </trkpt>
      <trkpt lat="43.86567" lon="7.25664">
        <ele>865.7</ele>
        <time>2015-05-02T08:56:55Z</time>
      </trkpt>
      <trkpt lat="43.86563" lon="7.2565">
        <ele>865.7</ele>
        <time>2015-05-02T08:57:00Z</time>
      </trkpt>
      <trkpt lat="43.86558" lon="7.25638">
        <ele>866.6</ele>
        <time>2015-05-02T08:57:05Z</time>
      </trkpt>
      <trkpt lat="43.86552" lon="7.25626">
        <ele>867.9</ele>
        <time>2015-05-02T08:57:10Z</time>
      </trkpt>
      <trkpt lat="43.86548" lon="7.25613">
        <ele>868.8</ele>
        <time>2015-05-02T08:57:15Z</time>
      </trkpt>
      <trkpt lat="43.86546" lon="7.25599">
        <ele>869.7</ele>
        <time>2015-05-02T08:57:20Z</time>
      </trkpt>
      <trkpt lat="43.86545" lon="7.25585">
        <ele>870.9</ele>
        <time>2015-05-02T08:57:25Z</time>
      </trkpt>
      <trkpt lat="43.86545" lon="7.25571">
        <ele>871.5</ele>
        <time>2015-05-02T08:57:30Z</time>
      </trkpt>
      <trkpt lat="43.86545" lon="7.25557">
        <ele>873.3</ele>
        <time>2015-05-02T08:57:35Z</time>
      </trkpt>
      <trkpt lat="43.86546" lon="7.25543">
        <ele>874</ele>
        <time>2015-05-02T08:57:40Z</time>
      </trkpt>
      <trkpt lat="43.86548" lon="7.25528">
        <ele>874.9</ele>
        <time>2015-05-02T08:57:45Z</time>
      </trkpt>
      <trkpt lat="43.86549" lon="7.25515">
        <ele>876.3</ele>
        <time>2015-05-02T08:57:50Z</time>
      </trkpt>
      <trkpt lat="43.8655" lon="7.255">
        <ele>877.2</ele>
        <time>2015-05-02T08:57:55Z</time>
      </trkpt>
      <trkpt lat="43.8655" lon="7.25486">
        <ele>879</ele>
        <time>2015-05-02T08:58:00Z</time>
      </trkpt>
      <trkpt lat="43.86548" lon="7.25472">
        <ele>879.4</ele>
        <time>2015-05-02T08:58:05Z</time>
      </trkpt>
      <trkpt lat="43.86546" lon="7.25457">
        <ele>880.1</ele>
        <time>2015-05-02T08:58:10Z</time>
      </trkpt>
      <trkpt lat="43.86545" lon="7.25443">
        <ele>881.1</ele>
        <time>2015-05-02T08:58:15Z</time>
      </trkpt>
      <trkpt lat="43.86543" lon="7.25428">
        <ele>882</ele>
        <time>2015-05-02T08:58:20Z</time>
      </trkpt>
      <trkpt lat="43.8654" lon="7.25414">
        <ele>882.8</ele>
        <time>2015-05-02T08:58:25Z</time>
      </trkpt>
      <trkpt lat="43.86537" lon="7.254">
        <ele>883.5</ele>
        <time>2015-05-02T08:58:30Z</time>
      </trkpt>
      <trkpt lat="43.86534" lon="7.25386">
        <ele>884.5</ele>
        <time>2015-05-02T08:58:35Z</time>
      </trkpt>
      <trkpt lat="43.8653" lon="7.25372">
        <ele>885.8</ele>
        <time>2015-05-02T08:58:40Z</time>
      </trkpt>
      <trkpt lat="43.86527" lon="7.2536">
        <ele>886.6</ele>
        <time>2015-05-02T08:58:44Z</time>
      </trkpt>
      <trkpt lat="43.86525" lon="7.25348">
        <ele>887.2</ele>
        <time>2015-05-02T08:58:48Z</time>
      </trkpt>
      <trkpt lat="43.86524" lon="7.25335">
        <ele>888.8</ele>
        <time>2015-05-02T08:58:53Z</time>
      </trkpt>
      <trkpt lat="43.86522" lon="7.25322">
        <ele>890.1</ele>
        <time>2015-05-02T08:58:58Z</time>
      </trkpt>
      <trkpt lat="43.86521" lon="7.25308">
        <ele>890.6</ele>
        <time>2015-05-02T08:59:04Z</time>
      </trkpt>
      <trkpt lat="43.86529" lon="7.25301">
        <ele>891.6</ele>
        <time>2015-05-02T08:59:10Z</time>
      </trkpt>
      <trkpt lat="43.86535" lon="7.25313">
        <ele>890.7</ele>
        <time>2015-05-02T08:59:15Z</time>
      </trkpt>
      <trkpt lat="43.86536" lon="7.25326">
        <ele>892.4</ele>
        <time>2015-05-02T08:59:20Z</time>
      </trkpt>
      <trkpt lat="43.86537" lon="7.25339">
        <ele>893.3</ele>
        <time>2015-05-02T08:59:25Z</time>
      </trkpt>
      <trkpt lat="43.86541" lon="7.25353">
        <ele>894.5</ele>
        <time>2015-05-02T08:59:30Z</time>
      </trkpt>
      <trkpt lat="43.86544" lon="7.25366">
        <ele>895</ele>
        <time>2015-05-02T08:59:35Z</time>
      </trkpt>
      <trkpt lat="43.86549" lon="7.25379">
        <ele>896.5</ele>
        <time>2015-05-02T08:59:40Z</time>
      </trkpt>
      <trkpt lat="43.86555" lon="7.25391">
        <ele>897.2</ele>
        <time>2015-05-02T08:59:45Z</time>
      </trkpt>
      <trkpt lat="43.8656" lon="7.25402">
        <ele>897.6</ele>
        <time>2015-05-02T08:59:50Z</time>
      </trkpt>
      <trkpt lat="43.86567" lon="7.25415">
        <ele>898.2</ele>
        <time>2015-05-02T08:59:55Z</time>
      </trkpt>
      <trkpt lat="43.86572" lon="7.25427">
        <ele>900.1</ele>
        <time>2015-05-02T09:00:00Z</time>
      </trkpt>
      <trkpt lat="43.86576" lon="7.2544">
        <ele>900.6</ele>
        <time>2015-05-02T09:00:05Z</time>
      </trkpt>
      <trkpt lat="43.86581" lon="7.25451">
        <ele>902.4</ele>
        <time>2015-05-02T09:00:10Z</time>
      </trkpt>
      <trkpt lat="43.86587" lon="7.25461">
        <ele>902.8</ele>
        <time>2015-05-02T09:00:15Z</time>
      </trkpt>
      <trkpt lat="43.86593" lon="7.25471">
        <ele>903.8</ele>
        <time>2015-05-02T09:00:20Z</time>
      </trkpt>
      <trkpt lat="43.866" lon="7.25482">
        <ele>904.5</ele>
        <time>2015-05-02T09:00:25Z</time>
      </trkpt>
      <trkpt lat="43.86604" lon="7.25493">
        <ele>906.4</ele>
        <time>2015-05-02T09:00:30Z</time>
      </trkpt>
      <trkpt lat="43.86608" lon="7.25505">
        <ele>906.8</ele>
        <time>2015-05-02T09:00:35Z</time>
      </trkpt>
      <trkpt lat="43.86613" lon="7.25517">
        <ele>907.9</ele>
        <time>2015-05-02T09:00:40Z</time>
      </trkpt>
      <trkpt lat="43.86618" lon="7.25529">
        <ele>907.6</ele>
        <time>2015-05-02T09:00:45Z</time>
      </trkpt>
      <trkpt lat="43.86622" lon="7.2554">
        <ele>908.9</ele>
        <time>2015-05-02T09:00:50Z</time>
      </trkpt>
      <trkpt lat="43.86627" lon="7.25553">
        <ele>910</ele>
        <time>2015-05-02T09:00:55Z</time>
      </trkpt>
      <trkpt lat="43.86632" lon="7.25564">
        <ele>911.5</ele>
        <time>2015-05-02T09:01:00Z</time>
      </trkpt>
      <trkpt lat="43.86636" lon="7.25575">
        <ele>912.2</ele>
        <time>2015-05-02T09:01:05Z</time>
      </trkpt>
      <trkpt lat="43.86641" lon="7.25586">
        <ele>912.7</ele>
        <time>2015-05-02T09:01:10Z</time>
      </trkpt>
      <trkpt lat="43.86644" lon="7.25599">
        <ele>913.7</ele>
        <time>2015-05-02T09:01:15Z</time>
      </trkpt>
      <trkpt lat="43.86649" lon="7.2561">
        <ele>914</ele>
        <time>2015-05-02T09:01:20Z</time>
      </trkpt>
      <trkpt lat="43.86653" lon="7.25622">
        <ele>915.8</ele>
        <time>2015-05-02T09:01:25Z</time>
      </trkpt>
      <trkpt lat="43.86659" lon="7.25633">
        <ele>917.4</ele>
        <time>2015-05-02T09:01:30Z</time>
      </trkpt>
      <trkpt lat="43.86664" lon="7.25645">
        <ele>917.6</ele>
        <time>2015-05-02T09:01:35Z</time>
      </trkpt>
      <trkpt lat="43.86669" lon="7.25656">
        <ele>919.3</ele>
        <time>2015-05-02T09:01:40Z</time>
      </trkpt>
      <trkpt lat="43.86674" lon="7.25667">
        <ele>920.8</ele>
        <time>2015-05-02T09:01:45Z</time>
      </trkpt>
      <trkpt lat="43.86681" lon="7.25678">
        <ele>921.5</ele>
        <time>2015-05-02T09:01:51Z</time>
      </trkpt>
      <trkpt lat="43.86686" lon="7.25688">
        <ele>922</ele>
        <time>2015-05-02T09:01:56Z</time>
      </trkpt>
      <trkpt lat="43.86693" lon="7.25699">
        <ele>922.3</ele>
        <time>2015-05-02T09:02:01Z</time>
      </trkpt>
      <trkpt lat="43.86699" lon="7.25709">
        <ele>923.7</ele>
        <time>2015-05-02T09:02:06Z</time>
      </trkpt>
      <trkpt lat="43.86705" lon="7.2572">
        <ele>924.8</ele>
        <time>2015-05-02T09:02:11Z</time>
      </trkpt>
      <trkpt lat="43.86709" lon="7.25732">
        <ele>925.1</ele>
        <time>2015-05-02T09:02:16Z</time>
      </trkpt>
      <trkpt lat="43.86713" lon="7.25746">
        <ele>925.2</ele>
        <time>2015-05-02T09:02:21Z</time>
      </trkpt>
      <trkpt lat="43.86717" lon="7.25759">
        <ele>925.9</ele>
        <time>2015-05-02T09:02:26Z</time>
      </trkpt>
      <trkpt lat="43.86721" lon="7.25771">
        <ele>926.5</ele>
        <time>2015-05-02T09:02:31Z</time>
      </trkpt>
      <trkpt lat="43.86725" lon="7.25783">
        <ele>927</ele>
        <time>2015-05-02T09:02:36Z</time>
      </trkpt>
      <trkpt lat="43.8673" lon="7.25794">
        <ele>928.6</ele>
        <time>2015-05-02T09:02:41Z</time>
      </trkpt>
      <trkpt lat="43.86736" lon="7.25805">
        <ele>929.2</ele>
        <time>2015-05-02T09:02:46Z</time>
      </trkpt>
      <trkpt lat="43.8674" lon="7.25817">
        <ele>930.8</ele>
        <time>2015-05-02T09:02:51Z</time>
      </trkpt>
      <trkpt lat="43.86745" lon="7.25829">
        <ele>931.3</ele>
        <time>2015-05-02T09:02:56Z</time>
      </trkpt>
      <trkpt lat="43.86751" lon="7.2584">
        <ele>932.6</ele>
        <time>2015-05-02T09:03:01Z</time>
      </trkpt>
      <trkpt lat="43.86758" lon="7.25849">
        <ele>933.4</ele>
        <time>2015-05-02T09:03:06Z</time>
      </trkpt>
      <trkpt lat="43.86766" lon="7.25855">
        <ele>934.3</ele>
        <time>2015-05-02T09:03:11Z</time>
      </trkpt>
      <trkpt lat="43.86775" lon="7.2586">
        <ele>935.4</ele>
        <time>2015-05-02T09:03:16Z</time>
      </trkpt>
      <trkpt lat="43.86783" lon="7.25868">
        <ele>936.1</ele>
        <time>2015-05-02T09:03:21Z</time>
      </trkpt>
      <trkpt lat="43.86792" lon="7.25875">
        <ele>938</ele>
        <time>2015-05-02T09:03:26Z</time>
      </trkpt>
      <trkpt lat="43.868" lon="7.2588">
        <ele>938.3</ele>
        <time>2015-05-02T09:03:31Z</time>
      </trkpt>
      <trkpt lat="43.86809" lon="7.25885">
        <ele>939.3</ele>
        <time>2015-05-02T09:03:36Z</time>
      </trkpt>
      <trkpt lat="43.86818" lon="7.2589">
        <ele>940.4</ele>
        <time>2015-05-02T09:03:41Z</time>
      </trkpt>
      <trkpt lat="43.86825" lon="7.259">
        <ele>942.2</ele>
        <time>2015-05-02T09:03:46Z</time>
      </trkpt>
      <trkpt lat="43.86829" lon="7.25913">
        <ele>943.4</ele>
        <time>2015-05-02T09:03:51Z</time>
      </trkpt>
      <trkpt lat="43.86828" lon="7.25926">
        <ele>944.1</ele>
        <time>2015-05-02T09:03:56Z</time>
      </trkpt>
      <trkpt lat="43.86824" lon="7.25939">
        <ele>945.5</ele>
        <time>2015-05-02T09:04:01Z</time>
      </trkpt>
      <trkpt lat="43.86818" lon="7.25951">
        <ele>946.1</ele>
        <time>2015-05-02T09:04:06Z</time>
      </trkpt>
      <trkpt lat="43.86812" lon="7.25963">
        <ele>947.2</ele>
        <time>2015-05-02T09:04:12Z</time>
      </trkpt>
      <trkpt lat="43.86806" lon="7.25973">
        <ele>947.8</ele>
        <time>2015-05-02T09:04:17Z</time>
      </trkpt>
      <trkpt lat="43.868" lon="7.25983">
        <ele>949.4</ele>
        <time>2015-05-02T09:04:22Z</time>
      </trkpt>
      <trkpt lat="43.86795" lon="7.25995">
        <ele>950</ele>
        <time>2015-05-02T09:04:27Z</time>
      </trkpt>
      <trkpt lat="43.86801" lon="7.26005">
        <ele>952.7</ele>
        <time>2015-05-02T09:04:33Z</time>
      </trkpt>
      <trkpt lat="43.86809" lon="7.25997">
        <ele>951.4</ele>
        <time>2015-05-02T09:04:39Z</time>
      </trkpt>
      <trkpt lat="43.86814" lon="7.25985">
        <ele>952.4</ele>
        <time>2015-05-02T09:04:44Z</time>
      </trkpt>
      <trkpt lat="43.86819" lon="7.25973">
        <ele>953.8</ele>
        <time>2015-05-02T09:04:49Z</time>
      </trkpt>
      <trkpt lat="43.86825" lon="7.25961">
        <ele>954.2</ele>
        <time>2015-05-02T09:04:54Z</time>
      </trkpt>
      <trkpt lat="43.86831" lon="7.2595">
        <ele>954.7</ele>
        <time>2015-05-02T09:04:59Z</time>
      </trkpt>
      <trkpt lat="43.86838" lon="7.2594">
        <ele>956</ele>
        <time>2015-05-02T09:05:04Z</time>
      </trkpt>
      <trkpt lat="43.86846" lon="7.25933">
        <ele>957.4</ele>
        <time>2015-05-02T09:05:09Z</time>
      </trkpt>
      <trkpt lat="43.86854" lon="7.25928">
        <ele>958.2</ele>
        <time>2015-05-02T09:05:14Z</time>
      </trkpt>
      <trkpt lat="43.8686" lon="7.25918">
        <ele>959.5</ele>
        <time>2015-05-02T09:05:19Z</time>
      </trkpt>
      <trkpt lat="43.8686" lon="7.25905">
        <ele>961.2</ele>
        <time>2015-05-02T09:05:24Z</time>
      </trkpt>
      <trkpt lat="43.86856" lon="7.25892">
        <ele>961.3</ele>
        <time>2015-05-02T09:05:29Z</time>
      </trkpt>
      <trkpt lat="43.8685" lon="7.25881">
        <ele>962.8</ele>
        <time>2015-05-02T09:05:34Z</time>
      </trkpt>
      <trkpt lat="43.86844" lon="7.25869">
        <ele>963.8</ele>
        <time>2015-05-02T09:05:39Z</time>
      </trkpt>
      <trkpt lat="43.86837" lon="7.25859">
        <ele>964.2</ele>
        <time>2015-05-02T09:05:44Z</time>
      </trkpt>
      <trkpt lat="43.86831" lon="7.25848">
        <ele>965.1</ele>
        <time>2015-05-02T09:05:49Z</time>
      </trkpt>
      <trkpt lat="43.86825" lon="7.25837">
        <ele>966.1</ele>
        <time>2015-05-02T09:05:54Z</time>
      </trkpt>
      <trkpt lat="43.8682" lon="7.25825">
        <ele>966.9</ele>
        <time>2015-05-02T09:05:59Z</time>
      </trkpt>
      <trkpt lat="43.86816" lon="7.25813">
        <ele>966.3</ele>
        <time>2015-05-02T09:06:04Z</time>
      </trkpt>
      <trkpt lat="43.86812" lon="7.258">
        <ele>967.8</ele>
        <time>2015-05-02T09:06:09Z</time>
      </trkpt>
      <trkpt lat="43.86808" lon="7.25787">
        <ele>969.3</ele>
        <time>2015-05-02T09:06:14Z</time>
      </trkpt>
      <trkpt lat="43.86804" lon="7.25773">
        <ele>970.2</ele>
        <time>2015-05-02T09:06:19Z</time>
      </trkpt>
      <trkpt lat="43.868" lon="7.2576">
        <ele>971.2</ele>
        <time>2015-05-02T09:06:24Z</time>
      </trkpt>
      <trkpt lat="43.86795" lon="7.25747">
        <ele>972.5</ele>
        <time>2015-05-02T09:06:29Z</time>
      </trkpt>
      <trkpt lat="43.86791" lon="7.25734">
        <ele>973.2</ele>
        <time>2015-05-02T09:06:34Z</time>
      </trkpt>
      <trkpt lat="43.86787" lon="7.25722">
        <ele>973.5</ele>
        <time>2015-05-02T09:06:39Z</time>
      </trkpt>
      <trkpt lat="43.86783" lon="7.25709">
        <ele>974.7</ele>
        <time>2015-05-02T09:06:44Z</time>
      </trkpt>
      <trkpt lat="43.86778" lon="7.25696">
        <ele>975.7</ele>
        <time>2015-05-02T09:06:49Z</time>
      </trkpt>
      <trkpt lat="43.86774" lon="7.25682">
        <ele>975.7</ele>
        <time>2015-05-02T09:06:54Z</time>
      </trkpt>
      <trkpt lat="43.8677" lon="7.25668">
        <ele>978.1</ele>
        <time>2015-05-02T09:06:59Z</time>
      </trkpt>
      <trkpt lat="43.86766" lon="7.25655">
        <ele>978.8</ele>
        <time>2015-05-02T09:07:04Z</time>
      </trkpt>
      <trkpt lat="43.86762" lon="7.25641">
        <ele>980.4</ele>
        <time>2015-05-02T09:07:09Z</time>
      </trkpt>
      <trkpt lat="43.86759" lon="7.25627">
        <ele>981.6</ele>
        <time>2015-05-02T09:07:14Z</time>
      </trkpt>
      <trkpt lat="43.86756" lon="7.25613">
        <ele>982.8</ele>
        <time>2015-05-02T09:07:19Z</time>
      </trkpt>
      <trkpt lat="43.86753" lon="7.25598">
        <ele>983.1</ele>
        <time>2015-05-02T09:07:24Z</time>
      </trkpt>
      <trkpt lat="43.8675" lon="7.25584">
        <ele>984</ele>
        <time>2015-05-02T09:07:29Z</time>
      </trkpt>
      <trkpt lat="43.86747" lon="7.2557">
        <ele>985.1</ele>
        <time>2015-05-02T09:07:34Z</time>
      </trkpt>
      <trkpt lat="43.86743" lon="7.25556">
        <ele>986.4</ele>
        <time>2015-05-02T09:07:39Z</time>
      </trkpt>
      <trkpt lat="43.86738" lon="7.25542">
        <ele>987.2</ele>
        <time>2015-05-02T09:07:44Z</time>
      </trkpt>
      <trkpt lat="43.86742" lon="7.25532">
        <ele>989.1</ele>
        <time>2015-05-02T09:07:50Z</time>
      </trkpt>
      <trkpt lat="43.86747" lon="7.25543">
        <ele>990.1</ele>
        <time>2015-05-02T09:07:55Z</time>
      </trkpt>
      <trkpt lat="43.8675" lon="7.25557">
        <ele>990.5</ele>
        <time>2015-05-02T09:08:00Z</time>
      </trkpt>
      <trkpt lat="43.86755" lon="7.25569">
        <ele>990.5</ele>
        <time>2015-05-02T09:08:05Z</time>
      </trkpt>
      <trkpt lat="43.8676" lon="7.25581">
        <ele>991.2</ele>
        <time>2015-05-02T09:08:10Z</time>
      </trkpt>
      <trkpt lat="43.86765" lon="7.25594">
        <ele>992.5</ele>
        <time>2015-05-02T09:08:15Z</time>
      </trkpt>
      <trkpt lat="43.8677" lon="7.25607">
        <ele>994.5</ele>
        <time>2015-05-02T09:08:20Z</time>
      </trkpt>
      <trkpt lat="43.86774" lon="7.25618">
        <ele>996.2</ele>
        <time>2015-05-02T09:08:24Z</time>
      </trkpt>
      <trkpt lat="43.86781" lon="7.25631">
        <ele>995.8</ele>
        <time>2015-05-02T09:08:29Z</time>
      </trkpt>
      <trkpt lat="43.86789" lon="7.25641">
        <ele>997.2</ele>
        <time>2015-05-02T09:08:34Z</time>
      </trkpt>
      <trkpt lat="43.86796" lon="7.25653">
        <ele>998.5</ele>
        <time>2015-05-02T09:08:39Z</time>
      </trkpt>
      <trkpt lat="43.86802" lon="7.25665">
        <ele>999.1</ele>
        <time>2015-05-02T09:08:44Z</time>
      </trkpt>
      <trkpt lat="43.86809" lon="7.25677">
        <ele>1001.1</ele>
        <time>2015-05-02T09:08:49Z</time>
      </trkpt>
      <trkpt lat="43.86816" lon="7.25688">
        <ele>1002.3</ele>
        <time>2015-05-02T09:08:54Z</time>
      </trkpt>
      <trkpt lat="43.86824" lon="7.25699">
        <ele>1002.4</ele>
        <time>2015-05-02T09:08:59Z</time>
      </trkpt>
      <trkpt lat="43.86832" lon="7.2571">
        <ele>1004</ele>
        <time>2015-05-02T09:09:04Z</time>
      </trkpt>
      <trkpt lat="43.8684" lon="7.2572">
        <ele>1005.2</ele>
        <time>2015-05-02T09:09:09Z</time>
      </trkpt>
      <trkpt lat="43.86847" lon="7.25731">
        <ele>1006.6</ele>
        <time>2015-05-02T09:09:14Z</time>
      </trkpt>
      <trkpt lat="43.86853" lon="7.2574">
        <ele>1007.6</ele>
        <time>2015-05-02T09:09:18Z</time>
      </trkpt>
      <trkpt lat="43.86861" lon="7.25751">
        <ele>1007.5</ele>
        <time>2015-05-02T09:09:23Z</time>
      </trkpt>
      <trkpt lat="43.86868" lon="7.25761">
        <ele>1008.2</ele>
        <time>2015-05-02T09:09:28Z</time>
      </trkpt>
      <trkpt lat="43.86875" lon="7.25772">
        <ele>1009.7</ele>
        <time>2015-05-02T09:09:33Z</time>
      </trkpt>
      <trkpt lat="43.86883" lon="7.25782">
        <ele>1011.2</ele>
        <time>2015-05-02T09:09:38Z</time>
      </trkpt>
      <trkpt lat="43.86891" lon="7.25792">
        <ele>1012.4</ele>
        <time>2015-05-02T09:09:43Z</time>
      </trkpt>
      <trkpt lat="43.86899" lon="7.25801">
        <ele>1014</ele>
        <time>2015-05-02T09:09:48Z</time>
      </trkpt>
      <trkpt lat="43.86906" lon="7.25811">
        <ele>1015</ele>
        <time>2015-05-02T09:09:53Z</time>
      </trkpt>
      <trkpt lat="43.86914" lon="7.25821">
        <ele>1015.2</ele>
        <time>2015-05-02T09:09:58Z</time>
      </trkpt>
      <trkpt lat="43.86922" lon="7.25831">
        <ele>1017</ele>
        <time>2015-05-02T09:10:03Z</time>
      </trkpt>
      <trkpt lat="43.8693" lon="7.2584">
        <ele>1018.8</ele>
        <time>2015-05-02T09:10:08Z</time>
      </trkpt>
      <trkpt lat="43.86938" lon="7.25849">
        <ele>1019.3</ele>
        <time>2015-05-02T09:10:13Z</time>
      </trkpt>
      <trkpt lat="43.86945" lon="7.25858">
        <ele>1020.3</ele>
        <time>2015-05-02T09:10:17Z</time>
      </trkpt>
      <trkpt lat="43.86952" lon="7.25868">
        <ele>1021.5</ele>
        <time>2015-05-02T09:10:22Z</time>
      </trkpt>
      <trkpt lat="43.8696" lon="7.25877">
        <ele>1021.9</ele>
        <time>2015-05-02T09:10:27Z</time>
      </trkpt>
      <trkpt lat="43.86966" lon="7.25886">
        <ele>1023.5</ele>
        <time>2015-05-02T09:10:32Z</time>
      </trkpt>
      <trkpt lat="43.86973" lon="7.25895">
        <ele>1024.7</ele>
        <time>2015-05-02T09:10:37Z</time>
      </trkpt>
      <trkpt lat="43.86981" lon="7.25902">
        <ele>1025.4</ele>
        <time>2015-05-02T09:10:43Z</time>
      </trkpt>
      <trkpt lat="43.8699" lon="7.25908">
        <ele>1026.6</ele>
        <time>2015-05-02T09:10:50Z</time>
      </trkpt>
      <trkpt lat="43.86998" lon="7.25916">
        <ele>1028</ele>
        <time>2015-05-02T09:10:57Z</time>
      </trkpt>
      <trkpt lat="43.87007" lon="7.25922">
        <ele>1028.7</ele>
        <time>2015-05-02T09:11:04Z</time>
      </trkpt>
      <trkpt lat="43.87015" lon="7.2593">
        <ele>1029.1</ele>
        <time>2015-05-02T09:11:10Z</time>
      </trkpt>
      <trkpt lat="43.87023" lon="7.25938">
        <ele>1030.4</ele>
        <time>2015-05-02T09:11:16Z</time>
      </trkpt>
      <trkpt lat="43.8703" lon="7.25947">
        <ele>1032.2</ele>
        <time>2015-05-02T09:11:22Z</time>
      </trkpt>
      <trkpt lat="43.87035" lon="7.25957">
        <ele>1032.9</ele>
        <time>2015-05-02T09:11:28Z</time>
      </trkpt>
      <trkpt lat="43.87034" lon="7.25971">
        <ele>1035</ele>
        <time>2015-05-02T09:11:35Z</time>
      </trkpt>
      <trkpt lat="43.87029" lon="7.25981">
        <ele>1035.1</ele>
        <time>2015-05-02T09:11:40Z</time>
      </trkpt>
      <trkpt lat="43.87022" lon="7.2599">
        <ele>1035</ele>
        <time>2015-05-02T09:11:45Z</time>
      </trkpt>
      <trkpt lat="43.87016" lon="7.25999">
        <ele>1036.9</ele>
        <time>2015-05-02T09:11:50Z</time>
      </trkpt>
      <trkpt lat="43.8701" lon="7.26011">
        <ele>1038.6</ele>
        <time>2015-05-02T09:11:56Z</time>
      </trkpt>
      <trkpt lat="43.87004" lon="7.26022">
        <ele>1039.4</ele>
        <time>2015-05-02T09:12:03Z</time>
      </trkpt>
      <trkpt lat="43.86996" lon="7.2603">
        <ele>1039.6</ele>
        <time>2015-05-02T09:12:10Z</time>
      </trkpt>
      <trkpt lat="43.86986" lon="7.26034">
        <ele>1041</ele>
        <time>2015-05-02T09:12:16Z</time>
      </trkpt>
      <trkpt lat="43.86976" lon="7.26033">
        <ele>1042</ele>
        <time>2015-05-02T09:12:22Z</time>
      </trkpt>
      <trkpt lat="43.86967" lon="7.26031">
        <ele>1043</ele>
        <time>2015-05-02T09:12:28Z</time>
      </trkpt>
      <trkpt lat="43.86957" lon="7.26032">
        <ele>1043.6</ele>
        <time>2015-05-02T09:12:34Z</time>
      </trkpt>
      <trkpt lat="43.86948" lon="7.26038">
        <ele>1045.6</ele>
        <time>2015-05-02T09:12:40Z</time>
      </trkpt>
      <trkpt lat="43.86941" lon="7.26047">
        <ele>1047</ele>
        <time>2015-05-02T09:12:46Z</time>
      </trkpt>
      <trkpt lat="43.86937" lon="7.26059">
        <ele>1047.2</ele>
        <time>2015-05-02T09:12:52Z</time>
      </trkpt>
      <trkpt lat="43.86941" lon="7.2607">
        <ele>1048.5</ele>
        <time>2015-05-02T09:12:59Z</time>
      </trkpt>
      <trkpt lat="43.86949" lon="7.26062">
        <ele>1049.8</ele>
        <time>2015-05-02T09:13:05Z</time>
      </trkpt>
      <trkpt lat="43.86956" lon="7.2605">
        <ele>1050.1</ele>
        <time>2015-05-02T09:13:11Z</time>
      </trkpt>
      <trkpt lat="43.86966" lon="7.26045">
        <ele>1050.3</ele>
        <time>2015-05-02T09:13:17Z</time>
      </trkpt>
      <trkpt lat="43.86976" lon="7.26047">
        <ele>1052.1</ele>
        <time>2015-05-02T09:13:23Z</time>
      </trkpt>
      <trkpt lat="43.86984" lon="7.26051">
        <ele>1052.7</ele>
        <time>2015-05-02T09:13:28Z</time>
      </trkpt>
      <trkpt lat="43.86994" lon="7.26055">
        <ele>1054</ele>
        <time>2015-05-02T09:13:34Z</time>
      </trkpt>
      <trkpt lat="43.87003" lon="7.26052">
        <ele>1055.5</ele>
        <time>2015-05-02T09:13:40Z</time>
      </trkpt>
      <trkpt lat="43.87012" lon="7.26045">
        <ele>1056.5</ele>
        <time>2015-05-02T09:13:46Z</time>
      </trkpt>
      <trkpt lat="43.8702" lon="7.2604">
        <ele>1057.7</ele>
        <time>2015-05-02T09:13:52Z</time>
      </trkpt>
      <trkpt lat="43.87028" lon="7.26034">
        <ele>1058.4</ele>
        <time>2015-05-02T09:13:58Z</time>
      </trkpt>
      <trkpt lat="43.87033" lon="7.26022">
        <ele>1060.1</ele>
        <time>2015-05-02T09:14:04Z</time>
      </trkpt>
      <trkpt lat="43.8704" lon="7.26012">
        <ele>1061.2</ele>
        <time>2015-05-02T09:14:11Z</time>
      </trkpt>
      <trkpt lat="43.87047" lon="7.26003">
        <ele>1062.2</ele>
        <time>2015-05-02T09:14:18Z</time>
      </trkpt>
      <trkpt lat="43.87056" lon="7.25994">
        <ele>1060.6</ele>
        <time>2015-05-02T09:14:24Z</time>
      </trkpt>
      <trkpt lat="43.87064" lon="7.25989">
        <ele>1061.9</ele>
        <time>2015-05-02T09:14:29Z</time>
      </trkpt>
      <trkpt lat="43.87074" lon="7.25984">
        <ele>1063.5</ele>
        <time>2015-05-02T09:14:35Z</time>
      </trkpt>
      <trkpt lat="43.87083" lon="7.25977">
        <ele>1064.2</ele>
        <time>2015-05-02T09:14:41Z</time>
      </trkpt>
      <trkpt lat="43.87092" lon="7.25969">
        <ele>1065.3</ele>
        <time>2015-05-02T09:14:47Z</time>
      </trkpt>
      <trkpt lat="43.87099" lon="7.25962">
        <ele>1065.5</ele>
        <time>2015-05-02T09:14:52Z</time>
      </trkpt>
      <trkpt lat="43.87108" lon="7.25955">
        <ele>1067.4</ele>
        <time>2015-05-02T09:14:58Z</time>
      </trkpt>
      <trkpt lat="43.87118" lon="7.25952">
        <ele>1067.6</ele>
        <time>2015-05-02T09:15:04Z</time>
      </trkpt>
      <trkpt lat="43.87127" lon="7.25957">
        <ele>1068.5</ele>
        <time>2015-05-02T09:15:10Z</time>
      </trkpt>
      <trkpt lat="43.87133" lon="7.25967">
        <ele>1068.6</ele>
        <time>2015-05-02T09:15:16Z</time>
      </trkpt>
      <trkpt lat="43.87138" lon="7.25978">
        <ele>1069.1</ele>
        <time>2015-05-02T09:15:22Z</time>
      </trkpt>
      <trkpt lat="43.87142" lon="7.2599">
        <ele>1069.5</ele>
        <time>2015-05-02T09:15:28Z</time>
      </trkpt>
      <trkpt lat="43.87148" lon="7.26003">
        <ele>1069.9</ele>
        <time>2015-05-02T09:15:34Z</time>
      </trkpt>
      <trkpt lat="43.8715" lon="7.26017">
        <ele>1070.8</ele>
        <time>2015-05-02T09:15:40Z</time>
      </trkpt>
      <trkpt lat="43.87146" lon="7.2603">
        <ele>1071.5</ele>
        <time>2015-05-02T09:15:46Z</time>
      </trkpt>
      <trkpt lat="43.87142" lon="7.26041">
        <ele>1072.5</ele>
        <time>2015-05-02T09:15:51Z</time>
      </trkpt>
      <trkpt lat="43.87138" lon="7.26055">
        <ele>1072.7</ele>
        <time>2015-05-02T09:15:57Z</time>
      </trkpt>
      <trkpt lat="43.87134" lon="7.26066">
        <ele>1073.7</ele>
        <time>2015-05-02T09:16:02Z</time>
      </trkpt>
      <trkpt lat="43.87128" lon="7.26077">
        <ele>1074.6</ele>
        <time>2015-05-02T09:16:07Z</time>
      </trkpt>
      <trkpt lat="43.87122" lon="7.26086">
        <ele>1074.7</ele>
        <time>2015-05-02T09:16:12Z</time>
      </trkpt>
      <trkpt lat="43.87115" lon="7.26096">
        <ele>1075.2</ele>
        <time>2015-05-02T09:16:17Z</time>
      </trkpt>
      <trkpt lat="43.87107" lon="7.26105">
        <ele>1076.2</ele>
        <time>2015-05-02T09:16:22Z</time>
      </trkpt>
      <trkpt lat="43.871" lon="7.26113">
        <ele>1076.8</ele>
        <time>2015-05-02T09:16:27Z</time>
      </trkpt>
      <trkpt lat="43.87092" lon="7.26121">
        <ele>1077.5</ele>
        <time>2015-05-02T09:16:32Z</time>
      </trkpt>
      <trkpt lat="43.87085" lon="7.2613">
        <ele>1078</ele>
        <time>2015-05-02T09:16:37Z</time>
      </trkpt>
      <trkpt lat="43.87081" lon="7.26143">
        <ele>1077.8</ele>
        <time>2015-05-02T09:16:42Z</time>
      </trkpt>
      <trkpt lat="43.8708" lon="7.26157">
        <ele>1078.7</ele>
        <time>2015-05-02T09:16:47Z</time>
      </trkpt>
      <trkpt lat="43.87084" lon="7.26169">
        <ele>1079.5</ele>
        <time>2015-05-02T09:16:52Z</time>
      </trkpt>
      <trkpt lat="43.87087" lon="7.26181">
        <ele>1080.3</ele>
        <time>2015-05-02T09:16:57Z</time>
      </trkpt>
      <trkpt lat="43.87088" lon="7.26195">
        <ele>1081.1</ele>
        <time>2015-05-02T09:17:02Z</time>
      </trkpt>
      <trkpt lat="43.87087" lon="7.2621">
        <ele>1080.9</ele>
        <time>2015-05-02T09:17:07Z</time>
      </trkpt>
      <trkpt lat="43.87088" lon="7.26224">
        <ele>1082.1</ele>
        <time>2015-05-02T09:17:12Z</time>
      </trkpt>
      <trkpt lat="43.87091" lon="7.26238">
        <ele>1083.1</ele>
        <time>2015-05-02T09:17:17Z</time>
      </trkpt>
      <trkpt lat="43.87094" lon="7.26252">
        <ele>1083.4</ele>
        <time>2015-05-02T09:17:22Z</time>
      </trkpt>
      <trkpt lat="43.87097" lon="7.26265">
        <ele>1084.6</ele>
        <time>2015-05-02T09:17:27Z</time>
      </trkpt>
      <trkpt lat="43.871" lon="7.26277">
        <ele>1085.8</ele>
        <time>2015-05-02T09:17:32Z</time>
      </trkpt>
      <trkpt lat="43.87102" lon="7.26291">
        <ele>1086.2</ele>
        <time>2015-05-02T09:17:37Z</time>
      </trkpt>
      <trkpt lat="43.87105" lon="7.26304">
        <ele>1086.8</ele>
        <time>2015-05-02T09:17:42Z</time>
      </trkpt>
      <trkpt lat="43.87106" lon="7.26316">
        <ele>1087.5</ele>
        <time>2015-05-02T09:17:47Z</time>
      </trkpt>
      <trkpt lat="43.87106" lon="7.26329">
        <ele>1088.4</ele>
        <time>2015-05-02T09:17:52Z</time>
      </trkpt>
      <trkpt lat="43.87105" lon="7.26342">
        <ele>1088.8</ele>
        <time>2015-05-02T09:17:56Z</time>
      </trkpt>
      <trkpt lat="43.87105" lon="7.26355">
        <ele>1089.2</ele>
        <time>2015-05-02T09:18:01Z</time>
      </trkpt>
      <trkpt lat="43.87103" lon="7.26367">
        <ele>1090</ele>
        <time>2015-05-02T09:18:05Z</time>
      </trkpt>
      <trkpt lat="43.87103" lon="7.26381">
        <ele>1090.6</ele>
        <time>2015-05-02T09:18:09Z</time>
      </trkpt>
      <trkpt lat="43.87103" lon="7.26394">
        <ele>1090.6</ele>
        <time>2015-05-02T09:18:13Z</time>
      </trkpt>
      <trkpt lat="43.87106" lon="7.26406">
        <ele>1091.4</ele>
        <time>2015-05-02T09:18:17Z</time>
      </trkpt>
      <trkpt lat="43.87109" lon="7.26419">
        <ele>1091.2</ele>
        <time>2015-05-02T09:18:21Z</time>
      </trkpt>
      <trkpt lat="43.87112" lon="7.26433">
        <ele>1090.9</ele>
        <time>2015-05-02T09:18:25Z</time>
      </trkpt>
      <trkpt lat="43.87116" lon="7.26447">
        <ele>1092.1</ele>
        <time>2015-05-02T09:18:29Z</time>
      </trkpt>
      <trkpt lat="43.8712" lon="7.26459">
        <ele>1091.6</ele>
        <time>2015-05-02T09:18:33Z</time>
      </trkpt>
      <trkpt lat="43.87122" lon="7.26474">
        <ele>1092.4</ele>
        <time>2015-05-02T09:18:38Z</time>
      </trkpt>
      <trkpt lat="43.8712" lon="7.26486">
        <ele>1093.6</ele>
        <time>2015-05-02T09:18:43Z</time>
      </trkpt>
      <trkpt lat="43.87112" lon="7.26497">
        <ele>1093.6</ele>
        <time>2015-05-02T09:18:48Z</time>
      </trkpt>
      <trkpt lat="43.87103" lon="7.26506">
        <ele>1094.3</ele>
        <time>2015-05-02T09:18:52Z</time>
      </trkpt>
      <trkpt lat="43.87095" lon="7.26514">
        <ele>1094.7</ele>
        <time>2015-05-02T09:18:56Z</time>
      </trkpt>
      <trkpt lat="43.87085" lon="7.26519">
        <ele>1095.4</ele>
        <time>2015-05-02T09:19:00Z</time>
      </trkpt>
      <trkpt lat="43.87076" lon="7.26517">
        <ele>1095.3</ele>
        <time>2015-05-02T09:19:05Z</time>
      </trkpt>
      <trkpt lat="43.87069" lon="7.26525">
        <ele>1094.9</ele>
        <time>2015-05-02T09:19:39Z</time>
      </trkpt>
      <trkpt lat="43.87061" lon="7.26533">
        <ele>1095</ele>
        <time>2015-05-02T09:21:38Z</time>
      </trkpt>
      <trkpt lat="43.8705" lon="7.26533">
        <ele>1094.8</ele>
        <time>2015-05-02T09:21:44Z</time>
      </trkpt>
      <trkpt lat="43.87039" lon="7.26533">
        <ele>1094.2</ele>
        <time>2015-05-02T09:21:48Z</time>
      </trkpt>
      <trkpt lat="43.87028" lon="7.26537">
        <ele>1094</ele>
        <time>2015-05-02T09:21:51Z</time>
      </trkpt>
      <trkpt lat="43.87018" lon="7.26546">
        <ele>1093.9</ele>
        <time>2015-05-02T09:21:54Z</time>
      </trkpt>
      <trkpt lat="43.87007" lon="7.26556">
        <ele>1092.6</ele>
        <time>2015-05-02T09:21:57Z</time>
      </trkpt>
      <trkpt lat="43.86996" lon="7.26564">
        <ele>1091.7</ele>
        <time>2015-05-02T09:22:00Z</time>
      </trkpt>
      <trkpt lat="43.86984" lon="7.26567">
        <ele>1091.2</ele>
        <time>2015-05-02T09:22:03Z</time>
      </trkpt>
      <trkpt lat="43.86972" lon="7.26566">
        <ele>1090.1</ele>
        <time>2015-05-02T09:22:06Z</time>
      </trkpt>
      <trkpt lat="43.86961" lon="7.26564">
        <ele>1089.3</ele>
        <time>2015-05-02T09:22:09Z</time>
      </trkpt>
      <trkpt lat="43.8695" lon="7.26561">
        <ele>1089.5</ele>
        <time>2015-05-02T09:22:12Z</time>
      </trkpt>
      <trkpt lat="43.86938" lon="7.26558">
        <ele>1089.1</ele>
        <time>2015-05-02T09:22:15Z</time>
      </trkpt>
      <trkpt lat="43.86925" lon="7.26559">
        <ele>1088.5</ele>
        <time>2015-05-02T09:22:18Z</time>
      </trkpt>
      <trkpt lat="43.86915" lon="7.26568">
        <ele>1087.7</ele>
        <time>2015-05-02T09:22:21Z</time>
      </trkpt>
      <trkpt lat="43.86909" lon="7.2658">
        <ele>1085.4</ele>
        <time>2015-05-02T09:23:38Z</time>
      </trkpt>
      <trkpt lat="43.86905" lon="7.26591">
        <ele>1084.9</ele>
        <time>2015-05-02T09:23:42Z</time>
      </trkpt>
      <trkpt lat="43.86898" lon="7.26602">
        <ele>1084.5</ele>
        <time>2015-05-02T09:23:45Z</time>
      </trkpt>
      <trkpt lat="43.8689" lon="7.26614">
        <ele>1083.9</ele>
        <time>2015-05-02T09:23:48Z</time>
      </trkpt>
      <trkpt lat="43.86883" lon="7.26624">
        <ele>1083.5</ele>
        <time>2015-05-02T09:23:50Z</time>
      </trkpt>
      <trkpt lat="43.86876" lon="7.26635">
        <ele>1082.8</ele>
        <time>2015-05-02T09:23:52Z</time>
      </trkpt>
      <trkpt lat="43.86866" lon="7.26643">
        <ele>1082.3</ele>
        <time>2015-05-02T09:23:54Z</time>
      </trkpt>
      <trkpt lat="43.86855" lon="7.2665">
        <ele>1081.8</ele>
        <time>2015-05-02T09:23:56Z</time>
      </trkpt>
      <trkpt lat="43.86843" lon="7.26653">
        <ele>1080.6</ele>
        <time>2015-05-02T09:23:58Z</time>
      </trkpt>
      <trkpt lat="43.8683" lon="7.26651">
        <ele>1079.7</ele>
        <time>2015-05-02T09:24:00Z</time>
      </trkpt>
      <trkpt lat="43.86819" lon="7.26648">
        <ele>1079.2</ele>
        <time>2015-05-02T09:24:02Z</time>
      </trkpt>
      <trkpt lat="43.86808" lon="7.26643">
        <ele>1078.5</ele>
        <time>2015-05-02T09:24:05Z</time>
      </trkpt>
      <trkpt lat="43.868" lon="7.26637">
        <ele>1077.5</ele>
        <time>2015-05-02T09:24:09Z</time>
      </trkpt>
      <trkpt lat="43.86789" lon="7.2663">
        <ele>1076.7</ele>
        <time>2015-05-02T09:24:13Z</time>
      </trkpt>
      <trkpt lat="43.86779" lon="7.26624">
        <ele>1076.5</ele>
        <time>2015-05-02T09:24:16Z</time>
      </trkpt>
      <trkpt lat="43.86767" lon="7.26621">
        <ele>1075.8</ele>
        <time>2015-05-02T09:24:19Z</time>
      </trkpt>
      <trkpt lat="43.86757" lon="7.2662">
        <ele>1075.8</ele>
        <time>2015-05-02T09:24:21Z</time>
      </trkpt>
      <trkpt lat="43.86747" lon="7.26619">
        <ele>1075.6</ele>
        <time>2015-05-02T09:24:23Z</time>
      </trkpt>
      <trkpt lat="43.86737" lon="7.26619">
        <ele>1075</ele>
        <time>2015-05-02T09:24:25Z</time>
      </trkpt>
      <trkpt lat="43.86726" lon="7.26619">
        <ele>1075.1</ele>
        <time>2015-05-02T09:24:27Z</time>
      </trkpt>
      <trkpt lat="43.86717" lon="7.26621">
        <ele>1075</ele>
        <time>2015-05-02T09:24:29Z</time>
      </trkpt>
      <trkpt lat="43.86706" lon="7.26626">
        <ele>1074.1</ele>
        <time>2015-05-02T09:24:32Z</time>
      </trkpt>
      <trkpt lat="43.86695" lon="7.26633">
        <ele>1073.1</ele>
        <time>2015-05-02T09:24:35Z</time>
      </trkpt>
      <trkpt lat="43.86686" lon="7.26638">
        <ele>1072.8</ele>
        <time>2015-05-02T09:24:37Z</time>
      </trkpt>
      <trkpt lat="43.86677" lon="7.26643">
        <ele>1072.4</ele>
        <time>2015-05-02T09:24:39Z</time>
      </trkpt>
      <trkpt lat="43.86667" lon="7.26647">
        <ele>1072.5</ele>
        <time>2015-05-02T09:24:41Z</time>
      </trkpt>
      <trkpt lat="43.86657" lon="7.26652">
        <ele>1071.8</ele>
        <time>2015-05-02T09:24:43Z</time>
      </trkpt>
      <trkpt lat="43.86648" lon="7.26658">
        <ele>1071.5</ele>
        <time>2015-05-02T09:24:45Z</time>
      </trkpt>
      <trkpt lat="43.86638" lon="7.26661">
        <ele>1071.2</ele>
        <time>2015-05-02T09:24:47Z</time>
      </trkpt>
      <trkpt lat="43.86629" lon="7.26662">
        <ele>1070.7</ele>
        <time>2015-05-02T09:24:49Z</time>
      </trkpt>
      <trkpt lat="43.86619" lon="7.26661">
        <ele>1070.5</ele>
        <time>2015-05-02T09:24:51Z</time>
      </trkpt>
      <trkpt lat="43.86609" lon="7.2666">
        <ele>1070.3</ele>
        <time>2015-05-02T09:24:53Z</time>
      </trkpt>
      <trkpt lat="43.86599" lon="7.26662">
        <ele>1069.5</ele>
        <time>2015-05-02T09:24:55Z</time>
      </trkpt>
      <trkpt lat="43.86589" lon="7.26664">
        <ele>1068.3</ele>
        <time>2015-05-02T09:24:57Z</time>
      </trkpt>
      <trkpt lat="43.8658" lon="7.26662">
        <ele>1067.6</ele>
        <time>2015-05-02T09:24:59Z</time>
      </trkpt>
      <trkpt lat="43.8657" lon="7.26659">
        <ele>1067.7</ele>
        <time>2015-05-02T09:25:01Z</time>
      </trkpt>
      <trkpt lat="43.8656" lon="7.26656">
        <ele>1067.8</ele>
        <time>2015-05-02T09:25:03Z</time>
      </trkpt>
      <trkpt lat="43.8655" lon="7.26654">
        <ele>1068</ele>
        <time>2015-05-02T09:25:05Z</time>
      </trkpt>
      <trkpt lat="43.8654" lon="7.2665">
        <ele>1067.4</ele>
        <time>2015-05-02T09:25:07Z</time>
      </trkpt>
      <trkpt lat="43.8653" lon="7.26646">
        <ele>1066.8</ele>
        <time>2015-05-02T09:25:09Z</time>
      </trkpt>
      <trkpt lat="43.86519" lon="7.26642">
        <ele>1066.2</ele>
        <time>2015-05-02T09:25:11Z</time>
      </trkpt>
      <trkpt lat="43.86509" lon="7.26637">
        <ele>1065.8</ele>
        <time>2015-05-02T09:25:13Z</time>
      </trkpt>
      <trkpt lat="43.86498" lon="7.26632">
        <ele>1065.3</ele>
        <time>2015-05-02T09:25:16Z</time>
      </trkpt>
      <trkpt lat="43.86487" lon="7.26627">
        <ele>1064.4</ele>
        <time>2015-05-02T09:25:20Z</time>
      </trkpt>
      <trkpt lat="43.86477" lon="7.26622">
        <ele>1063.8</ele>
        <time>2015-05-02T09:25:23Z</time>
      </trkpt>
      <trkpt lat="43.86466" lon="7.26615">
        <ele>1064</ele>
        <time>2015-05-02T09:25:26Z</time>
      </trkpt>
      <trkpt lat="43.86454" lon="7.26609">
        <ele>1064.7</ele>
        <time>2015-05-02T09:25:29Z</time>
      </trkpt>
      <trkpt lat="43.86441" lon="7.26608">
        <ele>1064.1</ele>
        <time>2015-05-02T09:25:32Z</time>
      </trkpt>
      <trkpt lat="43.86428" lon="7.26609">
        <ele>1063.6</ele>
        <time>2015-05-02T09:25:35Z</time>
      </trkpt>
      <trkpt lat="43.86414" lon="7.26609">
        <ele>1062.5</ele>
        <time>2015-05-02T09:25:38Z</time>
      </trkpt>
      <trkpt lat="43.86405" lon="7.26609">
        <ele>1062.4</ele>
        <time>2015-05-02T09:25:40Z</time>
      </trkpt>
      <trkpt lat="43.86395" lon="7.26611">
        <ele>1062.2</ele>
        <time>2015-05-02T09:25:42Z</time>
      </trkpt>
      <trkpt lat="43.86385" lon="7.26613">
        <ele>1061.7</ele>
        <time>2015-05-02T09:25:44Z</time>
      </trkpt>
      <trkpt lat="43.86376" lon="7.26616">
        <ele>1061</ele>
        <time>2015-05-02T09:25:46Z</time>
      </trkpt>
      <trkpt lat="43.86367" lon="7.26618">
        <ele>1060.5</ele>
        <time>2015-05-02T09:25:48Z</time>
      </trkpt>
      <trkpt lat="43.86356" lon="7.26622">
        <ele>1060.3</ele>
        <time>2015-05-02T09:25:51Z</time>
      </trkpt>
      <trkpt lat="43.86347" lon="7.26626">
        <ele>1060</ele>
        <time>2015-05-02T09:25:54Z</time>
      </trkpt>
      <trkpt lat="43.86338" lon="7.26629">
        <ele>1059</ele>
        <time>2015-05-02T09:25:57Z</time>
      </trkpt>
      <trkpt lat="43.8633" lon="7.26632">
        <ele>1058.4</ele>
        <time>2015-05-02T09:26:00Z</time>
      </trkpt>
      <trkpt lat="43.8632" lon="7.26637">
        <ele>1057.9</ele>
        <time>2015-05-02T09:26:03Z</time>
      </trkpt>
      <trkpt lat="43.86311" lon="7.26642">
        <ele>1057.1</ele>
        <time>2015-05-02T09:26:06Z</time>
      </trkpt>
      <trkpt lat="43.86303" lon="7.26646">
        <ele>1056.3</ele>
        <time>2015-05-02T09:26:09Z</time>
      </trkpt>
      <trkpt lat="43.86293" lon="7.2665">
        <ele>1055.5</ele>
        <time>2015-05-02T09:26:12Z</time>
      </trkpt>
      <trkpt lat="43.86282" lon="7.26654">
        <ele>1055.1</ele>
        <time>2015-05-02T09:26:15Z</time>
      </trkpt>
      <trkpt lat="43.86272" lon="7.26657">
        <ele>1054.4</ele>
        <time>2015-05-02T09:26:18Z</time>
      </trkpt>
      <trkpt lat="43.86263" lon="7.26659">
        <ele>1054.2</ele>
        <time>2015-05-02T09:26:21Z</time>
      </trkpt>
      <trkpt lat="43.86254" lon="7.26661">
        <ele>1052.7</ele>
        <time>2015-05-02T09:26:24Z</time>
      </trkpt>
      <trkpt lat="43.86242" lon="7.26664">
        <ele>1052.6</ele>
        <time>2015-05-02T09:26:27Z</time>
      </trkpt>
      <trkpt lat="43.86232" lon="7.26666">
        <ele>1050.7</ele>
        <time>2015-05-02T09:26:30Z</time>
      </trkpt>
      <trkpt lat="43.86223" lon="7.2667">
        <ele>1048.7</ele>
        <time>2015-05-02T09:26:33Z</time>
      </trkpt>
      <trkpt lat="43.86213" lon="7.26673">
        <ele>1048.5</ele>
        <time>2015-05-02T09:26:36Z</time>
      </trkpt>
      <trkpt lat="43.862" lon="7.26677">
        <ele>1047.8</ele>
        <time>2015-05-02T09:26:39Z</time>
      </trkpt>
      <trkpt lat="43.8619" lon="7.2668">
        <ele>1047.5</ele>
        <time>2015-05-02T09:26:42Z</time>
      </trkpt>
      <trkpt lat="43.86179" lon="7.26683">
        <ele>1047.2</ele>
        <time>2015-05-02T09:26:46Z</time>
      </trkpt>
      <trkpt lat="43.86171" lon="7.26687">
        <ele>1048</ele>
        <time>2015-05-02T09:27:11Z</time>
      </trkpt>
      <trkpt lat="43.86162" lon="7.2669">
        <ele>1047.6</ele>
        <time>2015-05-02T09:27:17Z</time>
      </trkpt>
      <trkpt lat="43.86152" lon="7.26693">
        <ele>1047.9</ele>
        <time>2015-05-02T09:27:22Z</time>
      </trkpt>
      <trkpt lat="43.86142" lon="7.26696">
        <ele>1048.8</ele>
        <time>2015-05-02T09:27:27Z</time>
      </trkpt>
      <trkpt lat="43.86132" lon="7.267">
        <ele>1049.5</ele>
        <time>2015-05-02T09:27:32Z</time>
      </trkpt>
      <trkpt lat="43.86122" lon="7.26706">
        <ele>1050.5</ele>
        <time>2015-05-02T09:27:37Z</time>
      </trkpt>
      <trkpt lat="43.86113" lon="7.26715">
        <ele>1051.5</ele>
        <time>2015-05-02T09:27:42Z</time>
      </trkpt>
      <trkpt lat="43.86104" lon="7.26722">
        <ele>1052.5</ele>
        <time>2015-05-02T09:27:47Z</time>
      </trkpt>
      <trkpt lat="43.86095" lon="7.26726">
        <ele>1053.7</ele>
        <time>2015-05-02T09:27:52Z</time>
      </trkpt>
      <trkpt lat="43.86087" lon="7.26729">
        <ele>1053.7</ele>
        <time>2015-05-02T09:27:57Z</time>
      </trkpt>
      <trkpt lat="43.86078" lon="7.26732">
        <ele>1054.4</ele>
        <time>2015-05-02T09:28:02Z</time>
      </trkpt>
      <trkpt lat="43.86069" lon="7.26735">
        <ele>1055.1</ele>
        <time>2015-05-02T09:28:07Z</time>
      </trkpt>
      <trkpt lat="43.8606" lon="7.26737">
        <ele>1056.5</ele>
        <time>2015-05-02T09:28:12Z</time>
      </trkpt>
      <trkpt lat="43.8605" lon="7.26739">
        <ele>1056.3</ele>
        <time>2015-05-02T09:28:17Z</time>
      </trkpt>
      <trkpt lat="43.8604" lon="7.26742">
        <ele>1057.5</ele>
        <time>2015-05-02T09:28:23Z</time>
      </trkpt>
      <trkpt lat="43.8603" lon="7.26744">
        <ele>1058.9</ele>
        <time>2015-05-02T09:28:29Z</time>
      </trkpt>
      <trkpt lat="43.8602" lon="7.26745">
        <ele>1060.8</ele>
        <time>2015-05-02T09:28:35Z</time>
      </trkpt>
      <trkpt lat="43.86011" lon="7.26746">
        <ele>1061.2</ele>
        <time>2015-05-02T09:28:41Z</time>
      </trkpt>
      <trkpt lat="43.86" lon="7.26747">
        <ele>1062.7</ele>
        <time>2015-05-02T09:28:47Z</time>
      </trkpt>
      <trkpt lat="43.85992" lon="7.2675">
        <ele>1063.6</ele>
        <time>2015-05-02T09:28:52Z</time>
      </trkpt>
      <trkpt lat="43.85982" lon="7.26755">
        <ele>1064.3</ele>
        <time>2015-05-02T09:28:58Z</time>
      </trkpt>
      <trkpt lat="43.85973" lon="7.26762">
        <ele>1065</ele>
        <time>2015-05-02T09:29:04Z</time>
      </trkpt>
      <trkpt lat="43.85963" lon="7.26767">
        <ele>1066.9</ele>
        <time>2015-05-02T09:29:10Z</time>
      </trkpt>
      <trkpt lat="43.85953" lon="7.26772">
        <ele>1067.9</ele>
        <time>2015-05-02T09:29:16Z</time>
      </trkpt>
      <trkpt lat="43.85945" lon="7.26776">
        <ele>1068.2</ele>
        <time>2015-05-02T09:29:21Z</time>
      </trkpt>
      <trkpt lat="43.85936" lon="7.26777">
        <ele>1068.6</ele>
        <time>2015-05-02T09:29:26Z</time>
      </trkpt>
      <trkpt lat="43.85925" lon="7.26774">
        <ele>1069.5</ele>
        <time>2015-05-02T09:29:32Z</time>
      </trkpt>
      <trkpt lat="43.85917" lon="7.26768">
        <ele>1070.3</ele>
        <time>2015-05-02T09:29:37Z</time>
      </trkpt>
      <trkpt lat="43.85909" lon="7.2676">
        <ele>1072</ele>
        <time>2015-05-02T09:29:43Z</time>
      </trkpt>
      <trkpt lat="43.859" lon="7.26755">
        <ele>1072.6</ele>
        <time>2015-05-02T09:29:48Z</time>
      </trkpt>
      <trkpt lat="43.8589" lon="7.26751">
        <ele>1073.5</ele>
        <time>2015-05-02T09:29:54Z</time>
      </trkpt>
      <trkpt lat="43.8588" lon="7.26751">
        <ele>1075.3</ele>
        <time>2015-05-02T09:29:59Z</time>
      </trkpt>
      <trkpt lat="43.8587" lon="7.26754">
        <ele>1076.3</ele>
        <time>2015-05-02T09:30:05Z</time>
      </trkpt>
      <trkpt lat="43.85861" lon="7.26763">
        <ele>1076.5</ele>
        <time>2015-05-02T09:30:11Z</time>
      </trkpt>
      <trkpt lat="43.85853" lon="7.2677">
        <ele>1078.2</ele>
        <time>2015-05-02T09:30:17Z</time>
      </trkpt>
      <trkpt lat="43.85843" lon="7.26773">
        <ele>1079.1</ele>
        <time>2015-05-02T09:30:23Z</time>
      </trkpt>
      <trkpt lat="43.85834" lon="7.26776">
        <ele>1079.9</ele>
        <time>2015-05-02T09:30:29Z</time>
      </trkpt>
      <trkpt lat="43.85824" lon="7.26779">
        <ele>1080.9</ele>
        <time>2015-05-02T09:30:35Z</time>
      </trkpt>
      <trkpt lat="43.85815" lon="7.26783">
        <ele>1082.6</ele>
        <time>2015-05-02T09:30:41Z</time>
      </trkpt>
      <trkpt lat="43.85805" lon="7.26788">
        <ele>1083.3</ele>
        <time>2015-05-02T09:30:47Z</time>
      </trkpt>
      <trkpt lat="43.85796" lon="7.2679">
        <ele>1084</ele>
        <time>2015-05-02T09:30:52Z</time>
      </trkpt>
      <trkpt lat="43.85786" lon="7.26791">
        <ele>1085.1</ele>
        <time>2015-05-02T09:30:58Z</time>
      </trkpt>
      <trkpt lat="43.85776" lon="7.26793">
        <ele>1086</ele>
        <time>2015-05-02T09:31:04Z</time>
      </trkpt>
      <trkpt lat="43.85767" lon="7.26798">
        <ele>1087.4</ele>
        <time>2015-05-02T09:31:10Z</time>
      </trkpt>
      <trkpt lat="43.85757" lon="7.26802">
        <ele>1088.3</ele>
        <time>2015-05-02T09:31:16Z</time>
      </trkpt>
      <trkpt lat="43.85746" lon="7.26805">
        <ele>1089.8</ele>
        <time>2015-05-02T09:31:22Z</time>
      </trkpt>
      <trkpt lat="43.85737" lon="7.26809">
        <ele>1090.4</ele>
        <time>2015-05-02T09:31:27Z</time>
      </trkpt>
      <trkpt lat="43.85728" lon="7.26813">
        <ele>1090.8</ele>
        <time>2015-05-02T09:31:32Z</time>
      </trkpt>
      <trkpt lat="43.8572" lon="7.26818">
        <ele>1091</ele>
        <time>2015-05-02T09:31:37Z</time>
      </trkpt>
      <trkpt lat="43.85711" lon="7.26822">
        <ele>1091.9</ele>
        <time>2015-05-02T09:31:42Z</time>
      </trkpt>
      <trkpt lat="43.85702" lon="7.26825">
        <ele>1094</ele>
        <time>2015-05-02T09:31:47Z</time>
      </trkpt>
      <trkpt lat="43.85692" lon="7.26826">
        <ele>1094.9</ele>
        <time>2015-05-02T09:31:53Z</time>
      </trkpt>
      <trkpt lat="43.85681" lon="7.26825">
        <ele>1095.8</ele>
        <time>2015-05-02T09:31:59Z</time>
      </trkpt>
      <trkpt lat="43.85671" lon="7.26827">
        <ele>1096.5</ele>
        <time>2015-05-02T09:32:04Z</time>
      </trkpt>
      <trkpt lat="43.85662" lon="7.26829">
        <ele>1097.3</ele>
        <time>2015-05-02T09:32:09Z</time>
      </trkpt>
      <trkpt lat="43.85653" lon="7.2683">
        <ele>1098.4</ele>
        <time>2015-05-02T09:32:14Z</time>
      </trkpt>
      <trkpt lat="43.85643" lon="7.26832">
        <ele>1099.6</ele>
        <time>2015-05-02T09:32:19Z</time>
      </trkpt>
      <trkpt lat="43.85634" lon="7.26832">
        <ele>1100</ele>
        <time>2015-05-02T09:32:24Z</time>
      </trkpt>
      <trkpt lat="43.85624" lon="7.2683">
        <ele>1101.1</ele>
        <time>2015-05-02T09:32:29Z</time>
      </trkpt>
      <trkpt lat="43.85615" lon="7.26827">
        <ele>1102.4</ele>
        <time>2015-05-02T09:32:34Z</time>
      </trkpt>
      <trkpt lat="43.85606" lon="7.26828">
        <ele>1103.4</ele>
        <time>2015-05-02T09:32:39Z</time>
      </trkpt>
      <trkpt lat="43.85597" lon="7.26829">
        <ele>1104.6</ele>
        <time>2015-05-02T09:32:44Z</time>
      </trkpt>
      <trkpt lat="43.85588" lon="7.26832">
        <ele>1105.1</ele>
        <time>2015-05-02T09:32:49Z</time>
      </trkpt>
      <trkpt lat="43.85579" lon="7.26835">
        <ele>1106.6</ele>
        <time>2015-05-02T09:32:54Z</time>
      </trkpt>
      <trkpt lat="43.85569" lon="7.26838">
        <ele>1107.1</ele>
        <time>2015-05-02T09:32:59Z</time>
      </trkpt>
      <trkpt lat="43.8556" lon="7.2684">
        <ele>1107.5</ele>
        <time>2015-05-02T09:33:04Z</time>
      </trkpt>
      <trkpt lat="43.8555" lon="7.26844">
        <ele>1109.2</ele>
        <time>2015-05-02T09:33:10Z</time>
      </trkpt>
      <trkpt lat="43.8554" lon="7.26848">
        <ele>1110.9</ele>
        <time>2015-05-02T09:33:16Z</time>
      </trkpt>
      <trkpt lat="43.85531" lon="7.26849">
        <ele>1111.4</ele>
        <time>2015-05-02T09:33:21Z</time>
      </trkpt>
      <trkpt lat="43.85521" lon="7.26851">
        <ele>1112.9</ele>
        <time>2015-05-02T09:33:27Z</time>
      </trkpt>
      <trkpt lat="43.85512" lon="7.26854">
        <ele>1114.3</ele>
        <time>2015-05-02T09:33:32Z</time>
      </trkpt>
      <trkpt lat="43.85503" lon="7.26859">
        <ele>1115.1</ele>
        <time>2015-05-02T09:33:37Z</time>
      </trkpt>
      <trkpt lat="43.85494" lon="7.26862">
        <ele>1115.9</ele>
        <time>2015-05-02T09:33:42Z</time>
      </trkpt>
      <trkpt lat="43.85485" lon="7.26865">
        <ele>1116.2</ele>
        <time>2015-05-02T09:33:47Z</time>
      </trkpt>
      <trkpt lat="43.85476" lon="7.2687">
        <ele>1117.1</ele>
        <time>2015-05-02T09:33:52Z</time>
      </trkpt>
      <trkpt lat="43.85466" lon="7.26877">
        <ele>1118.1</ele>
        <time>2015-05-02T09:33:58Z</time>
      </trkpt>
      <trkpt lat="43.85459" lon="7.26884">
        <ele>1119.7</ele>
        <time>2015-05-02T09:34:03Z</time>
      </trkpt>
      <trkpt lat="43.8545" lon="7.2689">
        <ele>1120.6</ele>
        <time>2015-05-02T09:34:08Z</time>
      </trkpt>
      <trkpt lat="43.85442" lon="7.26893">
        <ele>1121.2</ele>
        <time>2015-05-02T09:34:13Z</time>
      </trkpt>
      <trkpt lat="43.85432" lon="7.26896">
        <ele>1122.4</ele>
        <time>2015-05-02T09:34:18Z</time>
      </trkpt>
      <trkpt lat="43.85422" lon="7.26899">
        <ele>1123.7</ele>
        <time>2015-05-02T09:34:24Z</time>
      </trkpt>
      <trkpt lat="43.85412" lon="7.26902">
        <ele>1124.9</ele>
        <time>2015-05-02T09:34:30Z</time>
      </trkpt>
      <trkpt lat="43.85403" lon="7.26906">
        <ele>1125.3</ele>
        <time>2015-05-02T09:34:35Z</time>
      </trkpt>
      <trkpt lat="43.85394" lon="7.2691">
        <ele>1126.4</ele>
        <time>2015-05-02T09:34:40Z</time>
      </trkpt>
      <trkpt lat="43.85385" lon="7.26913">
        <ele>1127.3</ele>
        <time>2015-05-02T09:34:45Z</time>
      </trkpt>
      <trkpt lat="43.85375" lon="7.26917">
        <ele>1128.2</ele>
        <time>2015-05-02T09:34:50Z</time>
      </trkpt>
      <trkpt lat="43.85368" lon="7.26924">
        <ele>1129.1</ele>
        <time>2015-05-02T09:34:55Z</time>
      </trkpt>
      <trkpt lat="43.8536" lon="7.26932">
        <ele>1130.5</ele>
        <time>2015-05-02T09:35:00Z</time>
      </trkpt>
      <trkpt lat="43.85351" lon="7.26938">
        <ele>1131.1</ele>
        <time>2015-05-02T09:35:05Z</time>
      </trkpt>
      <trkpt lat="43.85342" lon="7.26939">
        <ele>1132.7</ele>
        <time>2015-05-02T09:35:10Z</time>
      </trkpt>
      <trkpt lat="43.85333" lon="7.26939">
        <ele>1133.5</ele>
        <time>2015-05-02T09:35:15Z</time>
      </trkpt>
      <trkpt lat="43.85323" lon="7.26943">
        <ele>1134.8</ele>
        <time>2015-05-02T09:35:20Z</time>
      </trkpt>
      <trkpt lat="43.85314" lon="7.26949">
        <ele>1134.8</ele>
        <time>2015-05-02T09:35:25Z</time>
      </trkpt>
      <trkpt lat="43.85307" lon="7.26957">
        <ele>1135.9</ele>
        <time>2015-05-02T09:35:30Z</time>
      </trkpt>
      <trkpt lat="43.85299" lon="7.26965">
        <ele>1137.5</ele>
        <time>2015-05-02T09:35:35Z</time>
      </trkpt>
      <trkpt lat="43.85292" lon="7.26974">
        <ele>1138.4</ele>
        <time>2015-05-02T09:35:40Z</time>
      </trkpt>
      <trkpt lat="43.85284" lon="7.26982">
        <ele>1139.3</ele>
        <time>2015-05-02T09:35:45Z</time>
      </trkpt>
      <trkpt lat="43.85275" lon="7.26991">
        <ele>1140.8</ele>
        <time>2015-05-02T09:35:51Z</time>
      </trkpt>
      <trkpt lat="43.8527" lon="7.27003">
        <ele>1141.5</ele>
        <time>2015-05-02T09:35:56Z</time>
      </trkpt>
      <trkpt lat="43.85266" lon="7.27015">
        <ele>1142.5</ele>
        <time>2015-05-02T09:36:01Z</time>
      </trkpt>
      <trkpt lat="43.85264" lon="7.27028">
        <ele>1143.3</ele>
        <time>2015-05-02T09:36:06Z</time>
      </trkpt>
      <trkpt lat="43.85261" lon="7.27041">
        <ele>1144.8</ele>
        <time>2015-05-02T09:36:11Z</time>
      </trkpt>
      <trkpt lat="43.85261" lon="7.27053">
        <ele>1145.6</ele>
        <time>2015-05-02T09:36:16Z</time>
      </trkpt>
      <trkpt lat="43.85261" lon="7.27067">
        <ele>1146.7</ele>
        <time>2015-05-02T09:36:21Z</time>
      </trkpt>
      <trkpt lat="43.85263" lon="7.2708">
        <ele>1147.3</ele>
        <time>2015-05-02T09:36:26Z</time>
      </trkpt>
      <trkpt lat="43.85265" lon="7.27093">
        <ele>1148</ele>
        <time>2015-05-02T09:36:31Z</time>
      </trkpt>
      <trkpt lat="43.85265" lon="7.27106">
        <ele>1149.1</ele>
        <time>2015-05-02T09:36:36Z</time>
      </trkpt>
      <trkpt lat="43.85263" lon="7.27119">
        <ele>1150.4</ele>
        <time>2015-05-02T09:36:41Z</time>
      </trkpt>
      <trkpt lat="43.8526" lon="7.27132">
        <ele>1151.1</ele>
        <time>2015-05-02T09:36:46Z</time>
      </trkpt>
      <trkpt lat="43.85256" lon="7.27144">
        <ele>1153.2</ele>
        <time>2015-05-02T09:36:51Z</time>
      </trkpt>
      <trkpt lat="43.85253" lon="7.27157">
        <ele>1153.7</ele>
        <time>2015-05-02T09:36:56Z</time>
      </trkpt>
      <trkpt lat="43.85249" lon="7.2717">
        <ele>1155</ele>
        <time>2015-05-02T09:37:01Z</time>
      </trkpt>
      <trkpt lat="43.85245" lon="7.27181">
        <ele>1154.9</ele>
        <time>2015-05-02T09:37:06Z</time>
      </trkpt>
      <trkpt lat="43.8524" lon="7.27191">
        <ele>1155.4</ele>
        <time>2015-05-02T09:37:11Z</time>
      </trkpt>
      <trkpt lat="43.85234" lon="7.27202">
        <ele>1156.6</ele>
        <time>2015-05-02T09:37:16Z</time>
      </trkpt>
      <trkpt lat="43.85229" lon="7.27213">
        <ele>1157.3</ele>
        <time>2015-05-02T09:37:21Z</time>
      </trkpt>
      <trkpt lat="43.85223" lon="7.27224">
        <ele>1158.4</ele>
        <time>2015-05-02T09:37:26Z</time>
      </trkpt>
      <trkpt lat="43.85216" lon="7.27235">
        <ele>1159.8</ele>
        <time>2015-05-02T09:37:32Z</time>
      </trkpt>
      <trkpt lat="43.8521" lon="7.27245">
        <ele>1161.1</ele>
        <time>2015-05-02T09:37:37Z</time>
      </trkpt>
      <trkpt lat="43.85203" lon="7.27253">
        <ele>1161.6</ele>
        <time>2015-05-02T09:37:42Z</time>
      </trkpt>
      <trkpt lat="43.85196" lon="7.27261">
        <ele>1162.8</ele>
        <time>2015-05-02T09:37:47Z</time>
      </trkpt>
      <trkpt lat="43.85188" lon="7.2727">
        <ele>1163.6</ele>
        <time>2015-05-02T09:37:52Z</time>
      </trkpt>
      <trkpt lat="43.85184" lon="7.27281">
        <ele>1164.4</ele>
        <time>2015-05-02T09:37:58Z</time>
      </trkpt>
      <trkpt lat="43.85184" lon="7.27294">
        <ele>1165</ele>
        <time>2015-05-02T09:38:05Z</time>
      </trkpt>
      <trkpt lat="43.8518" lon="7.27305">
        <ele>1166.9</ele>
        <time>2015-05-02T09:42:15Z</time>
      </trkpt>
      <trkpt lat="43.85189" lon="7.273">
        <ele>1168.9</ele>
        <time>2015-05-02T09:42:49Z</time>
      </trkpt>
      <trkpt lat="43.85197" lon="7.2729">
        <ele>1168.9</ele>
        <time>2015-05-02T09:42:55Z</time>
      </trkpt>
      <trkpt lat="43.85205" lon="7.27281">
        <ele>1169.4</ele>
        <time>2015-05-02T09:43:00Z</time>
      </trkpt>
      <trkpt lat="43.85214" lon="7.27276">
        <ele>1170.6</ele>
        <time>2015-05-02T09:43:05Z</time>
      </trkpt>
      <trkpt lat="43.85224" lon="7.27273">
        <ele>1171.7</ele>
        <time>2015-05-02T09:43:10Z</time>
      </trkpt>
      <trkpt lat="43.85233" lon="7.27268">
        <ele>1172.4</ele>
        <time>2015-05-02T09:43:15Z</time>
      </trkpt>
      <trkpt lat="43.85242" lon="7.27262">
        <ele>1173.6</ele>
        <time>2015-05-02T09:43:20Z</time>
      </trkpt>
      <trkpt lat="43.8525" lon="7.27257">
        <ele>1174.4</ele>
        <time>2015-05-02T09:43:25Z</time>
      </trkpt>
      <trkpt lat="43.8526" lon="7.2725">
        <ele>1175</ele>
        <time>2015-05-02T09:43:31Z</time>
      </trkpt>
      <trkpt lat="43.85268" lon="7.27242">
        <ele>1176.4</ele>
        <time>2015-05-02T09:43:36Z</time>
      </trkpt>
      <trkpt lat="43.85275" lon="7.27235">
        <ele>1177.9</ele>
        <time>2015-05-02T09:43:41Z</time>
      </trkpt>
      <trkpt lat="43.85283" lon="7.27226">
        <ele>1179</ele>
        <time>2015-05-02T09:43:46Z</time>
      </trkpt>
      <trkpt lat="43.8529" lon="7.27217">
        <ele>1179.3</ele>
        <time>2015-05-02T09:43:51Z</time>
      </trkpt>
      <trkpt lat="43.85298" lon="7.27209">
        <ele>1180.4</ele>
        <time>2015-05-02T09:43:56Z</time>
      </trkpt>
      <trkpt lat="43.85305" lon="7.272">
        <ele>1181.5</ele>
        <time>2015-05-02T09:44:01Z</time>
      </trkpt>
      <trkpt lat="43.85312" lon="7.27193">
        <ele>1182</ele>
        <time>2015-05-02T09:44:06Z</time>
      </trkpt>
      <trkpt lat="43.8532" lon="7.27186">
        <ele>1182.3</ele>
        <time>2015-05-02T09:44:11Z</time>
      </trkpt>
      <trkpt lat="43.85328" lon="7.27181">
        <ele>1184</ele>
        <time>2015-05-02T09:44:16Z</time>
      </trkpt>
      <trkpt lat="43.85336" lon="7.27173">
        <ele>1185.4</ele>
        <time>2015-05-02T09:44:21Z</time>
      </trkpt>
      <trkpt lat="43.85344" lon="7.27165">
        <ele>1186.1</ele>
        <time>2015-05-02T09:44:26Z</time>
      </trkpt>
      <trkpt lat="43.85352" lon="7.27157">
        <ele>1186.4</ele>
        <time>2015-05-02T09:44:31Z</time>
      </trkpt>
      <trkpt lat="43.8536" lon="7.27151">
        <ele>1187.1</ele>
        <time>2015-05-02T09:44:36Z</time>
      </trkpt>
      <trkpt lat="43.85369" lon="7.27146">
        <ele>1187.4</ele>
        <time>2015-05-02T09:44:41Z</time>
      </trkpt>
      <trkpt lat="43.85378" lon="7.27143">
        <ele>1188.9</ele>
        <time>2015-05-02T09:44:46Z</time>
      </trkpt>
      <trkpt lat="43.85387" lon="7.27142">
        <ele>1189.9</ele>
        <time>2015-05-02T09:44:51Z</time>
      </trkpt>
      <trkpt lat="43.85396" lon="7.27142">
        <ele>1191</ele>
        <time>2015-05-02T09:44:56Z</time>
      </trkpt>
      <trkpt lat="43.85406" lon="7.27139">
        <ele>1191.8</ele>
        <time>2015-05-02T09:45:01Z</time>
      </trkpt>
      <trkpt lat="43.85414" lon="7.27132">
        <ele>1192.4</ele>
        <time>2015-05-02T09:45:06Z</time>
      </trkpt>
      <trkpt lat="43.85422" lon="7.27125">
        <ele>1192.7</ele>
        <time>2015-05-02T09:45:11Z</time>
      </trkpt>
      <trkpt lat="43.85431" lon="7.27119">
        <ele>1194.1</ele>
        <time>2015-05-02T09:45:16Z</time>
      </trkpt>
      <trkpt lat="43.8544" lon="7.27116">
        <ele>1194.3</ele>
        <time>2015-05-02T09:45:21Z</time>
      </trkpt>
      <trkpt lat="43.85449" lon="7.27115">
        <ele>1195.9</ele>
        <time>2015-05-02T09:45:26Z</time>
      </trkpt>
      <trkpt lat="43.85459" lon="7.27115">
        <ele>1196.8</ele>
        <time>2015-05-02T09:45:31Z</time>
      </trkpt>
      <trkpt lat="43.85469" lon="7.27115">
        <ele>1197.4</ele>
        <time>2015-05-02T09:45:36Z</time>
      </trkpt>
      <trkpt lat="43.85478" lon="7.27115">
        <ele>1198</ele>
        <time>2015-05-02T09:45:41Z</time>
      </trkpt>
      <trkpt lat="43.85488" lon="7.27115">
        <ele>1199.7</ele>
        <time>2015-05-02T09:45:46Z</time>
      </trkpt>
      <trkpt lat="43.85498" lon="7.27115">
        <ele>1200.3</ele>
        <time>2015-05-02T09:45:51Z</time>
      </trkpt>
      <trkpt lat="43.85508" lon="7.27114">
        <ele>1200.2</ele>
        <time>2015-05-02T09:45:56Z</time>
      </trkpt>
      <trkpt lat="43.85517" lon="7.27114">
        <ele>1201.8</ele>
        <time>2015-05-02T09:46:01Z</time>
      </trkpt>
      <trkpt lat="43.85527" lon="7.27115">
        <ele>1203.2</ele>
        <time>2015-05-02T09:46:06Z</time>
      </trkpt>
      <trkpt lat="43.85537" lon="7.27116">
        <ele>1203.3</ele>
        <time>2015-05-02T09:46:11Z</time>
      </trkpt>
      <trkpt lat="43.85547" lon="7.27116">
        <ele>1204.1</ele>
        <time>2015-05-02T09:46:16Z</time>
      </trkpt>
      <trkpt lat="43.85556" lon="7.27115">
        <ele>1205.5</ele>
        <time>2015-05-02T09:46:21Z</time>
      </trkpt>
      <trkpt lat="43.85566" lon="7.27113">
        <ele>1206.6</ele>
        <time>2015-05-02T09:46:26Z</time>
      </trkpt>
      <trkpt lat="43.85576" lon="7.27111">
        <ele>1207.9</ele>
        <time>2015-05-02T09:46:31Z</time>
      </trkpt>
      <trkpt lat="43.85586" lon="7.2711">
        <ele>1208.6</ele>
        <time>2015-05-02T09:46:36Z</time>
      </trkpt>
      <trkpt lat="43.85597" lon="7.2711">
        <ele>1208.6</ele>
        <time>2015-05-02T09:46:41Z</time>
      </trkpt>
      <trkpt lat="43.85608" lon="7.27112">
        <ele>1208.9</ele>
        <time>2015-05-02T09:46:46Z</time>
      </trkpt>
      <trkpt lat="43.85619" lon="7.27114">
        <ele>1209.9</ele>
        <time>2015-05-02T09:46:51Z</time>
      </trkpt>
      <trkpt lat="43.85629" lon="7.27116">
        <ele>1210.5</ele>
        <time>2015-05-02T09:46:56Z</time>
      </trkpt>
      <trkpt lat="43.85639" lon="7.27117">
        <ele>1211.6</ele>
        <time>2015-05-02T09:47:01Z</time>
      </trkpt>
      <trkpt lat="43.85648" lon="7.27117">
        <ele>1213.3</ele>
        <time>2015-05-02T09:47:06Z</time>
      </trkpt>
      <trkpt lat="43.85658" lon="7.27117">
        <ele>1214</ele>
        <time>2015-05-02T09:47:11Z</time>
      </trkpt>
      <trkpt lat="43.85668" lon="7.27117">
        <ele>1215.4</ele>
        <time>2015-05-02T09:47:16Z</time>
      </trkpt>
      <trkpt lat="43.85678" lon="7.27117">
        <ele>1215.9</ele>
        <time>2015-05-02T09:47:21Z</time>
      </trkpt>
      <trkpt lat="43.85687" lon="7.27117">
        <ele>1217.4</ele>
        <time>2015-05-02T09:47:26Z</time>
      </trkpt>
      <trkpt lat="43.85697" lon="7.27116">
        <ele>1217.7</ele>
        <time>2015-05-02T09:47:31Z</time>
      </trkpt>
      <trkpt lat="43.85706" lon="7.27116">
        <ele>1218.3</ele>
        <time>2015-05-02T09:47:36Z</time>
      </trkpt>
      <trkpt lat="43.85717" lon="7.27116">
        <ele>1219.9</ele>
        <time>2015-05-02T09:47:42Z</time>
      </trkpt>
      <trkpt lat="43.85726" lon="7.27115">
        <ele>1220.1</ele>
        <time>2015-05-02T09:47:47Z</time>
      </trkpt>
      <trkpt lat="43.85736" lon="7.27113">
        <ele>1222</ele>
        <time>2015-05-02T09:47:52Z</time>
      </trkpt>
      <trkpt lat="43.85746" lon="7.27112">
        <ele>1222.6</ele>
        <time>2015-05-02T09:47:57Z</time>
      </trkpt>
      <trkpt lat="43.85755" lon="7.2711">
        <ele>1224</ele>
        <time>2015-05-02T09:48:02Z</time>
      </trkpt>
      <trkpt lat="43.85764" lon="7.2711">
        <ele>1223.9</ele>
        <time>2015-05-02T09:48:07Z</time>
      </trkpt>
      <trkpt lat="43.85774" lon="7.2711">
        <ele>1226.3</ele>
        <time>2015-05-02T09:48:12Z</time>
      </trkpt>
      <trkpt lat="43.85783" lon="7.2711">
        <ele>1227.5</ele>
        <time>2015-05-02T09:48:17Z</time>
      </trkpt>
      <trkpt lat="43.85792" lon="7.27111">
        <ele>1228.1</ele>
        <time>2015-05-02T09:48:22Z</time>
      </trkpt>
      <trkpt lat="43.85801" lon="7.27111">
        <ele>1228.4</ele>
        <time>2015-05-02T09:48:27Z</time>
      </trkpt>
      <trkpt lat="43.8581" lon="7.27112">
        <ele>1229.7</ele>
        <time>2015-05-02T09:48:32Z</time>
      </trkpt>
      <trkpt lat="43.8582" lon="7.27112">
        <ele>1230.5</ele>
        <time>2015-05-02T09:48:37Z</time>
      </trkpt>
      <trkpt lat="43.8583" lon="7.27112">
        <ele>1231.3</ele>
        <time>2015-05-02T09:48:43Z</time>
      </trkpt>
      <trkpt lat="43.8584" lon="7.27112">
        <ele>1232.4</ele>
        <time>2015-05-02T09:48:48Z</time>
      </trkpt>
      <trkpt lat="43.85849" lon="7.27113">
        <ele>1233.3</ele>
        <time>2015-05-02T09:48:53Z</time>
      </trkpt>
      <trkpt lat="43.85859" lon="7.27116">
        <ele>1234.9</ele>
        <time>2015-05-02T09:48:58Z</time>
      </trkpt>
      <trkpt lat="43.85867" lon="7.27121">
        <ele>1235.4</ele>
        <time>2015-05-02T09:49:03Z</time>
      </trkpt>
      <trkpt lat="43.85876" lon="7.27127">
        <ele>1236.4</ele>
        <time>2015-05-02T09:49:08Z</time>
      </trkpt>
      <trkpt lat="43.85884" lon="7.27133">
        <ele>1237.1</ele>
        <time>2015-05-02T09:49:13Z</time>
      </trkpt>
      <trkpt lat="43.85893" lon="7.27138">
        <ele>1238.7</ele>
        <time>2015-05-02T09:49:18Z</time>
      </trkpt>
      <trkpt lat="43.85902" lon="7.27144">
        <ele>1239.1</ele>
        <time>2015-05-02T09:49:23Z</time>
      </trkpt>
      <trkpt lat="43.85911" lon="7.27149">
        <ele>1241.1</ele>
        <time>2015-05-02T09:49:28Z</time>
      </trkpt>
      <trkpt lat="43.8592" lon="7.27153">
        <ele>1241.1</ele>
        <time>2015-05-02T09:49:33Z</time>
      </trkpt>
      <trkpt lat="43.85929" lon="7.27156">
        <ele>1242.1</ele>
        <time>2015-05-02T09:49:38Z</time>
      </trkpt>
      <trkpt lat="43.85938" lon="7.27159">
        <ele>1243.1</ele>
        <time>2015-05-02T09:49:43Z</time>
      </trkpt>
      <trkpt lat="43.85946" lon="7.27164">
        <ele>1242.9</ele>
        <time>2015-05-02T09:49:48Z</time>
      </trkpt>
      <trkpt lat="43.85952" lon="7.27175">
        <ele>1245.6</ele>
        <time>2015-05-02T09:49:55Z</time>
      </trkpt>
      <trkpt lat="43.85952" lon="7.27189">
        <ele>1247.5</ele>
        <time>2015-05-02T09:50:02Z</time>
      </trkpt>
      <trkpt lat="43.85952" lon="7.27202">
        <ele>1249.3</ele>
        <time>2015-05-02T09:50:10Z</time>
      </trkpt>
      <trkpt lat="43.85955" lon="7.27215">
        <ele>1250.4</ele>
        <time>2015-05-02T09:50:17Z</time>
      </trkpt>
      <trkpt lat="43.85961" lon="7.27227">
        <ele>1251.8</ele>
        <time>2015-05-02T09:50:24Z</time>
      </trkpt>
      <trkpt lat="43.85967" lon="7.27236">
        <ele>1253.5</ele>
        <time>2015-05-02T09:50:31Z</time>
      </trkpt>
      <trkpt lat="43.85974" lon="7.27245">
        <ele>1252.8</ele>
        <time>2015-05-02T09:50:43Z</time>
      </trkpt>
      <trkpt lat="43.85974" lon="7.27257">
        <ele>1253.8</ele>
        <time>2015-05-02T09:51:45Z</time>
      </trkpt>
      <trkpt lat="43.85976" lon="7.2727">
        <ele>1253.9</ele>
        <time>2015-05-02T09:51:53Z</time>
      </trkpt>
      <trkpt lat="43.85971" lon="7.27281">
        <ele>1255.3</ele>
        <time>2015-05-02T09:51:59Z</time>
      </trkpt>
      <trkpt lat="43.85965" lon="7.2729">
        <ele>1256.6</ele>
        <time>2015-05-02T09:52:04Z</time>
      </trkpt>
      <trkpt lat="43.85958" lon="7.27301">
        <ele>1256.8</ele>
        <time>2015-05-02T09:52:10Z</time>
      </trkpt>
      <trkpt lat="43.85962" lon="7.27313">
        <ele>1257.3</ele>
        <time>2015-05-02T09:52:15Z</time>
      </trkpt>
      <trkpt lat="43.85973" lon="7.2731">
        <ele>1258.7</ele>
        <time>2015-05-02T09:52:21Z</time>
      </trkpt>
      <trkpt lat="43.85982" lon="7.27304">
        <ele>1259.6</ele>
        <time>2015-05-02T09:52:27Z</time>
      </trkpt>
      <trkpt lat="43.85991" lon="7.27298">
        <ele>1260.9</ele>
        <time>2015-05-02T09:52:33Z</time>
      </trkpt>
      <trkpt lat="43.86001" lon="7.27293">
        <ele>1262.1</ele>
        <time>2015-05-02T09:52:39Z</time>
      </trkpt>
      <trkpt lat="43.86012" lon="7.27292">
        <ele>1263</ele>
        <time>2015-05-02T09:52:45Z</time>
      </trkpt>
      <trkpt lat="43.86021" lon="7.27291">
        <ele>1264.4</ele>
        <time>2015-05-02T09:52:50Z</time>
      </trkpt>
      <trkpt lat="43.8603" lon="7.27288">
        <ele>1265.1</ele>
        <time>2015-05-02T09:52:55Z</time>
      </trkpt>
      <trkpt lat="43.86039" lon="7.27284">
        <ele>1266.2</ele>
        <time>2015-05-02T09:53:00Z</time>
      </trkpt>
      <trkpt lat="43.8605" lon="7.2728">
        <ele>1267.4</ele>
        <time>2015-05-02T09:53:06Z</time>
      </trkpt>
      <trkpt lat="43.86059" lon="7.27272">
        <ele>1268.8</ele>
        <time>2015-05-02T09:53:13Z</time>
      </trkpt>
      <trkpt lat="43.86059" lon="7.27258">
        <ele>1269.7</ele>
        <time>2015-05-02T09:53:19Z</time>
      </trkpt>
      <trkpt lat="43.86053" lon="7.27247">
        <ele>1271.2</ele>
        <time>2015-05-02T09:53:25Z</time>
      </trkpt>
      <trkpt lat="43.86049" lon="7.27235">
        <ele>1272.3</ele>
        <time>2015-05-02T09:53:32Z</time>
      </trkpt>
      <trkpt lat="43.86052" lon="7.27222">
        <ele>1273</ele>
        <time>2015-05-02T09:53:38Z</time>
      </trkpt>
      <trkpt lat="43.86058" lon="7.27212">
        <ele>1274.3</ele>
        <time>2015-05-02T09:53:44Z</time>
      </trkpt>
      <trkpt lat="43.86066" lon="7.27203">
        <ele>1275.5</ele>
        <time>2015-05-02T09:53:50Z</time>
      </trkpt>
      <trkpt lat="43.86074" lon="7.27197">
        <ele>1276</ele>
        <time>2015-05-02T09:53:56Z</time>
      </trkpt>
      <trkpt lat="43.86084" lon="7.27192">
        <ele>1277.1</ele>
        <time>2015-05-02T09:54:02Z</time>
      </trkpt>
      <trkpt lat="43.86093" lon="7.27187">
        <ele>1278.4</ele>
        <time>2015-05-02T09:54:08Z</time>
      </trkpt>
      <trkpt lat="43.86103" lon="7.27182">
        <ele>1279.5</ele>
        <time>2015-05-02T09:54:14Z</time>
      </trkpt>
      <trkpt lat="43.86113" lon="7.27178">
        <ele>1279.6</ele>
        <time>2015-05-02T09:54:20Z</time>
      </trkpt>
      <trkpt lat="43.86122" lon="7.27173">
        <ele>1281.4</ele>
        <time>2015-05-02T09:54:26Z</time>
      </trkpt>
      <trkpt lat="43.86132" lon="7.27171">
        <ele>1281.8</ele>
        <time>2015-05-02T09:54:32Z</time>
      </trkpt>
      <trkpt lat="43.86142" lon="7.2717">
        <ele>1282.9</ele>
        <time>2015-05-02T09:54:38Z</time>
      </trkpt>
      <trkpt lat="43.86152" lon="7.27167">
        <ele>1283.8</ele>
        <time>2015-05-02T09:54:44Z</time>
      </trkpt>
      <trkpt lat="43.86161" lon="7.27164">
        <ele>1283.9</ele>
        <time>2015-05-02T09:54:50Z</time>
      </trkpt>
      <trkpt lat="43.8617" lon="7.27161">
        <ele>1286.2</ele>
        <time>2015-05-02T09:54:56Z</time>
      </trkpt>
      <trkpt lat="43.8618" lon="7.27158">
        <ele>1287</ele>
        <time>2015-05-02T09:55:02Z</time>
      </trkpt>
      <trkpt lat="43.8619" lon="7.27154">
        <ele>1288.6</ele>
        <time>2015-05-02T09:55:08Z</time>
      </trkpt>
      <trkpt lat="43.86199" lon="7.2715">
        <ele>1289.1</ele>
        <time>2015-05-02T09:55:13Z</time>
      </trkpt>
      <trkpt lat="43.86209" lon="7.27145">
        <ele>1291</ele>
        <time>2015-05-02T09:55:19Z</time>
      </trkpt>
      <trkpt lat="43.86217" lon="7.27141">
        <ele>1291.1</ele>
        <time>2015-05-02T09:55:24Z</time>
      </trkpt>
      <trkpt lat="43.86227" lon="7.27136">
        <ele>1291.8</ele>
        <time>2015-05-02T09:55:30Z</time>
      </trkpt>
      <trkpt lat="43.86236" lon="7.27131">
        <ele>1293.2</ele>
        <time>2015-05-02T09:55:36Z</time>
      </trkpt>
      <trkpt lat="43.86246" lon="7.27127">
        <ele>1294</ele>
        <time>2015-05-02T09:55:42Z</time>
      </trkpt>
      <trkpt lat="43.86255" lon="7.27123">
        <ele>1295.4</ele>
        <time>2015-05-02T09:55:48Z</time>
      </trkpt>
      <trkpt lat="43.86266" lon="7.27122">
        <ele>1296.2</ele>
        <time>2015-05-02T09:55:54Z</time>
      </trkpt>
      <trkpt lat="43.86276" lon="7.27121">
        <ele>1297.2</ele>
        <time>2015-05-02T09:56:00Z</time>
      </trkpt>
      <trkpt lat="43.86286" lon="7.2712">
        <ele>1299.1</ele>
        <time>2015-05-02T09:56:06Z</time>
      </trkpt>
      <trkpt lat="43.86297" lon="7.27121">
        <ele>1300.1</ele>
        <time>2015-05-02T09:56:12Z</time>
      </trkpt>
      <trkpt lat="43.86306" lon="7.27121">
        <ele>1301.5</ele>
        <time>2015-05-02T09:56:17Z</time>
      </trkpt>
      <trkpt lat="43.86316" lon="7.27121">
        <ele>1301.8</ele>
        <time>2015-05-02T09:56:23Z</time>
      </trkpt>
      <trkpt lat="43.86326" lon="7.27121">
        <ele>1303.7</ele>
        <time>2015-05-02T09:56:29Z</time>
      </trkpt>
      <trkpt lat="43.86335" lon="7.27121">
        <ele>1304.7</ele>
        <time>2015-05-02T09:56:35Z</time>
      </trkpt>
      <trkpt lat="43.86345" lon="7.27123">
        <ele>1306.2</ele>
        <time>2015-05-02T09:56:41Z</time>
      </trkpt>
      <trkpt lat="43.86355" lon="7.27127">
        <ele>1307.4</ele>
        <time>2015-05-02T09:56:47Z</time>
      </trkpt>
      <trkpt lat="43.86364" lon="7.27132">
        <ele>1308.4</ele>
        <time>2015-05-02T09:56:53Z</time>
      </trkpt>
      <trkpt lat="43.86373" lon="7.27137">
        <ele>1309.4</ele>
        <time>2015-05-02T09:56:59Z</time>
      </trkpt>
      <trkpt lat="43.86383" lon="7.27142">
        <ele>1311.5</ele>
        <time>2015-05-02T09:57:05Z</time>
      </trkpt>
      <trkpt lat="43.86392" lon="7.27145">
        <ele>1312</ele>
        <time>2015-05-02T09:57:11Z</time>
      </trkpt>
      <trkpt lat="43.86403" lon="7.27146">
        <ele>1312.8</ele>
        <time>2015-05-02T09:57:17Z</time>
      </trkpt>
      <trkpt lat="43.86413" lon="7.27144">
        <ele>1314.8</ele>
        <time>2015-05-02T09:57:23Z</time>
      </trkpt>
      <trkpt lat="43.86422" lon="7.27142">
        <ele>1315.8</ele>
        <time>2015-05-02T09:57:29Z</time>
      </trkpt>
      <trkpt lat="43.86431" lon="7.27141">
        <ele>1316.8</ele>
        <time>2015-05-02T09:57:36Z</time>
      </trkpt>
      <trkpt lat="43.86441" lon="7.27141">
        <ele>1317.3</ele>
        <time>2015-05-02T09:57:44Z</time>
      </trkpt>
      <trkpt lat="43.8645" lon="7.27138">
        <ele>1319.9</ele>
        <time>2015-05-02T09:58:12Z</time>
      </trkpt>
      <trkpt lat="43.86459" lon="7.27139">
        <ele>1321.3</ele>
        <time>2015-05-02T09:58:25Z</time>
      </trkpt>
      <trkpt lat="43.86469" lon="7.2714">
        <ele>1321.9</ele>
        <time>2015-05-02T09:58:42Z</time>
      </trkpt>
      <trkpt lat="43.86479" lon="7.2714">
        <ele>1323.9</ele>
        <time>2015-05-02T09:58:48Z</time>
      </trkpt>
      <trkpt lat="43.86488" lon="7.27142">
        <ele>1324.5</ele>
        <time>2015-05-02T09:58:53Z</time>
      </trkpt>
      <trkpt lat="43.86498" lon="7.27142">
        <ele>1325.4</ele>
        <time>2015-05-02T09:58:59Z</time>
      </trkpt>
      <trkpt lat="43.86507" lon="7.2714">
        <ele>1327</ele>
        <time>2015-05-02T09:59:05Z</time>
      </trkpt>
      <trkpt lat="43.86516" lon="7.27138">
        <ele>1328.4</ele>
        <time>2015-05-02T09:59:12Z</time>
      </trkpt>
      <trkpt lat="43.86525" lon="7.27135">
        <ele>1329.3</ele>
        <time>2015-05-02T09:59:18Z</time>
      </trkpt>
      <trkpt lat="43.86535" lon="7.27134">
        <ele>1330</ele>
        <time>2015-05-02T09:59:25Z</time>
      </trkpt>
      <trkpt lat="43.86545" lon="7.27132">
        <ele>1330.9</ele>
        <time>2015-05-02T09:59:31Z</time>
      </trkpt>
      <trkpt lat="43.86555" lon="7.27132">
        <ele>1333.7</ele>
        <time>2015-05-02T09:59:38Z</time>
      </trkpt>
      <trkpt lat="43.86565" lon="7.27133">
        <ele>1334.8</ele>
        <time>2015-05-02T09:59:44Z</time>
      </trkpt>
      <trkpt lat="43.86575" lon="7.27135">
        <ele>1335.7</ele>
        <time>2015-05-02T09:59:50Z</time>
      </trkpt>
      <trkpt lat="43.86585" lon="7.27135">
        <ele>1336.7</ele>
        <time>2015-05-02T09:59:56Z</time>
      </trkpt>
      <trkpt lat="43.86595" lon="7.27135">
        <ele>1337.7</ele>
        <time>2015-05-02T10:00:02Z</time>
      </trkpt>
      <trkpt lat="43.86604" lon="7.27134">
        <ele>1339.1</ele>
        <time>2015-05-02T10:00:09Z</time>
      </trkpt>
      <trkpt lat="43.86614" lon="7.27132">
        <ele>1340.7</ele>
        <time>2015-05-02T10:00:16Z</time>
      </trkpt>
      <trkpt lat="43.86623" lon="7.27128">
        <ele>1342.9</ele>
        <time>2015-05-02T10:00:23Z</time>
      </trkpt>
      <trkpt lat="43.86633" lon="7.27125">
        <ele>1343.6</ele>
        <time>2015-05-02T10:00:29Z</time>
      </trkpt>
      <trkpt lat="43.86643" lon="7.27122">
        <ele>1343.7</ele>
        <time>2015-05-02T10:00:36Z</time>
      </trkpt>
      <trkpt lat="43.86653" lon="7.27121">
        <ele>1344.5</ele>
        <time>2015-05-02T10:00:43Z</time>
      </trkpt>
      <trkpt lat="43.86663" lon="7.27122">
        <ele>1345.8</ele>
        <time>2015-05-02T10:00:49Z</time>
      </trkpt>
      <trkpt lat="43.86672" lon="7.27122">
        <ele>1347.9</ele>
        <time>2015-05-02T10:00:56Z</time>
      </trkpt>
      <trkpt lat="43.86682" lon="7.27122">
        <ele>1349.5</ele>
        <time>2015-05-02T10:01:03Z</time>
      </trkpt>
      <trkpt lat="43.86691" lon="7.27123">
        <ele>1350.4</ele>
        <time>2015-05-02T10:01:09Z</time>
      </trkpt>
      <trkpt lat="43.86701" lon="7.27123">
        <ele>1351.6</ele>
        <time>2015-05-02T10:01:15Z</time>
      </trkpt>
      <trkpt lat="43.8671" lon="7.27123">
        <ele>1354.3</ele>
        <time>2015-05-02T10:01:20Z</time>
      </trkpt>
      <trkpt lat="43.86719" lon="7.27123">
        <ele>1353.8</ele>
        <time>2015-05-02T10:01:26Z</time>
      </trkpt>
      <trkpt lat="43.8673" lon="7.27122">
        <ele>1355.7</ele>
        <time>2015-05-02T10:01:32Z</time>
      </trkpt>
      <trkpt lat="43.86739" lon="7.27122">
        <ele>1355.7</ele>
        <time>2015-05-02T10:02:01Z</time>
      </trkpt>
      <trkpt lat="43.86748" lon="7.27123">
        <ele>1356.2</ele>
        <time>2015-05-02T10:02:43Z</time>
      </trkpt>
      <trkpt lat="43.86756" lon="7.27115">
        <ele>1357.4</ele>
        <time>2015-05-02T10:03:51Z</time>
      </trkpt>
      <trkpt lat="43.86764" lon="7.27111">
        <ele>1357.5</ele>
        <time>2015-05-02T10:04:00Z</time>
      </trkpt>
      <trkpt lat="43.86772" lon="7.27118">
        <ele>1358</ele>
        <time>2015-05-02T10:04:41Z</time>
      </trkpt>
      <trkpt lat="43.86781" lon="7.27122">
        <ele>1359.3</ele>
        <time>2015-05-02T10:05:51Z</time>
      </trkpt>
      <trkpt lat="43.8679" lon="7.27126">
        <ele>1359.2</ele>
        <time>2015-05-02T10:05:58Z</time>
      </trkpt>
      <trkpt lat="43.868" lon="7.2713">
        <ele>1360.3</ele>
        <time>2015-05-02T10:06:04Z</time>
      </trkpt>
      <trkpt lat="43.86809" lon="7.27137">
        <ele>1361.4</ele>
        <time>2015-05-02T10:06:10Z</time>
      </trkpt>
      <trkpt lat="43.86817" lon="7.27144">
        <ele>1361.9</ele>
        <time>2015-05-02T10:06:16Z</time>
      </trkpt>
      <trkpt lat="43.86826" lon="7.27151">
        <ele>1362.6</ele>
        <time>2015-05-02T10:06:22Z</time>
      </trkpt>
      <trkpt lat="43.86836" lon="7.27156">
        <ele>1363.6</ele>
        <time>2015-05-02T10:06:28Z</time>
      </trkpt>
      <trkpt lat="43.86845" lon="7.27159">
        <ele>1363.9</ele>
        <time>2015-05-02T10:06:34Z</time>
      </trkpt>
      <trkpt lat="43.86855" lon="7.27161">
        <ele>1364.6</ele>
        <time>2015-05-02T10:06:42Z</time>
      </trkpt>
      <trkpt lat="43.86866" lon="7.27162">
        <ele>1365.6</ele>
        <time>2015-05-02T10:06:49Z</time>
      </trkpt>
      <trkpt lat="43.86877" lon="7.27164">
        <ele>1366.6</ele>
        <time>2015-05-02T10:06:55Z</time>
      </trkpt>
      <trkpt lat="43.86887" lon="7.27165">
        <ele>1366.6</ele>
        <time>2015-05-02T10:07:00Z</time>
      </trkpt>
      <trkpt lat="43.86898" lon="7.27167">
        <ele>1367.7</ele>
        <time>2015-05-02T10:07:06Z</time>
      </trkpt>
      <trkpt lat="43.86908" lon="7.27168">
        <ele>1368.1</ele>
        <time>2015-05-02T10:07:11Z</time>
      </trkpt>
      <trkpt lat="43.86918" lon="7.27169">
        <ele>1368.7</ele>
        <time>2015-05-02T10:07:16Z</time>
      </trkpt>
      <trkpt lat="43.86929" lon="7.2717">
        <ele>1369.6</ele>
        <time>2015-05-02T10:07:22Z</time>
      </trkpt>
      <trkpt lat="43.86938" lon="7.27172">
        <ele>1369.5</ele>
        <time>2015-05-02T10:07:27Z</time>
      </trkpt>
      <trkpt lat="43.86948" lon="7.27175">
        <ele>1370.7</ele>
        <time>2015-05-02T10:07:32Z</time>
      </trkpt>
      <trkpt lat="43.86958" lon="7.2718">
        <ele>1371.1</ele>
        <time>2015-05-02T10:07:37Z</time>
      </trkpt>
      <trkpt lat="43.86968" lon="7.27187">
        <ele>1371</ele>
        <time>2015-05-02T10:07:42Z</time>
      </trkpt>
      <trkpt lat="43.86976" lon="7.27194">
        <ele>1371.8</ele>
        <time>2015-05-02T10:07:48Z</time>
      </trkpt>
      <trkpt lat="43.86984" lon="7.27201">
        <ele>1372.1</ele>
        <time>2015-05-02T10:07:54Z</time>
      </trkpt>
      <trkpt lat="43.86992" lon="7.2721">
        <ele>1372.7</ele>
        <time>2015-05-02T10:07:59Z</time>
      </trkpt>
      <trkpt lat="43.86998" lon="7.27219">
        <ele>1372.1</ele>
        <time>2015-05-02T10:08:04Z</time>
      </trkpt>
      <trkpt lat="43.87005" lon="7.2723">
        <ele>1371.9</ele>
        <time>2015-05-02T10:08:09Z</time>
      </trkpt>
      <trkpt lat="43.87014" lon="7.27234">
        <ele>1372</ele>
        <time>2015-05-02T10:08:19Z</time>
      </trkpt>
      <trkpt lat="43.87023" lon="7.27237">
        <ele>1371.9</ele>
        <time>2015-05-02T10:08:34Z</time>
      </trkpt>
      <trkpt lat="43.87016" lon="7.27246">
        <ele>1372.3</ele>
        <time>2015-05-02T10:09:15Z</time>
      </trkpt>
      <trkpt lat="43.87024" lon="7.27239">
        <ele>1370.4</ele>
        <time>2015-05-02T10:12:44Z</time>
      </trkpt>
      <trkpt lat="43.87032" lon="7.27234">
        <ele>1371.8</ele>
        <time>2015-05-02T10:13:40Z</time>
      </trkpt>
      <trkpt lat="43.87037" lon="7.27222">
        <ele>1371.5</ele>
        <time>2015-05-02T10:13:50Z</time>
      </trkpt>
      <trkpt lat="43.87044" lon="7.27214">
        <ele>1370.2</ele>
        <time>2015-05-02T10:14:03Z</time>
      </trkpt>
      <trkpt lat="43.87053" lon="7.27212">
        <ele>1371.2</ele>
        <time>2015-05-02T10:14:16Z</time>
      </trkpt>
      <trkpt lat="43.87059" lon="7.27201">
        <ele>1371.6</ele>
        <time>2015-05-02T10:14:27Z</time>
      </trkpt>
      <trkpt lat="43.87063" lon="7.2719">
        <ele>1371.1</ele>
        <time>2015-05-02T10:14:35Z</time>
      </trkpt>
      <trkpt lat="43.87071" lon="7.27183">
        <ele>1370.3</ele>
        <time>2015-05-02T10:14:43Z</time>
      </trkpt>
      <trkpt lat="43.87078" lon="7.27173">
        <ele>1371.4</ele>
        <time>2015-05-02T10:14:52Z</time>
      </trkpt>
      <trkpt lat="43.87087" lon="7.27173">
        <ele>1372.8</ele>
        <time>2015-05-02T10:15:04Z</time>
      </trkpt>
      <trkpt lat="43.87082" lon="7.27184">
        <ele>1375.4</ele>
        <time>2015-05-02T10:17:29Z</time>
      </trkpt>
      <trkpt lat="43.87076" lon="7.27193">
        <ele>1375.9</ele>
        <time>2015-05-02T10:18:16Z</time>
      </trkpt>
      <trkpt lat="43.87084" lon="7.27185">
        <ele>1374.8</ele>
        <time>2015-05-02T10:21:31Z</time>
      </trkpt>
      <trkpt lat="43.8709" lon="7.27177">
        <ele>1374.8</ele>
        <time>2015-05-02T10:24:52Z</time>
      </trkpt>
      <trkpt lat="43.87084" lon="7.27186">
        <ele>1375.4</ele>
        <time>2015-05-02T10:31:05Z</time>
      </trkpt>
      <trkpt lat="43.87076" lon="7.27179">
        <ele>1374.3</ele>
        <time>2015-05-02T10:41:16Z</time>
      </trkpt>
      <trkpt lat="43.87064" lon="7.27182">
        <ele>1372.6</ele>
        <time>2015-05-02T10:41:21Z</time>
      </trkpt>
      <trkpt lat="43.87056" lon="7.27191">
        <ele>1370.4</ele>
        <time>2015-05-02T10:41:28Z</time>
      </trkpt>
      <trkpt lat="43.87047" lon="7.27199">
        <ele>1370.1</ele>
        <time>2015-05-02T10:41:34Z</time>
      </trkpt>
      <trkpt lat="43.87034" lon="7.272">
        <ele>1369.1</ele>
        <time>2015-05-02T10:41:38Z</time>
      </trkpt>
      <trkpt lat="43.87024" lon="7.27207">
        <ele>1368.3</ele>
        <time>2015-05-02T10:41:42Z</time>
      </trkpt>
      <trkpt lat="43.87026" lon="7.27219">
        <ele>1369.5</ele>
        <time>2015-05-02T10:41:46Z</time>
      </trkpt>
      <trkpt lat="43.87024" lon="7.27232">
        <ele>1370.2</ele>
        <time>2015-05-02T10:41:52Z</time>
      </trkpt>
      <trkpt lat="43.87022" lon="7.27246">
        <ele>1372.1</ele>
        <time>2015-05-02T10:41:59Z</time>
      </trkpt>
      <trkpt lat="43.87026" lon="7.27257">
        <ele>1373</ele>
        <time>2015-05-02T10:42:07Z</time>
      </trkpt>
      <trkpt lat="43.87026" lon="7.2727">
        <ele>1373.4</ele>
        <time>2015-05-02T10:42:26Z</time>
      </trkpt>
      <trkpt lat="43.87029" lon="7.27283">
        <ele>1374.8</ele>
        <time>2015-05-02T10:42:32Z</time>
      </trkpt>
      <trkpt lat="43.8703" lon="7.27295">
        <ele>1373.7</ele>
        <time>2015-05-02T10:42:42Z</time>
      </trkpt>
      <trkpt lat="43.87021" lon="7.27292">
        <ele>1373.1</ele>
        <time>2015-05-02T10:42:55Z</time>
      </trkpt>
      <trkpt lat="43.87015" lon="7.27282">
        <ele>1374.4</ele>
        <time>2015-05-02T10:43:02Z</time>
      </trkpt>
      <trkpt lat="43.87008" lon="7.27274">
        <ele>1376.5</ele>
        <time>2015-05-02T10:43:09Z</time>
      </trkpt>
      <trkpt lat="43.87" lon="7.27266">
        <ele>1377.3</ele>
        <time>2015-05-02T10:43:16Z</time>
      </trkpt>
      <trkpt lat="43.86993" lon="7.27258">
        <ele>1379.2</ele>
        <time>2015-05-02T10:43:23Z</time>
      </trkpt>
      <trkpt lat="43.86986" lon="7.27248">
        <ele>1380.9</ele>
        <time>2015-05-02T10:43:31Z</time>
      </trkpt>
      <trkpt lat="43.86977" lon="7.2724">
        <ele>1381.3</ele>
        <time>2015-05-02T10:43:37Z</time>
      </trkpt>
      <trkpt lat="43.86968" lon="7.27234">
        <ele>1383.5</ele>
        <time>2015-05-02T10:43:43Z</time>
      </trkpt>
      <trkpt lat="43.8696" lon="7.27229">
        <ele>1384.3</ele>
        <time>2015-05-02T10:43:49Z</time>
      </trkpt>
      <trkpt lat="43.8695" lon="7.27228">
        <ele>1385.1</ele>
        <time>2015-05-02T10:43:55Z</time>
      </trkpt>
      <trkpt lat="43.8694" lon="7.27231">
        <ele>1387.3</ele>
        <time>2015-05-02T10:44:01Z</time>
      </trkpt>
      <trkpt lat="43.86931" lon="7.27236">
        <ele>1389.4</ele>
        <time>2015-05-02T10:44:07Z</time>
      </trkpt>
      <trkpt lat="43.86922" lon="7.27239">
        <ele>1390.2</ele>
        <time>2015-05-02T10:44:13Z</time>
      </trkpt>
      <trkpt lat="43.86912" lon="7.27241">
        <ele>1391.2</ele>
        <time>2015-05-02T10:44:20Z</time>
      </trkpt>
      <trkpt lat="43.86903" lon="7.27243">
        <ele>1391.7</ele>
        <time>2015-05-02T10:44:26Z</time>
      </trkpt>
      <trkpt lat="43.86893" lon="7.27243">
        <ele>1393</ele>
        <time>2015-05-02T10:44:32Z</time>
      </trkpt>
      <trkpt lat="43.86883" lon="7.27245">
        <ele>1394.2</ele>
        <time>2015-05-02T10:44:38Z</time>
      </trkpt>
      <trkpt lat="43.86873" lon="7.27244">
        <ele>1395.3</ele>
        <time>2015-05-02T10:44:44Z</time>
      </trkpt>
      <trkpt lat="43.86863" lon="7.27242">
        <ele>1396.8</ele>
        <time>2015-05-02T10:44:50Z</time>
      </trkpt>
      <trkpt lat="43.86851" lon="7.27239">
        <ele>1397.5</ele>
        <time>2015-05-02T10:44:56Z</time>
      </trkpt>
      <trkpt lat="43.86841" lon="7.27238">
        <ele>1398.9</ele>
        <time>2015-05-02T10:45:03Z</time>
      </trkpt>
      <trkpt lat="43.86832" lon="7.2724">
        <ele>1400.2</ele>
        <time>2015-05-02T10:45:11Z</time>
      </trkpt>
      <trkpt lat="43.86822" lon="7.27242">
        <ele>1402.4</ele>
        <time>2015-05-02T10:45:18Z</time>
      </trkpt>
      <trkpt lat="43.86812" lon="7.27245">
        <ele>1403.7</ele>
        <time>2015-05-02T10:45:25Z</time>
      </trkpt>
      <trkpt lat="43.86802" lon="7.27248">
        <ele>1404.7</ele>
        <time>2015-05-02T10:45:34Z</time>
      </trkpt>
      <trkpt lat="43.86792" lon="7.27246">
        <ele>1404.7</ele>
        <time>2015-05-02T10:46:02Z</time>
      </trkpt>
      <trkpt lat="43.86788" lon="7.27235">
        <ele>1404.1</ele>
        <time>2015-05-02T10:48:42Z</time>
      </trkpt>
      <trkpt lat="43.86779" lon="7.2723">
        <ele>1403.9</ele>
        <time>2015-05-02T10:49:10Z</time>
      </trkpt>
      <trkpt lat="43.86768" lon="7.27228">
        <ele>1403.4</ele>
        <time>2015-05-02T10:49:24Z</time>
      </trkpt>
      <trkpt lat="43.86759" lon="7.27223">
        <ele>1402.1</ele>
        <time>2015-05-02T10:49:28Z</time>
      </trkpt>
      <trkpt lat="43.8675" lon="7.27215">
        <ele>1397.8</ele>
        <time>2015-05-02T10:49:47Z</time>
      </trkpt>
      <trkpt lat="43.8674" lon="7.27211">
        <ele>1397.3</ele>
        <time>2015-05-02T10:49:51Z</time>
      </trkpt>
      <trkpt lat="43.86731" lon="7.27211">
        <ele>1395.7</ele>
        <time>2015-05-02T10:49:57Z</time>
      </trkpt>
      <trkpt lat="43.86721" lon="7.2721">
        <ele>1394.3</ele>
        <time>2015-05-02T10:50:03Z</time>
      </trkpt>
      <trkpt lat="43.86711" lon="7.27206">
        <ele>1391.6</ele>
        <time>2015-05-02T10:50:08Z</time>
      </trkpt>
      <trkpt lat="43.867" lon="7.2721">
        <ele>1386.4</ele>
        <time>2015-05-02T10:50:14Z</time>
      </trkpt>
      <trkpt lat="43.86691" lon="7.27211">
        <ele>1383.1</ele>
        <time>2015-05-02T10:50:19Z</time>
      </trkpt>
      <trkpt lat="43.86681" lon="7.27214">
        <ele>1380.3</ele>
        <time>2015-05-02T10:50:24Z</time>
      </trkpt>
      <trkpt lat="43.86671" lon="7.27217">
        <ele>1376.8</ele>
        <time>2015-05-02T10:50:28Z</time>
      </trkpt>
      <trkpt lat="43.8666" lon="7.27218">
        <ele>1373.5</ele>
        <time>2015-05-02T10:50:34Z</time>
      </trkpt>
      <trkpt lat="43.8665" lon="7.27219">
        <ele>1370.8</ele>
        <time>2015-05-02T10:50:39Z</time>
      </trkpt>
      <trkpt lat="43.8664" lon="7.27219">
        <ele>1368.2</ele>
        <time>2015-05-02T10:50:44Z</time>
      </trkpt>
      <trkpt lat="43.8663" lon="7.2722">
        <ele>1366.3</ele>
        <time>2015-05-02T10:50:48Z</time>
      </trkpt>
      <trkpt lat="43.86619" lon="7.27222">
        <ele>1362.8</ele>
        <time>2015-05-02T10:50:53Z</time>
      </trkpt>
      <trkpt lat="43.86609" lon="7.27226">
        <ele>1361.2</ele>
        <time>2015-05-02T10:50:57Z</time>
      </trkpt>
      <trkpt lat="43.86599" lon="7.27228">
        <ele>1359.9</ele>
        <time>2015-05-02T10:51:06Z</time>
      </trkpt>
      <trkpt lat="43.86588" lon="7.27229">
        <ele>1357.9</ele>
        <time>2015-05-02T10:51:11Z</time>
      </trkpt>
      <trkpt lat="43.86579" lon="7.2723">
        <ele>1357.1</ele>
        <time>2015-05-02T10:51:15Z</time>
      </trkpt>
      <trkpt lat="43.86571" lon="7.27235">
        <ele>1354.7</ele>
        <time>2015-05-02T10:51:20Z</time>
      </trkpt>
      <trkpt lat="43.86562" lon="7.2724">
        <ele>1352.8</ele>
        <time>2015-05-02T10:51:31Z</time>
      </trkpt>
      <trkpt lat="43.86553" lon="7.27237">
        <ele>1352.4</ele>
        <time>2015-05-02T10:51:35Z</time>
      </trkpt>
      <trkpt lat="43.86542" lon="7.27239">
        <ele>1352.4</ele>
        <time>2015-05-02T10:51:38Z</time>
      </trkpt>
      <trkpt lat="43.86532" lon="7.27243">
        <ele>1350.8</ele>
        <time>2015-05-02T10:51:42Z</time>
      </trkpt>
      <trkpt lat="43.86523" lon="7.27244">
        <ele>1350.8</ele>
        <time>2015-05-02T10:51:48Z</time>
      </trkpt>
      <trkpt lat="43.86512" lon="7.27246">
        <ele>1349.3</ele>
        <time>2015-05-02T10:51:56Z</time>
      </trkpt>
      <trkpt lat="43.86499" lon="7.27246">
        <ele>1348.3</ele>
        <time>2015-05-02T10:52:00Z</time>
      </trkpt>
      <trkpt lat="43.8649" lon="7.27249">
        <ele>1346.7</ele>
        <time>2015-05-02T10:52:03Z</time>
      </trkpt>
      <trkpt lat="43.86479" lon="7.2725">
        <ele>1347.9</ele>
        <time>2015-05-02T10:52:09Z</time>
      </trkpt>
      <trkpt lat="43.8647" lon="7.27253">
        <ele>1348.6</ele>
        <time>2015-05-02T10:52:13Z</time>
      </trkpt>
      <trkpt lat="43.8646" lon="7.2726">
        <ele>1348.4</ele>
        <time>2015-05-02T10:52:18Z</time>
      </trkpt>
      <trkpt lat="43.86451" lon="7.2726">
        <ele>1347.9</ele>
        <time>2015-05-02T10:52:21Z</time>
      </trkpt>
      <trkpt lat="43.86439" lon="7.27261">
        <ele>1347.1</ele>
        <time>2015-05-02T10:52:24Z</time>
      </trkpt>
      <trkpt lat="43.86427" lon="7.27266">
        <ele>1346.7</ele>
        <time>2015-05-02T10:52:27Z</time>
      </trkpt>
      <trkpt lat="43.86419" lon="7.27271">
        <ele>1346.2</ele>
        <time>2015-05-02T10:52:30Z</time>
      </trkpt>
      <trkpt lat="43.86408" lon="7.2727">
        <ele>1346.2</ele>
        <time>2015-05-02T10:52:34Z</time>
      </trkpt>
      <trkpt lat="43.86396" lon="7.27272">
        <ele>1346.2</ele>
        <time>2015-05-02T10:52:39Z</time>
      </trkpt>
      <trkpt lat="43.86385" lon="7.27269">
        <ele>1345.8</ele>
        <time>2015-05-02T10:52:42Z</time>
      </trkpt>
      <trkpt lat="43.86373" lon="7.27265">
        <ele>1344.5</ele>
        <time>2015-05-02T10:52:45Z</time>
      </trkpt>
      <trkpt lat="43.86364" lon="7.27261">
        <ele>1342.7</ele>
        <time>2015-05-02T10:52:48Z</time>
      </trkpt>
      <trkpt lat="43.86355" lon="7.27253">
        <ele>1340.3</ele>
        <time>2015-05-02T10:52:51Z</time>
      </trkpt>
      <trkpt lat="43.86346" lon="7.27244">
        <ele>1337.9</ele>
        <time>2015-05-02T10:52:53Z</time>
      </trkpt>
      <trkpt lat="43.86334" lon="7.2724">
        <ele>1336.1</ele>
        <time>2015-05-02T10:52:55Z</time>
      </trkpt>
      <trkpt lat="43.86326" lon="7.27237">
        <ele>1334.2</ele>
        <time>2015-05-02T10:52:58Z</time>
      </trkpt>
      <trkpt lat="43.86318" lon="7.2723">
        <ele>1330.9</ele>
        <time>2015-05-02T10:53:03Z</time>
      </trkpt>
      <trkpt lat="43.86307" lon="7.27229">
        <ele>1329.7</ele>
        <time>2015-05-02T10:53:06Z</time>
      </trkpt>
      <trkpt lat="43.86298" lon="7.27227">
        <ele>1328.5</ele>
        <time>2015-05-02T10:53:09Z</time>
      </trkpt>
      <trkpt lat="43.86288" lon="7.27224">
        <ele>1325.8</ele>
        <time>2015-05-02T10:53:13Z</time>
      </trkpt>
      <trkpt lat="43.86277" lon="7.27228">
        <ele>1323.8</ele>
        <time>2015-05-02T10:53:17Z</time>
      </trkpt>
      <trkpt lat="43.86265" lon="7.27229">
        <ele>1323.7</ele>
        <time>2015-05-02T10:53:20Z</time>
      </trkpt>
      <trkpt lat="43.86256" lon="7.27226">
        <ele>1322.9</ele>
        <time>2015-05-02T10:53:22Z</time>
      </trkpt>
      <trkpt lat="43.86246" lon="7.27228">
        <ele>1321.4</ele>
        <time>2015-05-02T10:53:24Z</time>
      </trkpt>
      <trkpt lat="43.86238" lon="7.27234">
        <ele>1320</ele>
        <time>2015-05-02T10:53:26Z</time>
      </trkpt>
      <trkpt lat="43.86229" lon="7.27233">
        <ele>1317.5</ele>
        <time>2015-05-02T10:53:29Z</time>
      </trkpt>
      <trkpt lat="43.86219" lon="7.27234">
        <ele>1314.5</ele>
        <time>2015-05-02T10:53:32Z</time>
      </trkpt>
      <trkpt lat="43.8621" lon="7.27235">
        <ele>1314.2</ele>
        <time>2015-05-02T10:53:34Z</time>
      </trkpt>
      <trkpt lat="43.862" lon="7.27239">
        <ele>1312.5</ele>
        <time>2015-05-02T10:53:36Z</time>
      </trkpt>
      <trkpt lat="43.86192" lon="7.27244">
        <ele>1312.2</ele>
        <time>2015-05-02T10:53:42Z</time>
      </trkpt>
      <trkpt lat="43.86182" lon="7.27244">
        <ele>1311.3</ele>
        <time>2015-05-02T10:53:54Z</time>
      </trkpt>
      <trkpt lat="43.86173" lon="7.27244">
        <ele>1310.7</ele>
        <time>2015-05-02T10:54:55Z</time>
      </trkpt>
      <trkpt lat="43.86164" lon="7.27244">
        <ele>1309.1</ele>
        <time>2015-05-02T10:55:25Z</time>
      </trkpt>
      <trkpt lat="43.86152" lon="7.27242">
        <ele>1308.1</ele>
        <time>2015-05-02T10:55:36Z</time>
      </trkpt>
      <trkpt lat="43.86142" lon="7.27237">
        <ele>1306.6</ele>
        <time>2015-05-02T10:55:39Z</time>
      </trkpt>
      <trkpt lat="43.86133" lon="7.27237">
        <ele>1303.5</ele>
        <time>2015-05-02T10:55:43Z</time>
      </trkpt>
      <trkpt lat="43.86121" lon="7.27237">
        <ele>1301.2</ele>
        <time>2015-05-02T10:55:47Z</time>
      </trkpt>
      <trkpt lat="43.86112" lon="7.27233">
        <ele>1298</ele>
        <time>2015-05-02T10:55:52Z</time>
      </trkpt>
      <trkpt lat="43.86103" lon="7.27232">
        <ele>1295.7</ele>
        <time>2015-05-02T10:55:56Z</time>
      </trkpt>
      <trkpt lat="43.86091" lon="7.27229">
        <ele>1293.2</ele>
        <time>2015-05-02T10:56:00Z</time>
      </trkpt>
      <trkpt lat="43.86081" lon="7.27227">
        <ele>1289.7</ele>
        <time>2015-05-02T10:56:05Z</time>
      </trkpt>
      <trkpt lat="43.86072" lon="7.27223">
        <ele>1283.7</ele>
        <time>2015-05-02T10:56:20Z</time>
      </trkpt>
      <trkpt lat="43.86063" lon="7.27228">
        <ele>1281.3</ele>
        <time>2015-05-02T10:56:26Z</time>
      </trkpt>
      <trkpt lat="43.86066" lon="7.27242">
        <ele>1278.4</ele>
        <time>2015-05-02T10:56:32Z</time>
      </trkpt>
      <trkpt lat="43.86065" lon="7.27257">
        <ele>1276.1</ele>
        <time>2015-05-02T10:56:35Z</time>
      </trkpt>
      <trkpt lat="43.86058" lon="7.27266">
        <ele>1272.8</ele>
        <time>2015-05-02T10:57:02Z</time>
      </trkpt>
      <trkpt lat="43.86047" lon="7.27266">
        <ele>1272.6</ele>
        <time>2015-05-02T10:57:08Z</time>
      </trkpt>
      <trkpt lat="43.86038" lon="7.27264">
        <ele>1270.9</ele>
        <time>2015-05-02T10:57:11Z</time>
      </trkpt>
      <trkpt lat="43.86028" lon="7.2726">
        <ele>1269.4</ele>
        <time>2015-05-02T10:57:13Z</time>
      </trkpt>
      <trkpt lat="43.86016" lon="7.27255">
        <ele>1268.3</ele>
        <time>2015-05-02T10:57:15Z</time>
      </trkpt>
      <trkpt lat="43.86004" lon="7.27251">
        <ele>1266.7</ele>
        <time>2015-05-02T10:57:17Z</time>
      </trkpt>
      <trkpt lat="43.85988" lon="7.27247">
        <ele>1264.2</ele>
        <time>2015-05-02T10:57:19Z</time>
      </trkpt>
      <trkpt lat="43.85974" lon="7.27239">
        <ele>1262.5</ele>
        <time>2015-05-02T10:57:21Z</time>
      </trkpt>
      <trkpt lat="43.85961" lon="7.27237">
        <ele>1261</ele>
        <time>2015-05-02T10:57:23Z</time>
      </trkpt>
      <trkpt lat="43.85949" lon="7.27236">
        <ele>1259.5</ele>
        <time>2015-05-02T10:57:25Z</time>
      </trkpt>
      <trkpt lat="43.85939" lon="7.27232">
        <ele>1258.4</ele>
        <time>2015-05-02T10:57:27Z</time>
      </trkpt>
      <trkpt lat="43.85928" lon="7.27224">
        <ele>1256.5</ele>
        <time>2015-05-02T10:57:30Z</time>
      </trkpt>
      <trkpt lat="43.85919" lon="7.27218">
        <ele>1254.3</ele>
        <time>2015-05-02T10:57:33Z</time>
      </trkpt>
      <trkpt lat="43.85909" lon="7.27212">
        <ele>1251.9</ele>
        <time>2015-05-02T10:57:38Z</time>
      </trkpt>
      <trkpt lat="43.859" lon="7.27209">
        <ele>1251.5</ele>
        <time>2015-05-02T10:57:45Z</time>
      </trkpt>
      <trkpt lat="43.85891" lon="7.27206">
        <ele>1250.1</ele>
        <time>2015-05-02T10:57:59Z</time>
      </trkpt>
      <trkpt lat="43.85881" lon="7.27206">
        <ele>1250.5</ele>
        <time>2015-05-02T10:58:17Z</time>
      </trkpt>
      <trkpt lat="43.85872" lon="7.27207">
        <ele>1250.3</ele>
        <time>2015-05-02T10:58:49Z</time>
      </trkpt>
      <trkpt lat="43.85863" lon="7.27207">
        <ele>1250.6</ele>
        <time>2015-05-02T10:58:56Z</time>
      </trkpt>
      <trkpt lat="43.85853" lon="7.27205">
        <ele>1251.3</ele>
        <time>2015-05-02T10:59:02Z</time>
      </trkpt>
      <trkpt lat="43.85844" lon="7.27203">
        <ele>1250.9</ele>
        <time>2015-05-02T10:59:07Z</time>
      </trkpt>
      <trkpt lat="43.85834" lon="7.27201">
        <ele>1250.4</ele>
        <time>2015-05-02T10:59:11Z</time>
      </trkpt>
      <trkpt lat="43.85823" lon="7.27199">
        <ele>1249.8</ele>
        <time>2015-05-02T10:59:15Z</time>
      </trkpt>
      <trkpt lat="43.85814" lon="7.272">
        <ele>1250.2</ele>
        <time>2015-05-02T10:59:19Z</time>
      </trkpt>
      <trkpt lat="43.85803" lon="7.27201">
        <ele>1249.5</ele>
        <time>2015-05-02T10:59:23Z</time>
      </trkpt>
      <trkpt lat="43.85794" lon="7.27204">
        <ele>1248.3</ele>
        <time>2015-05-02T10:59:26Z</time>
      </trkpt>
      <trkpt lat="43.85785" lon="7.27208">
        <ele>1245.8</ele>
        <time>2015-05-02T10:59:44Z</time>
      </trkpt>
      <trkpt lat="43.85776" lon="7.27212">
        <ele>1245.8</ele>
        <time>2015-05-02T11:00:05Z</time>
      </trkpt>
      <trkpt lat="43.85767" lon="7.2721">
        <ele>1245.2</ele>
        <time>2015-05-02T11:00:08Z</time>
      </trkpt>
      <trkpt lat="43.85756" lon="7.27207">
        <ele>1244.8</ele>
        <time>2015-05-02T11:00:11Z</time>
      </trkpt>
      <trkpt lat="43.85744" lon="7.27207">
        <ele>1244.3</ele>
        <time>2015-05-02T11:00:14Z</time>
      </trkpt>
      <trkpt lat="43.85731" lon="7.27203">
        <ele>1243.3</ele>
        <time>2015-05-02T11:00:17Z</time>
      </trkpt>
      <trkpt lat="43.85721" lon="7.27198">
        <ele>1241.9</ele>
        <time>2015-05-02T11:00:20Z</time>
      </trkpt>
      <trkpt lat="43.85709" lon="7.27193">
        <ele>1240.5</ele>
        <time>2015-05-02T11:00:23Z</time>
      </trkpt>
      <trkpt lat="43.857" lon="7.27198">
        <ele>1238.5</ele>
        <time>2015-05-02T11:00:26Z</time>
      </trkpt>
      <trkpt lat="43.8569" lon="7.27207">
        <ele>1237.2</ele>
        <time>2015-05-02T11:00:30Z</time>
      </trkpt>
      <trkpt lat="43.85681" lon="7.27212">
        <ele>1237</ele>
        <time>2015-05-02T11:00:33Z</time>
      </trkpt>
      <trkpt lat="43.8567" lon="7.27216">
        <ele>1236.7</ele>
        <time>2015-05-02T11:00:37Z</time>
      </trkpt>
      <trkpt lat="43.85661" lon="7.27218">
        <ele>1235.3</ele>
        <time>2015-05-02T11:00:45Z</time>
      </trkpt>
      <trkpt lat="43.85652" lon="7.27222">
        <ele>1235.1</ele>
        <time>2015-05-02T11:01:04Z</time>
      </trkpt>
      <trkpt lat="43.85641" lon="7.27227">
        <ele>1235</ele>
        <time>2015-05-02T11:01:36Z</time>
      </trkpt>
      <trkpt lat="43.85632" lon="7.27231">
        <ele>1235</ele>
        <time>2015-05-02T11:01:44Z</time>
      </trkpt>
      <trkpt lat="43.85623" lon="7.27232">
        <ele>1235.5</ele>
        <time>2015-05-02T11:01:49Z</time>
      </trkpt>
      <trkpt lat="43.85614" lon="7.27235">
        <ele>1234.7</ele>
        <time>2015-05-02T11:01:54Z</time>
      </trkpt>
      <trkpt lat="43.85605" lon="7.27231">
        <ele>1233.9</ele>
        <time>2015-05-02T11:02:04Z</time>
      </trkpt>
      <trkpt lat="43.85596" lon="7.27227">
        <ele>1235</ele>
        <time>2015-05-02T11:02:09Z</time>
      </trkpt>
      <trkpt lat="43.85586" lon="7.27225">
        <ele>1236.9</ele>
        <time>2015-05-02T11:02:14Z</time>
      </trkpt>
      <trkpt lat="43.85576" lon="7.27227">
        <ele>1236.9</ele>
        <time>2015-05-02T11:02:19Z</time>
      </trkpt>
      <trkpt lat="43.85566" lon="7.27229">
        <ele>1237.5</ele>
        <time>2015-05-02T11:02:23Z</time>
      </trkpt>
      <trkpt lat="43.85556" lon="7.27234">
        <ele>1238.1</ele>
        <time>2015-05-02T11:02:27Z</time>
      </trkpt>
      <trkpt lat="43.85546" lon="7.27236">
        <ele>1238.3</ele>
        <time>2015-05-02T11:02:30Z</time>
      </trkpt>
      <trkpt lat="43.85535" lon="7.27241">
        <ele>1238.6</ele>
        <time>2015-05-02T11:02:34Z</time>
      </trkpt>
      <trkpt lat="43.85525" lon="7.2724">
        <ele>1239</ele>
        <time>2015-05-02T11:02:39Z</time>
      </trkpt>
      <trkpt lat="43.85516" lon="7.27243">
        <ele>1239</ele>
        <time>2015-05-02T11:02:43Z</time>
      </trkpt>
      <trkpt lat="43.85505" lon="7.27245">
        <ele>1237.5</ele>
        <time>2015-05-02T11:02:56Z</time>
      </trkpt>
      <trkpt lat="43.85495" lon="7.27249">
        <ele>1237.7</ele>
        <time>2015-05-02T11:03:01Z</time>
      </trkpt>
      <trkpt lat="43.85485" lon="7.27246">
        <ele>1235.3</ele>
        <time>2015-05-02T11:03:05Z</time>
      </trkpt>
      <trkpt lat="43.85474" lon="7.27242">
        <ele>1234.1</ele>
        <time>2015-05-02T11:03:09Z</time>
      </trkpt>
      <trkpt lat="43.85464" lon="7.27241">
        <ele>1232.1</ele>
        <time>2015-05-02T11:03:12Z</time>
      </trkpt>
      <trkpt lat="43.85455" lon="7.2724">
        <ele>1230.4</ele>
        <time>2015-05-02T11:03:16Z</time>
      </trkpt>
      <trkpt lat="43.85446" lon="7.27244">
        <ele>1224.5</ele>
        <time>2015-05-02T11:03:34Z</time>
      </trkpt>
      <trkpt lat="43.85439" lon="7.27251">
        <ele>1222.1</ele>
        <time>2015-05-02T11:03:55Z</time>
      </trkpt>
      <trkpt lat="43.85427" lon="7.27251">
        <ele>1220.3</ele>
        <time>2015-05-02T11:04:00Z</time>
      </trkpt>
      <trkpt lat="43.85417" lon="7.27253">
        <ele>1218.8</ele>
        <time>2015-05-02T11:04:03Z</time>
      </trkpt>
      <trkpt lat="43.85409" lon="7.27258">
        <ele>1217.4</ele>
        <time>2015-05-02T11:04:10Z</time>
      </trkpt>
      <trkpt lat="43.85399" lon="7.27256">
        <ele>1216.2</ele>
        <time>2015-05-02T11:04:17Z</time>
      </trkpt>
      <trkpt lat="43.8539" lon="7.27259">
        <ele>1215.2</ele>
        <time>2015-05-02T11:04:20Z</time>
      </trkpt>
      <trkpt lat="43.85379" lon="7.27261">
        <ele>1213.8</ele>
        <time>2015-05-02T11:04:26Z</time>
      </trkpt>
      <trkpt lat="43.85369" lon="7.27265">
        <ele>1212.8</ele>
        <time>2015-05-02T11:04:30Z</time>
      </trkpt>
      <trkpt lat="43.85358" lon="7.2727">
        <ele>1211.8</ele>
        <time>2015-05-02T11:04:33Z</time>
      </trkpt>
      <trkpt lat="43.8535" lon="7.27277">
        <ele>1211</ele>
        <time>2015-05-02T11:04:36Z</time>
      </trkpt>
      <trkpt lat="43.85343" lon="7.27286">
        <ele>1209.7</ele>
        <time>2015-05-02T11:04:40Z</time>
      </trkpt>
      <trkpt lat="43.85335" lon="7.27291">
        <ele>1209.1</ele>
        <time>2015-05-02T11:04:43Z</time>
      </trkpt>
      <trkpt lat="43.85324" lon="7.27291">
        <ele>1207.6</ele>
        <time>2015-05-02T11:04:46Z</time>
      </trkpt>
      <trkpt lat="43.85315" lon="7.27289">
        <ele>1205.8</ele>
        <time>2015-05-02T11:04:50Z</time>
      </trkpt>
      <trkpt lat="43.85305" lon="7.27293">
        <ele>1204.3</ele>
        <time>2015-05-02T11:04:57Z</time>
      </trkpt>
      <trkpt lat="43.85295" lon="7.27295">
        <ele>1201.6</ele>
        <time>2015-05-02T11:05:08Z</time>
      </trkpt>
      <trkpt lat="43.85284" lon="7.27299">
        <ele>1201.3</ele>
        <time>2015-05-02T11:05:12Z</time>
      </trkpt>
      <trkpt lat="43.85275" lon="7.27301">
        <ele>1197.7</ele>
        <time>2015-05-02T11:05:22Z</time>
      </trkpt>
      <trkpt lat="43.85264" lon="7.27304">
        <ele>1195.5</ele>
        <time>2015-05-02T11:05:26Z</time>
      </trkpt>
      <trkpt lat="43.85255" lon="7.27296">
        <ele>1193.8</ele>
        <time>2015-05-02T11:05:30Z</time>
      </trkpt>
      <trkpt lat="43.85246" lon="7.27295">
        <ele>1192.4</ele>
        <time>2015-05-02T11:05:33Z</time>
      </trkpt>
      <trkpt lat="43.85235" lon="7.27295">
        <ele>1190</ele>
        <time>2015-05-02T11:05:39Z</time>
      </trkpt>
      <trkpt lat="43.85226" lon="7.27294">
        <ele>1188.5</ele>
        <time>2015-05-02T11:05:42Z</time>
      </trkpt>
      <trkpt lat="43.85215" lon="7.27291">
        <ele>1186.2</ele>
        <time>2015-05-02T11:05:46Z</time>
      </trkpt>
      <trkpt lat="43.85205" lon="7.27295">
        <ele>1183.7</ele>
        <time>2015-05-02T11:05:50Z</time>
      </trkpt>
      <trkpt lat="43.85195" lon="7.27299">
        <ele>1180.9</ele>
        <time>2015-05-02T11:05:54Z</time>
      </trkpt>
      <trkpt lat="43.85186" lon="7.273">
        <ele>1177.2</ele>
        <time>2015-05-02T11:06:58Z</time>
      </trkpt>
      <trkpt lat="43.85176" lon="7.27297">
        <ele>1176.7</ele>
        <time>2015-05-02T11:07:31Z</time>
      </trkpt>
      <trkpt lat="43.85165" lon="7.27295">
        <ele>1174.8</ele>
        <time>2015-05-02T11:07:35Z</time>
      </trkpt>
      <trkpt lat="43.85156" lon="7.27298">
        <ele>1173.4</ele>
        <time>2015-05-02T11:07:38Z</time>
      </trkpt>
      <trkpt lat="43.85142" lon="7.27303">
        <ele>1171.8</ele>
        <time>2015-05-02T11:07:41Z</time>
      </trkpt>
      <trkpt lat="43.85132" lon="7.27307">
        <ele>1169.3</ele>
        <time>2015-05-02T11:07:50Z</time>
      </trkpt>
      <trkpt lat="43.85123" lon="7.27304">
        <ele>1169</ele>
        <time>2015-05-02T11:07:56Z</time>
      </trkpt>
      <trkpt lat="43.85115" lon="7.273">
        <ele>1168</ele>
        <time>2015-05-02T11:08:01Z</time>
      </trkpt>
      <trkpt lat="43.85104" lon="7.27299">
        <ele>1167</ele>
        <time>2015-05-02T11:08:05Z</time>
      </trkpt>
      <trkpt lat="43.85094" lon="7.27298">
        <ele>1165.2</ele>
        <time>2015-05-02T11:08:09Z</time>
      </trkpt>
      <trkpt lat="43.85085" lon="7.27299">
        <ele>1163.9</ele>
        <time>2015-05-02T11:08:12Z</time>
      </trkpt>
      <trkpt lat="43.85075" lon="7.27297">
        <ele>1164</ele>
        <time>2015-05-02T11:08:15Z</time>
      </trkpt>
      <trkpt lat="43.85064" lon="7.27295">
        <ele>1161.6</ele>
        <time>2015-05-02T11:08:18Z</time>
      </trkpt>
      <trkpt lat="43.85054" lon="7.27288">
        <ele>1159.9</ele>
        <time>2015-05-02T11:08:21Z</time>
      </trkpt>
      <trkpt lat="43.85045" lon="7.27284">
        <ele>1158.6</ele>
        <time>2015-05-02T11:08:24Z</time>
      </trkpt>
      <trkpt lat="43.85036" lon="7.27288">
        <ele>1156.7</ele>
        <time>2015-05-02T11:08:30Z</time>
      </trkpt>
      <trkpt lat="43.85025" lon="7.2729">
        <ele>1155.5</ele>
        <time>2015-05-02T11:08:36Z</time>
      </trkpt>
      <trkpt lat="43.85015" lon="7.27293">
        <ele>1155.3</ele>
        <time>2015-05-02T11:08:40Z</time>
      </trkpt>
      <trkpt lat="43.85005" lon="7.27292">
        <ele>1154.7</ele>
        <time>2015-05-02T11:08:44Z</time>
      </trkpt>
      <trkpt lat="43.84996" lon="7.27297">
        <ele>1154.1</ele>
        <time>2015-05-02T11:08:48Z</time>
      </trkpt>
      <trkpt lat="43.84985" lon="7.273">
        <ele>1152.5</ele>
        <time>2015-05-02T11:09:01Z</time>
      </trkpt>
      <trkpt lat="43.84974" lon="7.27298">
        <ele>1152.7</ele>
        <time>2015-05-02T11:09:05Z</time>
      </trkpt>
      <trkpt lat="43.84965" lon="7.27295">
        <ele>1152.6</ele>
        <time>2015-05-02T11:09:09Z</time>
      </trkpt>
      <trkpt lat="43.84954" lon="7.27295">
        <ele>1150.9</ele>
        <time>2015-05-02T11:09:13Z</time>
      </trkpt>
      <trkpt lat="43.84945" lon="7.27294">
        <ele>1149.6</ele>
        <time>2015-05-02T11:09:17Z</time>
      </trkpt>
      <trkpt lat="43.84935" lon="7.27291">
        <ele>1147.7</ele>
        <time>2015-05-02T11:09:21Z</time>
      </trkpt>
      <trkpt lat="43.84924" lon="7.27288">
        <ele>1145.7</ele>
        <time>2015-05-02T11:09:25Z</time>
      </trkpt>
      <trkpt lat="43.84913" lon="7.27288">
        <ele>1143.5</ele>
        <time>2015-05-02T11:09:29Z</time>
      </trkpt>
      <trkpt lat="43.84904" lon="7.27286">
        <ele>1138.9</ele>
        <time>2015-05-02T11:09:44Z</time>
      </trkpt>
      <trkpt lat="43.84895" lon="7.27284">
        <ele>1138.1</ele>
        <time>2015-05-02T11:09:49Z</time>
      </trkpt>
      <trkpt lat="43.84884" lon="7.27279">
        <ele>1135.8</ele>
        <time>2015-05-02T11:09:55Z</time>
      </trkpt>
      <trkpt lat="43.84873" lon="7.27275">
        <ele>1133.2</ele>
        <time>2015-05-02T11:10:00Z</time>
      </trkpt>
      <trkpt lat="43.84862" lon="7.27277">
        <ele>1131.5</ele>
        <time>2015-05-02T11:10:05Z</time>
      </trkpt>
      <trkpt lat="43.8485" lon="7.27273">
        <ele>1129.3</ele>
        <time>2015-05-02T11:10:09Z</time>
      </trkpt>
      <trkpt lat="43.84841" lon="7.27274">
        <ele>1125.8</ele>
        <time>2015-05-02T11:10:13Z</time>
      </trkpt>
      <trkpt lat="43.84831" lon="7.27274">
        <ele>1122.7</ele>
        <time>2015-05-02T11:11:14Z</time>
      </trkpt>
      <trkpt lat="43.84821" lon="7.27277">
        <ele>1122.6</ele>
        <time>2015-05-02T11:11:19Z</time>
      </trkpt>
      <trkpt lat="43.84811" lon="7.2728">
        <ele>1121.9</ele>
        <time>2015-05-02T11:11:23Z</time>
      </trkpt>
      <trkpt lat="43.84802" lon="7.27285">
        <ele>1120.7</ele>
        <time>2015-05-02T11:11:27Z</time>
      </trkpt>
      <trkpt lat="43.84791" lon="7.27282">
        <ele>1117.6</ele>
        <time>2015-05-02T11:11:32Z</time>
      </trkpt>
      <trkpt lat="43.84781" lon="7.27281">
        <ele>1115.9</ele>
        <time>2015-05-02T11:11:36Z</time>
      </trkpt>
      <trkpt lat="43.84772" lon="7.27279">
        <ele>1113.4</ele>
        <time>2015-05-02T11:11:41Z</time>
      </trkpt>
      <trkpt lat="43.84762" lon="7.2728">
        <ele>1111.6</ele>
        <time>2015-05-02T11:11:50Z</time>
      </trkpt>
      <trkpt lat="43.8475" lon="7.27277">
        <ele>1109</ele>
        <time>2015-05-02T11:11:54Z</time>
      </trkpt>
      <trkpt lat="43.8474" lon="7.2728">
        <ele>1107.3</ele>
        <time>2015-05-02T11:11:59Z</time>
      </trkpt>
      <trkpt lat="43.84732" lon="7.27273">
        <ele>1106.1</ele>
        <time>2015-05-02T11:12:02Z</time>
      </trkpt>
      <trkpt lat="43.84722" lon="7.27272">
        <ele>1105</ele>
        <time>2015-05-02T11:12:05Z</time>
      </trkpt>
      <trkpt lat="43.84714" lon="7.27269">
        <ele>1103.2</ele>
        <time>2015-05-02T11:12:08Z</time>
      </trkpt>
      <trkpt lat="43.84704" lon="7.27266">
        <ele>1102</ele>
        <time>2015-05-02T11:12:11Z</time>
      </trkpt>
      <trkpt lat="43.84696" lon="7.27257">
        <ele>1097.5</ele>
        <time>2015-05-02T11:12:17Z</time>
      </trkpt>
      <trkpt lat="43.84688" lon="7.27262">
        <ele>1093.4</ele>
        <time>2015-05-02T11:12:27Z</time>
      </trkpt>
      <trkpt lat="43.8468" lon="7.2727">
        <ele>1092</ele>
        <time>2015-05-02T11:13:10Z</time>
      </trkpt>
      <trkpt lat="43.8467" lon="7.27269">
        <ele>1091</ele>
        <time>2015-05-02T11:13:26Z</time>
      </trkpt>
      <trkpt lat="43.84658" lon="7.27264">
        <ele>1089.8</ele>
        <time>2015-05-02T11:13:30Z</time>
      </trkpt>
      <trkpt lat="43.84652" lon="7.27275">
        <ele>1088.3</ele>
        <time>2015-05-02T11:13:35Z</time>
      </trkpt>
      <trkpt lat="43.84645" lon="7.27286">
        <ele>1087.1</ele>
        <time>2015-05-02T11:13:39Z</time>
      </trkpt>
      <trkpt lat="43.84635" lon="7.27281">
        <ele>1086</ele>
        <time>2015-05-02T11:13:42Z</time>
      </trkpt>
      <trkpt lat="43.84623" lon="7.27279">
        <ele>1084.4</ele>
        <time>2015-05-02T11:13:46Z</time>
      </trkpt>
      <trkpt lat="43.84613" lon="7.27279">
        <ele>1083.3</ele>
        <time>2015-05-02T11:13:50Z</time>
      </trkpt>
      <trkpt lat="43.84601" lon="7.27281">
        <ele>1082.1</ele>
        <time>2015-05-02T11:13:54Z</time>
      </trkpt>
      <trkpt lat="43.84588" lon="7.27281">
        <ele>1081.8</ele>
        <time>2015-05-02T11:13:57Z</time>
      </trkpt>
      <trkpt lat="43.84577" lon="7.2728">
        <ele>1080.3</ele>
        <time>2015-05-02T11:14:00Z</time>
      </trkpt>
      <trkpt lat="43.84571" lon="7.27268">
        <ele>1079.4</ele>
        <time>2015-05-02T11:14:05Z</time>
      </trkpt>
      <trkpt lat="43.84569" lon="7.27255">
        <ele>1078.9</ele>
        <time>2015-05-02T11:14:09Z</time>
      </trkpt>
      <trkpt lat="43.8457" lon="7.27241">
        <ele>1077.8</ele>
        <time>2015-05-02T11:14:12Z</time>
      </trkpt>
      <trkpt lat="43.84561" lon="7.2723">
        <ele>1075.3</ele>
        <time>2015-05-02T11:14:17Z</time>
      </trkpt>
      <trkpt lat="43.8455" lon="7.27226">
        <ele>1074.7</ele>
        <time>2015-05-02T11:14:20Z</time>
      </trkpt>
      <trkpt lat="43.84545" lon="7.27215">
        <ele>1072.6</ele>
        <time>2015-05-02T11:14:23Z</time>
      </trkpt>
      <trkpt lat="43.84533" lon="7.27212">
        <ele>1070.8</ele>
        <time>2015-05-02T11:14:27Z</time>
      </trkpt>
      <trkpt lat="43.84525" lon="7.27221">
        <ele>1071.1</ele>
        <time>2015-05-02T11:14:32Z</time>
      </trkpt>
      <trkpt lat="43.84515" lon="7.27224">
        <ele>1071.6</ele>
        <time>2015-05-02T11:14:36Z</time>
      </trkpt>
      <trkpt lat="43.84506" lon="7.27225">
        <ele>1071.1</ele>
        <time>2015-05-02T11:14:39Z</time>
      </trkpt>
      <trkpt lat="43.84497" lon="7.27225">
        <ele>1071.3</ele>
        <time>2015-05-02T11:14:41Z</time>
      </trkpt>
      <trkpt lat="43.84488" lon="7.2723">
        <ele>1069.8</ele>
        <time>2015-05-02T11:14:44Z</time>
      </trkpt>
      <trkpt lat="43.84477" lon="7.27229">
        <ele>1067.3</ele>
        <time>2015-05-02T11:14:48Z</time>
      </trkpt>
      <trkpt lat="43.84467" lon="7.27229">
        <ele>1066.4</ele>
        <time>2015-05-02T11:14:51Z</time>
      </trkpt>
      <trkpt lat="43.84458" lon="7.27228">
        <ele>1064.7</ele>
        <time>2015-05-02T11:14:54Z</time>
      </trkpt>
      <trkpt lat="43.84445" lon="7.27231">
        <ele>1063.1</ele>
        <time>2015-05-02T11:14:57Z</time>
      </trkpt>
      <trkpt lat="43.84433" lon="7.27234">
        <ele>1062.1</ele>
        <time>2015-05-02T11:15:00Z</time>
      </trkpt>
      <trkpt lat="43.84421" lon="7.27234">
        <ele>1059.3</ele>
        <time>2015-05-02T11:15:04Z</time>
      </trkpt>
      <trkpt lat="43.84411" lon="7.27236">
        <ele>1057.3</ele>
        <time>2015-05-02T11:15:08Z</time>
      </trkpt>
      <trkpt lat="43.84399" lon="7.27236">
        <ele>1054.9</ele>
        <time>2015-05-02T11:15:11Z</time>
      </trkpt>
      <trkpt lat="43.8439" lon="7.27245">
        <ele>1053</ele>
        <time>2015-05-02T11:15:14Z</time>
      </trkpt>
      <trkpt lat="43.84379" lon="7.27244">
        <ele>1049.6</ele>
        <time>2015-05-02T11:15:20Z</time>
      </trkpt>
      <trkpt lat="43.84368" lon="7.2725">
        <ele>1048.2</ele>
        <time>2015-05-02T11:15:24Z</time>
      </trkpt>
      <trkpt lat="43.84358" lon="7.27258">
        <ele>1047.7</ele>
        <time>2015-05-02T11:15:27Z</time>
      </trkpt>
      <trkpt lat="43.84346" lon="7.27266">
        <ele>1045.6</ele>
        <time>2015-05-02T11:15:30Z</time>
      </trkpt>
      <trkpt lat="43.84338" lon="7.27272">
        <ele>1045.2</ele>
        <time>2015-05-02T11:15:32Z</time>
      </trkpt>
      <trkpt lat="43.84331" lon="7.2728">
        <ele>1043.9</ele>
        <time>2015-05-02T11:15:35Z</time>
      </trkpt>
      <trkpt lat="43.84321" lon="7.27287">
        <ele>1042.3</ele>
        <time>2015-05-02T11:15:38Z</time>
      </trkpt>
      <trkpt lat="43.84312" lon="7.27291">
        <ele>1041</ele>
        <time>2015-05-02T11:15:41Z</time>
      </trkpt>
      <trkpt lat="43.84305" lon="7.27299">
        <ele>1038.4</ele>
        <time>2015-05-02T11:15:45Z</time>
      </trkpt>
      <trkpt lat="43.84296" lon="7.27304">
        <ele>1035</ele>
        <time>2015-05-02T11:15:56Z</time>
      </trkpt>
      <trkpt lat="43.84287" lon="7.27309">
        <ele>1035</ele>
        <time>2015-05-02T11:16:14Z</time>
      </trkpt>
      <trkpt lat="43.8428" lon="7.27316">
        <ele>1033.7</ele>
        <time>2015-05-02T11:17:34Z</time>
      </trkpt>
      <trkpt lat="43.84273" lon="7.27324">
        <ele>1030.5</ele>
        <time>2015-05-02T11:18:03Z</time>
      </trkpt>
      <trkpt lat="43.84263" lon="7.27329">
        <ele>1026.3</ele>
        <time>2015-05-02T11:18:10Z</time>
      </trkpt>
      <trkpt lat="43.84262" lon="7.27342">
        <ele>1022.9</ele>
        <time>2015-05-02T11:18:17Z</time>
      </trkpt>
      <trkpt lat="43.84253" lon="7.27348">
        <ele>1020.2</ele>
        <time>2015-05-02T11:18:23Z</time>
      </trkpt>
      <trkpt lat="43.84244" lon="7.27354">
        <ele>1016.6</ele>
        <time>2015-05-02T11:18:28Z</time>
      </trkpt>
      <trkpt lat="43.84238" lon="7.27364">
        <ele>1012.3</ele>
        <time>2015-05-02T11:18:44Z</time>
      </trkpt>
      <trkpt lat="43.84231" lon="7.27356">
        <ele>1005.7</ele>
        <time>2015-05-02T11:19:07Z</time>
      </trkpt>
      <trkpt lat="43.84222" lon="7.27359">
        <ele>1003.5</ele>
        <time>2015-05-02T11:20:02Z</time>
      </trkpt>
      <trkpt lat="43.84213" lon="7.27354">
        <ele>1002.3</ele>
        <time>2015-05-02T11:20:08Z</time>
      </trkpt>
      <trkpt lat="43.84201" lon="7.27351">
        <ele>997.5</ele>
        <time>2015-05-02T11:20:13Z</time>
      </trkpt>
      <trkpt lat="43.84191" lon="7.27346">
        <ele>995</ele>
        <time>2015-05-02T11:20:16Z</time>
      </trkpt>
      <trkpt lat="43.84181" lon="7.27341">
        <ele>992.3</ele>
        <time>2015-05-02T11:20:19Z</time>
      </trkpt>
      <trkpt lat="43.84172" lon="7.27336">
        <ele>989.7</ele>
        <time>2015-05-02T11:20:23Z</time>
      </trkpt>
      <trkpt lat="43.84163" lon="7.27336">
        <ele>988.2</ele>
        <time>2015-05-02T11:20:26Z</time>
      </trkpt>
      <trkpt lat="43.84153" lon="7.27339">
        <ele>984</ele>
        <time>2015-05-02T11:20:31Z</time>
      </trkpt>
      <trkpt lat="43.84144" lon="7.27344">
        <ele>983</ele>
        <time>2015-05-02T11:20:34Z</time>
      </trkpt>
      <trkpt lat="43.84137" lon="7.27332">
        <ele>980.6</ele>
        <time>2015-05-02T11:20:38Z</time>
      </trkpt>
      <trkpt lat="43.84127" lon="7.27326">
        <ele>977.2</ele>
        <time>2015-05-02T11:20:42Z</time>
      </trkpt>
      <trkpt lat="43.84114" lon="7.27325">
        <ele>974.7</ele>
        <time>2015-05-02T11:20:45Z</time>
      </trkpt>
      <trkpt lat="43.84102" lon="7.27322">
        <ele>973</ele>
        <time>2015-05-02T11:20:48Z</time>
      </trkpt>
      <trkpt lat="43.84092" lon="7.2732">
        <ele>972</ele>
        <time>2015-05-02T11:20:50Z</time>
      </trkpt>
      <trkpt lat="43.84082" lon="7.2732">
        <ele>970.1</ele>
        <time>2015-05-02T11:20:52Z</time>
      </trkpt>
      <trkpt lat="43.84073" lon="7.27324">
        <ele>968.9</ele>
        <time>2015-05-02T11:20:54Z</time>
      </trkpt>
      <trkpt lat="43.84061" lon="7.27324">
        <ele>967.5</ele>
        <time>2015-05-02T11:20:57Z</time>
      </trkpt>
      <trkpt lat="43.84049" lon="7.2733">
        <ele>964.6</ele>
        <time>2015-05-02T11:21:00Z</time>
      </trkpt>
      <trkpt lat="43.8404" lon="7.27335">
        <ele>963.9</ele>
        <time>2015-05-02T11:21:02Z</time>
      </trkpt>
      <trkpt lat="43.8403" lon="7.2734">
        <ele>961.8</ele>
        <time>2015-05-02T11:21:05Z</time>
      </trkpt>
      <trkpt lat="43.84018" lon="7.2734">
        <ele>959</ele>
        <time>2015-05-02T11:21:09Z</time>
      </trkpt>
      <trkpt lat="43.84007" lon="7.27341">
        <ele>955.8</ele>
        <time>2015-05-02T11:21:13Z</time>
      </trkpt>
      <trkpt lat="43.83995" lon="7.27341">
        <ele>954.5</ele>
        <time>2015-05-02T11:21:16Z</time>
      </trkpt>
      <trkpt lat="43.83986" lon="7.27344">
        <ele>950.8</ele>
        <time>2015-05-02T11:21:24Z</time>
      </trkpt>
      <trkpt lat="43.83979" lon="7.27352">
        <ele>950.8</ele>
        <time>2015-05-02T11:25:38Z</time>
      </trkpt>
      <trkpt lat="43.83981" lon="7.27339">
        <ele>952.3</ele>
        <time>2015-05-02T11:33:09Z</time>
      </trkpt>
      <trkpt lat="43.83972" lon="7.27346">
        <ele>952</ele>
        <time>2015-05-02T11:40:46Z</time>
      </trkpt>
      <trkpt lat="43.83962" lon="7.27351">
        <ele>951.3</ele>
        <time>2015-05-02T11:40:51Z</time>
      </trkpt>
      <trkpt lat="43.83953" lon="7.27345">
        <ele>948.6</ele>
        <time>2015-05-02T11:40:57Z</time>
      </trkpt>
      <trkpt lat="43.83945" lon="7.2735">
        <ele>947</ele>
        <time>2015-05-02T11:41:01Z</time>
      </trkpt>
      <trkpt lat="43.83936" lon="7.27349">
        <ele>943.5</ele>
        <time>2015-05-02T11:41:07Z</time>
      </trkpt>
      <trkpt lat="43.83927" lon="7.27358">
        <ele>941.7</ele>
        <time>2015-05-02T11:41:12Z</time>
      </trkpt>
      <trkpt lat="43.83921" lon="7.27369">
        <ele>939.7</ele>
        <time>2015-05-02T11:41:16Z</time>
      </trkpt>
      <trkpt lat="43.83912" lon="7.27371">
        <ele>935.9</ele>
        <time>2015-05-02T11:41:23Z</time>
      </trkpt>
      <trkpt lat="43.83902" lon="7.27373">
        <ele>934.1</ele>
        <time>2015-05-02T11:41:27Z</time>
      </trkpt>
      <trkpt lat="43.83892" lon="7.27377">
        <ele>931.2</ele>
        <time>2015-05-02T11:41:32Z</time>
      </trkpt>
      <trkpt lat="43.83882" lon="7.27375">
        <ele>927</ele>
        <time>2015-05-02T11:41:41Z</time>
      </trkpt>
      <trkpt lat="43.83871" lon="7.27377">
        <ele>925.3</ele>
        <time>2015-05-02T11:41:45Z</time>
      </trkpt>
      <trkpt lat="43.83859" lon="7.27369">
        <ele>924.2</ele>
        <time>2015-05-02T11:41:48Z</time>
      </trkpt>
      <trkpt lat="43.83852" lon="7.2736">
        <ele>923.2</ele>
        <time>2015-05-02T11:41:50Z</time>
      </trkpt>
      <trkpt lat="43.83849" lon="7.27346">
        <ele>921.7</ele>
        <time>2015-05-02T11:41:53Z</time>
      </trkpt>
      <trkpt lat="43.8385" lon="7.27332">
        <ele>919.1</ele>
        <time>2015-05-02T11:41:56Z</time>
      </trkpt>
      <trkpt lat="43.83855" lon="7.27315">
        <ele>915.9</ele>
        <time>2015-05-02T11:42:00Z</time>
      </trkpt>
      <trkpt lat="43.83856" lon="7.27299">
        <ele>912.6</ele>
        <time>2015-05-02T11:42:03Z</time>
      </trkpt>
      <trkpt lat="43.83855" lon="7.27284">
        <ele>909.6</ele>
        <time>2015-05-02T11:42:06Z</time>
      </trkpt>
      <trkpt lat="43.83856" lon="7.2727">
        <ele>905.5</ele>
        <time>2015-05-02T11:42:10Z</time>
      </trkpt>
      <trkpt lat="43.83853" lon="7.27256">
        <ele>902.8</ele>
        <time>2015-05-02T11:42:14Z</time>
      </trkpt>
      <trkpt lat="43.83852" lon="7.27243">
        <ele>899.1</ele>
        <time>2015-05-02T11:42:18Z</time>
      </trkpt>
      <trkpt lat="43.83848" lon="7.27231">
        <ele>894.4</ele>
        <time>2015-05-02T11:42:34Z</time>
      </trkpt>
      <trkpt lat="43.83852" lon="7.27217">
        <ele>893</ele>
        <time>2015-05-02T11:42:42Z</time>
      </trkpt>
      <trkpt lat="43.83856" lon="7.27206">
        <ele>892.3</ele>
        <time>2015-05-02T11:42:45Z</time>
      </trkpt>
      <trkpt lat="43.83863" lon="7.27197">
        <ele>891.1</ele>
        <time>2015-05-02T11:42:47Z</time>
      </trkpt>
      <trkpt lat="43.83871" lon="7.27188">
        <ele>890</ele>
        <time>2015-05-02T11:42:49Z</time>
      </trkpt>
      <trkpt lat="43.83879" lon="7.27181">
        <ele>889.5</ele>
        <time>2015-05-02T11:42:51Z</time>
      </trkpt>
      <trkpt lat="43.83887" lon="7.27172">
        <ele>888.7</ele>
        <time>2015-05-02T11:42:53Z</time>
      </trkpt>
      <trkpt lat="43.83895" lon="7.27162">
        <ele>888</ele>
        <time>2015-05-02T11:42:55Z</time>
      </trkpt>
      <trkpt lat="43.83901" lon="7.27151">
        <ele>886.5</ele>
        <time>2015-05-02T11:42:57Z</time>
      </trkpt>
      <trkpt lat="43.83908" lon="7.2714">
        <ele>882.4</ele>
        <time>2015-05-02T11:43:01Z</time>
      </trkpt>
      <trkpt lat="43.83917" lon="7.27131">
        <ele>881.5</ele>
        <time>2015-05-02T11:43:04Z</time>
      </trkpt>
      <trkpt lat="43.83925" lon="7.27124">
        <ele>878.5</ele>
        <time>2015-05-02T11:43:09Z</time>
      </trkpt>
      <trkpt lat="43.83931" lon="7.27112">
        <ele>875.8</ele>
        <time>2015-05-02T11:43:16Z</time>
      </trkpt>
      <trkpt lat="43.83939" lon="7.27105">
        <ele>873.7</ele>
        <time>2015-05-02T11:43:21Z</time>
      </trkpt>
      <trkpt lat="43.83942" lon="7.27092">
        <ele>871.5</ele>
        <time>2015-05-02T11:43:38Z</time>
      </trkpt>
      <trkpt lat="43.8395" lon="7.27083">
        <ele>871.3</ele>
        <time>2015-05-02T11:43:42Z</time>
      </trkpt>
      <trkpt lat="43.83958" lon="7.27077">
        <ele>869.7</ele>
        <time>2015-05-02T11:43:45Z</time>
      </trkpt>
      <trkpt lat="43.83968" lon="7.27071">
        <ele>867.4</ele>
        <time>2015-05-02T11:43:50Z</time>
      </trkpt>
      <trkpt lat="43.83976" lon="7.27063">
        <ele>866.3</ele>
        <time>2015-05-02T11:43:53Z</time>
      </trkpt>
      <trkpt lat="43.83985" lon="7.27053">
        <ele>865.3</ele>
        <time>2015-05-02T11:43:57Z</time>
      </trkpt>
      <trkpt lat="43.83995" lon="7.27044">
        <ele>865.3</ele>
        <time>2015-05-02T11:44:01Z</time>
      </trkpt>
      <trkpt lat="43.84002" lon="7.27035">
        <ele>864.9</ele>
        <time>2015-05-02T11:44:04Z</time>
      </trkpt>
      <trkpt lat="43.8401" lon="7.27026">
        <ele>864.8</ele>
        <time>2015-05-02T11:44:07Z</time>
      </trkpt>
      <trkpt lat="43.84019" lon="7.27013">
        <ele>864.3</ele>
        <time>2015-05-02T11:44:12Z</time>
      </trkpt>
      <trkpt lat="43.84024" lon="7.27003">
        <ele>862.1</ele>
        <time>2015-05-02T11:44:19Z</time>
      </trkpt>
      <trkpt lat="43.84031" lon="7.26991">
        <ele>861.4</ele>
        <time>2015-05-02T11:44:23Z</time>
      </trkpt>
      <trkpt lat="43.84038" lon="7.26978">
        <ele>860.8</ele>
        <time>2015-05-02T11:44:27Z</time>
      </trkpt>
      <trkpt lat="43.84044" lon="7.26965">
        <ele>860.3</ele>
        <time>2015-05-02T11:44:31Z</time>
      </trkpt>
      <trkpt lat="43.8405" lon="7.26954">
        <ele>859.5</ele>
        <time>2015-05-02T11:44:35Z</time>
      </trkpt>
      <trkpt lat="43.84059" lon="7.26946">
        <ele>857.6</ele>
        <time>2015-05-02T11:44:39Z</time>
      </trkpt>
      <trkpt lat="43.84065" lon="7.26936">
        <ele>855.8</ele>
        <time>2015-05-02T11:44:43Z</time>
      </trkpt>
      <trkpt lat="43.84073" lon="7.26926">
        <ele>854.5</ele>
        <time>2015-05-02T11:44:46Z</time>
      </trkpt>
      <trkpt lat="43.8408" lon="7.2692">
        <ele>852.6</ele>
        <time>2015-05-02T11:44:49Z</time>
      </trkpt>
      <trkpt lat="43.84087" lon="7.2691">
        <ele>851.6</ele>
        <time>2015-05-02T11:44:57Z</time>
      </trkpt>
      <trkpt lat="43.84094" lon="7.26901">
        <ele>850.9</ele>
        <time>2015-05-02T11:45:09Z</time>
      </trkpt>
      <trkpt lat="43.84102" lon="7.26894">
        <ele>849.6</ele>
        <time>2015-05-02T11:45:15Z</time>
      </trkpt>
      <trkpt lat="43.84109" lon="7.26885">
        <ele>846.2</ele>
        <time>2015-05-02T11:45:26Z</time>
      </trkpt>
      <trkpt lat="43.84116" lon="7.26877">
        <ele>845.9</ele>
        <time>2015-05-02T11:45:49Z</time>
      </trkpt>
      <trkpt lat="43.84123" lon="7.2687">
        <ele>844.2</ele>
        <time>2015-05-02T11:46:08Z</time>
      </trkpt>
      <trkpt lat="43.84131" lon="7.26878">
        <ele>843</ele>
        <time>2015-05-02T11:50:11Z</time>
      </trkpt>
      <trkpt lat="43.84122" lon="7.26871">
        <ele>843.7</ele>
        <time>2015-05-02T11:52:01Z</time>
      </trkpt>
      <trkpt lat="43.84115" lon="7.26862">
        <ele>843</ele>
        <time>2015-05-02T11:52:24Z</time>
      </trkpt>
      <trkpt lat="43.84124" lon="7.26868">
        <ele>844.1</ele>
        <time>2015-05-02T11:54:15Z</time>
      </trkpt>
      <trkpt lat="43.84131" lon="7.26877">
        <ele>843.2</ele>
        <time>2015-05-02T11:54:45Z</time>
      </trkpt>
      <trkpt lat="43.84123" lon="7.2687">
        <ele>843.8</ele>
        <time>2015-05-02T12:06:10Z</time>
      </trkpt>
      <trkpt lat="43.84128" lon="7.26859">
        <ele>841.8</ele>
        <time>2015-05-02T12:10:03Z</time>
      </trkpt>
      <trkpt lat="43.84135" lon="7.26851">
        <ele>840.6</ele>
        <time>2015-05-02T12:10:06Z</time>
      </trkpt>
      <trkpt lat="43.84143" lon="7.26843">
        <ele>839.6</ele>
        <time>2015-05-02T12:10:09Z</time>
      </trkpt>
      <trkpt lat="43.84151" lon="7.26833">
        <ele>838.5</ele>
        <time>2015-05-02T12:10:12Z</time>
      </trkpt>
      <trkpt lat="43.8416" lon="7.26825">
        <ele>836.4</ele>
        <time>2015-05-02T12:10:15Z</time>
      </trkpt>
      <trkpt lat="43.8417" lon="7.26821">
        <ele>835.1</ele>
        <time>2015-05-02T12:10:18Z</time>
      </trkpt>
      <trkpt lat="43.84179" lon="7.26813">
        <ele>834.4</ele>
        <time>2015-05-02T12:10:21Z</time>
      </trkpt>
      <trkpt lat="43.84188" lon="7.26803">
        <ele>833.6</ele>
        <time>2015-05-02T12:10:24Z</time>
      </trkpt>
      <trkpt lat="43.84197" lon="7.26791">
        <ele>832.6</ele>
        <time>2015-05-02T12:10:27Z</time>
      </trkpt>
      <trkpt lat="43.84205" lon="7.26781">
        <ele>830.1</ele>
        <time>2015-05-02T12:10:30Z</time>
      </trkpt>
      <trkpt lat="43.84213" lon="7.26768">
        <ele>827.1</ele>
        <time>2015-05-02T12:10:33Z</time>
      </trkpt>
      <trkpt lat="43.84224" lon="7.26758">
        <ele>825.5</ele>
        <time>2015-05-02T12:10:36Z</time>
      </trkpt>
      <trkpt lat="43.84232" lon="7.26752">
        <ele>823.7</ele>
        <time>2015-05-02T12:10:39Z</time>
      </trkpt>
      <trkpt lat="43.8424" lon="7.26741">
        <ele>821.7</ele>
        <time>2015-05-02T12:10:47Z</time>
      </trkpt>
      <trkpt lat="43.84249" lon="7.26732">
        <ele>819.2</ele>
        <time>2015-05-02T12:10:51Z</time>
      </trkpt>
      <trkpt lat="43.84262" lon="7.26725">
        <ele>818.3</ele>
        <time>2015-05-02T12:10:54Z</time>
      </trkpt>
      <trkpt lat="43.84274" lon="7.26718">
        <ele>817.4</ele>
        <time>2015-05-02T12:10:57Z</time>
      </trkpt>
      <trkpt lat="43.84283" lon="7.26711">
        <ele>816.2</ele>
        <time>2015-05-02T12:11:00Z</time>
      </trkpt>
      <trkpt lat="43.84294" lon="7.26703">
        <ele>814.6</ele>
        <time>2015-05-02T12:11:03Z</time>
      </trkpt>
      <trkpt lat="43.84307" lon="7.26697">
        <ele>813.4</ele>
        <time>2015-05-02T12:11:06Z</time>
      </trkpt>
      <trkpt lat="43.84316" lon="7.26692">
        <ele>812.4</ele>
        <time>2015-05-02T12:11:08Z</time>
      </trkpt>
      <trkpt lat="43.84325" lon="7.26687">
        <ele>811.4</ele>
        <time>2015-05-02T12:11:10Z</time>
      </trkpt>
      <trkpt lat="43.84335" lon="7.26681">
        <ele>810.4</ele>
        <time>2015-05-02T12:11:12Z</time>
      </trkpt>
      <trkpt lat="43.84344" lon="7.26677">
        <ele>809.5</ele>
        <time>2015-05-02T12:11:14Z</time>
      </trkpt>
      <trkpt lat="43.84354" lon="7.26676">
        <ele>809.5</ele>
        <time>2015-05-02T12:11:16Z</time>
      </trkpt>
      <trkpt lat="43.84365" lon="7.26673">
        <ele>808.2</ele>
        <time>2015-05-02T12:11:19Z</time>
      </trkpt>
      <trkpt lat="43.84373" lon="7.26666">
        <ele>807.1</ele>
        <time>2015-05-02T12:11:22Z</time>
      </trkpt>
      <trkpt lat="43.84384" lon="7.26661">
        <ele>806.1</ele>
        <time>2015-05-02T12:11:25Z</time>
      </trkpt>
      <trkpt lat="43.84394" lon="7.26654">
        <ele>804.3</ele>
        <time>2015-05-02T12:11:28Z</time>
      </trkpt>
      <trkpt lat="43.84392" lon="7.26641">
        <ele>802.1</ele>
        <time>2015-05-02T12:11:31Z</time>
      </trkpt>
      <trkpt lat="43.84385" lon="7.26627">
        <ele>800.4</ele>
        <time>2015-05-02T12:11:34Z</time>
      </trkpt>
      <trkpt lat="43.8438" lon="7.26615">
        <ele>799.4</ele>
        <time>2015-05-02T12:11:36Z</time>
      </trkpt>
      <trkpt lat="43.84373" lon="7.26599">
        <ele>798.3</ele>
        <time>2015-05-02T12:11:39Z</time>
      </trkpt>
      <trkpt lat="43.84368" lon="7.26587">
        <ele>797.4</ele>
        <time>2015-05-02T12:11:41Z</time>
      </trkpt>
      <trkpt lat="43.84365" lon="7.26574">
        <ele>796.6</ele>
        <time>2015-05-02T12:11:43Z</time>
      </trkpt>
      <trkpt lat="43.8436" lon="7.26559">
        <ele>795</ele>
        <time>2015-05-02T12:11:47Z</time>
      </trkpt>
      <trkpt lat="43.84358" lon="7.26544">
        <ele>793</ele>
        <time>2015-05-02T12:11:50Z</time>
      </trkpt>
      <trkpt lat="43.84364" lon="7.26531">
        <ele>793</ele>
        <time>2015-05-02T12:11:53Z</time>
      </trkpt>
      <trkpt lat="43.84372" lon="7.26522">
        <ele>792.9</ele>
        <time>2015-05-02T12:11:56Z</time>
      </trkpt>
      <trkpt lat="43.84378" lon="7.26513">
        <ele>792.4</ele>
        <time>2015-05-02T12:11:59Z</time>
      </trkpt>
      <trkpt lat="43.84386" lon="7.26504">
        <ele>791.5</ele>
        <time>2015-05-02T12:12:03Z</time>
      </trkpt>
      <trkpt lat="43.84394" lon="7.26494">
        <ele>789.9</ele>
        <time>2015-05-02T12:12:07Z</time>
      </trkpt>
      <trkpt lat="43.84401" lon="7.26481">
        <ele>789</ele>
        <time>2015-05-02T12:12:10Z</time>
      </trkpt>
      <trkpt lat="43.84408" lon="7.26473">
        <ele>788</ele>
        <time>2015-05-02T12:12:12Z</time>
      </trkpt>
      <trkpt lat="43.84419" lon="7.26465">
        <ele>786.8</ele>
        <time>2015-05-02T12:12:15Z</time>
      </trkpt>
      <trkpt lat="43.84427" lon="7.2646">
        <ele>787.5</ele>
        <time>2015-05-02T12:12:21Z</time>
      </trkpt>
      <trkpt lat="43.84434" lon="7.26452">
        <ele>787.2</ele>
        <time>2015-05-02T12:12:28Z</time>
      </trkpt>
      <trkpt lat="43.84428" lon="7.26442">
        <ele>786.6</ele>
        <time>2015-05-02T12:15:00Z</time>
      </trkpt>
      <trkpt lat="43.84436" lon="7.26449">
        <ele>787.6</ele>
        <time>2015-05-02T12:19:30Z</time>
      </trkpt>
      <trkpt lat="43.84443" lon="7.2644">
        <ele>787.1</ele>
        <time>2015-05-02T12:25:30Z</time>
      </trkpt>
      <trkpt lat="43.8445" lon="7.26429">
        <ele>785.7</ele>
        <time>2015-05-02T12:25:39Z</time>
      </trkpt>
      <trkpt lat="43.84456" lon="7.26418">
        <ele>785.7</ele>
        <time>2015-05-02T12:25:43Z</time>
      </trkpt>
      <trkpt lat="43.84463" lon="7.26409">
        <ele>783.5</ele>
        <time>2015-05-02T12:25:46Z</time>
      </trkpt>
      <trkpt lat="43.84469" lon="7.26398">
        <ele>783.1</ele>
        <time>2015-05-02T12:25:48Z</time>
      </trkpt>
      <trkpt lat="43.84476" lon="7.26388">
        <ele>781.4</ele>
        <time>2015-05-02T12:25:50Z</time>
      </trkpt>
      <trkpt lat="43.84484" lon="7.26381">
        <ele>781.4</ele>
        <time>2015-05-02T12:25:52Z</time>
      </trkpt>
      <trkpt lat="43.84492" lon="7.26376">
        <ele>781.2</ele>
        <time>2015-05-02T12:25:55Z</time>
      </trkpt>
      <trkpt lat="43.84501" lon="7.26371">
        <ele>781.6</ele>
        <time>2015-05-02T12:26:00Z</time>
      </trkpt>
      <trkpt lat="43.84509" lon="7.26363">
        <ele>782.1</ele>
        <time>2015-05-02T12:26:03Z</time>
      </trkpt>
      <trkpt lat="43.84516" lon="7.26353">
        <ele>782.3</ele>
        <time>2015-05-02T12:26:06Z</time>
      </trkpt>
      <trkpt lat="43.84523" lon="7.26344">
        <ele>782.4</ele>
        <time>2015-05-02T12:26:09Z</time>
      </trkpt>
      <trkpt lat="43.84531" lon="7.26337">
        <ele>781.5</ele>
        <time>2015-05-02T12:26:12Z</time>
      </trkpt>
      <trkpt lat="43.84537" lon="7.26328">
        <ele>780.2</ele>
        <time>2015-05-02T12:26:16Z</time>
      </trkpt>
      <trkpt lat="43.84546" lon="7.26317">
        <ele>778.5</ele>
        <time>2015-05-02T12:26:20Z</time>
      </trkpt>
      <trkpt lat="43.84553" lon="7.26308">
        <ele>777.3</ele>
        <time>2015-05-02T12:26:23Z</time>
      </trkpt>
      <trkpt lat="43.84561" lon="7.26295">
        <ele>775.8</ele>
        <time>2015-05-02T12:26:27Z</time>
      </trkpt>
      <trkpt lat="43.84563" lon="7.26282">
        <ele>773.7</ele>
        <time>2015-05-02T12:26:31Z</time>
      </trkpt>
      <trkpt lat="43.84569" lon="7.26267">
        <ele>772.1</ele>
        <time>2015-05-02T12:26:35Z</time>
      </trkpt>
      <trkpt lat="43.84576" lon="7.26251">
        <ele>770.9</ele>
        <time>2015-05-02T12:26:38Z</time>
      </trkpt>
      <trkpt lat="43.84582" lon="7.26237">
        <ele>770.1</ele>
        <time>2015-05-02T12:26:41Z</time>
      </trkpt>
      <trkpt lat="43.84586" lon="7.26225">
        <ele>769</ele>
        <time>2015-05-02T12:26:43Z</time>
      </trkpt>
      <trkpt lat="43.8459" lon="7.26213">
        <ele>768.3</ele>
        <time>2015-05-02T12:26:45Z</time>
      </trkpt>
      <trkpt lat="43.84592" lon="7.26198">
        <ele>766.6</ele>
        <time>2015-05-02T12:26:49Z</time>
      </trkpt>
      <trkpt lat="43.84592" lon="7.26185">
        <ele>765.3</ele>
        <time>2015-05-02T12:27:31Z</time>
      </trkpt>
      <trkpt lat="43.84599" lon="7.26176">
        <ele>765.4</ele>
        <time>2015-05-02T12:27:40Z</time>
      </trkpt>
      <trkpt lat="43.84603" lon="7.26162">
        <ele>765.6</ele>
        <time>2015-05-02T12:27:44Z</time>
      </trkpt>
      <trkpt lat="43.84601" lon="7.26148">
        <ele>765.8</ele>
        <time>2015-05-02T12:27:48Z</time>
      </trkpt>
      <trkpt lat="43.84596" lon="7.26135">
        <ele>766.5</ele>
        <time>2015-05-02T12:27:52Z</time>
      </trkpt>
      <trkpt lat="43.84587" lon="7.26127">
        <ele>766.6</ele>
        <time>2015-05-02T12:27:56Z</time>
      </trkpt>
      <trkpt lat="43.84578" lon="7.2612">
        <ele>767</ele>
        <time>2015-05-02T12:28:00Z</time>
      </trkpt>
      <trkpt lat="43.84567" lon="7.26116">
        <ele>767.3</ele>
        <time>2015-05-02T12:28:04Z</time>
      </trkpt>
      <trkpt lat="43.84556" lon="7.26112">
        <ele>767.9</ele>
        <time>2015-05-02T12:28:08Z</time>
      </trkpt>
      <trkpt lat="43.84546" lon="7.26108">
        <ele>769.3</ele>
        <time>2015-05-02T12:28:12Z</time>
      </trkpt>
      <trkpt lat="43.84535" lon="7.26104">
        <ele>769.5</ele>
        <time>2015-05-02T12:28:16Z</time>
      </trkpt>
      <trkpt lat="43.84526" lon="7.26098">
        <ele>770.4</ele>
        <time>2015-05-02T12:28:20Z</time>
      </trkpt>
      <trkpt lat="43.84517" lon="7.26092">
        <ele>771</ele>
        <time>2015-05-02T12:28:24Z</time>
      </trkpt>
      <trkpt lat="43.84506" lon="7.26088">
        <ele>771</ele>
        <time>2015-05-02T12:28:28Z</time>
      </trkpt>
      <trkpt lat="43.84494" lon="7.26087">
        <ele>771.1</ele>
        <time>2015-05-02T12:28:32Z</time>
      </trkpt>
      <trkpt lat="43.84485" lon="7.26086">
        <ele>771</ele>
        <time>2015-05-02T12:28:35Z</time>
      </trkpt>
      <trkpt lat="43.84476" lon="7.26084">
        <ele>771</ele>
        <time>2015-05-02T12:28:38Z</time>
      </trkpt>
      <trkpt lat="43.84465" lon="7.26082">
        <ele>770.9</ele>
        <time>2015-05-02T12:28:42Z</time>
      </trkpt>
      <trkpt lat="43.84455" lon="7.2608">
        <ele>770.7</ele>
        <time>2015-05-02T12:28:45Z</time>
      </trkpt>
      <trkpt lat="43.84446" lon="7.26079">
        <ele>770.8</ele>
        <time>2015-05-02T12:28:48Z</time>
      </trkpt>
      <trkpt lat="43.84436" lon="7.26077">
        <ele>771.6</ele>
        <time>2015-05-02T12:28:52Z</time>
      </trkpt>
      <trkpt lat="43.84427" lon="7.26075">
        <ele>771.5</ele>
        <time>2015-05-02T12:28:57Z</time>
      </trkpt>
      <trkpt lat="43.84416" lon="7.26078">
        <ele>770.2</ele>
        <time>2015-05-02T12:29:12Z</time>
      </trkpt>
      <trkpt lat="43.84406" lon="7.26076">
        <ele>769.7</ele>
        <time>2015-05-02T12:29:15Z</time>
      </trkpt>
      <trkpt lat="43.84393" lon="7.26076">
        <ele>768.6</ele>
        <time>2015-05-02T12:29:18Z</time>
      </trkpt>
      <trkpt lat="43.84383" lon="7.26075">
        <ele>768</ele>
        <time>2015-05-02T12:29:20Z</time>
      </trkpt>
      <trkpt lat="43.84372" lon="7.26073">
        <ele>767.7</ele>
        <time>2015-05-02T12:29:22Z</time>
      </trkpt>
      <trkpt lat="43.84362" lon="7.26071">
        <ele>767.6</ele>
        <time>2015-05-02T12:29:24Z</time>
      </trkpt>
      <trkpt lat="43.84352" lon="7.26071">
        <ele>767.3</ele>
        <time>2015-05-02T12:29:26Z</time>
      </trkpt>
      <trkpt lat="43.84338" lon="7.2607">
        <ele>768.2</ele>
        <time>2015-05-02T12:29:29Z</time>
      </trkpt>
      <trkpt lat="43.84329" lon="7.26068">
        <ele>767.9</ele>
        <time>2015-05-02T12:29:31Z</time>
      </trkpt>
      <trkpt lat="43.84319" lon="7.26068">
        <ele>768.2</ele>
        <time>2015-05-02T12:29:34Z</time>
      </trkpt>
      <trkpt lat="43.84307" lon="7.26069">
        <ele>767.8</ele>
        <time>2015-05-02T12:29:37Z</time>
      </trkpt>
      <trkpt lat="43.84296" lon="7.26074">
        <ele>766.6</ele>
        <time>2015-05-02T12:29:40Z</time>
      </trkpt>
      <trkpt lat="43.84286" lon="7.26078">
        <ele>765.4</ele>
        <time>2015-05-02T12:29:43Z</time>
      </trkpt>
      <trkpt lat="43.84273" lon="7.2608">
        <ele>763.5</ele>
        <time>2015-05-02T12:29:46Z</time>
      </trkpt>
      <trkpt lat="43.84261" lon="7.26083">
        <ele>761.3</ele>
        <time>2015-05-02T12:29:49Z</time>
      </trkpt>
      <trkpt lat="43.84252" lon="7.26085">
        <ele>759.5</ele>
        <time>2015-05-02T12:29:52Z</time>
      </trkpt>
      <trkpt lat="43.84241" lon="7.26087">
        <ele>755.2</ele>
        <time>2015-05-02T12:29:57Z</time>
      </trkpt>
      <trkpt lat="43.8423" lon="7.26088">
        <ele>753.3</ele>
        <time>2015-05-02T12:30:01Z</time>
      </trkpt>
      <trkpt lat="43.8422" lon="7.26089">
        <ele>752.5</ele>
        <time>2015-05-02T12:30:04Z</time>
      </trkpt>
      <trkpt lat="43.84207" lon="7.26091">
        <ele>750.6</ele>
        <time>2015-05-02T12:30:07Z</time>
      </trkpt>
      <trkpt lat="43.84195" lon="7.26096">
        <ele>748.4</ele>
        <time>2015-05-02T12:30:10Z</time>
      </trkpt>
      <trkpt lat="43.84183" lon="7.26101">
        <ele>745</ele>
        <time>2015-05-02T12:30:13Z</time>
      </trkpt>
      <trkpt lat="43.84174" lon="7.26103">
        <ele>743</ele>
        <time>2015-05-02T12:30:15Z</time>
      </trkpt>
      <trkpt lat="43.84162" lon="7.26104">
        <ele>739.9</ele>
        <time>2015-05-02T12:30:18Z</time>
      </trkpt>
      <trkpt lat="43.84153" lon="7.26103">
        <ele>736.6</ele>
        <time>2015-05-02T12:30:21Z</time>
      </trkpt>
      <trkpt lat="43.84141" lon="7.26107">
        <ele>734.5</ele>
        <time>2015-05-02T12:30:25Z</time>
      </trkpt>
      <trkpt lat="43.84131" lon="7.26109">
        <ele>732.4</ele>
        <time>2015-05-02T12:30:28Z</time>
      </trkpt>
      <trkpt lat="43.84121" lon="7.26113">
        <ele>729.3</ele>
        <time>2015-05-02T12:30:32Z</time>
      </trkpt>
      <trkpt lat="43.84109" lon="7.26112">
        <ele>727.6</ele>
        <time>2015-05-02T12:30:35Z</time>
      </trkpt>
      <trkpt lat="43.84094" lon="7.26114">
        <ele>724</ele>
        <time>2015-05-02T12:30:38Z</time>
      </trkpt>
      <trkpt lat="43.84082" lon="7.26116">
        <ele>722.4</ele>
        <time>2015-05-02T12:30:41Z</time>
      </trkpt>
      <trkpt lat="43.84071" lon="7.26116">
        <ele>719.6</ele>
        <time>2015-05-02T12:30:44Z</time>
      </trkpt>
      <trkpt lat="43.84062" lon="7.26117">
        <ele>717.3</ele>
        <time>2015-05-02T12:30:47Z</time>
      </trkpt>
      <trkpt lat="43.84051" lon="7.26117">
        <ele>714.3</ele>
        <time>2015-05-02T12:30:50Z</time>
      </trkpt>
      <trkpt lat="43.84041" lon="7.26119">
        <ele>711.7</ele>
        <time>2015-05-02T12:30:53Z</time>
      </trkpt>
      <trkpt lat="43.84029" lon="7.26119">
        <ele>709.4</ele>
        <time>2015-05-02T12:30:56Z</time>
      </trkpt>
      <trkpt lat="43.84016" lon="7.26116">
        <ele>707.1</ele>
        <time>2015-05-02T12:30:59Z</time>
      </trkpt>
      <trkpt lat="43.84005" lon="7.26116">
        <ele>704.3</ele>
        <time>2015-05-02T12:31:02Z</time>
      </trkpt>
      <trkpt lat="43.83994" lon="7.26105">
        <ele>701.9</ele>
        <time>2015-05-02T12:31:05Z</time>
      </trkpt>
      <trkpt lat="43.83988" lon="7.26093">
        <ele>700</ele>
        <time>2015-05-02T12:31:10Z</time>
      </trkpt>
      <trkpt lat="43.83983" lon="7.26078">
        <ele>699.2</ele>
        <time>2015-05-02T12:31:14Z</time>
      </trkpt>
      <trkpt lat="43.83979" lon="7.26065">
        <ele>698.9</ele>
        <time>2015-05-02T12:31:17Z</time>
      </trkpt>
      <trkpt lat="43.83974" lon="7.26053">
        <ele>698.7</ele>
        <time>2015-05-02T12:31:20Z</time>
      </trkpt>
      <trkpt lat="43.83963" lon="7.26047">
        <ele>698.5</ele>
        <time>2015-05-02T12:31:23Z</time>
      </trkpt>
      <trkpt lat="43.83956" lon="7.26036">
        <ele>698.9</ele>
        <time>2015-05-02T12:31:26Z</time>
      </trkpt>
      <trkpt lat="43.83957" lon="7.26023">
        <ele>699</ele>
        <time>2015-05-02T12:31:29Z</time>
      </trkpt>
      <trkpt lat="43.83956" lon="7.26009">
        <ele>699.3</ele>
        <time>2015-05-02T12:31:32Z</time>
      </trkpt>
      <trkpt lat="43.83953" lon="7.25996">
        <ele>698.9</ele>
        <time>2015-05-02T12:31:35Z</time>
      </trkpt>
      <trkpt lat="43.83952" lon="7.25982">
        <ele>699</ele>
        <time>2015-05-02T12:31:38Z</time>
      </trkpt>
      <trkpt lat="43.83953" lon="7.25969">
        <ele>698.2</ele>
        <time>2015-05-02T12:31:40Z</time>
      </trkpt>
      <trkpt lat="43.83955" lon="7.25955">
        <ele>697.5</ele>
        <time>2015-05-02T12:31:42Z</time>
      </trkpt>
      <trkpt lat="43.83951" lon="7.25942">
        <ele>696.8</ele>
        <time>2015-05-02T12:32:19Z</time>
      </trkpt>
      <trkpt lat="43.83951" lon="7.25927">
        <ele>696</ele>
        <time>2015-05-02T12:32:22Z</time>
      </trkpt>
      <trkpt lat="43.83943" lon="7.25921">
        <ele>694.6</ele>
        <time>2015-05-02T12:32:25Z</time>
      </trkpt>
      <trkpt lat="43.83934" lon="7.25917">
        <ele>693.5</ele>
        <time>2015-05-02T12:32:27Z</time>
      </trkpt>
      <trkpt lat="43.83925" lon="7.25912">
        <ele>692.8</ele>
        <time>2015-05-02T12:32:29Z</time>
      </trkpt>
      <trkpt lat="43.83917" lon="7.25904">
        <ele>692.6</ele>
        <time>2015-05-02T12:32:31Z</time>
      </trkpt>
      <trkpt lat="43.83912" lon="7.25893">
        <ele>691.6</ele>
        <time>2015-05-02T12:32:33Z</time>
      </trkpt>
      <trkpt lat="43.83909" lon="7.25876">
        <ele>690.8</ele>
        <time>2015-05-02T12:32:36Z</time>
      </trkpt>
      <trkpt lat="43.83911" lon="7.25863">
        <ele>691</ele>
        <time>2015-05-02T12:32:39Z</time>
      </trkpt>
      <trkpt lat="43.83912" lon="7.25847">
        <ele>690.9</ele>
        <time>2015-05-02T12:32:42Z</time>
      </trkpt>
      <trkpt lat="43.83913" lon="7.25834">
        <ele>690.4</ele>
        <time>2015-05-02T12:32:44Z</time>
      </trkpt>
      <trkpt lat="43.83914" lon="7.25821">
        <ele>689.8</ele>
        <time>2015-05-02T12:32:46Z</time>
      </trkpt>
      <trkpt lat="43.83916" lon="7.25806">
        <ele>689.3</ele>
        <time>2015-05-02T12:32:48Z</time>
      </trkpt>
      <trkpt lat="43.83918" lon="7.25792">
        <ele>688.4</ele>
        <time>2015-05-02T12:32:50Z</time>
      </trkpt>
      <trkpt lat="43.83924" lon="7.25779">
        <ele>687.6</ele>
        <time>2015-05-02T12:32:52Z</time>
      </trkpt>
      <trkpt lat="43.83931" lon="7.25771">
        <ele>687.4</ele>
        <time>2015-05-02T12:32:54Z</time>
      </trkpt>
      <trkpt lat="43.83931" lon="7.25758">
        <ele>687.2</ele>
        <time>2015-05-02T12:32:57Z</time>
      </trkpt>
      <trkpt lat="43.83925" lon="7.25746">
        <ele>686.5</ele>
        <time>2015-05-02T12:33:00Z</time>
      </trkpt>
      <trkpt lat="43.83918" lon="7.25737">
        <ele>688.1</ele>
        <time>2015-05-02T12:33:04Z</time>
      </trkpt>
      <trkpt lat="43.83909" lon="7.2573">
        <ele>688.5</ele>
        <time>2015-05-02T12:33:08Z</time>
      </trkpt>
      <trkpt lat="43.83898" lon="7.25725">
        <ele>689.3</ele>
        <time>2015-05-02T12:33:13Z</time>
      </trkpt>
      <trkpt lat="43.83887" lon="7.25722">
        <ele>689.6</ele>
        <time>2015-05-02T12:33:17Z</time>
      </trkpt>
      <trkpt lat="43.83878" lon="7.25717">
        <ele>689.2</ele>
        <time>2015-05-02T12:33:20Z</time>
      </trkpt>
      <trkpt lat="43.83866" lon="7.25713">
        <ele>688.8</ele>
        <time>2015-05-02T12:33:23Z</time>
      </trkpt>
      <trkpt lat="43.83854" lon="7.25708">
        <ele>689</ele>
        <time>2015-05-02T12:33:26Z</time>
      </trkpt>
      <trkpt lat="43.83842" lon="7.25704">
        <ele>688.3</ele>
        <time>2015-05-02T12:33:29Z</time>
      </trkpt>
      <trkpt lat="43.83828" lon="7.25701">
        <ele>688.2</ele>
        <time>2015-05-02T12:33:32Z</time>
      </trkpt>
      <trkpt lat="43.83816" lon="7.25698">
        <ele>688</ele>
        <time>2015-05-02T12:33:35Z</time>
      </trkpt>
      <trkpt lat="43.83805" lon="7.25697">
        <ele>688.8</ele>
        <time>2015-05-02T12:33:38Z</time>
      </trkpt>
      <trkpt lat="43.83796" lon="7.25696">
        <ele>689.8</ele>
        <time>2015-05-02T12:33:42Z</time>
      </trkpt>
      <trkpt lat="43.83786" lon="7.25691">
        <ele>690.8</ele>
        <time>2015-05-02T12:33:46Z</time>
      </trkpt>
      <trkpt lat="43.83777" lon="7.25687">
        <ele>691.3</ele>
        <time>2015-05-02T12:33:50Z</time>
      </trkpt>
      <trkpt lat="43.83768" lon="7.25684">
        <ele>691</ele>
        <time>2015-05-02T12:33:54Z</time>
      </trkpt>
      <trkpt lat="43.83759" lon="7.2568">
        <ele>691.1</ele>
        <time>2015-05-02T12:33:58Z</time>
      </trkpt>
      <trkpt lat="43.8375" lon="7.25677">
        <ele>691.2</ele>
        <time>2015-05-02T12:34:02Z</time>
      </trkpt>
      <trkpt lat="43.83739" lon="7.25671">
        <ele>691.9</ele>
        <time>2015-05-02T12:34:06Z</time>
      </trkpt>
      <trkpt lat="43.8373" lon="7.25664">
        <ele>691.7</ele>
        <time>2015-05-02T12:34:09Z</time>
      </trkpt>
      <trkpt lat="43.83719" lon="7.25657">
        <ele>693</ele>
        <time>2015-05-02T12:34:13Z</time>
      </trkpt>
      <trkpt lat="43.8371" lon="7.25654">
        <ele>693.5</ele>
        <time>2015-05-02T12:34:16Z</time>
      </trkpt>
      <trkpt lat="43.837" lon="7.2565">
        <ele>693.6</ele>
        <time>2015-05-02T12:34:19Z</time>
      </trkpt>
      <trkpt lat="43.83695" lon="7.25638">
        <ele>694.2</ele>
        <time>2015-05-02T12:34:24Z</time>
      </trkpt>
      <trkpt lat="43.83693" lon="7.25624">
        <ele>694.2</ele>
        <time>2015-05-02T12:34:36Z</time>
      </trkpt>
      <trkpt lat="43.83691" lon="7.25612">
        <ele>694.2</ele>
        <time>2015-05-02T12:34:39Z</time>
      </trkpt>
      <trkpt lat="43.83695" lon="7.25595">
        <ele>692.4</ele>
        <time>2015-05-02T12:34:42Z</time>
      </trkpt>
      <trkpt lat="43.83697" lon="7.25582">
        <ele>691.1</ele>
        <time>2015-05-02T12:34:44Z</time>
      </trkpt>
      <trkpt lat="43.83702" lon="7.25571">
        <ele>688</ele>
        <time>2015-05-02T12:34:46Z</time>
      </trkpt>
      <trkpt lat="43.83712" lon="7.25559">
        <ele>686.2</ele>
        <time>2015-05-02T12:34:49Z</time>
      </trkpt>
      <trkpt lat="43.83719" lon="7.25551">
        <ele>682</ele>
        <time>2015-05-02T12:34:53Z</time>
      </trkpt>
      <trkpt lat="43.83727" lon="7.2554">
        <ele>679.2</ele>
        <time>2015-05-02T12:35:10Z</time>
      </trkpt>
      <trkpt lat="43.83734" lon="7.25532">
        <ele>677.7</ele>
        <time>2015-05-02T12:35:13Z</time>
      </trkpt>
      <trkpt lat="43.83744" lon="7.25524">
        <ele>675.4</ele>
        <time>2015-05-02T12:35:17Z</time>
      </trkpt>
      <trkpt lat="43.83737" lon="7.25515">
        <ele>670.4</ele>
        <time>2015-05-02T12:35:30Z</time>
      </trkpt>
      <trkpt lat="43.83727" lon="7.25512">
        <ele>667.7</ele>
        <time>2015-05-02T12:35:35Z</time>
      </trkpt>
      <trkpt lat="43.8372" lon="7.25503">
        <ele>664.1</ele>
        <time>2015-05-02T12:35:40Z</time>
      </trkpt>
      <trkpt lat="43.83725" lon="7.2549">
        <ele>661.4</ele>
        <time>2015-05-02T12:35:45Z</time>
      </trkpt>
      <trkpt lat="43.83727" lon="7.25478">
        <ele>657.9</ele>
        <time>2015-05-02T12:36:00Z</time>
      </trkpt>
      <trkpt lat="43.8372" lon="7.25468">
        <ele>655.7</ele>
        <time>2015-05-02T12:36:22Z</time>
      </trkpt>
      <trkpt lat="43.83713" lon="7.25458">
        <ele>651.9</ele>
        <time>2015-05-02T12:36:37Z</time>
      </trkpt>
      <trkpt lat="43.83707" lon="7.25447">
        <ele>650.2</ele>
        <time>2015-05-02T12:36:42Z</time>
      </trkpt>
      <trkpt lat="43.83702" lon="7.25435">
        <ele>648.3</ele>
        <time>2015-05-02T12:36:47Z</time>
      </trkpt>
      <trkpt lat="43.837" lon="7.25421">
        <ele>646.7</ele>
        <time>2015-05-02T12:36:50Z</time>
      </trkpt>
      <trkpt lat="43.837" lon="7.25408">
        <ele>644.5</ele>
        <time>2015-05-02T12:36:54Z</time>
      </trkpt>
      <trkpt lat="43.837" lon="7.25392">
        <ele>642.3</ele>
        <time>2015-05-02T12:36:57Z</time>
      </trkpt>
      <trkpt lat="43.83702" lon="7.25379">
        <ele>640</ele>
        <time>2015-05-02T12:36:59Z</time>
      </trkpt>
      <trkpt lat="43.83706" lon="7.25368">
        <ele>638.4</ele>
        <time>2015-05-02T12:37:01Z</time>
      </trkpt>
      <trkpt lat="43.83713" lon="7.25354">
        <ele>636.8</ele>
        <time>2015-05-02T12:37:04Z</time>
      </trkpt>
      <trkpt lat="43.83715" lon="7.25338">
        <ele>634.5</ele>
        <time>2015-05-02T12:37:07Z</time>
      </trkpt>
      <trkpt lat="43.83714" lon="7.25326">
        <ele>633.6</ele>
        <time>2015-05-02T12:37:09Z</time>
      </trkpt>
      <trkpt lat="43.83713" lon="7.25313">
        <ele>632</ele>
        <time>2015-05-02T12:37:11Z</time>
      </trkpt>
      <trkpt lat="43.83714" lon="7.253">
        <ele>631.1</ele>
        <time>2015-05-02T12:37:13Z</time>
      </trkpt>
      <trkpt lat="43.83716" lon="7.25286">
        <ele>629.8</ele>
        <time>2015-05-02T12:37:15Z</time>
      </trkpt>
      <trkpt lat="43.83719" lon="7.25272">
        <ele>628.1</ele>
        <time>2015-05-02T12:37:17Z</time>
      </trkpt>
      <trkpt lat="43.83717" lon="7.25257">
        <ele>626.8</ele>
        <time>2015-05-02T12:37:19Z</time>
      </trkpt>
      <trkpt lat="43.83717" lon="7.25243">
        <ele>624.7</ele>
        <time>2015-05-02T12:37:21Z</time>
      </trkpt>
      <trkpt lat="43.83719" lon="7.25225">
        <ele>624.1</ele>
        <time>2015-05-02T12:37:23Z</time>
      </trkpt>
      <trkpt lat="43.8372" lon="7.25207">
        <ele>622.7</ele>
        <time>2015-05-02T12:37:25Z</time>
      </trkpt>
      <trkpt lat="43.83718" lon="7.25193">
        <ele>621.5</ele>
        <time>2015-05-02T12:37:27Z</time>
      </trkpt>
      <trkpt lat="43.8371" lon="7.25178">
        <ele>620.4</ele>
        <time>2015-05-02T12:37:29Z</time>
      </trkpt>
      <trkpt lat="43.83704" lon="7.25169">
        <ele>619.7</ele>
        <time>2015-05-02T12:37:31Z</time>
      </trkpt>
      <trkpt lat="43.83702" lon="7.25152">
        <ele>618.1</ele>
        <time>2015-05-02T12:37:34Z</time>
      </trkpt>
      <trkpt lat="43.83702" lon="7.2514">
        <ele>615.7</ele>
        <time>2015-05-02T12:37:37Z</time>
      </trkpt>
      <trkpt lat="43.83698" lon="7.25123">
        <ele>614.1</ele>
        <time>2015-05-02T12:37:40Z</time>
      </trkpt>
      <trkpt lat="43.83696" lon="7.25108">
        <ele>610.4</ele>
        <time>2015-05-02T12:37:43Z</time>
      </trkpt>
      <trkpt lat="43.83697" lon="7.25092">
        <ele>607</ele>
        <time>2015-05-02T12:37:46Z</time>
      </trkpt>
      <trkpt lat="43.837" lon="7.25079">
        <ele>603.5</ele>
        <time>2015-05-02T12:37:49Z</time>
      </trkpt>
      <trkpt lat="43.8369" lon="7.25074">
        <ele>599</ele>
        <time>2015-05-02T12:37:56Z</time>
      </trkpt>
      <trkpt lat="43.83686" lon="7.25062">
        <ele>593.6</ele>
        <time>2015-05-02T12:38:03Z</time>
      </trkpt>
      <trkpt lat="43.83677" lon="7.25059">
        <ele>589.9</ele>
        <time>2015-05-02T12:38:10Z</time>
      </trkpt>
      <trkpt lat="43.83679" lon="7.25044">
        <ele>587.5</ele>
        <time>2015-05-02T12:38:13Z</time>
      </trkpt>
      <trkpt lat="43.8368" lon="7.25029">
        <ele>584</ele>
        <time>2015-05-02T12:38:17Z</time>
      </trkpt>
      <trkpt lat="43.8367" lon="7.25021">
        <ele>579.3</ele>
        <time>2015-05-02T12:38:25Z</time>
      </trkpt>
      <trkpt lat="43.83667" lon="7.25009">
        <ele>578.1</ele>
        <time>2015-05-02T12:38:28Z</time>
      </trkpt>
      <trkpt lat="43.83667" lon="7.24994">
        <ele>574.7</ele>
        <time>2015-05-02T12:38:31Z</time>
      </trkpt>
      <trkpt lat="43.83658" lon="7.24989">
        <ele>567</ele>
        <time>2015-05-02T12:38:39Z</time>
      </trkpt>
      <trkpt lat="43.83651" lon="7.24997">
        <ele>564.4</ele>
        <time>2015-05-02T12:38:44Z</time>
      </trkpt>
      <trkpt lat="43.83643" lon="7.25004">
        <ele>561</ele>
        <time>2015-05-02T12:38:48Z</time>
      </trkpt>
      <trkpt lat="43.83637" lon="7.24994">
        <ele>554.8</ele>
        <time>2015-05-02T12:38:55Z</time>
      </trkpt>
      <trkpt lat="43.83635" lon="7.24979">
        <ele>551.8</ele>
        <time>2015-05-02T12:39:00Z</time>
      </trkpt>
      <trkpt lat="43.83632" lon="7.24963">
        <ele>549.3</ele>
        <time>2015-05-02T12:39:04Z</time>
      </trkpt>
      <trkpt lat="43.83629" lon="7.24951">
        <ele>548.2</ele>
        <time>2015-05-02T12:39:06Z</time>
      </trkpt>
      <trkpt lat="43.83627" lon="7.24938">
        <ele>546.9</ele>
        <time>2015-05-02T12:39:08Z</time>
      </trkpt>
      <trkpt lat="43.83626" lon="7.24925">
        <ele>543.4</ele>
        <time>2015-05-02T12:39:18Z</time>
      </trkpt>
      <trkpt lat="43.83626" lon="7.24913">
        <ele>541.9</ele>
        <time>2015-05-02T12:39:23Z</time>
      </trkpt>
      <trkpt lat="43.83621" lon="7.24896">
        <ele>541.7</ele>
        <time>2015-05-02T12:39:26Z</time>
      </trkpt>
      <trkpt lat="43.83615" lon="7.24882">
        <ele>540.1</ele>
        <time>2015-05-02T12:39:29Z</time>
      </trkpt>
      <trkpt lat="43.83608" lon="7.24868">
        <ele>535.5</ele>
        <time>2015-05-02T12:39:34Z</time>
      </trkpt>
      <trkpt lat="43.83602" lon="7.24858">
        <ele>530.4</ele>
        <time>2015-05-02T12:39:40Z</time>
      </trkpt>
      <trkpt lat="43.83596" lon="7.24868">
        <ele>527.3</ele>
        <time>2015-05-02T12:39:50Z</time>
      </trkpt>
      <trkpt lat="43.83587" lon="7.2487">
        <ele>524.5</ele>
        <time>2015-05-02T12:40:04Z</time>
      </trkpt>
      <trkpt lat="43.83587" lon="7.24856">
        <ele>521.8</ele>
        <time>2015-05-02T12:40:51Z</time>
      </trkpt>
      <trkpt lat="43.83593" lon="7.24843">
        <ele>521.6</ele>
        <time>2015-05-02T12:40:55Z</time>
      </trkpt>
      <trkpt lat="43.83597" lon="7.24832">
        <ele>521.5</ele>
        <time>2015-05-02T12:40:58Z</time>
      </trkpt>
      <trkpt lat="43.83602" lon="7.24821">
        <ele>521.4</ele>
        <time>2015-05-02T12:41:01Z</time>
      </trkpt>
      <trkpt lat="43.83607" lon="7.2481">
        <ele>521.2</ele>
        <time>2015-05-02T12:41:04Z</time>
      </trkpt>
      <trkpt lat="43.83611" lon="7.24798">
        <ele>521.6</ele>
        <time>2015-05-02T12:41:07Z</time>
      </trkpt>
      <trkpt lat="43.83614" lon="7.24785">
        <ele>521.9</ele>
        <time>2015-05-02T12:41:10Z</time>
      </trkpt>
      <trkpt lat="43.83617" lon="7.24772">
        <ele>521.5</ele>
        <time>2015-05-02T12:41:13Z</time>
      </trkpt>
      <trkpt lat="43.83618" lon="7.24757">
        <ele>521.7</ele>
        <time>2015-05-02T12:41:16Z</time>
      </trkpt>
      <trkpt lat="43.83617" lon="7.24743">
        <ele>522</ele>
        <time>2015-05-02T12:41:19Z</time>
      </trkpt>
      <trkpt lat="43.83616" lon="7.2473">
        <ele>522</ele>
        <time>2015-05-02T12:41:22Z</time>
      </trkpt>
      <trkpt lat="43.83615" lon="7.24717">
        <ele>522</ele>
        <time>2015-05-02T12:41:25Z</time>
      </trkpt>
      <trkpt lat="43.83616" lon="7.24703">
        <ele>522.1</ele>
        <time>2015-05-02T12:41:28Z</time>
      </trkpt>
      <trkpt lat="43.83619" lon="7.24691">
        <ele>522.1</ele>
        <time>2015-05-02T12:41:31Z</time>
      </trkpt>
      <trkpt lat="43.83623" lon="7.2468">
        <ele>522.7</ele>
        <time>2015-05-02T12:41:34Z</time>
      </trkpt>
      <trkpt lat="43.83629" lon="7.24669">
        <ele>523</ele>
        <time>2015-05-02T12:41:37Z</time>
      </trkpt>
      <trkpt lat="43.83637" lon="7.24662">
        <ele>523.2</ele>
        <time>2015-05-02T12:41:40Z</time>
      </trkpt>
      <trkpt lat="43.83644" lon="7.24656">
        <ele>523.9</ele>
        <time>2015-05-02T12:41:43Z</time>
      </trkpt>
      <trkpt lat="43.83654" lon="7.24651">
        <ele>523.7</ele>
        <time>2015-05-02T12:41:46Z</time>
      </trkpt>
      <trkpt lat="43.83663" lon="7.24648">
        <ele>523.5</ele>
        <time>2015-05-02T12:41:49Z</time>
      </trkpt>
      <trkpt lat="43.83673" lon="7.24644">
        <ele>523.9</ele>
        <time>2015-05-02T12:41:52Z</time>
      </trkpt>
      <trkpt lat="43.83684" lon="7.24641">
        <ele>524.1</ele>
        <time>2015-05-02T12:41:55Z</time>
      </trkpt>
      <trkpt lat="43.83694" lon="7.24637">
        <ele>524.4</ele>
        <time>2015-05-02T12:41:58Z</time>
      </trkpt>
      <trkpt lat="43.83705" lon="7.24635">
        <ele>524.7</ele>
        <time>2015-05-02T12:42:01Z</time>
      </trkpt>
      <trkpt lat="43.83717" lon="7.24634">
        <ele>523.8</ele>
        <time>2015-05-02T12:42:04Z</time>
      </trkpt>
      <trkpt lat="43.83728" lon="7.24634">
        <ele>524.3</ele>
        <time>2015-05-02T12:42:07Z</time>
      </trkpt>
      <trkpt lat="43.8374" lon="7.24636">
        <ele>524.6</ele>
        <time>2015-05-02T12:42:10Z</time>
      </trkpt>
      <trkpt lat="43.83752" lon="7.24637">
        <ele>524.8</ele>
        <time>2015-05-02T12:42:13Z</time>
      </trkpt>
      <trkpt lat="43.83766" lon="7.24639">
        <ele>525</ele>
        <time>2015-05-02T12:42:16Z</time>
      </trkpt>
      <trkpt lat="43.83777" lon="7.2464">
        <ele>525.3</ele>
        <time>2015-05-02T12:42:19Z</time>
      </trkpt>
      <trkpt lat="43.83789" lon="7.24642">
        <ele>525.5</ele>
        <time>2015-05-02T12:42:22Z</time>
      </trkpt>
      <trkpt lat="43.83802" lon="7.24643">
        <ele>526.2</ele>
        <time>2015-05-02T12:42:25Z</time>
      </trkpt>
      <trkpt lat="43.83815" lon="7.24644">
        <ele>526</ele>
        <time>2015-05-02T12:42:28Z</time>
      </trkpt>
      <trkpt lat="43.83828" lon="7.24644">
        <ele>526.7</ele>
        <time>2015-05-02T12:42:31Z</time>
      </trkpt>
      <trkpt lat="43.8384" lon="7.24639">
        <ele>526.5</ele>
        <time>2015-05-02T12:42:34Z</time>
      </trkpt>
      <trkpt lat="43.83851" lon="7.2463">
        <ele>526.8</ele>
        <time>2015-05-02T12:42:37Z</time>
      </trkpt>
      <trkpt lat="43.83862" lon="7.24622">
        <ele>527</ele>
        <time>2015-05-02T12:42:40Z</time>
      </trkpt>
      <trkpt lat="43.83872" lon="7.24613">
        <ele>527.1</ele>
        <time>2015-05-02T12:42:43Z</time>
      </trkpt>
      <trkpt lat="43.83882" lon="7.24604">
        <ele>526.2</ele>
        <time>2015-05-02T12:42:46Z</time>
      </trkpt>
      <trkpt lat="43.83893" lon="7.24595">
        <ele>527.5</ele>
        <time>2015-05-02T12:42:49Z</time>
      </trkpt>
      <trkpt lat="43.83903" lon="7.24584">
        <ele>528.4</ele>
        <time>2015-05-02T12:42:52Z</time>
      </trkpt>
      <trkpt lat="43.83914" lon="7.24576">
        <ele>528.1</ele>
        <time>2015-05-02T12:42:55Z</time>
      </trkpt>
      <trkpt lat="43.83924" lon="7.24566">
        <ele>527.9</ele>
        <time>2015-05-02T12:42:58Z</time>
      </trkpt>
      <trkpt lat="43.83934" lon="7.24556">
        <ele>528.4</ele>
        <time>2015-05-02T12:43:01Z</time>
      </trkpt>
      <trkpt lat="43.83943" lon="7.24548">
        <ele>528.6</ele>
        <time>2015-05-02T12:43:04Z</time>
      </trkpt>
      <trkpt lat="43.83955" lon="7.24542">
        <ele>528.4</ele>
        <time>2015-05-02T12:43:07Z</time>
      </trkpt>
      <trkpt lat="43.83967" lon="7.24541">
        <ele>528.9</ele>
        <time>2015-05-02T12:43:10Z</time>
      </trkpt>
      <trkpt lat="43.83978" lon="7.24543">
        <ele>529.5</ele>
        <time>2015-05-02T12:43:13Z</time>
      </trkpt>
      <trkpt lat="43.83991" lon="7.24545">
        <ele>529.7</ele>
        <time>2015-05-02T12:43:16Z</time>
      </trkpt>
      <trkpt lat="43.84004" lon="7.24548">
        <ele>529.9</ele>
        <time>2015-05-02T12:43:19Z</time>
      </trkpt>
      <trkpt lat="43.84016" lon="7.2455">
        <ele>530.1</ele>
        <time>2015-05-02T12:43:22Z</time>
      </trkpt>
      <trkpt lat="43.84028" lon="7.24552">
        <ele>530.8</ele>
        <time>2015-05-02T12:43:25Z</time>
      </trkpt>
      <trkpt lat="43.84039" lon="7.24553">
        <ele>530.7</ele>
        <time>2015-05-02T12:43:28Z</time>
      </trkpt>
      <trkpt lat="43.84051" lon="7.24552">
        <ele>530.6</ele>
        <time>2015-05-02T12:43:31Z</time>
      </trkpt>
      <trkpt lat="43.84063" lon="7.24547">
        <ele>531</ele>
        <time>2015-05-02T12:43:34Z</time>
      </trkpt>
      <trkpt lat="43.84074" lon="7.24539">
        <ele>531.6</ele>
        <time>2015-05-02T12:43:37Z</time>
      </trkpt>
      <trkpt lat="43.84084" lon="7.24529">
        <ele>532.4</ele>
        <time>2015-05-02T12:43:40Z</time>
      </trkpt>
      <trkpt lat="43.84094" lon="7.24519">
        <ele>533.3</ele>
        <time>2015-05-02T12:43:43Z</time>
      </trkpt>
      <trkpt lat="43.84104" lon="7.2451">
        <ele>533.4</ele>
        <time>2015-05-02T12:43:46Z</time>
      </trkpt>
      <trkpt lat="43.84113" lon="7.245">
        <ele>533.1</ele>
        <time>2015-05-02T12:43:49Z</time>
      </trkpt>
      <trkpt lat="43.84123" lon="7.24491">
        <ele>533.3</ele>
        <time>2015-05-02T12:43:52Z</time>
      </trkpt>
      <trkpt lat="43.84133" lon="7.24482">
        <ele>532.9</ele>
        <time>2015-05-02T12:43:55Z</time>
      </trkpt>
      <trkpt lat="43.84143" lon="7.24472">
        <ele>533.2</ele>
        <time>2015-05-02T12:43:58Z</time>
      </trkpt>
      <trkpt lat="43.84152" lon="7.24463">
        <ele>533.8</ele>
        <time>2015-05-02T12:44:01Z</time>
      </trkpt>
      <trkpt lat="43.84162" lon="7.24455">
        <ele>533.7</ele>
        <time>2015-05-02T12:44:04Z</time>
      </trkpt>
      <trkpt lat="43.84172" lon="7.24444">
        <ele>534.4</ele>
        <time>2015-05-02T12:44:07Z</time>
      </trkpt>
      <trkpt lat="43.84183" lon="7.24434">
        <ele>535.1</ele>
        <time>2015-05-02T12:44:10Z</time>
      </trkpt>
      <trkpt lat="43.84193" lon="7.24424">
        <ele>535.2</ele>
        <time>2015-05-02T12:44:13Z</time>
      </trkpt>
      <trkpt lat="43.84203" lon="7.24414">
        <ele>536</ele>
        <time>2015-05-02T12:44:16Z</time>
      </trkpt>
      <trkpt lat="43.84213" lon="7.24404">
        <ele>536.3</ele>
        <time>2015-05-02T12:44:19Z</time>
      </trkpt>
      <trkpt lat="43.84223" lon="7.24394">
        <ele>536.8</ele>
        <time>2015-05-02T12:44:22Z</time>
      </trkpt>
      <trkpt lat="43.84233" lon="7.24384">
        <ele>537.1</ele>
        <time>2015-05-02T12:44:25Z</time>
      </trkpt>
      <trkpt lat="43.84243" lon="7.24374">
        <ele>537.8</ele>
        <time>2015-05-02T12:44:28Z</time>
      </trkpt>
      <trkpt lat="43.84252" lon="7.24364">
        <ele>537.7</ele>
        <time>2015-05-02T12:44:31Z</time>
      </trkpt>
      <trkpt lat="43.84263" lon="7.24355">
        <ele>538.3</ele>
        <time>2015-05-02T12:44:34Z</time>
      </trkpt>
      <trkpt lat="43.84274" lon="7.24348">
        <ele>538.7</ele>
        <time>2015-05-02T12:44:37Z</time>
      </trkpt>
      <trkpt lat="43.84284" lon="7.24341">
        <ele>539.6</ele>
        <time>2015-05-02T12:44:40Z</time>
      </trkpt>
      <trkpt lat="43.84295" lon="7.24334">
        <ele>540.1</ele>
        <time>2015-05-02T12:44:43Z</time>
      </trkpt>
      <trkpt lat="43.84306" lon="7.24326">
        <ele>540.2</ele>
        <time>2015-05-02T12:44:46Z</time>
      </trkpt>
      <trkpt lat="43.84317" lon="7.24317">
        <ele>541.2</ele>
        <time>2015-05-02T12:44:49Z</time>
      </trkpt>
      <trkpt lat="43.84327" lon="7.24306">
        <ele>541.4</ele>
        <time>2015-05-02T12:44:52Z</time>
      </trkpt>
      <trkpt lat="43.84335" lon="7.24294">
        <ele>541.1</ele>
        <time>2015-05-02T12:44:55Z</time>
      </trkpt>
      <trkpt lat="43.84343" lon="7.2428">
        <ele>541.9</ele>
        <time>2015-05-02T12:44:58Z</time>
      </trkpt>
      <trkpt lat="43.8435" lon="7.24266">
        <ele>542.6</ele>
        <time>2015-05-02T12:45:01Z</time>
      </trkpt>
      <trkpt lat="43.84356" lon="7.24252">
        <ele>543.3</ele>
        <time>2015-05-02T12:45:04Z</time>
      </trkpt>
      <trkpt lat="43.84364" lon="7.24239">
        <ele>543</ele>
        <time>2015-05-02T12:45:07Z</time>
      </trkpt>
      <trkpt lat="43.8437" lon="7.24225">
        <ele>543.7</ele>
        <time>2015-05-02T12:45:10Z</time>
      </trkpt>
      <trkpt lat="43.84378" lon="7.2421">
        <ele>544.7</ele>
        <time>2015-05-02T12:45:13Z</time>
      </trkpt>
      <trkpt lat="43.84385" lon="7.24196">
        <ele>544.9</ele>
        <time>2015-05-02T12:45:16Z</time>
      </trkpt>
      <trkpt lat="43.84392" lon="7.24182">
        <ele>545.6</ele>
        <time>2015-05-02T12:45:19Z</time>
      </trkpt>
      <trkpt lat="43.84399" lon="7.24169">
        <ele>545.6</ele>
        <time>2015-05-02T12:45:22Z</time>
      </trkpt>
      <trkpt lat="43.84407" lon="7.24157">
        <ele>545.7</ele>
        <time>2015-05-02T12:45:25Z</time>
      </trkpt>
      <trkpt lat="43.84414" lon="7.24146">
        <ele>546.3</ele>
        <time>2015-05-02T12:45:28Z</time>
      </trkpt>
      <trkpt lat="43.84424" lon="7.24141">
        <ele>546.3</ele>
        <time>2015-05-02T12:45:31Z</time>
      </trkpt>
      <trkpt lat="43.84433" lon="7.24133">
        <ele>547</ele>
        <time>2015-05-02T12:45:34Z</time>
      </trkpt>
      <trkpt lat="43.84443" lon="7.24127">
        <ele>547.8</ele>
        <time>2015-05-02T12:45:37Z</time>
      </trkpt>
      <trkpt lat="43.84453" lon="7.24122">
        <ele>548.1</ele>
        <time>2015-05-02T12:45:40Z</time>
      </trkpt>
      <trkpt lat="43.84459" lon="7.24112">
        <ele>547.8</ele>
        <time>2015-05-02T12:45:43Z</time>
      </trkpt>
      <trkpt lat="43.84468" lon="7.24103">
        <ele>547.8</ele>
        <time>2015-05-02T12:45:46Z</time>
      </trkpt>
      <trkpt lat="43.84478" lon="7.24095">
        <ele>548.4</ele>
        <time>2015-05-02T12:45:49Z</time>
      </trkpt>
      <trkpt lat="43.84488" lon="7.24086">
        <ele>548.3</ele>
        <time>2015-05-02T12:45:52Z</time>
      </trkpt>
      <trkpt lat="43.84499" lon="7.24078">
        <ele>548.2</ele>
        <time>2015-05-02T12:45:55Z</time>
      </trkpt>
      <trkpt lat="43.84509" lon="7.2407">
        <ele>548.3</ele>
        <time>2015-05-02T12:45:58Z</time>
      </trkpt>
      <trkpt lat="43.84519" lon="7.24061">
        <ele>548.4</ele>
        <time>2015-05-02T12:46:01Z</time>
      </trkpt>
      <trkpt lat="43.8453" lon="7.24053">
        <ele>549.1</ele>
        <time>2015-05-02T12:46:04Z</time>
      </trkpt>
      <trkpt lat="43.84541" lon="7.24045">
        <ele>549.7</ele>
        <time>2015-05-02T12:46:07Z</time>
      </trkpt>
      <trkpt lat="43.84551" lon="7.24037">
        <ele>550.2</ele>
        <time>2015-05-02T12:46:10Z</time>
      </trkpt>
      <trkpt lat="43.84562" lon="7.24029">
        <ele>550.1</ele>
        <time>2015-05-02T12:46:13Z</time>
      </trkpt>
      <trkpt lat="43.8457" lon="7.2402">
        <ele>550</ele>
        <time>2015-05-02T12:46:16Z</time>
      </trkpt>
      <trkpt lat="43.84579" lon="7.24012">
        <ele>550.3</ele>
        <time>2015-05-02T12:46:19Z</time>
      </trkpt>
      <trkpt lat="43.84589" lon="7.24004">
        <ele>550.2</ele>
        <time>2015-05-02T12:46:22Z</time>
      </trkpt>
      <trkpt lat="43.846" lon="7.23998">
        <ele>551.5</ele>
        <time>2015-05-02T12:46:25Z</time>
      </trkpt>
      <trkpt lat="43.84608" lon="7.23989">
        <ele>551.4</ele>
        <time>2015-05-02T12:46:28Z</time>
      </trkpt>
      <trkpt lat="43.84618" lon="7.23982">
        <ele>551.5</ele>
        <time>2015-05-02T12:46:31Z</time>
      </trkpt>
      <trkpt lat="43.84628" lon="7.23977">
        <ele>551.2</ele>
        <time>2015-05-02T12:46:34Z</time>
      </trkpt>
      <trkpt lat="43.84637" lon="7.23973">
        <ele>552</ele>
        <time>2015-05-02T12:46:37Z</time>
      </trkpt>
      <trkpt lat="43.84645" lon="7.23966">
        <ele>552.8</ele>
        <time>2015-05-02T12:46:40Z</time>
      </trkpt>
      <trkpt lat="43.84655" lon="7.23958">
        <ele>553.4</ele>
        <time>2015-05-02T12:46:43Z</time>
      </trkpt>
      <trkpt lat="43.84665" lon="7.2395">
        <ele>553.5</ele>
        <time>2015-05-02T12:46:46Z</time>
      </trkpt>
      <trkpt lat="43.84675" lon="7.23943">
        <ele>553.2</ele>
        <time>2015-05-02T12:46:49Z</time>
      </trkpt>
      <trkpt lat="43.84684" lon="7.23935">
        <ele>553.5</ele>
        <time>2015-05-02T12:46:52Z</time>
      </trkpt>
      <trkpt lat="43.84694" lon="7.23927">
        <ele>553.7</ele>
        <time>2015-05-02T12:46:55Z</time>
      </trkpt>
      <trkpt lat="43.84704" lon="7.2392">
        <ele>554.4</ele>
        <time>2015-05-02T12:46:58Z</time>
      </trkpt>
      <trkpt lat="43.84714" lon="7.23911">
        <ele>554.7</ele>
        <time>2015-05-02T12:47:01Z</time>
      </trkpt>
      <trkpt lat="43.84724" lon="7.23903">
        <ele>555.1</ele>
        <time>2015-05-02T12:47:04Z</time>
      </trkpt>
      <trkpt lat="43.84735" lon="7.23895">
        <ele>555.1</ele>
        <time>2015-05-02T12:47:07Z</time>
      </trkpt>
      <trkpt lat="43.84746" lon="7.23887">
        <ele>555</ele>
        <time>2015-05-02T12:47:10Z</time>
      </trkpt>
      <trkpt lat="43.84757" lon="7.23878">
        <ele>554.6</ele>
        <time>2015-05-02T12:47:13Z</time>
      </trkpt>
      <trkpt lat="43.84768" lon="7.23871">
        <ele>555</ele>
        <time>2015-05-02T12:47:16Z</time>
      </trkpt>
      <trkpt lat="43.84777" lon="7.23864">
        <ele>554.7</ele>
        <time>2015-05-02T12:47:19Z</time>
      </trkpt>
      <trkpt lat="43.84786" lon="7.23857">
        <ele>555.2</ele>
        <time>2015-05-02T12:47:22Z</time>
      </trkpt>
      <trkpt lat="43.84797" lon="7.23852">
        <ele>555</ele>
        <time>2015-05-02T12:47:26Z</time>
      </trkpt>
      <trkpt lat="43.84805" lon="7.23845">
        <ele>555.6</ele>
        <time>2015-05-02T12:47:29Z</time>
      </trkpt>
      <trkpt lat="43.84814" lon="7.23835">
        <ele>555.1</ele>
        <time>2015-05-02T12:47:32Z</time>
      </trkpt>
      <trkpt lat="43.84824" lon="7.23827">
        <ele>555.7</ele>
        <time>2015-05-02T12:47:35Z</time>
      </trkpt>
      <trkpt lat="43.84834" lon="7.23819">
        <ele>555.5</ele>
        <time>2015-05-02T12:47:38Z</time>
      </trkpt>
      <trkpt lat="43.84844" lon="7.23812">
        <ele>554.9</ele>
        <time>2015-05-02T12:47:41Z</time>
      </trkpt>
      <trkpt lat="43.84855" lon="7.23804">
        <ele>555.3</ele>
        <time>2015-05-02T12:47:44Z</time>
      </trkpt>
      <trkpt lat="43.84866" lon="7.23796">
        <ele>555.7</ele>
        <time>2015-05-02T12:47:47Z</time>
      </trkpt>
      <trkpt lat="43.84876" lon="7.23789">
        <ele>556</ele>
        <time>2015-05-02T12:47:50Z</time>
      </trkpt>
      <trkpt lat="43.84885" lon="7.23782">
        <ele>555.3</ele>
        <time>2015-05-02T12:47:53Z</time>
      </trkpt>
      <trkpt lat="43.84895" lon="7.23773">
        <ele>555.3</ele>
        <time>2015-05-02T12:47:57Z</time>
      </trkpt>
      <trkpt lat="43.84904" lon="7.23765">
        <ele>554.8</ele>
        <time>2015-05-02T12:48:01Z</time>
      </trkpt>
      <trkpt lat="43.84911" lon="7.23754">
        <ele>555.5</ele>
        <time>2015-05-02T12:48:06Z</time>
      </trkpt>
      <trkpt lat="43.84921" lon="7.2375">
        <ele>555.2</ele>
        <time>2015-05-02T12:48:11Z</time>
      </trkpt>
      <trkpt lat="43.84929" lon="7.23743">
        <ele>554.6</ele>
        <time>2015-05-02T12:48:15Z</time>
      </trkpt>
      <trkpt lat="43.84938" lon="7.23737">
        <ele>554.4</ele>
        <time>2015-05-02T12:48:18Z</time>
      </trkpt>
      <trkpt lat="43.84947" lon="7.23733">
        <ele>554.7</ele>
        <time>2015-05-02T12:48:21Z</time>
      </trkpt>
      <trkpt lat="43.84955" lon="7.23725">
        <ele>554.7</ele>
        <time>2015-05-02T12:48:24Z</time>
      </trkpt>
      <trkpt lat="43.84963" lon="7.23718">
        <ele>554.9</ele>
        <time>2015-05-02T12:48:27Z</time>
      </trkpt>
      <trkpt lat="43.84971" lon="7.23713">
        <ele>554.9</ele>
        <time>2015-05-02T12:48:30Z</time>
      </trkpt>
      <trkpt lat="43.8498" lon="7.23709">
        <ele>555.1</ele>
        <time>2015-05-02T12:48:33Z</time>
      </trkpt>
      <trkpt lat="43.84991" lon="7.23705">
        <ele>555</ele>
        <time>2015-05-02T12:48:36Z</time>
      </trkpt>
      <trkpt lat="43.85003" lon="7.23698">
        <ele>554.3</ele>
        <time>2015-05-02T12:48:39Z</time>
      </trkpt>
      <trkpt lat="43.85014" lon="7.23689">
        <ele>553.7</ele>
        <time>2015-05-02T12:48:42Z</time>
      </trkpt>
      <trkpt lat="43.85024" lon="7.23683">
        <ele>554.4</ele>
        <time>2015-05-02T12:48:45Z</time>
      </trkpt>
      <trkpt lat="43.85032" lon="7.23676">
        <ele>552.2</ele>
        <time>2015-05-02T12:49:14Z</time>
      </trkpt>
      <trkpt lat="43.85042" lon="7.23669">
        <ele>551.3</ele>
        <time>2015-05-02T12:49:18Z</time>
      </trkpt>
      <trkpt lat="43.85052" lon="7.23661">
        <ele>551.2</ele>
        <time>2015-05-02T12:49:21Z</time>
      </trkpt>
      <trkpt lat="43.8506" lon="7.23654">
        <ele>551.2</ele>
        <time>2015-05-02T12:49:23Z</time>
      </trkpt>
      <trkpt lat="43.8507" lon="7.23645">
        <ele>550.4</ele>
        <time>2015-05-02T12:49:26Z</time>
      </trkpt>
      <trkpt lat="43.85078" lon="7.23637">
        <ele>548.5</ele>
        <time>2015-05-02T12:49:32Z</time>
      </trkpt>
      <trkpt lat="43.85075" lon="7.23625">
        <ele>548.1</ele>
        <time>2015-05-02T12:49:36Z</time>
      </trkpt>
      <trkpt lat="43.85071" lon="7.23613">
        <ele>548.5</ele>
        <time>2015-05-02T12:49:39Z</time>
      </trkpt>
      <trkpt lat="43.85068" lon="7.23601">
        <ele>548.6</ele>
        <time>2015-05-02T12:49:42Z</time>
      </trkpt>
      <trkpt lat="43.85066" lon="7.23589">
        <ele>548.8</ele>
        <time>2015-05-02T12:49:45Z</time>
      </trkpt>
      <trkpt lat="43.85063" lon="7.23576">
        <ele>549.1</ele>
        <time>2015-05-02T12:49:48Z</time>
      </trkpt>
      <trkpt lat="43.85059" lon="7.23561">
        <ele>549.4</ele>
        <time>2015-05-02T12:49:52Z</time>
      </trkpt>
      <trkpt lat="43.85055" lon="7.23545">
        <ele>549.9</ele>
        <time>2015-05-02T12:49:56Z</time>
      </trkpt>
      <trkpt lat="43.85049" lon="7.23531">
        <ele>551.1</ele>
        <time>2015-05-02T12:50:00Z</time>
      </trkpt>
      <trkpt lat="43.85041" lon="7.23519">
        <ele>551.2</ele>
        <time>2015-05-02T12:50:04Z</time>
      </trkpt>
      <trkpt lat="43.85033" lon="7.23508">
        <ele>552.1</ele>
        <time>2015-05-02T12:50:08Z</time>
      </trkpt>
      <trkpt lat="43.85024" lon="7.23498">
        <ele>553.4</ele>
        <time>2015-05-02T12:50:12Z</time>
      </trkpt>
      <trkpt lat="43.85017" lon="7.23489">
        <ele>553.7</ele>
        <time>2015-05-02T12:50:16Z</time>
      </trkpt>
      <trkpt lat="43.8502" lon="7.23477">
        <ele>553.9</ele>
        <time>2015-05-02T12:50:28Z</time>
      </trkpt>
      <trkpt lat="43.85029" lon="7.23471">
        <ele>554.3</ele>
        <time>2015-05-02T12:50:33Z</time>
      </trkpt>
      <trkpt lat="43.85037" lon="7.23464">
        <ele>554.2</ele>
        <time>2015-05-02T12:50:37Z</time>
      </trkpt>
      <trkpt lat="43.85047" lon="7.23457">
        <ele>553.8</ele>
        <time>2015-05-02T12:50:41Z</time>
      </trkpt>
      <trkpt lat="43.85058" lon="7.23451">
        <ele>555.7</ele>
        <time>2015-05-02T12:50:45Z</time>
      </trkpt>
      <trkpt lat="43.85069" lon="7.23451">
        <ele>555.6</ele>
        <time>2015-05-02T12:50:50Z</time>
      </trkpt>
      <trkpt lat="43.85079" lon="7.23457">
        <ele>555.6</ele>
        <time>2015-05-02T12:50:53Z</time>
      </trkpt>
      <trkpt lat="43.8509" lon="7.23463">
        <ele>555.8</ele>
        <time>2015-05-02T12:50:56Z</time>
      </trkpt>
      <trkpt lat="43.85101" lon="7.23468">
        <ele>555.5</ele>
        <time>2015-05-02T12:50:59Z</time>
      </trkpt>
      <trkpt lat="43.85113" lon="7.23472">
        <ele>555.3</ele>
        <time>2015-05-02T12:51:02Z</time>
      </trkpt>
      <trkpt lat="43.85124" lon="7.23472">
        <ele>555.4</ele>
        <time>2015-05-02T12:51:05Z</time>
      </trkpt>
      <trkpt lat="43.85133" lon="7.23466">
        <ele>555.1</ele>
        <time>2015-05-02T12:51:08Z</time>
      </trkpt>
      <trkpt lat="43.85144" lon="7.23459">
        <ele>554.9</ele>
        <time>2015-05-02T12:51:12Z</time>
      </trkpt>
      <trkpt lat="43.85153" lon="7.23451">
        <ele>555.9</ele>
        <time>2015-05-02T12:51:16Z</time>
      </trkpt>
      <trkpt lat="43.85162" lon="7.2344">
        <ele>555.5</ele>
        <time>2015-05-02T12:51:20Z</time>
      </trkpt>
      <trkpt lat="43.85168" lon="7.23429">
        <ele>555</ele>
        <time>2015-05-02T12:51:23Z</time>
      </trkpt>
      <trkpt lat="43.85174" lon="7.23419">
        <ele>554.8</ele>
        <time>2015-05-02T12:51:26Z</time>
      </trkpt>
      <trkpt lat="43.85179" lon="7.23407">
        <ele>554.9</ele>
        <time>2015-05-02T12:51:30Z</time>
      </trkpt>
      <trkpt lat="43.85183" lon="7.23396">
        <ele>555.3</ele>
        <time>2015-05-02T12:51:34Z</time>
      </trkpt>
      <trkpt lat="43.85185" lon="7.23382">
        <ele>555.5</ele>
        <time>2015-05-02T12:51:38Z</time>
      </trkpt>
      <trkpt lat="43.85186" lon="7.23369">
        <ele>554.8</ele>
        <time>2015-05-02T12:51:42Z</time>
      </trkpt>
      <trkpt lat="43.85185" lon="7.23355">
        <ele>554.8</ele>
        <time>2015-05-02T12:51:47Z</time>
      </trkpt>
      <trkpt lat="43.85181" lon="7.23343">
        <ele>555.3</ele>
        <time>2015-05-02T12:51:51Z</time>
      </trkpt>
      <trkpt lat="43.85176" lon="7.2333">
        <ele>555</ele>
        <time>2015-05-02T12:51:55Z</time>
      </trkpt>
      <trkpt lat="43.85172" lon="7.23319">
        <ele>555.2</ele>
        <time>2015-05-02T12:51:58Z</time>
      </trkpt>
      <trkpt lat="43.85172" lon="7.23306">
        <ele>555.4</ele>
        <time>2015-05-02T12:52:01Z</time>
      </trkpt>
      <trkpt lat="43.85175" lon="7.23291">
        <ele>555.5</ele>
        <time>2015-05-02T12:52:04Z</time>
      </trkpt>
      <trkpt lat="43.85181" lon="7.23279">
        <ele>555.4</ele>
        <time>2015-05-02T12:52:07Z</time>
      </trkpt>
      <trkpt lat="43.85192" lon="7.23273">
        <ele>555.4</ele>
        <time>2015-05-02T12:52:10Z</time>
      </trkpt>
      <trkpt lat="43.85204" lon="7.23269">
        <ele>554.6</ele>
        <time>2015-05-02T12:52:13Z</time>
      </trkpt>
      <trkpt lat="43.85217" lon="7.23263">
        <ele>554.2</ele>
        <time>2015-05-02T12:52:16Z</time>
      </trkpt>
      <trkpt lat="43.85228" lon="7.23254">
        <ele>554.3</ele>
        <time>2015-05-02T12:52:19Z</time>
      </trkpt>
      <trkpt lat="43.85239" lon="7.23245">
        <ele>553.9</ele>
        <time>2015-05-02T12:52:22Z</time>
      </trkpt>
      <trkpt lat="43.8525" lon="7.23237">
        <ele>553.6</ele>
        <time>2015-05-02T12:52:25Z</time>
      </trkpt>
      <trkpt lat="43.85262" lon="7.23229">
        <ele>552.9</ele>
        <time>2015-05-02T12:52:28Z</time>
      </trkpt>
      <trkpt lat="43.8527" lon="7.23223">
        <ele>552</ele>
        <time>2015-05-02T12:52:30Z</time>
      </trkpt>
      <trkpt lat="43.85279" lon="7.23214">
        <ele>550.8</ele>
        <time>2015-05-02T12:52:33Z</time>
      </trkpt>
      <trkpt lat="43.85284" lon="7.23201">
        <ele>548.1</ele>
        <time>2015-05-02T12:52:37Z</time>
      </trkpt>
      <trkpt lat="43.85286" lon="7.23189">
        <ele>545.4</ele>
        <time>2015-05-02T12:52:51Z</time>
      </trkpt>
      <trkpt lat="43.85284" lon="7.23175">
        <ele>546.1</ele>
        <time>2015-05-02T12:53:22Z</time>
      </trkpt>
      <trkpt lat="43.85285" lon="7.23161">
        <ele>545.2</ele>
        <time>2015-05-02T12:53:25Z</time>
      </trkpt>
      <trkpt lat="43.85284" lon="7.23146">
        <ele>544.6</ele>
        <time>2015-05-02T12:53:28Z</time>
      </trkpt>
      <trkpt lat="43.85282" lon="7.23131">
        <ele>543.3</ele>
        <time>2015-05-02T12:53:31Z</time>
      </trkpt>
      <trkpt lat="43.85278" lon="7.23118">
        <ele>542.4</ele>
        <time>2015-05-02T12:53:34Z</time>
      </trkpt>
      <trkpt lat="43.85288" lon="7.23116">
        <ele>537.8</ele>
        <time>2015-05-02T12:53:57Z</time>
      </trkpt>
      <trkpt lat="43.85297" lon="7.23124">
        <ele>537.6</ele>
        <time>2015-05-02T12:54:00Z</time>
      </trkpt>
      <trkpt lat="43.85306" lon="7.23135">
        <ele>538.1</ele>
        <time>2015-05-02T12:54:03Z</time>
      </trkpt>
      <trkpt lat="43.85313" lon="7.23146">
        <ele>537.9</ele>
        <time>2015-05-02T12:54:06Z</time>
      </trkpt>
      <trkpt lat="43.85319" lon="7.23157">
        <ele>537.3</ele>
        <time>2015-05-02T12:54:09Z</time>
      </trkpt>
      <trkpt lat="43.85321" lon="7.2317">
        <ele>536.5</ele>
        <time>2015-05-02T12:54:12Z</time>
      </trkpt>
      <trkpt lat="43.85322" lon="7.23185">
        <ele>535.1</ele>
        <time>2015-05-02T12:54:15Z</time>
      </trkpt>
      <trkpt lat="43.85323" lon="7.23202">
        <ele>535.2</ele>
        <time>2015-05-02T12:54:18Z</time>
      </trkpt>
      <trkpt lat="43.85321" lon="7.2322">
        <ele>535.3</ele>
        <time>2015-05-02T12:54:21Z</time>
      </trkpt>
      <trkpt lat="43.85317" lon="7.23232">
        <ele>534.9</ele>
        <time>2015-05-02T12:54:23Z</time>
      </trkpt>
      <trkpt lat="43.85313" lon="7.23246">
        <ele>534.6</ele>
        <time>2015-05-02T12:54:25Z</time>
      </trkpt>
      <trkpt lat="43.85309" lon="7.2326">
        <ele>534.3</ele>
        <time>2015-05-02T12:54:27Z</time>
      </trkpt>
      <trkpt lat="43.85304" lon="7.23273">
        <ele>533.3</ele>
        <time>2015-05-02T12:54:29Z</time>
      </trkpt>
      <trkpt lat="43.85302" lon="7.23285">
        <ele>532.8</ele>
        <time>2015-05-02T12:54:46Z</time>
      </trkpt>
      <trkpt lat="43.85294" lon="7.23291">
        <ele>533.2</ele>
        <time>2015-05-02T12:55:18Z</time>
      </trkpt>
      <trkpt lat="43.85287" lon="7.233">
        <ele>534</ele>
        <time>2015-05-02T12:55:22Z</time>
      </trkpt>
      <trkpt lat="43.8528" lon="7.2331">
        <ele>534.1</ele>
        <time>2015-05-02T12:55:27Z</time>
      </trkpt>
      <trkpt lat="43.85273" lon="7.23322">
        <ele>533.8</ele>
        <time>2015-05-02T12:55:49Z</time>
      </trkpt>
      <trkpt lat="43.85282" lon="7.23311">
        <ele>534.5</ele>
        <time>2015-05-02T12:56:18Z</time>
      </trkpt>
      <trkpt lat="43.8529" lon="7.23299">
        <ele>535</ele>
        <time>2015-05-02T12:56:21Z</time>
      </trkpt>
      <trkpt lat="43.85299" lon="7.23293">
        <ele>533.8</ele>
        <time>2015-05-02T12:56:24Z</time>
      </trkpt>
      <trkpt lat="43.85294" lon="7.23306">
        <ele>533.2</ele>
        <time>2015-05-02T12:56:30Z</time>
      </trkpt>
      <trkpt lat="43.85289" lon="7.23316">
        <ele>531.3</ele>
        <time>2015-05-02T12:56:34Z</time>
      </trkpt>
      <trkpt lat="43.85287" lon="7.23332">
        <ele>528.4</ele>
        <time>2015-05-02T12:56:38Z</time>
      </trkpt>
      <trkpt lat="43.8529" lon="7.23345">
        <ele>526.9</ele>
        <time>2015-05-02T12:56:41Z</time>
      </trkpt>
      <trkpt lat="43.85291" lon="7.23361">
        <ele>524.9</ele>
        <time>2015-05-02T12:56:45Z</time>
      </trkpt>
      <trkpt lat="43.85298" lon="7.23372">
        <ele>524.5</ele>
        <time>2015-05-02T12:56:50Z</time>
      </trkpt>
      <trkpt lat="43.85306" lon="7.23378">
        <ele>525.6</ele>
        <time>2015-05-02T12:56:56Z</time>
      </trkpt>
      <trkpt lat="43.85315" lon="7.23374">
        <ele>528.4</ele>
        <time>2015-05-02T12:57:10Z</time>
      </trkpt>
      <trkpt lat="43.85323" lon="7.23368">
        <ele>530</ele>
        <time>2015-05-02T12:57:21Z</time>
      </trkpt>
      <trkpt lat="43.85332" lon="7.23364">
        <ele>531.9</ele>
        <time>2015-05-02T12:58:40Z</time>
      </trkpt>
      <trkpt lat="43.85341" lon="7.2336">
        <ele>532.1</ele>
        <time>2015-05-02T12:58:52Z</time>
      </trkpt>
      <trkpt lat="43.85348" lon="7.2335">
        <ele>531.5</ele>
        <time>2015-05-02T12:58:56Z</time>
      </trkpt>
      <trkpt lat="43.85356" lon="7.23338">
        <ele>531.5</ele>
        <time>2015-05-02T12:59:00Z</time>
      </trkpt>
      <trkpt lat="43.85362" lon="7.23327">
        <ele>531.7</ele>
        <time>2015-05-02T12:59:03Z</time>
      </trkpt>
      <trkpt lat="43.85369" lon="7.23316">
        <ele>532.2</ele>
        <time>2015-05-02T12:59:06Z</time>
      </trkpt>
      <trkpt lat="43.85376" lon="7.23305">
        <ele>532.6</ele>
        <time>2015-05-02T12:59:09Z</time>
      </trkpt>
      <trkpt lat="43.85386" lon="7.23293">
        <ele>532.7</ele>
        <time>2015-05-02T12:59:12Z</time>
      </trkpt>
      <trkpt lat="43.85396" lon="7.23284">
        <ele>531.7</ele>
        <time>2015-05-02T12:59:15Z</time>
      </trkpt>
      <trkpt lat="43.85407" lon="7.23276">
        <ele>531.8</ele>
        <time>2015-05-02T12:59:18Z</time>
      </trkpt>
      <trkpt lat="43.85417" lon="7.23267">
        <ele>531.9</ele>
        <time>2015-05-02T12:59:21Z</time>
      </trkpt>
      <trkpt lat="43.85427" lon="7.23259">
        <ele>531.9</ele>
        <time>2015-05-02T12:59:24Z</time>
      </trkpt>
      <trkpt lat="43.85438" lon="7.2325">
        <ele>531.4</ele>
        <time>2015-05-02T12:59:27Z</time>
      </trkpt>
      <trkpt lat="43.85449" lon="7.23242">
        <ele>531.5</ele>
        <time>2015-05-02T12:59:30Z</time>
      </trkpt>
      <trkpt lat="43.8546" lon="7.23234">
        <ele>531.1</ele>
        <time>2015-05-02T12:59:33Z</time>
      </trkpt>
      <trkpt lat="43.85471" lon="7.23226">
        <ele>531.6</ele>
        <time>2015-05-02T12:59:36Z</time>
      </trkpt>
      <trkpt lat="43.85478" lon="7.23217">
        <ele>530.7</ele>
        <time>2015-05-02T12:59:39Z</time>
      </trkpt>
      <trkpt lat="43.85475" lon="7.23203">
        <ele>530.2</ele>
        <time>2015-05-02T12:59:43Z</time>
      </trkpt>
      <trkpt lat="43.85473" lon="7.23189">
        <ele>530.1</ele>
        <time>2015-05-02T12:59:46Z</time>
      </trkpt>
      <trkpt lat="43.85473" lon="7.23172">
        <ele>529.6</ele>
        <time>2015-05-02T12:59:49Z</time>
      </trkpt>
      <trkpt lat="43.85474" lon="7.23159">
        <ele>529</ele>
        <time>2015-05-02T12:59:51Z</time>
      </trkpt>
      <trkpt lat="43.85475" lon="7.23145">
        <ele>528.1</ele>
        <time>2015-05-02T12:59:53Z</time>
      </trkpt>
      <trkpt lat="43.85476" lon="7.2313">
        <ele>527.4</ele>
        <time>2015-05-02T12:59:55Z</time>
      </trkpt>
      <trkpt lat="43.85477" lon="7.23115">
        <ele>526.8</ele>
        <time>2015-05-02T12:59:57Z</time>
      </trkpt>
      <trkpt lat="43.85478" lon="7.23101">
        <ele>525.8</ele>
        <time>2015-05-02T12:59:59Z</time>
      </trkpt>
      <trkpt lat="43.85469" lon="7.23096">
        <ele>523.7</ele>
        <time>2015-05-02T13:00:03Z</time>
      </trkpt>
      <trkpt lat="43.85463" lon="7.2311">
        <ele>523</ele>
        <time>2015-05-02T13:00:06Z</time>
      </trkpt>
      <trkpt lat="43.85457" lon="7.23124">
        <ele>523.4</ele>
        <time>2015-05-02T13:00:09Z</time>
      </trkpt>
      <trkpt lat="43.85451" lon="7.23139">
        <ele>523.7</ele>
        <time>2015-05-02T13:00:12Z</time>
      </trkpt>
      <trkpt lat="43.85447" lon="7.23154">
        <ele>522.5</ele>
        <time>2015-05-02T13:00:15Z</time>
      </trkpt>
      <trkpt lat="43.85443" lon="7.23167">
        <ele>521.7</ele>
        <time>2015-05-02T13:00:19Z</time>
      </trkpt>
      <trkpt lat="43.85442" lon="7.23152">
        <ele>521.3</ele>
        <time>2015-05-02T13:00:23Z</time>
      </trkpt>
      <trkpt lat="43.85447" lon="7.23135">
        <ele>521</ele>
        <time>2015-05-02T13:00:26Z</time>
      </trkpt>
      <trkpt lat="43.8545" lon="7.23122">
        <ele>520.8</ele>
        <time>2015-05-02T13:00:28Z</time>
      </trkpt>
      <trkpt lat="43.85452" lon="7.23107">
        <ele>520.3</ele>
        <time>2015-05-02T13:00:30Z</time>
      </trkpt>
      <trkpt lat="43.85452" lon="7.23092">
        <ele>519.5</ele>
        <time>2015-05-02T13:00:32Z</time>
      </trkpt>
      <trkpt lat="43.85451" lon="7.23077">
        <ele>519.2</ele>
        <time>2015-05-02T13:00:34Z</time>
      </trkpt>
      <trkpt lat="43.85453" lon="7.23061">
        <ele>519</ele>
        <time>2015-05-02T13:00:36Z</time>
      </trkpt>
      <trkpt lat="43.85456" lon="7.23044">
        <ele>518.4</ele>
        <time>2015-05-02T13:00:38Z</time>
      </trkpt>
      <trkpt lat="43.85461" lon="7.23026">
        <ele>518.1</ele>
        <time>2015-05-02T13:00:40Z</time>
      </trkpt>
      <trkpt lat="43.85461" lon="7.23009">
        <ele>518.3</ele>
        <time>2015-05-02T13:00:42Z</time>
      </trkpt>
      <trkpt lat="43.85459" lon="7.22997">
        <ele>517.6</ele>
        <time>2015-05-02T13:00:44Z</time>
      </trkpt>
      <trkpt lat="43.85457" lon="7.22984">
        <ele>514.1</ele>
        <time>2015-05-02T13:00:50Z</time>
      </trkpt>
      <trkpt lat="43.85465" lon="7.22978">
        <ele>514</ele>
        <time>2015-05-02T13:02:05Z</time>
      </trkpt>
      <trkpt lat="43.85471" lon="7.22965">
        <ele>513.5</ele>
        <time>2015-05-02T13:02:09Z</time>
      </trkpt>
      <trkpt lat="43.8548" lon="7.22959">
        <ele>513.2</ele>
        <time>2015-05-02T13:02:12Z</time>
      </trkpt>
      <trkpt lat="43.85489" lon="7.22952">
        <ele>513.9</ele>
        <time>2015-05-02T13:02:15Z</time>
      </trkpt>
      <trkpt lat="43.85495" lon="7.22939">
        <ele>514.2</ele>
        <time>2015-05-02T13:02:18Z</time>
      </trkpt>
      <trkpt lat="43.855" lon="7.22926">
        <ele>513</ele>
        <time>2015-05-02T13:02:20Z</time>
      </trkpt>
      <trkpt lat="43.85504" lon="7.22912">
        <ele>512.1</ele>
        <time>2015-05-02T13:02:22Z</time>
      </trkpt>
      <trkpt lat="43.85507" lon="7.22896">
        <ele>511.4</ele>
        <time>2015-05-02T13:02:24Z</time>
      </trkpt>
      <trkpt lat="43.85512" lon="7.2288">
        <ele>511.1</ele>
        <time>2015-05-02T13:02:26Z</time>
      </trkpt>
      <trkpt lat="43.85516" lon="7.22865">
        <ele>510.7</ele>
        <time>2015-05-02T13:02:28Z</time>
      </trkpt>
      <trkpt lat="43.8552" lon="7.22849">
        <ele>510.4</ele>
        <time>2015-05-02T13:02:30Z</time>
      </trkpt>
      <trkpt lat="43.85525" lon="7.22833">
        <ele>509.8</ele>
        <time>2015-05-02T13:02:32Z</time>
      </trkpt>
      <trkpt lat="43.85529" lon="7.22817">
        <ele>509.3</ele>
        <time>2015-05-02T13:02:34Z</time>
      </trkpt>
      <trkpt lat="43.85533" lon="7.22802">
        <ele>509.1</ele>
        <time>2015-05-02T13:02:36Z</time>
      </trkpt>
      <trkpt lat="43.85537" lon="7.22788">
        <ele>509.7</ele>
        <time>2015-05-02T13:02:38Z</time>
      </trkpt>
      <trkpt lat="43.85541" lon="7.22774">
        <ele>509.6</ele>
        <time>2015-05-02T13:02:40Z</time>
      </trkpt>
      <trkpt lat="43.85546" lon="7.22762">
        <ele>509.5</ele>
        <time>2015-05-02T13:02:42Z</time>
      </trkpt>
      <trkpt lat="43.85552" lon="7.22752">
        <ele>509.3</ele>
        <time>2015-05-02T13:02:44Z</time>
      </trkpt>
      <trkpt lat="43.85563" lon="7.22742">
        <ele>508.9</ele>
        <time>2015-05-02T13:02:47Z</time>
      </trkpt>
      <trkpt lat="43.85575" lon="7.22736">
        <ele>508.7</ele>
        <time>2015-05-02T13:02:50Z</time>
      </trkpt>
      <trkpt lat="43.85586" lon="7.2273">
        <ele>508.2</ele>
        <time>2015-05-02T13:02:53Z</time>
      </trkpt>
      <trkpt lat="43.85594" lon="7.22722">
        <ele>507.8</ele>
        <time>2015-05-02T13:02:56Z</time>
      </trkpt>
      <trkpt lat="43.85598" lon="7.2271">
        <ele>508.7</ele>
        <time>2015-05-02T13:02:59Z</time>
      </trkpt>
      <trkpt lat="43.85602" lon="7.22695">
        <ele>508.1</ele>
        <time>2015-05-02T13:03:03Z</time>
      </trkpt>
      <trkpt lat="43.85606" lon="7.22683">
        <ele>508.4</ele>
        <time>2015-05-02T13:03:06Z</time>
      </trkpt>
      <trkpt lat="43.8561" lon="7.22669">
        <ele>508.1</ele>
        <time>2015-05-02T13:03:10Z</time>
      </trkpt>
      <trkpt lat="43.85615" lon="7.22655">
        <ele>508.9</ele>
        <time>2015-05-02T13:03:14Z</time>
      </trkpt>
      <trkpt lat="43.85618" lon="7.22643">
        <ele>508.6</ele>
        <time>2015-05-02T13:03:17Z</time>
      </trkpt>
      <trkpt lat="43.85623" lon="7.22628">
        <ele>507.7</ele>
        <time>2015-05-02T13:03:20Z</time>
      </trkpt>
      <trkpt lat="43.85628" lon="7.22612">
        <ele>506.9</ele>
        <time>2015-05-02T13:03:23Z</time>
      </trkpt>
      <trkpt lat="43.85632" lon="7.22596">
        <ele>507</ele>
        <time>2015-05-02T13:03:26Z</time>
      </trkpt>
      <trkpt lat="43.85633" lon="7.22581">
        <ele>507.4</ele>
        <time>2015-05-02T13:03:29Z</time>
      </trkpt>
      <trkpt lat="43.85636" lon="7.22565">
        <ele>506.7</ele>
        <time>2015-05-02T13:03:32Z</time>
      </trkpt>
      <trkpt lat="43.8564" lon="7.22549">
        <ele>506.4</ele>
        <time>2015-05-02T13:03:35Z</time>
      </trkpt>
      <trkpt lat="43.85644" lon="7.22535">
        <ele>505.5</ele>
        <time>2015-05-02T13:03:38Z</time>
      </trkpt>
      <trkpt lat="43.85648" lon="7.22522">
        <ele>504.6</ele>
        <time>2015-05-02T13:03:41Z</time>
      </trkpt>
      <trkpt lat="43.85651" lon="7.22506">
        <ele>504</ele>
        <time>2015-05-02T13:03:45Z</time>
      </trkpt>
      <trkpt lat="43.85655" lon="7.22495">
        <ele>503.4</ele>
        <time>2015-05-02T13:03:49Z</time>
      </trkpt>
      <trkpt lat="43.85661" lon="7.22481">
        <ele>503.3</ele>
        <time>2015-05-02T13:03:53Z</time>
      </trkpt>
      <trkpt lat="43.85666" lon="7.2247">
        <ele>503.6</ele>
        <time>2015-05-02T13:03:56Z</time>
      </trkpt>
      <trkpt lat="43.85672" lon="7.22459">
        <ele>502.8</ele>
        <time>2015-05-02T13:03:59Z</time>
      </trkpt>
      <trkpt lat="43.8568" lon="7.22449">
        <ele>501.9</ele>
        <time>2015-05-02T13:04:02Z</time>
      </trkpt>
      <trkpt lat="43.85691" lon="7.22439">
        <ele>501.6</ele>
        <time>2015-05-02T13:04:05Z</time>
      </trkpt>
      <trkpt lat="43.857" lon="7.22432">
        <ele>501.1</ele>
        <time>2015-05-02T13:04:07Z</time>
      </trkpt>
      <trkpt lat="43.85709" lon="7.22426">
        <ele>500.1</ele>
        <time>2015-05-02T13:04:09Z</time>
      </trkpt>
      <trkpt lat="43.8572" lon="7.22419">
        <ele>499.2</ele>
        <time>2015-05-02T13:04:11Z</time>
      </trkpt>
      <trkpt lat="43.8573" lon="7.22411">
        <ele>499.1</ele>
        <time>2015-05-02T13:04:13Z</time>
      </trkpt>
      <trkpt lat="43.85742" lon="7.22402">
        <ele>498.8</ele>
        <time>2015-05-02T13:04:15Z</time>
      </trkpt>
      <trkpt lat="43.85751" lon="7.22394">
        <ele>498.4</ele>
        <time>2015-05-02T13:04:17Z</time>
      </trkpt>
      <trkpt lat="43.85761" lon="7.22384">
        <ele>497.9</ele>
        <time>2015-05-02T13:04:20Z</time>
      </trkpt>
      <trkpt lat="43.8577" lon="7.22375">
        <ele>496.6</ele>
        <time>2015-05-02T13:04:24Z</time>
      </trkpt>
      <trkpt lat="43.85762" lon="7.22382">
        <ele>496.6</ele>
        <time>2015-05-02T13:04:41Z</time>
      </trkpt>
      <trkpt lat="43.8577" lon="7.22372">
        <ele>496.7</ele>
        <time>2015-05-02T13:05:45Z</time>
      </trkpt>
      <trkpt lat="43.85779" lon="7.22361">
        <ele>496.2</ele>
        <time>2015-05-02T13:05:48Z</time>
      </trkpt>
      <trkpt lat="43.85787" lon="7.22347">
        <ele>495.7</ele>
        <time>2015-05-02T13:05:51Z</time>
      </trkpt>
      <trkpt lat="43.85793" lon="7.22337">
        <ele>494.6</ele>
        <time>2015-05-02T13:05:55Z</time>
      </trkpt>
      <trkpt lat="43.85795" lon="7.22323">
        <ele>495.3</ele>
        <time>2015-05-02T13:06:19Z</time>
      </trkpt>
      <trkpt lat="43.85797" lon="7.2231">
        <ele>498.3</ele>
        <time>2015-05-02T13:06:29Z</time>
      </trkpt>
      <trkpt lat="43.85797" lon="7.22296">
        <ele>500.1</ele>
        <time>2015-05-02T13:06:38Z</time>
      </trkpt>
      <trkpt lat="43.85798" lon="7.22283">
        <ele>501</ele>
        <time>2015-05-02T13:06:47Z</time>
      </trkpt>
      <trkpt lat="43.85801" lon="7.22271">
        <ele>502.2</ele>
        <time>2015-05-02T13:06:55Z</time>
      </trkpt>
      <trkpt lat="43.85803" lon="7.22257">
        <ele>503.9</ele>
        <time>2015-05-02T13:07:04Z</time>
      </trkpt>
      <trkpt lat="43.85807" lon="7.22246">
        <ele>504.2</ele>
        <time>2015-05-02T13:07:14Z</time>
      </trkpt>
      <trkpt lat="43.85813" lon="7.22233">
        <ele>505.3</ele>
        <time>2015-05-02T13:07:23Z</time>
      </trkpt>
      <trkpt lat="43.85819" lon="7.22222">
        <ele>505.7</ele>
        <time>2015-05-02T13:07:30Z</time>
      </trkpt>
      <trkpt lat="43.85825" lon="7.22211">
        <ele>505.4</ele>
        <time>2015-05-02T13:07:35Z</time>
      </trkpt>
      <trkpt lat="43.85831" lon="7.22202">
        <ele>505.5</ele>
        <time>2015-05-02T13:07:42Z</time>
      </trkpt>
      <trkpt lat="43.8584" lon="7.22193">
        <ele>507.2</ele>
        <time>2015-05-02T13:07:49Z</time>
      </trkpt>
      <trkpt lat="43.85847" lon="7.22183">
        <ele>508.7</ele>
        <time>2015-05-02T13:07:55Z</time>
      </trkpt>
      <trkpt lat="43.8585" lon="7.2217">
        <ele>510.5</ele>
        <time>2015-05-02T13:08:02Z</time>
      </trkpt>
      <trkpt lat="43.8585" lon="7.22156">
        <ele>512.6</ele>
        <time>2015-05-02T13:08:09Z</time>
      </trkpt>
      <trkpt lat="43.85849" lon="7.22144">
        <ele>513.3</ele>
        <time>2015-05-02T13:08:17Z</time>
      </trkpt>
      <trkpt lat="43.8585" lon="7.22131">
        <ele>514.1</ele>
        <time>2015-05-02T13:08:24Z</time>
      </trkpt>
      <trkpt lat="43.85849" lon="7.22117">
        <ele>516.3</ele>
        <time>2015-05-02T13:08:31Z</time>
      </trkpt>
      <trkpt lat="43.8585" lon="7.22103">
        <ele>517.6</ele>
        <time>2015-05-02T13:08:37Z</time>
      </trkpt>
      <trkpt lat="43.85849" lon="7.22091">
        <ele>518.5</ele>
        <time>2015-05-02T13:08:44Z</time>
      </trkpt>
      <trkpt lat="43.8584" lon="7.22083">
        <ele>520.9</ele>
        <time>2015-05-02T13:08:52Z</time>
      </trkpt>
      <trkpt lat="43.85832" lon="7.22078">
        <ele>522.6</ele>
        <time>2015-05-02T13:09:00Z</time>
      </trkpt>
      <trkpt lat="43.85822" lon="7.22077">
        <ele>524.1</ele>
        <time>2015-05-02T13:09:09Z</time>
      </trkpt>
      <trkpt lat="43.85813" lon="7.22072">
        <ele>525</ele>
        <time>2015-05-02T13:09:18Z</time>
      </trkpt>
      <trkpt lat="43.85804" lon="7.22067">
        <ele>525.3</ele>
        <time>2015-05-02T13:09:25Z</time>
      </trkpt>
      <trkpt lat="43.85793" lon="7.22063">
        <ele>525.9</ele>
        <time>2015-05-02T13:09:31Z</time>
      </trkpt>
      <trkpt lat="43.85782" lon="7.22061">
        <ele>525.8</ele>
        <time>2015-05-02T13:09:35Z</time>
      </trkpt>
      <trkpt lat="43.85772" lon="7.2206">
        <ele>526.5</ele>
        <time>2015-05-02T13:09:39Z</time>
      </trkpt>
      <trkpt lat="43.85761" lon="7.22055">
        <ele>526.5</ele>
        <time>2015-05-02T13:09:43Z</time>
      </trkpt>
      <trkpt lat="43.85753" lon="7.22048">
        <ele>526.7</ele>
        <time>2015-05-02T13:09:46Z</time>
      </trkpt>
      <trkpt lat="43.85744" lon="7.22042">
        <ele>526.7</ele>
        <time>2015-05-02T13:09:49Z</time>
      </trkpt>
      <trkpt lat="43.85734" lon="7.22037">
        <ele>527.1</ele>
        <time>2015-05-02T13:09:52Z</time>
      </trkpt>
      <trkpt lat="43.85724" lon="7.22033">
        <ele>526.6</ele>
        <time>2015-05-02T13:09:55Z</time>
      </trkpt>
      <trkpt lat="43.85714" lon="7.22027">
        <ele>526.4</ele>
        <time>2015-05-02T13:09:58Z</time>
      </trkpt>
      <trkpt lat="43.85707" lon="7.22016">
        <ele>526.2</ele>
        <time>2015-05-02T13:10:02Z</time>
      </trkpt>
      <trkpt lat="43.85705" lon="7.22001">
        <ele>526</ele>
        <time>2015-05-02T13:10:05Z</time>
      </trkpt>
      <trkpt lat="43.85702" lon="7.21989">
        <ele>526.4</ele>
        <time>2015-05-02T13:10:07Z</time>
      </trkpt>
      <trkpt lat="43.85697" lon="7.21976">
        <ele>525.4</ele>
        <time>2015-05-02T13:10:10Z</time>
      </trkpt>
      <trkpt lat="43.85687" lon="7.2197">
        <ele>524.1</ele>
        <time>2015-05-02T13:10:14Z</time>
      </trkpt>
      <trkpt lat="43.85678" lon="7.21965">
        <ele>523.7</ele>
        <time>2015-05-02T13:11:00Z</time>
      </trkpt>
      <trkpt lat="43.85668" lon="7.2196">
        <ele>524.4</ele>
        <time>2015-05-02T13:11:05Z</time>
      </trkpt>
      <trkpt lat="43.8566" lon="7.21955">
        <ele>524.7</ele>
        <time>2015-05-02T13:11:08Z</time>
      </trkpt>
      <trkpt lat="43.8565" lon="7.21951">
        <ele>524.5</ele>
        <time>2015-05-02T13:11:11Z</time>
      </trkpt>
      <trkpt lat="43.8564" lon="7.21947">
        <ele>524.8</ele>
        <time>2015-05-02T13:11:14Z</time>
      </trkpt>
      <trkpt lat="43.8563" lon="7.2194">
        <ele>524.8</ele>
        <time>2015-05-02T13:11:17Z</time>
      </trkpt>
      <trkpt lat="43.8562" lon="7.21939">
        <ele>524.4</ele>
        <time>2015-05-02T13:11:20Z</time>
      </trkpt>
      <trkpt lat="43.8561" lon="7.21946">
        <ele>524.1</ele>
        <time>2015-05-02T13:11:24Z</time>
      </trkpt>
      <trkpt lat="43.85601" lon="7.21943">
        <ele>523.7</ele>
        <time>2015-05-02T13:11:27Z</time>
      </trkpt>
      <trkpt lat="43.85593" lon="7.21935">
        <ele>523.3</ele>
        <time>2015-05-02T13:11:30Z</time>
      </trkpt>
      <trkpt lat="43.85584" lon="7.21936">
        <ele>521.7</ele>
        <time>2015-05-02T13:11:33Z</time>
      </trkpt>
      <trkpt lat="43.85577" lon="7.21951">
        <ele>520.4</ele>
        <time>2015-05-02T13:11:36Z</time>
      </trkpt>
      <trkpt lat="43.85567" lon="7.21945">
        <ele>517.6</ele>
        <time>2015-05-02T13:11:40Z</time>
      </trkpt>
      <trkpt lat="43.85558" lon="7.21951">
        <ele>515.5</ele>
        <time>2015-05-02T13:11:43Z</time>
      </trkpt>
      <trkpt lat="43.85549" lon="7.21955">
        <ele>514.6</ele>
        <time>2015-05-02T13:11:45Z</time>
      </trkpt>
      <trkpt lat="43.8554" lon="7.21949">
        <ele>513.2</ele>
        <time>2015-05-02T13:11:47Z</time>
      </trkpt>
      <trkpt lat="43.85547" lon="7.21935">
        <ele>510</ele>
        <time>2015-05-02T13:11:51Z</time>
      </trkpt>
      <trkpt lat="43.85557" lon="7.21927">
        <ele>507.8</ele>
        <time>2015-05-02T13:11:54Z</time>
      </trkpt>
      <trkpt lat="43.85545" lon="7.21926">
        <ele>503.6</ele>
        <time>2015-05-02T13:12:00Z</time>
      </trkpt>
      <trkpt lat="43.85533" lon="7.21924">
        <ele>501.6</ele>
        <time>2015-05-02T13:12:03Z</time>
      </trkpt>
      <trkpt lat="43.85524" lon="7.21921">
        <ele>501.3</ele>
        <time>2015-05-02T13:12:05Z</time>
      </trkpt>
      <trkpt lat="43.85519" lon="7.21911">
        <ele>497.4</ele>
        <time>2015-05-02T13:12:16Z</time>
      </trkpt>
      <trkpt lat="43.85513" lon="7.21901">
        <ele>496.9</ele>
        <time>2015-05-02T13:13:11Z</time>
      </trkpt>
      <trkpt lat="43.85504" lon="7.21889">
        <ele>496.4</ele>
        <time>2015-05-02T13:14:10Z</time>
      </trkpt>
      <trkpt lat="43.85497" lon="7.2188">
        <ele>495.2</ele>
        <time>2015-05-02T13:14:13Z</time>
      </trkpt>
      <trkpt lat="43.85493" lon="7.21863">
        <ele>491.6</ele>
        <time>2015-05-02T13:14:18Z</time>
      </trkpt>
      <trkpt lat="43.85489" lon="7.21847">
        <ele>489.3</ele>
        <time>2015-05-02T13:14:21Z</time>
      </trkpt>
      <trkpt lat="43.85486" lon="7.21834">
        <ele>485.6</ele>
        <time>2015-05-02T13:14:26Z</time>
      </trkpt>
      <trkpt lat="43.85488" lon="7.21822">
        <ele>484.7</ele>
        <time>2015-05-02T13:14:32Z</time>
      </trkpt>
      <trkpt lat="43.85491" lon="7.21809">
        <ele>485.9</ele>
        <time>2015-05-02T13:14:38Z</time>
      </trkpt>
      <trkpt lat="43.85498" lon="7.21799">
        <ele>486.9</ele>
        <time>2015-05-02T13:14:45Z</time>
      </trkpt>
      <trkpt lat="43.85505" lon="7.21789">
        <ele>489.2</ele>
        <time>2015-05-02T13:14:55Z</time>
      </trkpt>
      <trkpt lat="43.85511" lon="7.2178">
        <ele>490.4</ele>
        <time>2015-05-02T13:15:01Z</time>
      </trkpt>
      <trkpt lat="43.85517" lon="7.21768">
        <ele>492.3</ele>
        <time>2015-05-02T13:15:07Z</time>
      </trkpt>
      <trkpt lat="43.85525" lon="7.2176">
        <ele>492.9</ele>
        <time>2015-05-02T13:15:13Z</time>
      </trkpt>
      <trkpt lat="43.85533" lon="7.21751">
        <ele>494.9</ele>
        <time>2015-05-02T13:15:19Z</time>
      </trkpt>
      <trkpt lat="43.85537" lon="7.21739">
        <ele>495.8</ele>
        <time>2015-05-02T13:15:26Z</time>
      </trkpt>
      <trkpt lat="43.8554" lon="7.21726">
        <ele>495.7</ele>
        <time>2015-05-02T13:15:32Z</time>
      </trkpt>
      <trkpt lat="43.85547" lon="7.21716">
        <ele>496</ele>
        <time>2015-05-02T13:15:38Z</time>
      </trkpt>
      <trkpt lat="43.85554" lon="7.21706">
        <ele>497.8</ele>
        <time>2015-05-02T13:15:44Z</time>
      </trkpt>
      <trkpt lat="43.85559" lon="7.21694">
        <ele>498.9</ele>
        <time>2015-05-02T13:15:50Z</time>
      </trkpt>
      <trkpt lat="43.85564" lon="7.21682">
        <ele>499.4</ele>
        <time>2015-05-02T13:15:56Z</time>
      </trkpt>
      <trkpt lat="43.85571" lon="7.21673">
        <ele>500.4</ele>
        <time>2015-05-02T13:16:02Z</time>
      </trkpt>
      <trkpt lat="43.85583" lon="7.21666">
        <ele>502</ele>
        <time>2015-05-02T13:16:11Z</time>
      </trkpt>
      <trkpt lat="43.85599" lon="7.21661">
        <ele>503</ele>
        <time>2015-05-02T13:16:19Z</time>
      </trkpt>
      <trkpt lat="43.85613" lon="7.21656">
        <ele>504.5</ele>
        <time>2015-05-02T13:16:26Z</time>
      </trkpt>
      <trkpt lat="43.8562" lon="7.21649">
        <ele>506.5</ele>
        <time>2015-05-02T13:16:31Z</time>
      </trkpt>
      <trkpt lat="43.85628" lon="7.2164">
        <ele>508.7</ele>
        <time>2015-05-02T13:16:36Z</time>
      </trkpt>
      <trkpt lat="43.85635" lon="7.21631">
        <ele>508.9</ele>
        <time>2015-05-02T13:16:42Z</time>
      </trkpt>
      <trkpt lat="43.85642" lon="7.21622">
        <ele>510.7</ele>
        <time>2015-05-02T13:16:48Z</time>
      </trkpt>
      <trkpt lat="43.85646" lon="7.21611">
        <ele>511.8</ele>
        <time>2015-05-02T13:16:54Z</time>
      </trkpt>
      <trkpt lat="43.85652" lon="7.216">
        <ele>513.2</ele>
        <time>2015-05-02T13:17:05Z</time>
      </trkpt>
      <trkpt lat="43.85658" lon="7.2159">
        <ele>516.4</ele>
        <time>2015-05-02T13:17:16Z</time>
      </trkpt>
      <trkpt lat="43.85663" lon="7.21578">
        <ele>517.8</ele>
        <time>2015-05-02T13:17:27Z</time>
      </trkpt>
      <trkpt lat="43.85668" lon="7.21567">
        <ele>519.1</ele>
        <time>2015-05-02T13:17:37Z</time>
      </trkpt>
      <trkpt lat="43.85672" lon="7.21555">
        <ele>521</ele>
        <time>2015-05-02T13:17:49Z</time>
      </trkpt>
      <trkpt lat="43.85678" lon="7.21544">
        <ele>522</ele>
        <time>2015-05-02T13:18:08Z</time>
      </trkpt>
      <trkpt lat="43.85681" lon="7.21532">
        <ele>523.6</ele>
        <time>2015-05-02T13:18:19Z</time>
      </trkpt>
      <trkpt lat="43.85686" lon="7.2152">
        <ele>526</ele>
        <time>2015-05-02T13:18:30Z</time>
      </trkpt>
      <trkpt lat="43.85691" lon="7.21509">
        <ele>528.3</ele>
        <time>2015-05-02T13:18:42Z</time>
      </trkpt>
      <trkpt lat="43.85695" lon="7.21498">
        <ele>529.6</ele>
        <time>2015-05-02T13:18:52Z</time>
      </trkpt>
      <trkpt lat="43.85699" lon="7.21485">
        <ele>531.9</ele>
        <time>2015-05-02T13:19:03Z</time>
      </trkpt>
      <trkpt lat="43.85704" lon="7.21475">
        <ele>532.6</ele>
        <time>2015-05-02T13:19:13Z</time>
      </trkpt>
      <trkpt lat="43.85694" lon="7.21474">
        <ele>536.6</ele>
        <time>2015-05-02T13:19:28Z</time>
      </trkpt>
      <trkpt lat="43.85696" lon="7.21461">
        <ele>537.7</ele>
        <time>2015-05-02T13:19:41Z</time>
      </trkpt>
      <trkpt lat="43.85702" lon="7.2145">
        <ele>539.2</ele>
        <time>2015-05-02T13:19:51Z</time>
      </trkpt>
      <trkpt lat="43.85707" lon="7.21439">
        <ele>541.5</ele>
        <time>2015-05-02T13:20:01Z</time>
      </trkpt>
      <trkpt lat="43.85698" lon="7.21437">
        <ele>544.9</ele>
        <time>2015-05-02T13:21:08Z</time>
      </trkpt>
      <trkpt lat="43.85705" lon="7.21427">
        <ele>544.8</ele>
        <time>2015-05-02T13:21:51Z</time>
      </trkpt>
      <trkpt lat="43.8571" lon="7.21415">
        <ele>546.8</ele>
        <time>2015-05-02T13:22:01Z</time>
      </trkpt>
      <trkpt lat="43.85713" lon="7.21403">
        <ele>548.4</ele>
        <time>2015-05-02T13:22:10Z</time>
      </trkpt>
      <trkpt lat="43.85717" lon="7.21391">
        <ele>551.7</ele>
        <time>2015-05-02T13:22:20Z</time>
      </trkpt>
      <trkpt lat="43.85721" lon="7.2138">
        <ele>551.3</ele>
        <time>2015-05-02T13:22:30Z</time>
      </trkpt>
      <trkpt lat="43.85722" lon="7.21366">
        <ele>553.8</ele>
        <time>2015-05-02T13:22:40Z</time>
      </trkpt>
      <trkpt lat="43.85722" lon="7.21352">
        <ele>555.3</ele>
        <time>2015-05-02T13:22:49Z</time>
      </trkpt>
      <trkpt lat="43.85721" lon="7.21338">
        <ele>556.2</ele>
        <time>2015-05-02T13:22:56Z</time>
      </trkpt>
      <trkpt lat="43.85718" lon="7.21326">
        <ele>556.5</ele>
        <time>2015-05-02T13:23:14Z</time>
      </trkpt>
      <trkpt lat="43.85715" lon="7.21314">
        <ele>556.4</ele>
        <time>2015-05-02T13:23:37Z</time>
      </trkpt>
      <trkpt lat="43.85709" lon="7.21302">
        <ele>555.5</ele>
        <time>2015-05-02T13:28:51Z</time>
      </trkpt>
      <trkpt lat="43.85704" lon="7.21291">
        <ele>554.6</ele>
        <time>2015-05-02T13:28:55Z</time>
      </trkpt>
      <trkpt lat="43.85702" lon="7.21277">
        <ele>552.9</ele>
        <time>2015-05-02T13:28:59Z</time>
      </trkpt>
      <trkpt lat="43.85698" lon="7.21259">
        <ele>552.1</ele>
        <time>2015-05-02T13:29:02Z</time>
      </trkpt>
      <trkpt lat="43.85693" lon="7.21242">
        <ele>551.2</ele>
        <time>2015-05-02T13:29:04Z</time>
      </trkpt>
      <trkpt lat="43.8569" lon="7.21225">
        <ele>550.7</ele>
        <time>2015-05-02T13:29:06Z</time>
      </trkpt>
      <trkpt lat="43.85691" lon="7.21212">
        <ele>549.5</ele>
        <time>2015-05-02T13:29:08Z</time>
      </trkpt>
      <trkpt lat="43.857" lon="7.21198">
        <ele>548.3</ele>
        <time>2015-05-02T13:29:11Z</time>
      </trkpt>
      <trkpt lat="43.85707" lon="7.21187">
        <ele>546.2</ele>
        <time>2015-05-02T13:29:14Z</time>
      </trkpt>
      <trkpt lat="43.85714" lon="7.21176">
        <ele>543.2</ele>
        <time>2015-05-02T13:29:18Z</time>
      </trkpt>
      <trkpt lat="43.85718" lon="7.21164">
        <ele>540.5</ele>
        <time>2015-05-02T13:29:23Z</time>
      </trkpt>
      <trkpt lat="43.85715" lon="7.21152">
        <ele>537.8</ele>
        <time>2015-05-02T13:29:28Z</time>
      </trkpt>
      <trkpt lat="43.8571" lon="7.21141">
        <ele>535.2</ele>
        <time>2015-05-02T13:29:31Z</time>
      </trkpt>
      <trkpt lat="43.85703" lon="7.2113">
        <ele>533</ele>
        <time>2015-05-02T13:29:35Z</time>
      </trkpt>
      <trkpt lat="43.85712" lon="7.21125">
        <ele>528.2</ele>
        <time>2015-05-02T13:29:43Z</time>
      </trkpt>
      <trkpt lat="43.85707" lon="7.21114">
        <ele>526.2</ele>
        <time>2015-05-02T13:29:47Z</time>
      </trkpt>
      <trkpt lat="43.85699" lon="7.21101">
        <ele>523.7</ele>
        <time>2015-05-02T13:29:51Z</time>
      </trkpt>
      <trkpt lat="43.85693" lon="7.21087">
        <ele>521</ele>
        <time>2015-05-02T13:29:55Z</time>
      </trkpt>
      <trkpt lat="43.8569" lon="7.21074">
        <ele>518.9</ele>
        <time>2015-05-02T13:29:58Z</time>
      </trkpt>
      <trkpt lat="43.85684" lon="7.2106">
        <ele>517.8</ele>
        <time>2015-05-02T13:30:01Z</time>
      </trkpt>
      <trkpt lat="43.85681" lon="7.21042">
        <ele>514.1</ele>
        <time>2015-05-02T13:30:04Z</time>
      </trkpt>
      <trkpt lat="43.8568" lon="7.21025">
        <ele>510.7</ele>
        <time>2015-05-02T13:30:07Z</time>
      </trkpt>
      <trkpt lat="43.85681" lon="7.21012">
        <ele>509</ele>
        <time>2015-05-02T13:30:09Z</time>
      </trkpt>
      <trkpt lat="43.85684" lon="7.20996">
        <ele>507.5</ele>
        <time>2015-05-02T13:30:11Z</time>
      </trkpt>
      <trkpt lat="43.85687" lon="7.20979">
        <ele>506.4</ele>
        <time>2015-05-02T13:30:13Z</time>
      </trkpt>
      <trkpt lat="43.85692" lon="7.20963">
        <ele>504.9</ele>
        <time>2015-05-02T13:30:15Z</time>
      </trkpt>
      <trkpt lat="43.85697" lon="7.20948">
        <ele>504</ele>
        <time>2015-05-02T13:30:17Z</time>
      </trkpt>
      <trkpt lat="43.85701" lon="7.20932">
        <ele>503.5</ele>
        <time>2015-05-02T13:30:19Z</time>
      </trkpt>
      <trkpt lat="43.85704" lon="7.20918">
        <ele>502.6</ele>
        <time>2015-05-02T13:30:21Z</time>
      </trkpt>
      <trkpt lat="43.85705" lon="7.20905">
        <ele>502.1</ele>
        <time>2015-05-02T13:30:23Z</time>
      </trkpt>
      <trkpt lat="43.85706" lon="7.20892">
        <ele>502.1</ele>
        <time>2015-05-02T13:30:26Z</time>
      </trkpt>
      <trkpt lat="43.85706" lon="7.20879">
        <ele>502.8</ele>
        <time>2015-05-02T13:30:31Z</time>
      </trkpt>
      <trkpt lat="43.85707" lon="7.20866">
        <ele>503.3</ele>
        <time>2015-05-02T13:30:35Z</time>
      </trkpt>
      <trkpt lat="43.85708" lon="7.20854">
        <ele>503.3</ele>
        <time>2015-05-02T13:30:53Z</time>
      </trkpt>
      <trkpt lat="43.85707" lon="7.20839">
        <ele>504.7</ele>
        <time>2015-05-02T13:31:25Z</time>
      </trkpt>
      <trkpt lat="43.85703" lon="7.20826">
        <ele>505.1</ele>
        <time>2015-05-02T13:31:29Z</time>
      </trkpt>
      <trkpt lat="43.85696" lon="7.20816">
        <ele>506.2</ele>
        <time>2015-05-02T13:31:34Z</time>
      </trkpt>
      <trkpt lat="43.85686" lon="7.20812">
        <ele>506</ele>
        <time>2015-05-02T13:31:38Z</time>
      </trkpt>
      <trkpt lat="43.85674" lon="7.20809">
        <ele>505.2</ele>
        <time>2015-05-02T13:31:42Z</time>
      </trkpt>
      <trkpt lat="43.85662" lon="7.20806">
        <ele>504.2</ele>
        <time>2015-05-02T13:31:45Z</time>
      </trkpt>
      <trkpt lat="43.85651" lon="7.20805">
        <ele>503.7</ele>
        <time>2015-05-02T13:31:47Z</time>
      </trkpt>
      <trkpt lat="43.85637" lon="7.20801">
        <ele>502.3</ele>
        <time>2015-05-02T13:31:50Z</time>
      </trkpt>
      <trkpt lat="43.85628" lon="7.20799">
        <ele>500.9</ele>
        <time>2015-05-02T13:31:52Z</time>
      </trkpt>
      <trkpt lat="43.85618" lon="7.20796">
        <ele>499.4</ele>
        <time>2015-05-02T13:31:55Z</time>
      </trkpt>
      <trkpt lat="43.85609" lon="7.20792">
        <ele>496.1</ele>
        <time>2015-05-02T13:32:10Z</time>
      </trkpt>
      <trkpt lat="43.85599" lon="7.20789">
        <ele>494.3</ele>
        <time>2015-05-02T13:32:20Z</time>
      </trkpt>
      <trkpt lat="43.8559" lon="7.20788">
        <ele>492.5</ele>
        <time>2015-05-02T13:32:24Z</time>
      </trkpt>
      <trkpt lat="43.85593" lon="7.20774">
        <ele>490</ele>
        <time>2015-05-02T13:32:32Z</time>
      </trkpt>
      <trkpt lat="43.85581" lon="7.20777">
        <ele>488.2</ele>
        <time>2015-05-02T13:32:37Z</time>
      </trkpt>
      <trkpt lat="43.85572" lon="7.20789">
        <ele>487.6</ele>
        <time>2015-05-02T13:32:40Z</time>
      </trkpt>
      <trkpt lat="43.85567" lon="7.20802">
        <ele>485.6</ele>
        <time>2015-05-02T13:32:42Z</time>
      </trkpt>
      <trkpt lat="43.85561" lon="7.20814">
        <ele>484.6</ele>
        <time>2015-05-02T13:32:44Z</time>
      </trkpt>
      <trkpt lat="43.85557" lon="7.20825">
        <ele>483.3</ele>
        <time>2015-05-02T13:32:46Z</time>
      </trkpt>
      <trkpt lat="43.85551" lon="7.20814">
        <ele>478.3</ele>
        <time>2015-05-02T13:32:55Z</time>
      </trkpt>
      <trkpt lat="43.85545" lon="7.208">
        <ele>476.1</ele>
        <time>2015-05-02T13:32:59Z</time>
      </trkpt>
      <trkpt lat="43.8554" lon="7.20789">
        <ele>475.1</ele>
        <time>2015-05-02T13:33:02Z</time>
      </trkpt>
      <trkpt lat="43.85535" lon="7.20775">
        <ele>474.2</ele>
        <time>2015-05-02T13:33:06Z</time>
      </trkpt>
      <trkpt lat="43.85529" lon="7.20761">
        <ele>474</ele>
        <time>2015-05-02T13:33:10Z</time>
      </trkpt>
      <trkpt lat="43.85524" lon="7.20749">
        <ele>474</ele>
        <time>2015-05-02T13:33:13Z</time>
      </trkpt>
      <trkpt lat="43.8552" lon="7.20736">
        <ele>474.4</ele>
        <time>2015-05-02T13:33:16Z</time>
      </trkpt>
      <trkpt lat="43.85514" lon="7.20721">
        <ele>474.7</ele>
        <time>2015-05-02T13:33:19Z</time>
      </trkpt>
      <trkpt lat="43.85509" lon="7.2071">
        <ele>473.8</ele>
        <time>2015-05-02T13:33:21Z</time>
      </trkpt>
      <trkpt lat="43.85503" lon="7.20699">
        <ele>472.6</ele>
        <time>2015-05-02T13:33:23Z</time>
      </trkpt>
      <trkpt lat="43.85497" lon="7.20689">
        <ele>472.6</ele>
        <time>2015-05-02T13:33:25Z</time>
      </trkpt>
      <trkpt lat="43.85492" lon="7.20677">
        <ele>472.4</ele>
        <time>2015-05-02T13:33:27Z</time>
      </trkpt>
      <trkpt lat="43.85495" lon="7.20665">
        <ele>470.1</ele>
        <time>2015-05-02T13:33:30Z</time>
      </trkpt>
      <trkpt lat="43.85504" lon="7.20658">
        <ele>470</ele>
        <time>2015-05-02T13:33:34Z</time>
      </trkpt>
      <trkpt lat="43.85514" lon="7.2065">
        <ele>471.3</ele>
        <time>2015-05-02T13:33:38Z</time>
      </trkpt>
      <trkpt lat="43.85521" lon="7.20642">
        <ele>471.7</ele>
        <time>2015-05-02T13:33:41Z</time>
      </trkpt>
      <trkpt lat="43.85528" lon="7.20633">
        <ele>472.7</ele>
        <time>2015-05-02T13:33:44Z</time>
      </trkpt>
      <trkpt lat="43.85535" lon="7.20625">
        <ele>474.5</ele>
        <time>2015-05-02T13:33:47Z</time>
      </trkpt>
      <trkpt lat="43.85547" lon="7.20613">
        <ele>473</ele>
        <time>2015-05-02T13:33:51Z</time>
      </trkpt>
      <trkpt lat="43.85556" lon="7.20607">
        <ele>473.9</ele>
        <time>2015-05-02T13:33:55Z</time>
      </trkpt>
      <trkpt lat="43.85567" lon="7.20599">
        <ele>474.6</ele>
        <time>2015-05-02T13:33:59Z</time>
      </trkpt>
      <trkpt lat="43.85577" lon="7.20592">
        <ele>475.5</ele>
        <time>2015-05-02T13:34:03Z</time>
      </trkpt>
      <trkpt lat="43.85585" lon="7.20585">
        <ele>474.9</ele>
        <time>2015-05-02T13:34:07Z</time>
      </trkpt>
      <trkpt lat="43.85593" lon="7.20576">
        <ele>474.5</ele>
        <time>2015-05-02T13:34:13Z</time>
      </trkpt>
      <trkpt lat="43.85601" lon="7.2057">
        <ele>475</ele>
        <time>2015-05-02T13:34:29Z</time>
      </trkpt>
      <trkpt lat="43.85609" lon="7.20561">
        <ele>475.7</ele>
        <time>2015-05-02T13:34:47Z</time>
      </trkpt>
      <trkpt lat="43.85616" lon="7.20552">
        <ele>475.8</ele>
        <time>2015-05-02T13:34:50Z</time>
      </trkpt>
      <trkpt lat="43.85623" lon="7.20542">
        <ele>476.3</ele>
        <time>2015-05-02T13:34:53Z</time>
      </trkpt>
      <trkpt lat="43.85631" lon="7.20531">
        <ele>476.2</ele>
        <time>2015-05-02T13:34:57Z</time>
      </trkpt>
      <trkpt lat="43.85638" lon="7.20522">
        <ele>476.8</ele>
        <time>2015-05-02T13:35:01Z</time>
      </trkpt>
      <trkpt lat="43.85647" lon="7.20512">
        <ele>477.4</ele>
        <time>2015-05-02T13:35:05Z</time>
      </trkpt>
      <trkpt lat="43.85655" lon="7.20506">
        <ele>476.8</ele>
        <time>2015-05-02T13:35:08Z</time>
      </trkpt>
      <trkpt lat="43.85663" lon="7.205">
        <ele>477.5</ele>
        <time>2015-05-02T13:35:11Z</time>
      </trkpt>
      <trkpt lat="43.85672" lon="7.20494">
        <ele>476.7</ele>
        <time>2015-05-02T13:35:14Z</time>
      </trkpt>
      <trkpt lat="43.85681" lon="7.20487">
        <ele>476.4</ele>
        <time>2015-05-02T13:35:17Z</time>
      </trkpt>
      <trkpt lat="43.85689" lon="7.20481">
        <ele>476.8</ele>
        <time>2015-05-02T13:35:20Z</time>
      </trkpt>
      <trkpt lat="43.857" lon="7.20475">
        <ele>477.3</ele>
        <time>2015-05-02T13:35:23Z</time>
      </trkpt>
      <trkpt lat="43.8571" lon="7.20471">
        <ele>477.8</ele>
        <time>2015-05-02T13:35:26Z</time>
      </trkpt>
      <trkpt lat="43.8572" lon="7.20466">
        <ele>478.5</ele>
        <time>2015-05-02T13:35:29Z</time>
      </trkpt>
      <trkpt lat="43.85729" lon="7.20461">
        <ele>478.9</ele>
        <time>2015-05-02T13:35:32Z</time>
      </trkpt>
      <trkpt lat="43.85739" lon="7.20455">
        <ele>478.8</ele>
        <time>2015-05-02T13:35:35Z</time>
      </trkpt>
      <trkpt lat="43.8575" lon="7.20449">
        <ele>479.6</ele>
        <time>2015-05-02T13:35:38Z</time>
      </trkpt>
      <trkpt lat="43.8576" lon="7.20446">
        <ele>481</ele>
        <time>2015-05-02T13:35:41Z</time>
      </trkpt>
      <trkpt lat="43.8577" lon="7.20443">
        <ele>481.9</ele>
        <time>2015-05-02T13:35:45Z</time>
      </trkpt>
      <trkpt lat="43.85779" lon="7.20439">
        <ele>482.5</ele>
        <time>2015-05-02T13:35:49Z</time>
      </trkpt>
      <trkpt lat="43.85789" lon="7.20433">
        <ele>483</ele>
        <time>2015-05-02T13:35:54Z</time>
      </trkpt>
      <trkpt lat="43.85796" lon="7.20424">
        <ele>484</ele>
        <time>2015-05-02T13:36:28Z</time>
      </trkpt>
      <trkpt lat="43.85801" lon="7.20411">
        <ele>483.4</ele>
        <time>2015-05-02T13:36:32Z</time>
      </trkpt>
      <trkpt lat="43.85804" lon="7.20396">
        <ele>483.4</ele>
        <time>2015-05-02T13:36:36Z</time>
      </trkpt>
      <trkpt lat="43.85804" lon="7.20383">
        <ele>483.4</ele>
        <time>2015-05-02T13:36:40Z</time>
      </trkpt>
      <trkpt lat="43.85799" lon="7.2037">
        <ele>482.3</ele>
        <time>2015-05-02T13:36:45Z</time>
      </trkpt>
      <trkpt lat="43.85793" lon="7.2036">
        <ele>481.3</ele>
        <time>2015-05-02T13:36:49Z</time>
      </trkpt>
      <trkpt lat="43.85783" lon="7.20352">
        <ele>480.9</ele>
        <time>2015-05-02T13:36:53Z</time>
      </trkpt>
      <trkpt lat="43.85776" lon="7.20341">
        <ele>480.9</ele>
        <time>2015-05-02T13:36:56Z</time>
      </trkpt>
      <trkpt lat="43.85769" lon="7.20334">
        <ele>480.5</ele>
        <time>2015-05-02T13:37:44Z</time>
      </trkpt>
      <trkpt lat="43.85764" lon="7.20323">
        <ele>477</ele>
        <time>2015-05-02T13:38:10Z</time>
      </trkpt>
      <trkpt lat="43.85759" lon="7.2031">
        <ele>475.3</ele>
        <time>2015-05-02T13:38:24Z</time>
      </trkpt>
      <trkpt lat="43.85754" lon="7.20298">
        <ele>475.2</ele>
        <time>2015-05-02T13:38:28Z</time>
      </trkpt>
      <trkpt lat="43.85753" lon="7.20283">
        <ele>473.5</ele>
        <time>2015-05-02T13:38:32Z</time>
      </trkpt>
      <trkpt lat="43.85754" lon="7.20269">
        <ele>472.2</ele>
        <time>2015-05-02T13:38:36Z</time>
      </trkpt>
      <trkpt lat="43.8576" lon="7.20278">
        <ele>467.1</ele>
        <time>2015-05-02T13:38:49Z</time>
      </trkpt>
      <trkpt lat="43.85764" lon="7.2029">
        <ele>463.9</ele>
        <time>2015-05-02T13:39:01Z</time>
      </trkpt>
      <trkpt lat="43.85769" lon="7.20301">
        <ele>462.9</ele>
        <time>2015-05-02T13:39:05Z</time>
      </trkpt>
      <trkpt lat="43.85777" lon="7.20308">
        <ele>462</ele>
        <time>2015-05-02T13:39:09Z</time>
      </trkpt>
      <trkpt lat="43.85785" lon="7.20315">
        <ele>459.5</ele>
        <time>2015-05-02T13:39:13Z</time>
      </trkpt>
      <trkpt lat="43.85794" lon="7.2032">
        <ele>456.9</ele>
        <time>2015-05-02T13:39:17Z</time>
      </trkpt>
      <trkpt lat="43.85804" lon="7.20325">
        <ele>455.3</ele>
        <time>2015-05-02T13:39:21Z</time>
      </trkpt>
      <trkpt lat="43.85814" lon="7.20324">
        <ele>454.3</ele>
        <time>2015-05-02T13:39:25Z</time>
      </trkpt>
      <trkpt lat="43.85824" lon="7.20328">
        <ele>451</ele>
        <time>2015-05-02T13:39:30Z</time>
      </trkpt>
      <trkpt lat="43.85833" lon="7.20332">
        <ele>449.8</ele>
        <time>2015-05-02T13:39:34Z</time>
      </trkpt>
      <trkpt lat="43.85845" lon="7.20334">
        <ele>448.9</ele>
        <time>2015-05-02T13:39:39Z</time>
      </trkpt>
      <trkpt lat="43.85854" lon="7.20338">
        <ele>448.2</ele>
        <time>2015-05-02T13:39:43Z</time>
      </trkpt>
      <trkpt lat="43.85846" lon="7.2033">
        <ele>445.3</ele>
        <time>2015-05-02T13:39:54Z</time>
      </trkpt>
      <trkpt lat="43.85837" lon="7.20325">
        <ele>444.6</ele>
        <time>2015-05-02T13:39:57Z</time>
      </trkpt>
      <trkpt lat="43.85828" lon="7.2032">
        <ele>440.9</ele>
        <time>2015-05-02T13:40:09Z</time>
      </trkpt>
      <trkpt lat="43.85821" lon="7.2031">
        <ele>439</ele>
        <time>2015-05-02T13:40:31Z</time>
      </trkpt>
      <trkpt lat="43.85816" lon="7.20297">
        <ele>438.1</ele>
        <time>2015-05-02T13:40:36Z</time>
      </trkpt>
      <trkpt lat="43.85811" lon="7.20285">
        <ele>436.2</ele>
        <time>2015-05-02T13:40:40Z</time>
      </trkpt>
      <trkpt lat="43.8582" lon="7.20289">
        <ele>431.7</ele>
        <time>2015-05-02T13:40:54Z</time>
      </trkpt>
      <trkpt lat="43.85831" lon="7.20292">
        <ele>429.2</ele>
        <time>2015-05-02T13:40:59Z</time>
      </trkpt>
      <trkpt lat="43.8584" lon="7.20295">
        <ele>426.4</ele>
        <time>2015-05-02T13:41:04Z</time>
      </trkpt>
      <trkpt lat="43.85849" lon="7.20292">
        <ele>423.6</ele>
        <time>2015-05-02T13:41:09Z</time>
      </trkpt>
      <trkpt lat="43.85858" lon="7.20287">
        <ele>419.7</ele>
        <time>2015-05-02T13:41:36Z</time>
      </trkpt>
      <trkpt lat="43.85849" lon="7.20283">
        <ele>419.3</ele>
        <time>2015-05-02T13:43:02Z</time>
      </trkpt>
      <trkpt lat="43.85839" lon="7.20279">
        <ele>416.5</ele>
        <time>2015-05-02T13:43:07Z</time>
      </trkpt>
      <trkpt lat="43.85832" lon="7.2027">
        <ele>414.2</ele>
        <time>2015-05-02T13:43:11Z</time>
      </trkpt>
      <trkpt lat="43.85824" lon="7.20263">
        <ele>413</ele>
        <time>2015-05-02T13:43:15Z</time>
      </trkpt>
      <trkpt lat="43.85834" lon="7.20265">
        <ele>408</ele>
        <time>2015-05-02T13:43:37Z</time>
      </trkpt>
      <trkpt lat="43.85831" lon="7.20251">
        <ele>403.6</ele>
        <time>2015-05-02T13:43:46Z</time>
      </trkpt>
      <trkpt lat="43.85841" lon="7.20251">
        <ele>397.5</ele>
        <time>2015-05-02T13:44:03Z</time>
      </trkpt>
      <trkpt lat="43.85835" lon="7.20239">
        <ele>393.5</ele>
        <time>2015-05-02T13:44:39Z</time>
      </trkpt>
      <trkpt lat="43.85829" lon="7.20227">
        <ele>393.5</ele>
        <time>2015-05-02T13:44:44Z</time>
      </trkpt>
      <trkpt lat="43.85824" lon="7.20215">
        <ele>391.7</ele>
        <time>2015-05-02T13:44:48Z</time>
      </trkpt>
      <trkpt lat="43.85816" lon="7.20209">
        <ele>390.6</ele>
        <time>2015-05-02T13:44:52Z</time>
      </trkpt>
      <trkpt lat="43.85808" lon="7.20201">
        <ele>388.5</ele>
        <time>2015-05-02T13:44:57Z</time>
      </trkpt>
      <trkpt lat="43.85802" lon="7.20192">
        <ele>383.1</ele>
        <time>2015-05-02T13:45:21Z</time>
      </trkpt>
      <trkpt lat="43.85796" lon="7.20178">
        <ele>383.2</ele>
        <time>2015-05-02T13:45:28Z</time>
      </trkpt>
      <trkpt lat="43.85791" lon="7.20168">
        <ele>380</ele>
        <time>2015-05-02T13:45:42Z</time>
      </trkpt>
      <trkpt lat="43.85785" lon="7.20158">
        <ele>379.4</ele>
        <time>2015-05-02T13:45:56Z</time>
      </trkpt>
      <trkpt lat="43.85779" lon="7.20148">
        <ele>378.2</ele>
        <time>2015-05-02T13:46:23Z</time>
      </trkpt>
      <trkpt lat="43.85769" lon="7.20151">
        <ele>377.2</ele>
        <time>2015-05-02T13:47:25Z</time>
      </trkpt>
      <trkpt lat="43.8576" lon="7.20152">
        <ele>376.2</ele>
        <time>2015-05-02T13:47:28Z</time>
      </trkpt>
      <trkpt lat="43.8575" lon="7.20148">
        <ele>374.1</ele>
        <time>2015-05-02T13:47:32Z</time>
      </trkpt>
      <trkpt lat="43.85741" lon="7.20146">
        <ele>369.5</ele>
        <time>2015-05-02T13:47:41Z</time>
      </trkpt>
      <trkpt lat="43.85749" lon="7.2014">
        <ele>366.4</ele>
        <time>2015-05-02T13:48:04Z</time>
      </trkpt>
      <trkpt lat="43.85758" lon="7.20138">
        <ele>365.8</ele>
        <time>2015-05-02T13:48:09Z</time>
      </trkpt>
      <trkpt lat="43.85767" lon="7.20134">
        <ele>363.3</ele>
        <time>2015-05-02T13:48:16Z</time>
      </trkpt>
      <trkpt lat="43.85758" lon="7.20129">
        <ele>360.4</ele>
        <time>2015-05-02T13:48:27Z</time>
      </trkpt>
      <trkpt lat="43.85749" lon="7.20125">
        <ele>358.4</ele>
        <time>2015-05-02T13:48:32Z</time>
      </trkpt>
      <trkpt lat="43.85739" lon="7.20122">
        <ele>355.9</ele>
        <time>2015-05-02T13:48:37Z</time>
      </trkpt>
      <trkpt lat="43.85729" lon="7.20118">
        <ele>352.3</ele>
        <time>2015-05-02T13:48:42Z</time>
      </trkpt>
      <trkpt lat="43.85719" lon="7.20118">
        <ele>351</ele>
        <time>2015-05-02T13:48:46Z</time>
      </trkpt>
      <trkpt lat="43.8571" lon="7.20113">
        <ele>347.6</ele>
        <time>2015-05-02T13:48:52Z</time>
      </trkpt>
      <trkpt lat="43.85719" lon="7.20107">
        <ele>345.1</ele>
        <time>2015-05-02T13:48:58Z</time>
      </trkpt>
      <trkpt lat="43.85728" lon="7.20103">
        <ele>342</ele>
        <time>2015-05-02T13:49:03Z</time>
      </trkpt>
      <trkpt lat="43.8574" lon="7.20096">
        <ele>338.7</ele>
        <time>2015-05-02T13:49:12Z</time>
      </trkpt>
      <trkpt lat="43.8575" lon="7.2009">
        <ele>335.2</ele>
        <time>2015-05-02T13:49:17Z</time>
      </trkpt>
      <trkpt lat="43.8576" lon="7.20088">
        <ele>331.6</ele>
        <time>2015-05-02T13:49:29Z</time>
      </trkpt>
      <trkpt lat="43.8577" lon="7.20086">
        <ele>330.6</ele>
        <time>2015-05-02T13:49:37Z</time>
      </trkpt>
      <trkpt lat="43.85779" lon="7.20083">
        <ele>329.6</ele>
        <time>2015-05-02T13:49:40Z</time>
      </trkpt>
      <trkpt lat="43.85788" lon="7.20084">
        <ele>326.8</ele>
        <time>2015-05-02T13:49:44Z</time>
      </trkpt>
      <trkpt lat="43.85798" lon="7.20083">
        <ele>324.3</ele>
        <time>2015-05-02T13:49:48Z</time>
      </trkpt>
      <trkpt lat="43.85807" lon="7.20085">
        <ele>319.8</ele>
        <time>2015-05-02T13:50:02Z</time>
      </trkpt>
      <trkpt lat="43.85816" lon="7.20077">
        <ele>315</ele>
        <time>2015-05-02T13:50:56Z</time>
      </trkpt>
      <trkpt lat="43.85826" lon="7.20079">
        <ele>314.2</ele>
        <time>2015-05-02T13:51:00Z</time>
      </trkpt>
      <trkpt lat="43.85835" lon="7.2008">
        <ele>312.5</ele>
        <time>2015-05-02T13:51:04Z</time>
      </trkpt>
      <trkpt lat="43.85845" lon="7.20084">
        <ele>309.6</ele>
        <time>2015-05-02T13:51:09Z</time>
      </trkpt>
      <trkpt lat="43.8584" lon="7.20072">
        <ele>306.9</ele>
        <time>2015-05-02T13:51:19Z</time>
      </trkpt>
      <trkpt lat="43.85838" lon="7.20059">
        <ele>300.3</ele>
        <time>2015-05-02T13:52:04Z</time>
      </trkpt>
      <trkpt lat="43.85833" lon="7.20048">
        <ele>299.7</ele>
        <time>2015-05-02T13:52:09Z</time>
      </trkpt>
      <trkpt lat="43.85823" lon="7.20039">
        <ele>297.4</ele>
        <time>2015-05-02T13:52:13Z</time>
      </trkpt>
      <trkpt lat="43.8583" lon="7.20027">
        <ele>292.2</ele>
        <time>2015-05-02T13:52:30Z</time>
      </trkpt>
      <trkpt lat="43.85821" lon="7.20021">
        <ele>289.7</ele>
        <time>2015-05-02T13:52:39Z</time>
      </trkpt>
      <trkpt lat="43.85813" lon="7.20011">
        <ele>288</ele>
        <time>2015-05-02T13:52:44Z</time>
      </trkpt>
      <trkpt lat="43.85803" lon="7.20001">
        <ele>285.8</ele>
        <time>2015-05-02T13:52:48Z</time>
      </trkpt>
      <trkpt lat="43.85797" lon="7.19993">
        <ele>282.9</ele>
        <time>2015-05-02T13:52:53Z</time>
      </trkpt>
      <trkpt lat="43.85801" lon="7.1998">
        <ele>276</ele>
        <time>2015-05-02T13:54:29Z</time>
      </trkpt>
      <trkpt lat="43.85795" lon="7.19968">
        <ele>273.6</ele>
        <time>2015-05-02T13:54:41Z</time>
      </trkpt>
      <trkpt lat="43.85794" lon="7.19955">
        <ele>267</ele>
        <time>2015-05-02T13:54:54Z</time>
      </trkpt>
      <trkpt lat="43.85785" lon="7.1995">
        <ele>265.1</ele>
        <time>2015-05-02T13:54:59Z</time>
      </trkpt>
      <trkpt lat="43.85796" lon="7.19942">
        <ele>262.3</ele>
        <time>2015-05-02T13:55:08Z</time>
      </trkpt>
      <trkpt lat="43.85808" lon="7.19941">
        <ele>260.5</ele>
        <time>2015-05-02T13:55:11Z</time>
      </trkpt>
      <trkpt lat="43.85806" lon="7.19928">
        <ele>254.8</ele>
        <time>2015-05-02T13:55:20Z</time>
      </trkpt>
      <trkpt lat="43.858" lon="7.19916">
        <ele>250.3</ele>
        <time>2015-05-02T13:55:32Z</time>
      </trkpt>
      <trkpt lat="43.85804" lon="7.19904">
        <ele>246</ele>
        <time>2015-05-02T13:55:42Z</time>
      </trkpt>
      <trkpt lat="43.85795" lon="7.19897">
        <ele>244.1</ele>
        <time>2015-05-02T13:55:49Z</time>
      </trkpt>
      <trkpt lat="43.85783" lon="7.19899">
        <ele>241.7</ele>
        <time>2015-05-02T13:55:54Z</time>
      </trkpt>
      <trkpt lat="43.85774" lon="7.19893">
        <ele>234.2</ele>
        <time>2015-05-02T13:56:08Z</time>
      </trkpt>
      <trkpt lat="43.85764" lon="7.19892">
        <ele>233.9</ele>
        <time>2015-05-02T13:56:11Z</time>
      </trkpt>
      <trkpt lat="43.85753" lon="7.19887">
        <ele>232.9</ele>
        <time>2015-05-02T13:56:14Z</time>
      </trkpt>
      <trkpt lat="43.85745" lon="7.1988">
        <ele>231.7</ele>
        <time>2015-05-02T13:56:17Z</time>
      </trkpt>
      <trkpt lat="43.85745" lon="7.19867">
        <ele>226.2</ele>
        <time>2015-05-02T13:56:29Z</time>
      </trkpt>
      <trkpt lat="43.85741" lon="7.19856">
        <ele>220.7</ele>
        <time>2015-05-02T13:56:41Z</time>
      </trkpt>
      <trkpt lat="43.85731" lon="7.19855">
        <ele>220.1</ele>
        <time>2015-05-02T13:56:45Z</time>
      </trkpt>
      <trkpt lat="43.85724" lon="7.19847">
        <ele>213.1</ele>
        <time>2015-05-02T13:57:05Z</time>
      </trkpt>
      <trkpt lat="43.85729" lon="7.19837">
        <ele>211.6</ele>
        <time>2015-05-02T13:57:21Z</time>
      </trkpt>
      <trkpt lat="43.85719" lon="7.19835">
        <ele>208</ele>
        <time>2015-05-02T13:57:28Z</time>
      </trkpt>
      <trkpt lat="43.85709" lon="7.19838">
        <ele>206.7</ele>
        <time>2015-05-02T13:57:31Z</time>
      </trkpt>
      <trkpt lat="43.85699" lon="7.1983">
        <ele>205.1</ele>
        <time>2015-05-02T13:57:34Z</time>
      </trkpt>
      <trkpt lat="43.85688" lon="7.19827">
        <ele>203.7</ele>
        <time>2015-05-02T13:57:37Z</time>
      </trkpt>
      <trkpt lat="43.85677" lon="7.19827">
        <ele>202.7</ele>
        <time>2015-05-02T13:57:40Z</time>
      </trkpt>
      <trkpt lat="43.85667" lon="7.1982">
        <ele>200.9</ele>
        <time>2015-05-02T13:57:43Z</time>
      </trkpt>
      <trkpt lat="43.85658" lon="7.19813">
        <ele>200</ele>
        <time>2015-05-02T13:57:45Z</time>
      </trkpt>
      <trkpt lat="43.85653" lon="7.19802">
        <ele>196.3</ele>
        <time>2015-05-02T13:57:49Z</time>
      </trkpt>
      <trkpt lat="43.85661" lon="7.19795">
        <ele>188.3</ele>
        <time>2015-05-02T13:58:33Z</time>
      </trkpt>
      <trkpt lat="43.8567" lon="7.19798">
        <ele>187.2</ele>
        <time>2015-05-02T13:58:51Z</time>
      </trkpt>
      <trkpt lat="43.85661" lon="7.19792">
        <ele>188.4</ele>
        <time>2015-05-02T13:59:41Z</time>
      </trkpt>
      <trkpt lat="43.85653" lon="7.19786">
        <ele>185.8</ele>
        <time>2015-05-02T13:59:56Z</time>
      </trkpt>
      <trkpt lat="43.85644" lon="7.1978">
        <ele>186.6</ele>
        <time>2015-05-02T14:00:03Z</time>
      </trkpt>
      <trkpt lat="43.85649" lon="7.19792">
        <ele>188.5</ele>
        <time>2015-05-02T14:00:43Z</time>
      </trkpt>
      <trkpt lat="43.85658" lon="7.19797">
        <ele>189</ele>
        <time>2015-05-02T14:00:55Z</time>
      </trkpt>
      <trkpt lat="43.85666" lon="7.19802">
        <ele>189.9</ele>
        <time>2015-05-02T14:01:06Z</time>
      </trkpt>
      <trkpt lat="43.85675" lon="7.19805">
        <ele>192.6</ele>
        <time>2015-05-02T14:01:16Z</time>
      </trkpt>
      <trkpt lat="43.85684" lon="7.19805">
        <ele>191.1</ele>
        <time>2015-05-02T14:01:46Z</time>
      </trkpt>
      <trkpt lat="43.85694" lon="7.19808">
        <ele>191</ele>
        <time>2015-05-02T14:02:08Z</time>
      </trkpt>
      <trkpt lat="43.85703" lon="7.19806">
        <ele>190.4</ele>
        <time>2015-05-02T14:02:26Z</time>
      </trkpt>
      <trkpt lat="43.85711" lon="7.19809">
        <ele>190.5</ele>
        <time>2015-05-02T14:03:12Z</time>
      </trkpt>
      <trkpt lat="43.85721" lon="7.19812">
        <ele>191.9</ele>
        <time>2015-05-02T14:03:23Z</time>
      </trkpt>
      <trkpt lat="43.8573" lon="7.1981">
        <ele>193.1</ele>
        <time>2015-05-02T14:03:40Z</time>
      </trkpt>
      <trkpt lat="43.85739" lon="7.19809">
        <ele>191.6</ele>
        <time>2015-05-02T14:03:55Z</time>
      </trkpt>
      <trkpt lat="43.85749" lon="7.19809">
        <ele>191.1</ele>
        <time>2015-05-02T14:04:04Z</time>
      </trkpt>
      <trkpt lat="43.85759" lon="7.19808">
        <ele>190.8</ele>
        <time>2015-05-02T14:04:13Z</time>
      </trkpt>
      <trkpt lat="43.85768" lon="7.19808">
        <ele>189.3</ele>
        <time>2015-05-02T14:04:21Z</time>
      </trkpt>
      <trkpt lat="43.85778" lon="7.19808">
        <ele>189.4</ele>
        <time>2015-05-02T14:04:29Z</time>
      </trkpt>
      <trkpt lat="43.85787" lon="7.19807">
        <ele>189.4</ele>
        <time>2015-05-02T14:04:37Z</time>
      </trkpt>
      <trkpt lat="43.85795" lon="7.19799">
        <ele>188.1</ele>
        <time>2015-05-02T14:05:05Z</time>
      </trkpt>
      <trkpt lat="43.85789" lon="7.19789">
        <ele>184.3</ele>
        <time>2015-05-02T14:05:28Z</time>
      </trkpt>
      <trkpt lat="43.85792" lon="7.19777">
        <ele>178.4</ele>
        <time>2015-05-02T14:05:53Z</time>
      </trkpt>
      <trkpt lat="43.85795" lon="7.19765">
        <ele>174.5</ele>
        <time>2015-05-02T14:06:45Z</time>
      </trkpt>
      <trkpt lat="43.85796" lon="7.19753">
        <ele>171.7</ele>
        <time>2015-05-02T14:07:23Z</time>
      </trkpt>
      <trkpt lat="43.85796" lon="7.1974">
        <ele>169.1</ele>
        <time>2015-05-02T14:07:31Z</time>
      </trkpt>
      <trkpt lat="43.85795" lon="7.19727">
        <ele>166</ele>
        <time>2015-05-02T14:07:41Z</time>
      </trkpt>
      <trkpt lat="43.85798" lon="7.19715">
        <ele>164.1</ele>
        <time>2015-05-02T14:07:49Z</time>
      </trkpt>
      <trkpt lat="43.858" lon="7.19702">
        <ele>162.8</ele>
        <time>2015-05-02T14:07:53Z</time>
      </trkpt>
      <trkpt lat="43.85794" lon="7.19693">
        <ele>159</ele>
        <time>2015-05-02T14:08:07Z</time>
      </trkpt>
      <trkpt lat="43.85785" lon="7.19692">
        <ele>159.5</ele>
        <time>2015-05-02T14:08:10Z</time>
      </trkpt>
      <trkpt lat="43.85775" lon="7.19695">
        <ele>160.5</ele>
        <time>2015-05-02T14:08:13Z</time>
      </trkpt>
      <trkpt lat="43.85765" lon="7.19697">
        <ele>160.8</ele>
        <time>2015-05-02T14:08:17Z</time>
      </trkpt>
      <trkpt lat="43.85755" lon="7.19698">
        <ele>159.8</ele>
        <time>2015-05-02T14:08:22Z</time>
      </trkpt>
      <trkpt lat="43.85746" lon="7.19701">
        <ele>159.3</ele>
        <time>2015-05-02T14:08:26Z</time>
      </trkpt>
      <trkpt lat="43.85735" lon="7.19705">
        <ele>159.2</ele>
        <time>2015-05-02T14:08:30Z</time>
      </trkpt>
      <trkpt lat="43.85729" lon="7.19716">
        <ele>159.6</ele>
        <time>2015-05-02T14:08:35Z</time>
      </trkpt>
      <trkpt lat="43.8573" lon="7.19715">
        <ele>158.9</ele>
        <time>2015-05-02T14:10:12Z</time>
      </trkpt>
    </trkseg>
  </trk>
</gpx>